<?xml version="1.0" encoding="UTF-8" standalone="no" ?>
<gpx xmlns="http://www.topografix.com/GPX/1/1" xmlns:xsi="http://www.w3.org/2001/XMLSchema-instance" xsi:schemaLocation="http://www.topografix.com/GPX/1/1 http://www.topografix.com/GPX/1/1/gpx.xsd" version="1.1" creator="VisuGPX - https://www.visugpx.com">
  <metadata>
    <name>Les balcons du Bugey 2019</name>
  </metadata>
  <trk>
    <name><![CDATA[Les balcons du Bugey]]></name>
    <extensions>
      <line xmlns="http://www.topografix.com/GPX/gpx_style/0/2">
        <color>0000FF</color>
        <width>4</width>
      </line>
    </extensions>
    <trkseg>
      <trkpt lat="45.82395" lon="5.42081">
        <ele>198.7</ele>
        <time>2019-05-01T06:17:12Z</time>
      </trkpt>
      <trkpt lat="45.82382" lon="5.42066">
        <ele>198.4</ele>
        <time>2019-05-01T06:17:19Z</time>
      </trkpt>
      <trkpt lat="45.82375" lon="5.42059">
        <ele>198.3</ele>
        <time>2019-05-01T06:17:23Z</time>
      </trkpt>
      <trkpt lat="45.82368" lon="5.42054">
        <ele>198.2</ele>
        <time>2019-05-01T06:17:26Z</time>
      </trkpt>
      <trkpt lat="45.82352" lon="5.42042">
        <ele>198</ele>
        <time>2019-05-01T06:17:33Z</time>
      </trkpt>
      <trkpt lat="45.82328" lon="5.42029">
        <ele>197.8</ele>
        <time>2019-05-01T06:17:42Z</time>
      </trkpt>
      <trkpt lat="45.82304" lon="5.42025">
        <ele>197.5</ele>
        <time>2019-05-01T06:17:50Z</time>
      </trkpt>
      <trkpt lat="45.82301" lon="5.42026">
        <ele>197.5</ele>
        <time>2019-05-01T06:17:51Z</time>
      </trkpt>
      <trkpt lat="45.82282" lon="5.42029">
        <ele>198.1</ele>
        <time>2019-05-01T06:17:56Z</time>
      </trkpt>
      <trkpt lat="45.82277" lon="5.42029">
        <ele>198.6</ele>
        <time>2019-05-01T06:17:57Z</time>
      </trkpt>
      <trkpt lat="45.8227" lon="5.4203">
        <ele>199.2</ele>
        <time>2019-05-01T06:17:59Z</time>
      </trkpt>
      <trkpt lat="45.82261" lon="5.42027">
        <ele>199.9</ele>
        <time>2019-05-01T06:18:02Z</time>
      </trkpt>
      <trkpt lat="45.82255" lon="5.42018">
        <ele>200.6</ele>
        <time>2019-05-01T06:18:05Z</time>
      </trkpt>
      <trkpt lat="45.82254" lon="5.42013">
        <ele>200.9</ele>
        <time>2019-05-01T06:18:06Z</time>
      </trkpt>
      <trkpt lat="45.82242" lon="5.41993">
        <ele>202.4</ele>
        <time>2019-05-01T06:18:11Z</time>
      </trkpt>
      <trkpt lat="45.82224" lon="5.41974">
        <ele>204.2</ele>
        <time>2019-05-01T06:18:17Z</time>
      </trkpt>
      <trkpt lat="45.82204" lon="5.41953">
        <ele>205.1</ele>
        <time>2019-05-01T06:18:24Z</time>
      </trkpt>
      <trkpt lat="45.82195" lon="5.4195">
        <ele>203.5</ele>
        <time>2019-05-01T06:18:27Z</time>
      </trkpt>
      <trkpt lat="45.82188" lon="5.41954">
        <ele>202.5</ele>
        <time>2019-05-01T06:18:29Z</time>
      </trkpt>
      <trkpt lat="45.82181" lon="5.4196">
        <ele>201.4</ele>
        <time>2019-05-01T06:18:31Z</time>
      </trkpt>
      <trkpt lat="45.82169" lon="5.41972">
        <ele>200</ele>
        <time>2019-05-01T06:18:35Z</time>
      </trkpt>
      <trkpt lat="45.82149" lon="5.41985">
        <ele>198.2</ele>
        <time>2019-05-01T06:18:40Z</time>
      </trkpt>
      <trkpt lat="45.82142" lon="5.41982">
        <ele>198</ele>
        <time>2019-05-01T06:18:42Z</time>
      </trkpt>
      <trkpt lat="45.8213" lon="5.41981">
        <ele>197.8</ele>
        <time>2019-05-01T06:18:46Z</time>
      </trkpt>
      <trkpt lat="45.82117" lon="5.41979">
        <ele>197.8</ele>
        <time>2019-05-01T06:18:49Z</time>
      </trkpt>
      <trkpt lat="45.82105" lon="5.41976">
        <ele>197.7</ele>
        <time>2019-05-01T06:18:52Z</time>
      </trkpt>
      <trkpt lat="45.82074" lon="5.41968">
        <ele>197.2</ele>
        <time>2019-05-01T06:19:00Z</time>
      </trkpt>
      <trkpt lat="45.82055" lon="5.4196">
        <ele>197.2</ele>
        <time>2019-05-01T06:19:05Z</time>
      </trkpt>
      <trkpt lat="45.82048" lon="5.41955">
        <ele>197.4</ele>
        <time>2019-05-01T06:19:07Z</time>
      </trkpt>
      <trkpt lat="45.82026" lon="5.41945">
        <ele>198.4</ele>
        <time>2019-05-01T06:19:13Z</time>
      </trkpt>
      <trkpt lat="45.82022" lon="5.41944">
        <ele>198.6</ele>
        <time>2019-05-01T06:19:14Z</time>
      </trkpt>
      <trkpt lat="45.82001" lon="5.4194">
        <ele>198.9</ele>
        <time>2019-05-01T06:19:19Z</time>
      </trkpt>
      <trkpt lat="45.81993" lon="5.41937">
        <ele>198.9</ele>
        <time>2019-05-01T06:19:21Z</time>
      </trkpt>
      <trkpt lat="45.81977" lon="5.41929">
        <ele>198.7</ele>
        <time>2019-05-01T06:19:25Z</time>
      </trkpt>
      <trkpt lat="45.81973" lon="5.41927">
        <ele>198.7</ele>
        <time>2019-05-01T06:19:26Z</time>
      </trkpt>
      <trkpt lat="45.81951" lon="5.4192">
        <ele>198.7</ele>
        <time>2019-05-01T06:19:31Z</time>
      </trkpt>
      <trkpt lat="45.81927" lon="5.41913">
        <ele>198.9</ele>
        <time>2019-05-01T06:19:36Z</time>
      </trkpt>
      <trkpt lat="45.81917" lon="5.41908">
        <ele>198.9</ele>
        <time>2019-05-01T06:19:38Z</time>
      </trkpt>
      <trkpt lat="45.81868" lon="5.4189">
        <ele>199</ele>
        <time>2019-05-01T06:19:48Z</time>
      </trkpt>
      <trkpt lat="45.81844" lon="5.41871">
        <ele>198.6</ele>
        <time>2019-05-01T06:19:54Z</time>
      </trkpt>
      <trkpt lat="45.81826" lon="5.41866">
        <ele>198.4</ele>
        <time>2019-05-01T06:19:58Z</time>
      </trkpt>
      <trkpt lat="45.81792" lon="5.41843">
        <ele>198.1</ele>
        <time>2019-05-01T06:20:06Z</time>
      </trkpt>
      <trkpt lat="45.81748" lon="5.41812">
        <ele>198.1</ele>
        <time>2019-05-01T06:20:16Z</time>
      </trkpt>
      <trkpt lat="45.81716" lon="5.41792">
        <ele>198.2</ele>
        <time>2019-05-01T06:20:23Z</time>
      </trkpt>
      <trkpt lat="45.81675" lon="5.41765">
        <ele>198</ele>
        <time>2019-05-01T06:20:32Z</time>
      </trkpt>
      <trkpt lat="45.81667" lon="5.41758">
        <ele>198</ele>
        <time>2019-05-01T06:20:34Z</time>
      </trkpt>
      <trkpt lat="45.81659" lon="5.41751">
        <ele>198</ele>
        <time>2019-05-01T06:20:36Z</time>
      </trkpt>
      <trkpt lat="45.81655" lon="5.41748">
        <ele>198</ele>
        <time>2019-05-01T06:20:37Z</time>
      </trkpt>
      <trkpt lat="45.81634" lon="5.41733">
        <ele>198.5</ele>
        <time>2019-05-01T06:20:43Z</time>
      </trkpt>
      <trkpt lat="45.81616" lon="5.41706">
        <ele>201</ele>
        <time>2019-05-01T06:20:49Z</time>
      </trkpt>
      <trkpt lat="45.81611" lon="5.41701">
        <ele>201.6</ele>
        <time>2019-05-01T06:20:50Z</time>
      </trkpt>
      <trkpt lat="45.81605" lon="5.41697">
        <ele>202.2</ele>
        <time>2019-05-01T06:20:51Z</time>
      </trkpt>
      <trkpt lat="45.81604" lon="5.41696">
        <ele>202.4</ele>
        <time>2019-05-01T06:20:53Z</time>
      </trkpt>
      <trkpt lat="45.81603" lon="5.41696">
        <ele>202.5</ele>
        <time>2019-05-01T06:20:54Z</time>
      </trkpt>
      <trkpt lat="45.81597" lon="5.41692">
        <ele>203.1</ele>
        <time>2019-05-01T06:20:58Z</time>
      </trkpt>
      <trkpt lat="45.81589" lon="5.41686">
        <ele>204.2</ele>
        <time>2019-05-01T06:21:02Z</time>
      </trkpt>
      <trkpt lat="45.81586" lon="5.41684">
        <ele>204.6</ele>
        <time>2019-05-01T06:21:03Z</time>
      </trkpt>
      <trkpt lat="45.81561" lon="5.41667">
        <ele>207.6</ele>
        <time>2019-05-01T06:21:10Z</time>
      </trkpt>
      <trkpt lat="45.81554" lon="5.41658">
        <ele>208.7</ele>
        <time>2019-05-01T06:21:13Z</time>
      </trkpt>
      <trkpt lat="45.81555" lon="5.41655">
        <ele>208.9</ele>
        <time>2019-05-01T06:21:14Z</time>
      </trkpt>
      <trkpt lat="45.81564" lon="5.41655">
        <ele>208.2</ele>
        <time>2019-05-01T06:21:18Z</time>
      </trkpt>
      <trkpt lat="45.81575" lon="5.41666">
        <ele>208.3</ele>
        <time>2019-05-01T06:21:22Z</time>
      </trkpt>
      <trkpt lat="45.81581" lon="5.41668">
        <ele>207.5</ele>
        <time>2019-05-01T06:21:24Z</time>
      </trkpt>
      <trkpt lat="45.81585" lon="5.41666">
        <ele>206.5</ele>
        <time>2019-05-01T06:21:26Z</time>
      </trkpt>
      <trkpt lat="45.81589" lon="5.41662">
        <ele>205.5</ele>
        <time>2019-05-01T06:21:27Z</time>
      </trkpt>
      <trkpt lat="45.81593" lon="5.41652">
        <ele>204.5</ele>
        <time>2019-05-01T06:21:29Z</time>
      </trkpt>
      <trkpt lat="45.81593" lon="5.41629">
        <ele>203.5</ele>
        <time>2019-05-01T06:21:33Z</time>
      </trkpt>
      <trkpt lat="45.81591" lon="5.41618">
        <ele>203.6</ele>
        <time>2019-05-01T06:21:35Z</time>
      </trkpt>
      <trkpt lat="45.81587" lon="5.41601">
        <ele>203.7</ele>
        <time>2019-05-01T06:21:38Z</time>
      </trkpt>
      <trkpt lat="45.81586" lon="5.41595">
        <ele>203.8</ele>
        <time>2019-05-01T06:21:39Z</time>
      </trkpt>
      <trkpt lat="45.81583" lon="5.41584">
        <ele>203.9</ele>
        <time>2019-05-01T06:21:41Z</time>
      </trkpt>
      <trkpt lat="45.81577" lon="5.4156">
        <ele>204.1</ele>
        <time>2019-05-01T06:21:45Z</time>
      </trkpt>
      <trkpt lat="45.81571" lon="5.41536">
        <ele>204.2</ele>
        <time>2019-05-01T06:21:49Z</time>
      </trkpt>
      <trkpt lat="45.81565" lon="5.41518">
        <ele>204.4</ele>
        <time>2019-05-01T06:21:52Z</time>
      </trkpt>
      <trkpt lat="45.81562" lon="5.41504">
        <ele>204.5</ele>
        <time>2019-05-01T06:21:54Z</time>
      </trkpt>
      <trkpt lat="45.81557" lon="5.41457">
        <ele>204.9</ele>
        <time>2019-05-01T06:22:00Z</time>
      </trkpt>
      <trkpt lat="45.81551" lon="5.4143">
        <ele>205.1</ele>
        <time>2019-05-01T06:22:04Z</time>
      </trkpt>
      <trkpt lat="45.81548" lon="5.41416">
        <ele>205.3</ele>
        <time>2019-05-01T06:22:06Z</time>
      </trkpt>
      <trkpt lat="45.8154" lon="5.4139">
        <ele>205.5</ele>
        <time>2019-05-01T06:22:10Z</time>
      </trkpt>
      <trkpt lat="45.81534" lon="5.41372">
        <ele>205.7</ele>
        <time>2019-05-01T06:22:13Z</time>
      </trkpt>
      <trkpt lat="45.8153" lon="5.41359">
        <ele>205.9</ele>
        <time>2019-05-01T06:22:15Z</time>
      </trkpt>
      <trkpt lat="45.81517" lon="5.41313">
        <ele>206.3</ele>
        <time>2019-05-01T06:22:22Z</time>
      </trkpt>
      <trkpt lat="45.81501" lon="5.41266">
        <ele>206.7</ele>
        <time>2019-05-01T06:22:29Z</time>
      </trkpt>
      <trkpt lat="45.81492" lon="5.41239">
        <ele>207</ele>
        <time>2019-05-01T06:22:35Z</time>
      </trkpt>
      <trkpt lat="45.8149" lon="5.41243">
        <ele>207</ele>
        <time>2019-05-01T06:22:38Z</time>
      </trkpt>
      <trkpt lat="45.8149" lon="5.41248">
        <ele>207</ele>
        <time>2019-05-01T06:22:39Z</time>
      </trkpt>
      <trkpt lat="45.8149" lon="5.41262">
        <ele>207</ele>
        <time>2019-05-01T06:22:41Z</time>
      </trkpt>
      <trkpt lat="45.81489" lon="5.41285">
        <ele>207</ele>
        <time>2019-05-01T06:22:44Z</time>
      </trkpt>
      <trkpt lat="45.81487" lon="5.41323">
        <ele>207.6</ele>
        <time>2019-05-01T06:22:49Z</time>
      </trkpt>
      <trkpt lat="45.81482" lon="5.41371">
        <ele>208.3</ele>
        <time>2019-05-01T06:22:56Z</time>
      </trkpt>
      <trkpt lat="45.81474" lon="5.41392">
        <ele>209</ele>
        <time>2019-05-01T06:23:00Z</time>
      </trkpt>
      <trkpt lat="45.81471" lon="5.41397">
        <ele>209.2</ele>
        <time>2019-05-01T06:23:01Z</time>
      </trkpt>
      <trkpt lat="45.81466" lon="5.41407">
        <ele>209.5</ele>
        <time>2019-05-01T06:23:03Z</time>
      </trkpt>
      <trkpt lat="45.81463" lon="5.41412">
        <ele>209.7</ele>
        <time>2019-05-01T06:23:04Z</time>
      </trkpt>
      <trkpt lat="45.81456" lon="5.4142">
        <ele>210.1</ele>
        <time>2019-05-01T06:23:06Z</time>
      </trkpt>
      <trkpt lat="45.81453" lon="5.41422">
        <ele>210.2</ele>
        <time>2019-05-01T06:23:07Z</time>
      </trkpt>
      <trkpt lat="45.81439" lon="5.41433">
        <ele>210.9</ele>
        <time>2019-05-01T06:23:11Z</time>
      </trkpt>
      <trkpt lat="45.81425" lon="5.41444">
        <ele>211.5</ele>
        <time>2019-05-01T06:23:15Z</time>
      </trkpt>
      <trkpt lat="45.81418" lon="5.4145">
        <ele>211.7</ele>
        <time>2019-05-01T06:23:17Z</time>
      </trkpt>
      <trkpt lat="45.81396" lon="5.41466">
        <ele>212.3</ele>
        <time>2019-05-01T06:23:23Z</time>
      </trkpt>
      <trkpt lat="45.81386" lon="5.41474">
        <ele>212.4</ele>
        <time>2019-05-01T06:23:26Z</time>
      </trkpt>
      <trkpt lat="45.81373" lon="5.41483">
        <ele>212.5</ele>
        <time>2019-05-01T06:23:30Z</time>
      </trkpt>
      <trkpt lat="45.81363" lon="5.4149">
        <ele>212.5</ele>
        <time>2019-05-01T06:23:33Z</time>
      </trkpt>
      <trkpt lat="45.81335" lon="5.41512">
        <ele>213</ele>
        <time>2019-05-01T06:23:41Z</time>
      </trkpt>
      <trkpt lat="45.81313" lon="5.41529">
        <ele>213.3</ele>
        <time>2019-05-01T06:23:47Z</time>
      </trkpt>
      <trkpt lat="45.81301" lon="5.41539">
        <ele>213.3</ele>
        <time>2019-05-01T06:23:50Z</time>
      </trkpt>
      <trkpt lat="45.81275" lon="5.4156">
        <ele>213.3</ele>
        <time>2019-05-01T06:23:56Z</time>
      </trkpt>
      <trkpt lat="45.8127" lon="5.41563">
        <ele>213.3</ele>
        <time>2019-05-01T06:23:57Z</time>
      </trkpt>
      <trkpt lat="45.81266" lon="5.41565">
        <ele>213.4</ele>
        <time>2019-05-01T06:23:58Z</time>
      </trkpt>
      <trkpt lat="45.81227" lon="5.41585">
        <ele>214.1</ele>
        <time>2019-05-01T06:24:06Z</time>
      </trkpt>
      <trkpt lat="45.81183" lon="5.4161">
        <ele>214</ele>
        <time>2019-05-01T06:24:15Z</time>
      </trkpt>
      <trkpt lat="45.81144" lon="5.41632">
        <ele>213.9</ele>
        <time>2019-05-01T06:24:23Z</time>
      </trkpt>
      <trkpt lat="45.8112" lon="5.41646">
        <ele>213.8</ele>
        <time>2019-05-01T06:24:28Z</time>
      </trkpt>
      <trkpt lat="45.81098" lon="5.41661">
        <ele>213.8</ele>
        <time>2019-05-01T06:24:33Z</time>
      </trkpt>
      <trkpt lat="45.81058" lon="5.41687">
        <ele>213.6</ele>
        <time>2019-05-01T06:24:42Z</time>
      </trkpt>
      <trkpt lat="45.8101" lon="5.4172">
        <ele>213.5</ele>
        <time>2019-05-01T06:24:52Z</time>
      </trkpt>
      <trkpt lat="45.80962" lon="5.41754">
        <ele>213.4</ele>
        <time>2019-05-01T06:25:02Z</time>
      </trkpt>
      <trkpt lat="45.80927" lon="5.41782">
        <ele>214</ele>
        <time>2019-05-01T06:25:10Z</time>
      </trkpt>
      <trkpt lat="45.80885" lon="5.41812">
        <ele>214.2</ele>
        <time>2019-05-01T06:25:18Z</time>
      </trkpt>
      <trkpt lat="45.80851" lon="5.41835">
        <ele>214.1</ele>
        <time>2019-05-01T06:25:25Z</time>
      </trkpt>
      <trkpt lat="45.80846" lon="5.41838">
        <ele>214.1</ele>
        <time>2019-05-01T06:25:26Z</time>
      </trkpt>
      <trkpt lat="45.80832" lon="5.41835">
        <ele>214.1</ele>
        <time>2019-05-01T06:25:29Z</time>
      </trkpt>
      <trkpt lat="45.80826" lon="5.41821">
        <ele>214.1</ele>
        <time>2019-05-01T06:25:31Z</time>
      </trkpt>
      <trkpt lat="45.80809" lon="5.41776">
        <ele>214.3</ele>
        <time>2019-05-01T06:25:37Z</time>
      </trkpt>
      <trkpt lat="45.80791" lon="5.41731">
        <ele>214.4</ele>
        <time>2019-05-01T06:25:43Z</time>
      </trkpt>
      <trkpt lat="45.80763" lon="5.4166">
        <ele>214.3</ele>
        <time>2019-05-01T06:25:52Z</time>
      </trkpt>
      <trkpt lat="45.8076" lon="5.41653">
        <ele>214.3</ele>
        <time>2019-05-01T06:25:53Z</time>
      </trkpt>
      <trkpt lat="45.80732" lon="5.41584">
        <ele>214.4</ele>
        <time>2019-05-01T06:26:02Z</time>
      </trkpt>
      <trkpt lat="45.80729" lon="5.41576">
        <ele>214.5</ele>
        <time>2019-05-01T06:26:03Z</time>
      </trkpt>
      <trkpt lat="45.80727" lon="5.41568">
        <ele>214.5</ele>
        <time>2019-05-01T06:26:04Z</time>
      </trkpt>
      <trkpt lat="45.80698" lon="5.41499">
        <ele>214.8</ele>
        <time>2019-05-01T06:26:13Z</time>
      </trkpt>
      <trkpt lat="45.80695" lon="5.41492">
        <ele>214.8</ele>
        <time>2019-05-01T06:26:14Z</time>
      </trkpt>
      <trkpt lat="45.80666" lon="5.41421">
        <ele>215.4</ele>
        <time>2019-05-01T06:26:24Z</time>
      </trkpt>
      <trkpt lat="45.80664" lon="5.41415">
        <ele>215.5</ele>
        <time>2019-05-01T06:26:25Z</time>
      </trkpt>
      <trkpt lat="45.80661" lon="5.4141">
        <ele>215.6</ele>
        <time>2019-05-01T06:26:26Z</time>
      </trkpt>
      <trkpt lat="45.80653" lon="5.41408">
        <ele>215.9</ele>
        <time>2019-05-01T06:26:28Z</time>
      </trkpt>
      <trkpt lat="45.8064" lon="5.41417">
        <ele>215.9</ele>
        <time>2019-05-01T06:26:31Z</time>
      </trkpt>
      <trkpt lat="45.8063" lon="5.41424">
        <ele>216</ele>
        <time>2019-05-01T06:26:33Z</time>
      </trkpt>
      <trkpt lat="45.8061" lon="5.41432">
        <ele>216.2</ele>
        <time>2019-05-01T06:26:37Z</time>
      </trkpt>
      <trkpt lat="45.8058" lon="5.41431">
        <ele>216.6</ele>
        <time>2019-05-01T06:26:43Z</time>
      </trkpt>
      <trkpt lat="45.80555" lon="5.41429">
        <ele>217.7</ele>
        <time>2019-05-01T06:26:48Z</time>
      </trkpt>
      <trkpt lat="45.80544" lon="5.41432">
        <ele>218.3</ele>
        <time>2019-05-01T06:26:50Z</time>
      </trkpt>
      <trkpt lat="45.80529" lon="5.41439">
        <ele>218.9</ele>
        <time>2019-05-01T06:26:53Z</time>
      </trkpt>
      <trkpt lat="45.8051" lon="5.41449">
        <ele>219.1</ele>
        <time>2019-05-01T06:26:57Z</time>
      </trkpt>
      <trkpt lat="45.80481" lon="5.4146">
        <ele>219.1</ele>
        <time>2019-05-01T06:27:03Z</time>
      </trkpt>
      <trkpt lat="45.80476" lon="5.41462">
        <ele>219.1</ele>
        <time>2019-05-01T06:27:04Z</time>
      </trkpt>
      <trkpt lat="45.80455" lon="5.41474">
        <ele>219.2</ele>
        <time>2019-05-01T06:27:09Z</time>
      </trkpt>
      <trkpt lat="45.80451" lon="5.41477">
        <ele>219.2</ele>
        <time>2019-05-01T06:27:10Z</time>
      </trkpt>
      <trkpt lat="45.80434" lon="5.41485">
        <ele>219.3</ele>
        <time>2019-05-01T06:27:14Z</time>
      </trkpt>
      <trkpt lat="45.80423" lon="5.41491">
        <ele>219.3</ele>
        <time>2019-05-01T06:27:17Z</time>
      </trkpt>
      <trkpt lat="45.80415" lon="5.41496">
        <ele>219.4</ele>
        <time>2019-05-01T06:27:20Z</time>
      </trkpt>
      <trkpt lat="45.80409" lon="5.41504">
        <ele>219.4</ele>
        <time>2019-05-01T06:27:24Z</time>
      </trkpt>
      <trkpt lat="45.80403" lon="5.41518">
        <ele>219.4</ele>
        <time>2019-05-01T06:27:29Z</time>
      </trkpt>
      <trkpt lat="45.80393" lon="5.41541">
        <ele>219.5</ele>
        <time>2019-05-01T06:27:35Z</time>
      </trkpt>
      <trkpt lat="45.80381" lon="5.41556">
        <ele>219.6</ele>
        <time>2019-05-01T06:27:40Z</time>
      </trkpt>
      <trkpt lat="45.80378" lon="5.41557">
        <ele>219.6</ele>
        <time>2019-05-01T06:27:41Z</time>
      </trkpt>
      <trkpt lat="45.80375" lon="5.41556">
        <ele>219.6</ele>
        <time>2019-05-01T06:27:42Z</time>
      </trkpt>
      <trkpt lat="45.80366" lon="5.41544">
        <ele>219.4</ele>
        <time>2019-05-01T06:27:45Z</time>
      </trkpt>
      <trkpt lat="45.80349" lon="5.41542">
        <ele>219.2</ele>
        <time>2019-05-01T06:27:49Z</time>
      </trkpt>
      <trkpt lat="45.80336" lon="5.4155">
        <ele>219</ele>
        <time>2019-05-01T06:27:52Z</time>
      </trkpt>
      <trkpt lat="45.80325" lon="5.41561">
        <ele>218.9</ele>
        <time>2019-05-01T06:27:55Z</time>
      </trkpt>
      <trkpt lat="45.80297" lon="5.41592">
        <ele>218.7</ele>
        <time>2019-05-01T06:28:03Z</time>
      </trkpt>
      <trkpt lat="45.80279" lon="5.41611">
        <ele>218.8</ele>
        <time>2019-05-01T06:28:08Z</time>
      </trkpt>
      <trkpt lat="45.8027" lon="5.41615">
        <ele>218.9</ele>
        <time>2019-05-01T06:28:10Z</time>
      </trkpt>
      <trkpt lat="45.80262" lon="5.41617">
        <ele>218.8</ele>
        <time>2019-05-01T06:28:12Z</time>
      </trkpt>
      <trkpt lat="45.80255" lon="5.41625">
        <ele>219</ele>
        <time>2019-05-01T06:28:14Z</time>
      </trkpt>
      <trkpt lat="45.80251" lon="5.41637">
        <ele>219.1</ele>
        <time>2019-05-01T06:28:16Z</time>
      </trkpt>
      <trkpt lat="45.80248" lon="5.41643">
        <ele>219.2</ele>
        <time>2019-05-01T06:28:17Z</time>
      </trkpt>
      <trkpt lat="45.80242" lon="5.41653">
        <ele>219.2</ele>
        <time>2019-05-01T06:28:19Z</time>
      </trkpt>
      <trkpt lat="45.80235" lon="5.41661">
        <ele>219.3</ele>
        <time>2019-05-01T06:28:21Z</time>
      </trkpt>
      <trkpt lat="45.80217" lon="5.41678">
        <ele>219.4</ele>
        <time>2019-05-01T06:28:26Z</time>
      </trkpt>
      <trkpt lat="45.80204" lon="5.41673">
        <ele>219.4</ele>
        <time>2019-05-01T06:28:29Z</time>
      </trkpt>
      <trkpt lat="45.80195" lon="5.41655">
        <ele>219.2</ele>
        <time>2019-05-01T06:28:32Z</time>
      </trkpt>
      <trkpt lat="45.80193" lon="5.41649">
        <ele>219.2</ele>
        <time>2019-05-01T06:28:33Z</time>
      </trkpt>
      <trkpt lat="45.80183" lon="5.41625">
        <ele>219.1</ele>
        <time>2019-05-01T06:28:37Z</time>
      </trkpt>
      <trkpt lat="45.80169" lon="5.41598">
        <ele>219.1</ele>
        <time>2019-05-01T06:28:42Z</time>
      </trkpt>
      <trkpt lat="45.80148" lon="5.41575">
        <ele>219</ele>
        <time>2019-05-01T06:28:48Z</time>
      </trkpt>
      <trkpt lat="45.80144" lon="5.41572">
        <ele>218.9</ele>
        <time>2019-05-01T06:28:49Z</time>
      </trkpt>
      <trkpt lat="45.80132" lon="5.41566">
        <ele>218.9</ele>
        <time>2019-05-01T06:28:52Z</time>
      </trkpt>
      <trkpt lat="45.80124" lon="5.41563">
        <ele>219</ele>
        <time>2019-05-01T06:28:54Z</time>
      </trkpt>
      <trkpt lat="45.80103" lon="5.41561">
        <ele>219.2</ele>
        <time>2019-05-01T06:28:59Z</time>
      </trkpt>
      <trkpt lat="45.801" lon="5.41562">
        <ele>219.2</ele>
        <time>2019-05-01T06:29:00Z</time>
      </trkpt>
      <trkpt lat="45.8009" lon="5.41567">
        <ele>219.2</ele>
        <time>2019-05-01T06:29:04Z</time>
      </trkpt>
      <trkpt lat="45.80083" lon="5.41578">
        <ele>219.2</ele>
        <time>2019-05-01T06:29:09Z</time>
      </trkpt>
      <trkpt lat="45.80082" lon="5.41583">
        <ele>219.3</ele>
        <time>2019-05-01T06:29:10Z</time>
      </trkpt>
      <trkpt lat="45.80076" lon="5.41595">
        <ele>219.3</ele>
        <time>2019-05-01T06:29:12Z</time>
      </trkpt>
      <trkpt lat="45.80069" lon="5.41608">
        <ele>219.3</ele>
        <time>2019-05-01T06:29:14Z</time>
      </trkpt>
      <trkpt lat="45.80053" lon="5.41631">
        <ele>219.4</ele>
        <time>2019-05-01T06:29:18Z</time>
      </trkpt>
      <trkpt lat="45.80045" lon="5.41642">
        <ele>219.4</ele>
        <time>2019-05-01T06:29:20Z</time>
      </trkpt>
      <trkpt lat="45.80024" lon="5.41664">
        <ele>219.5</ele>
        <time>2019-05-01T06:29:25Z</time>
      </trkpt>
      <trkpt lat="45.80002" lon="5.41683">
        <ele>219.2</ele>
        <time>2019-05-01T06:29:30Z</time>
      </trkpt>
      <trkpt lat="45.79993" lon="5.41691">
        <ele>219</ele>
        <time>2019-05-01T06:29:32Z</time>
      </trkpt>
      <trkpt lat="45.79987" lon="5.41711">
        <ele>218.8</ele>
        <time>2019-05-01T06:29:35Z</time>
      </trkpt>
      <trkpt lat="45.79987" lon="5.4172">
        <ele>218.7</ele>
        <time>2019-05-01T06:29:36Z</time>
      </trkpt>
      <trkpt lat="45.79987" lon="5.41728">
        <ele>218.5</ele>
        <time>2019-05-01T06:29:37Z</time>
      </trkpt>
      <trkpt lat="45.79992" lon="5.41745">
        <ele>218.1</ele>
        <time>2019-05-01T06:29:39Z</time>
      </trkpt>
      <trkpt lat="45.80015" lon="5.41815">
        <ele>217.4</ele>
        <time>2019-05-01T06:29:47Z</time>
      </trkpt>
      <trkpt lat="45.80018" lon="5.41824">
        <ele>217.5</ele>
        <time>2019-05-01T06:29:48Z</time>
      </trkpt>
      <trkpt lat="45.80043" lon="5.41902">
        <ele>217.7</ele>
        <time>2019-05-01T06:29:57Z</time>
      </trkpt>
      <trkpt lat="45.80062" lon="5.41956">
        <ele>217.9</ele>
        <time>2019-05-01T06:30:04Z</time>
      </trkpt>
      <trkpt lat="45.80082" lon="5.42003">
        <ele>218.4</ele>
        <time>2019-05-01T06:30:12Z</time>
      </trkpt>
      <trkpt lat="45.80086" lon="5.4201">
        <ele>218.4</ele>
        <time>2019-05-01T06:30:14Z</time>
      </trkpt>
      <trkpt lat="45.80087" lon="5.42013">
        <ele>218.4</ele>
        <time>2019-05-01T06:30:15Z</time>
      </trkpt>
      <trkpt lat="45.80087" lon="5.42023">
        <ele>218.4</ele>
        <time>2019-05-01T06:30:17Z</time>
      </trkpt>
      <trkpt lat="45.80087" lon="5.42037">
        <ele>218.6</ele>
        <time>2019-05-01T06:30:20Z</time>
      </trkpt>
      <trkpt lat="45.80085" lon="5.42045">
        <ele>218.3</ele>
        <time>2019-05-01T06:30:22Z</time>
      </trkpt>
      <trkpt lat="45.8008" lon="5.4205">
        <ele>218.1</ele>
        <time>2019-05-01T06:30:24Z</time>
      </trkpt>
      <trkpt lat="45.80075" lon="5.42057">
        <ele>217.9</ele>
        <time>2019-05-01T06:30:26Z</time>
      </trkpt>
      <trkpt lat="45.80067" lon="5.42062">
        <ele>217.7</ele>
        <time>2019-05-01T06:30:28Z</time>
      </trkpt>
      <trkpt lat="45.80062" lon="5.42064">
        <ele>217.7</ele>
        <time>2019-05-01T06:30:29Z</time>
      </trkpt>
      <trkpt lat="45.80058" lon="5.42067">
        <ele>217.7</ele>
        <time>2019-05-01T06:30:30Z</time>
      </trkpt>
      <trkpt lat="45.80043" lon="5.4207">
        <ele>217.7</ele>
        <time>2019-05-01T06:30:33Z</time>
      </trkpt>
      <trkpt lat="45.80038" lon="5.42073">
        <ele>217.7</ele>
        <time>2019-05-01T06:30:34Z</time>
      </trkpt>
      <trkpt lat="45.80013" lon="5.42093">
        <ele>217.7</ele>
        <time>2019-05-01T06:30:39Z</time>
      </trkpt>
      <trkpt lat="45.79978" lon="5.42123">
        <ele>218.2</ele>
        <time>2019-05-01T06:30:47Z</time>
      </trkpt>
      <trkpt lat="45.79962" lon="5.42141">
        <ele>218.7</ele>
        <time>2019-05-01T06:30:53Z</time>
      </trkpt>
      <trkpt lat="45.79963" lon="5.42161">
        <ele>218.7</ele>
        <time>2019-05-01T06:30:56Z</time>
      </trkpt>
      <trkpt lat="45.79973" lon="5.42228">
        <ele>218.6</ele>
        <time>2019-05-01T06:31:04Z</time>
      </trkpt>
      <trkpt lat="45.79984" lon="5.42306">
        <ele>218.8</ele>
        <time>2019-05-01T06:31:13Z</time>
      </trkpt>
      <trkpt lat="45.7999" lon="5.42349">
        <ele>219.6</ele>
        <time>2019-05-01T06:31:18Z</time>
      </trkpt>
      <trkpt lat="45.8" lon="5.42408">
        <ele>221.2</ele>
        <time>2019-05-01T06:31:25Z</time>
      </trkpt>
      <trkpt lat="45.80003" lon="5.42417">
        <ele>221.4</ele>
        <time>2019-05-01T06:31:26Z</time>
      </trkpt>
      <trkpt lat="45.8001" lon="5.42442">
        <ele>221.7</ele>
        <time>2019-05-01T06:31:29Z</time>
      </trkpt>
      <trkpt lat="45.80006" lon="5.42464">
        <ele>222.3</ele>
        <time>2019-05-01T06:31:32Z</time>
      </trkpt>
      <trkpt lat="45.79994" lon="5.4248">
        <ele>222.7</ele>
        <time>2019-05-01T06:31:35Z</time>
      </trkpt>
      <trkpt lat="45.7999" lon="5.42485">
        <ele>222.9</ele>
        <time>2019-05-01T06:31:36Z</time>
      </trkpt>
      <trkpt lat="45.79973" lon="5.42491">
        <ele>223.1</ele>
        <time>2019-05-01T06:31:39Z</time>
      </trkpt>
      <trkpt lat="45.79957" lon="5.42495">
        <ele>223.4</ele>
        <time>2019-05-01T06:31:42Z</time>
      </trkpt>
      <trkpt lat="45.79952" lon="5.425">
        <ele>223.4</ele>
        <time>2019-05-01T06:31:43Z</time>
      </trkpt>
      <trkpt lat="45.79938" lon="5.42519">
        <ele>223.7</ele>
        <time>2019-05-01T06:31:46Z</time>
      </trkpt>
      <trkpt lat="45.7993" lon="5.42531">
        <ele>223.8</ele>
        <time>2019-05-01T06:31:48Z</time>
      </trkpt>
      <trkpt lat="45.79914" lon="5.42555">
        <ele>224.1</ele>
        <time>2019-05-01T06:31:52Z</time>
      </trkpt>
      <trkpt lat="45.79891" lon="5.42584">
        <ele>224.6</ele>
        <time>2019-05-01T06:31:57Z</time>
      </trkpt>
      <trkpt lat="45.79867" lon="5.42618">
        <ele>225.2</ele>
        <time>2019-05-01T06:32:03Z</time>
      </trkpt>
      <trkpt lat="45.79863" lon="5.42624">
        <ele>225.3</ele>
        <time>2019-05-01T06:32:04Z</time>
      </trkpt>
      <trkpt lat="45.7984" lon="5.42659">
        <ele>225.6</ele>
        <time>2019-05-01T06:32:10Z</time>
      </trkpt>
      <trkpt lat="45.79836" lon="5.42666">
        <ele>225.7</ele>
        <time>2019-05-01T06:32:11Z</time>
      </trkpt>
      <trkpt lat="45.79833" lon="5.42674">
        <ele>225.7</ele>
        <time>2019-05-01T06:32:12Z</time>
      </trkpt>
      <trkpt lat="45.79822" lon="5.42717">
        <ele>225.7</ele>
        <time>2019-05-01T06:32:17Z</time>
      </trkpt>
      <trkpt lat="45.79804" lon="5.42777">
        <ele>225.5</ele>
        <time>2019-05-01T06:32:24Z</time>
      </trkpt>
      <trkpt lat="45.79781" lon="5.42844">
        <ele>225.5</ele>
        <time>2019-05-01T06:32:32Z</time>
      </trkpt>
      <trkpt lat="45.79759" lon="5.42896">
        <ele>225.8</ele>
        <time>2019-05-01T06:32:39Z</time>
      </trkpt>
      <trkpt lat="45.79755" lon="5.42903">
        <ele>225.8</ele>
        <time>2019-05-01T06:32:40Z</time>
      </trkpt>
      <trkpt lat="45.79729" lon="5.42936">
        <ele>226</ele>
        <time>2019-05-01T06:32:46Z</time>
      </trkpt>
      <trkpt lat="45.7969" lon="5.42985">
        <ele>226.7</ele>
        <time>2019-05-01T06:32:55Z</time>
      </trkpt>
      <trkpt lat="45.79667" lon="5.43023">
        <ele>227.2</ele>
        <time>2019-05-01T06:33:01Z</time>
      </trkpt>
      <trkpt lat="45.79662" lon="5.43028">
        <ele>227.2</ele>
        <time>2019-05-01T06:33:02Z</time>
      </trkpt>
      <trkpt lat="45.79647" lon="5.43042">
        <ele>227.3</ele>
        <time>2019-05-01T06:33:05Z</time>
      </trkpt>
      <trkpt lat="45.79631" lon="5.43053">
        <ele>227.2</ele>
        <time>2019-05-01T06:33:08Z</time>
      </trkpt>
      <trkpt lat="45.79615" lon="5.43063">
        <ele>227.1</ele>
        <time>2019-05-01T06:33:11Z</time>
      </trkpt>
      <trkpt lat="45.79598" lon="5.43072">
        <ele>227</ele>
        <time>2019-05-01T06:33:14Z</time>
      </trkpt>
      <trkpt lat="45.79575" lon="5.43083">
        <ele>226.9</ele>
        <time>2019-05-01T06:33:18Z</time>
      </trkpt>
      <trkpt lat="45.79552" lon="5.43093">
        <ele>226.9</ele>
        <time>2019-05-01T06:33:22Z</time>
      </trkpt>
      <trkpt lat="45.79529" lon="5.43101">
        <ele>227</ele>
        <time>2019-05-01T06:33:26Z</time>
      </trkpt>
      <trkpt lat="45.79513" lon="5.43109">
        <ele>227.2</ele>
        <time>2019-05-01T06:33:29Z</time>
      </trkpt>
      <trkpt lat="45.79473" lon="5.43128">
        <ele>227.3</ele>
        <time>2019-05-01T06:33:36Z</time>
      </trkpt>
      <trkpt lat="45.79434" lon="5.43151">
        <ele>226.7</ele>
        <time>2019-05-01T06:33:42Z</time>
      </trkpt>
      <trkpt lat="45.79404" lon="5.43181">
        <ele>227</ele>
        <time>2019-05-01T06:33:47Z</time>
      </trkpt>
      <trkpt lat="45.79369" lon="5.43224">
        <ele>226.8</ele>
        <time>2019-05-01T06:33:54Z</time>
      </trkpt>
      <trkpt lat="45.79334" lon="5.43275">
        <ele>226.4</ele>
        <time>2019-05-01T06:34:02Z</time>
      </trkpt>
      <trkpt lat="45.79322" lon="5.43295">
        <ele>226.3</ele>
        <time>2019-05-01T06:34:05Z</time>
      </trkpt>
      <trkpt lat="45.79319" lon="5.4331">
        <ele>226.8</ele>
        <time>2019-05-01T06:34:07Z</time>
      </trkpt>
      <trkpt lat="45.79317" lon="5.43326">
        <ele>227.3</ele>
        <time>2019-05-01T06:34:09Z</time>
      </trkpt>
      <trkpt lat="45.7931" lon="5.43364">
        <ele>228.5</ele>
        <time>2019-05-01T06:34:14Z</time>
      </trkpt>
      <trkpt lat="45.79302" lon="5.43407">
        <ele>230.2</ele>
        <time>2019-05-01T06:34:21Z</time>
      </trkpt>
      <trkpt lat="45.79302" lon="5.4344">
        <ele>231.8</ele>
        <time>2019-05-01T06:34:27Z</time>
      </trkpt>
      <trkpt lat="45.79305" lon="5.43455">
        <ele>232.4</ele>
        <time>2019-05-01T06:34:30Z</time>
      </trkpt>
      <trkpt lat="45.79312" lon="5.43474">
        <ele>233.2</ele>
        <time>2019-05-01T06:34:34Z</time>
      </trkpt>
      <trkpt lat="45.79314" lon="5.43484">
        <ele>233.7</ele>
        <time>2019-05-01T06:34:36Z</time>
      </trkpt>
      <trkpt lat="45.79319" lon="5.43513">
        <ele>234.9</ele>
        <time>2019-05-01T06:34:42Z</time>
      </trkpt>
      <trkpt lat="45.79319" lon="5.43517">
        <ele>235.1</ele>
        <time>2019-05-01T06:34:43Z</time>
      </trkpt>
      <trkpt lat="45.79314" lon="5.43534">
        <ele>236</ele>
        <time>2019-05-01T06:34:47Z</time>
      </trkpt>
      <trkpt lat="45.7931" lon="5.43541">
        <ele>236.5</ele>
        <time>2019-05-01T06:34:49Z</time>
      </trkpt>
      <trkpt lat="45.79304" lon="5.43547">
        <ele>237.2</ele>
        <time>2019-05-01T06:34:52Z</time>
      </trkpt>
      <trkpt lat="45.79298" lon="5.43551">
        <ele>237.9</ele>
        <time>2019-05-01T06:34:55Z</time>
      </trkpt>
      <trkpt lat="45.79294" lon="5.43553">
        <ele>238.3</ele>
        <time>2019-05-01T06:34:57Z</time>
      </trkpt>
      <trkpt lat="45.79292" lon="5.43555">
        <ele>238.6</ele>
        <time>2019-05-01T06:34:58Z</time>
      </trkpt>
      <trkpt lat="45.79287" lon="5.43558">
        <ele>239.4</ele>
        <time>2019-05-01T06:35:01Z</time>
      </trkpt>
      <trkpt lat="45.79282" lon="5.43562">
        <ele>240.3</ele>
        <time>2019-05-01T06:35:04Z</time>
      </trkpt>
      <trkpt lat="45.7928" lon="5.43563">
        <ele>240.6</ele>
        <time>2019-05-01T06:35:05Z</time>
      </trkpt>
      <trkpt lat="45.79278" lon="5.43564">
        <ele>240.8</ele>
        <time>2019-05-01T06:35:06Z</time>
      </trkpt>
      <trkpt lat="45.79274" lon="5.43567">
        <ele>241.5</ele>
        <time>2019-05-01T06:35:09Z</time>
      </trkpt>
      <trkpt lat="45.79272" lon="5.43569">
        <ele>241.9</ele>
        <time>2019-05-01T06:35:11Z</time>
      </trkpt>
      <trkpt lat="45.7927" lon="5.43572">
        <ele>242.3</ele>
        <time>2019-05-01T06:35:13Z</time>
      </trkpt>
      <trkpt lat="45.79269" lon="5.43573">
        <ele>242.5</ele>
        <time>2019-05-01T06:35:14Z</time>
      </trkpt>
      <trkpt lat="45.79265" lon="5.43578">
        <ele>243.1</ele>
        <time>2019-05-01T06:35:17Z</time>
      </trkpt>
      <trkpt lat="45.79262" lon="5.43584">
        <ele>243.9</ele>
        <time>2019-05-01T06:35:20Z</time>
      </trkpt>
      <trkpt lat="45.79261" lon="5.43588">
        <ele>244.2</ele>
        <time>2019-05-01T06:35:22Z</time>
      </trkpt>
      <trkpt lat="45.79259" lon="5.43596">
        <ele>244.9</ele>
        <time>2019-05-01T06:35:26Z</time>
      </trkpt>
      <trkpt lat="45.79258" lon="5.43602">
        <ele>245.2</ele>
        <time>2019-05-01T06:35:28Z</time>
      </trkpt>
      <trkpt lat="45.79254" lon="5.43626">
        <ele>246.6</ele>
        <time>2019-05-01T06:35:36Z</time>
      </trkpt>
      <trkpt lat="45.79252" lon="5.43644">
        <ele>247.5</ele>
        <time>2019-05-01T06:35:43Z</time>
      </trkpt>
      <trkpt lat="45.79248" lon="5.43674">
        <ele>248.5</ele>
        <time>2019-05-01T06:35:53Z</time>
      </trkpt>
      <trkpt lat="45.79246" lon="5.43679">
        <ele>248.7</ele>
        <time>2019-05-01T06:35:55Z</time>
      </trkpt>
      <trkpt lat="45.79243" lon="5.43693">
        <ele>249.2</ele>
        <time>2019-05-01T06:36:00Z</time>
      </trkpt>
      <trkpt lat="45.79243" lon="5.43696">
        <ele>249.3</ele>
        <time>2019-05-01T06:36:01Z</time>
      </trkpt>
      <trkpt lat="45.79242" lon="5.43709">
        <ele>250</ele>
        <time>2019-05-01T06:36:05Z</time>
      </trkpt>
      <trkpt lat="45.79241" lon="5.43717">
        <ele>250.3</ele>
        <time>2019-05-01T06:36:07Z</time>
      </trkpt>
      <trkpt lat="45.7924" lon="5.4374">
        <ele>251.8</ele>
        <time>2019-05-01T06:36:14Z</time>
      </trkpt>
      <trkpt lat="45.79238" lon="5.43756">
        <ele>252.7</ele>
        <time>2019-05-01T06:36:19Z</time>
      </trkpt>
      <trkpt lat="45.79237" lon="5.4376">
        <ele>252.6</ele>
        <time>2019-05-01T06:36:21Z</time>
      </trkpt>
      <trkpt lat="45.79235" lon="5.43766">
        <ele>252.5</ele>
        <time>2019-05-01T06:36:24Z</time>
      </trkpt>
      <trkpt lat="45.79233" lon="5.43776">
        <ele>252.4</ele>
        <time>2019-05-01T06:36:27Z</time>
      </trkpt>
      <trkpt lat="45.79231" lon="5.43792">
        <ele>252.5</ele>
        <time>2019-05-01T06:36:31Z</time>
      </trkpt>
      <trkpt lat="45.79229" lon="5.43806">
        <ele>252.7</ele>
        <time>2019-05-01T06:36:35Z</time>
      </trkpt>
      <trkpt lat="45.7923" lon="5.43813">
        <ele>252.8</ele>
        <time>2019-05-01T06:36:37Z</time>
      </trkpt>
      <trkpt lat="45.79232" lon="5.43823">
        <ele>253</ele>
        <time>2019-05-01T06:36:40Z</time>
      </trkpt>
      <trkpt lat="45.79229" lon="5.43834">
        <ele>253.3</ele>
        <time>2019-05-01T06:36:43Z</time>
      </trkpt>
      <trkpt lat="45.79225" lon="5.43846">
        <ele>253.5</ele>
        <time>2019-05-01T06:36:46Z</time>
      </trkpt>
      <trkpt lat="45.79224" lon="5.43849">
        <ele>253.5</ele>
        <time>2019-05-01T06:36:47Z</time>
      </trkpt>
      <trkpt lat="45.79217" lon="5.43868">
        <ele>253.7</ele>
        <time>2019-05-01T06:36:53Z</time>
      </trkpt>
      <trkpt lat="45.79216" lon="5.4387">
        <ele>253.8</ele>
        <time>2019-05-01T06:36:54Z</time>
      </trkpt>
      <trkpt lat="45.79211" lon="5.43882">
        <ele>253.8</ele>
        <time>2019-05-01T06:36:59Z</time>
      </trkpt>
      <trkpt lat="45.79211" lon="5.43884">
        <ele>253.8</ele>
        <time>2019-05-01T06:37:00Z</time>
      </trkpt>
      <trkpt lat="45.79207" lon="5.43893">
        <ele>253.6</ele>
        <time>2019-05-01T06:37:04Z</time>
      </trkpt>
      <trkpt lat="45.79205" lon="5.43899">
        <ele>253.5</ele>
        <time>2019-05-01T06:37:06Z</time>
      </trkpt>
      <trkpt lat="45.792" lon="5.43911">
        <ele>253</ele>
        <time>2019-05-01T06:37:10Z</time>
      </trkpt>
      <trkpt lat="45.79199" lon="5.43914">
        <ele>252.8</ele>
        <time>2019-05-01T06:37:11Z</time>
      </trkpt>
      <trkpt lat="45.79197" lon="5.43928">
        <ele>252</ele>
        <time>2019-05-01T06:37:15Z</time>
      </trkpt>
      <trkpt lat="45.79196" lon="5.43932">
        <ele>251.8</ele>
        <time>2019-05-01T06:37:16Z</time>
      </trkpt>
      <trkpt lat="45.79193" lon="5.43949">
        <ele>250</ele>
        <time>2019-05-01T06:37:22Z</time>
      </trkpt>
      <trkpt lat="45.79181" lon="5.43966">
        <ele>246</ele>
        <time>2019-05-01T06:37:26Z</time>
      </trkpt>
      <trkpt lat="45.79178" lon="5.43973">
        <ele>244.5</ele>
        <time>2019-05-01T06:37:27Z</time>
      </trkpt>
      <trkpt lat="45.7917" lon="5.43985">
        <ele>241.4</ele>
        <time>2019-05-01T06:37:29Z</time>
      </trkpt>
      <trkpt lat="45.79166" lon="5.43991">
        <ele>239.7</ele>
        <time>2019-05-01T06:37:30Z</time>
      </trkpt>
      <trkpt lat="45.79157" lon="5.44003">
        <ele>237.1</ele>
        <time>2019-05-01T06:37:32Z</time>
      </trkpt>
      <trkpt lat="45.79152" lon="5.4401">
        <ele>236.3</ele>
        <time>2019-05-01T06:37:33Z</time>
      </trkpt>
      <trkpt lat="45.79149" lon="5.44016">
        <ele>235.6</ele>
        <time>2019-05-01T06:37:34Z</time>
      </trkpt>
      <trkpt lat="45.79143" lon="5.4403">
        <ele>234.1</ele>
        <time>2019-05-01T06:37:36Z</time>
      </trkpt>
      <trkpt lat="45.79141" lon="5.44037">
        <ele>233.6</ele>
        <time>2019-05-01T06:37:37Z</time>
      </trkpt>
      <trkpt lat="45.79137" lon="5.44052">
        <ele>232.6</ele>
        <time>2019-05-01T06:37:39Z</time>
      </trkpt>
      <trkpt lat="45.79128" lon="5.44073">
        <ele>231.9</ele>
        <time>2019-05-01T06:37:42Z</time>
      </trkpt>
      <trkpt lat="45.79122" lon="5.44087">
        <ele>231.2</ele>
        <time>2019-05-01T06:37:44Z</time>
      </trkpt>
      <trkpt lat="45.79119" lon="5.44092">
        <ele>230.7</ele>
        <time>2019-05-01T06:37:45Z</time>
      </trkpt>
      <trkpt lat="45.79112" lon="5.44099">
        <ele>229.7</ele>
        <time>2019-05-01T06:37:47Z</time>
      </trkpt>
      <trkpt lat="45.79103" lon="5.44105">
        <ele>228.3</ele>
        <time>2019-05-01T06:37:49Z</time>
      </trkpt>
      <trkpt lat="45.79098" lon="5.44108">
        <ele>227.8</ele>
        <time>2019-05-01T06:37:50Z</time>
      </trkpt>
      <trkpt lat="45.79093" lon="5.44112">
        <ele>227.1</ele>
        <time>2019-05-01T06:37:51Z</time>
      </trkpt>
      <trkpt lat="45.79089" lon="5.44116">
        <ele>226.2</ele>
        <time>2019-05-01T06:37:52Z</time>
      </trkpt>
      <trkpt lat="45.79078" lon="5.44122">
        <ele>224.5</ele>
        <time>2019-05-01T06:37:54Z</time>
      </trkpt>
      <trkpt lat="45.79066" lon="5.4413">
        <ele>223</ele>
        <time>2019-05-01T06:37:56Z</time>
      </trkpt>
      <trkpt lat="45.79061" lon="5.44134">
        <ele>222.4</ele>
        <time>2019-05-01T06:37:57Z</time>
      </trkpt>
      <trkpt lat="45.79043" lon="5.44149">
        <ele>221.1</ele>
        <time>2019-05-01T06:38:00Z</time>
      </trkpt>
      <trkpt lat="45.7903" lon="5.44163">
        <ele>220.5</ele>
        <time>2019-05-01T06:38:03Z</time>
      </trkpt>
      <trkpt lat="45.79026" lon="5.44167">
        <ele>220.3</ele>
        <time>2019-05-01T06:38:04Z</time>
      </trkpt>
      <trkpt lat="45.79014" lon="5.4418">
        <ele>220.1</ele>
        <time>2019-05-01T06:38:07Z</time>
      </trkpt>
      <trkpt lat="45.79007" lon="5.44185">
        <ele>220.2</ele>
        <time>2019-05-01T06:38:08Z</time>
      </trkpt>
      <trkpt lat="45.79001" lon="5.44188">
        <ele>220.3</ele>
        <time>2019-05-01T06:38:09Z</time>
      </trkpt>
      <trkpt lat="45.78984" lon="5.44196">
        <ele>221</ele>
        <time>2019-05-01T06:38:12Z</time>
      </trkpt>
      <trkpt lat="45.7896" lon="5.44209">
        <ele>221.7</ele>
        <time>2019-05-01T06:38:16Z</time>
      </trkpt>
      <trkpt lat="45.78949" lon="5.44217">
        <ele>221</ele>
        <time>2019-05-01T06:38:18Z</time>
      </trkpt>
      <trkpt lat="45.78932" lon="5.4423">
        <ele>220.3</ele>
        <time>2019-05-01T06:38:21Z</time>
      </trkpt>
      <trkpt lat="45.7892" lon="5.44237">
        <ele>220.1</ele>
        <time>2019-05-01T06:38:23Z</time>
      </trkpt>
      <trkpt lat="45.78915" lon="5.44241">
        <ele>220</ele>
        <time>2019-05-01T06:38:24Z</time>
      </trkpt>
      <trkpt lat="45.78904" lon="5.44246">
        <ele>219.8</ele>
        <time>2019-05-01T06:38:26Z</time>
      </trkpt>
      <trkpt lat="45.78891" lon="5.44249">
        <ele>219.6</ele>
        <time>2019-05-01T06:38:28Z</time>
      </trkpt>
      <trkpt lat="45.78873" lon="5.44251">
        <ele>219.2</ele>
        <time>2019-05-01T06:38:31Z</time>
      </trkpt>
      <trkpt lat="45.78862" lon="5.44254">
        <ele>218.9</ele>
        <time>2019-05-01T06:38:33Z</time>
      </trkpt>
      <trkpt lat="45.78857" lon="5.44255">
        <ele>218.8</ele>
        <time>2019-05-01T06:38:34Z</time>
      </trkpt>
      <trkpt lat="45.78842" lon="5.4426">
        <ele>218.5</ele>
        <time>2019-05-01T06:38:37Z</time>
      </trkpt>
      <trkpt lat="45.78829" lon="5.44267">
        <ele>218.5</ele>
        <time>2019-05-01T06:38:40Z</time>
      </trkpt>
      <trkpt lat="45.78807" lon="5.44281">
        <ele>218.3</ele>
        <time>2019-05-01T06:38:44Z</time>
      </trkpt>
      <trkpt lat="45.78802" lon="5.44285">
        <ele>218.2</ele>
        <time>2019-05-01T06:38:45Z</time>
      </trkpt>
      <trkpt lat="45.78781" lon="5.443">
        <ele>218</ele>
        <time>2019-05-01T06:38:49Z</time>
      </trkpt>
      <trkpt lat="45.78762" lon="5.44313">
        <ele>217.7</ele>
        <time>2019-05-01T06:38:53Z</time>
      </trkpt>
      <trkpt lat="45.78752" lon="5.4432">
        <ele>217.6</ele>
        <time>2019-05-01T06:38:55Z</time>
      </trkpt>
      <trkpt lat="45.78738" lon="5.4433">
        <ele>217.3</ele>
        <time>2019-05-01T06:38:58Z</time>
      </trkpt>
      <trkpt lat="45.78725" lon="5.44341">
        <ele>217</ele>
        <time>2019-05-01T06:39:01Z</time>
      </trkpt>
      <trkpt lat="45.7872" lon="5.44345">
        <ele>216.8</ele>
        <time>2019-05-01T06:39:02Z</time>
      </trkpt>
      <trkpt lat="45.78707" lon="5.44355">
        <ele>216.4</ele>
        <time>2019-05-01T06:39:05Z</time>
      </trkpt>
      <trkpt lat="45.78698" lon="5.4436">
        <ele>216</ele>
        <time>2019-05-01T06:39:07Z</time>
      </trkpt>
      <trkpt lat="45.78694" lon="5.44362">
        <ele>215.9</ele>
        <time>2019-05-01T06:39:08Z</time>
      </trkpt>
      <trkpt lat="45.78691" lon="5.44364">
        <ele>215.7</ele>
        <time>2019-05-01T06:39:09Z</time>
      </trkpt>
      <trkpt lat="45.78684" lon="5.4437">
        <ele>214.7</ele>
        <time>2019-05-01T06:39:11Z</time>
      </trkpt>
      <trkpt lat="45.78683" lon="5.44377">
        <ele>214.1</ele>
        <time>2019-05-01T06:39:12Z</time>
      </trkpt>
      <trkpt lat="45.78682" lon="5.44392">
        <ele>212.9</ele>
        <time>2019-05-01T06:39:14Z</time>
      </trkpt>
      <trkpt lat="45.78684" lon="5.44402">
        <ele>212.1</ele>
        <time>2019-05-01T06:39:15Z</time>
      </trkpt>
      <trkpt lat="45.78685" lon="5.44413">
        <ele>211.2</ele>
        <time>2019-05-01T06:39:16Z</time>
      </trkpt>
      <trkpt lat="45.78685" lon="5.44435">
        <ele>209.4</ele>
        <time>2019-05-01T06:39:18Z</time>
      </trkpt>
      <trkpt lat="45.78684" lon="5.44446">
        <ele>208.5</ele>
        <time>2019-05-01T06:39:19Z</time>
      </trkpt>
      <trkpt lat="45.78681" lon="5.44456">
        <ele>207.8</ele>
        <time>2019-05-01T06:39:20Z</time>
      </trkpt>
      <trkpt lat="45.78674" lon="5.44475">
        <ele>206.3</ele>
        <time>2019-05-01T06:39:22Z</time>
      </trkpt>
      <trkpt lat="45.78669" lon="5.44485">
        <ele>205.6</ele>
        <time>2019-05-01T06:39:23Z</time>
      </trkpt>
      <trkpt lat="45.78664" lon="5.44496">
        <ele>204.9</ele>
        <time>2019-05-01T06:39:24Z</time>
      </trkpt>
      <trkpt lat="45.78652" lon="5.44516">
        <ele>203.7</ele>
        <time>2019-05-01T06:39:26Z</time>
      </trkpt>
      <trkpt lat="45.78646" lon="5.44526">
        <ele>203.3</ele>
        <time>2019-05-01T06:39:27Z</time>
      </trkpt>
      <trkpt lat="45.7864" lon="5.44536">
        <ele>202.9</ele>
        <time>2019-05-01T06:39:28Z</time>
      </trkpt>
      <trkpt lat="45.78626" lon="5.44554">
        <ele>202.6</ele>
        <time>2019-05-01T06:39:30Z</time>
      </trkpt>
      <trkpt lat="45.78619" lon="5.44562">
        <ele>202.5</ele>
        <time>2019-05-01T06:39:31Z</time>
      </trkpt>
      <trkpt lat="45.78612" lon="5.44569">
        <ele>202.6</ele>
        <time>2019-05-01T06:39:32Z</time>
      </trkpt>
      <trkpt lat="45.7859" lon="5.44581">
        <ele>203.4</ele>
        <time>2019-05-01T06:39:35Z</time>
      </trkpt>
      <trkpt lat="45.78584" lon="5.44585">
        <ele>203.7</ele>
        <time>2019-05-01T06:39:36Z</time>
      </trkpt>
      <trkpt lat="45.78574" lon="5.44596">
        <ele>204.4</ele>
        <time>2019-05-01T06:39:38Z</time>
      </trkpt>
      <trkpt lat="45.78571" lon="5.44601">
        <ele>204.7</ele>
        <time>2019-05-01T06:39:39Z</time>
      </trkpt>
      <trkpt lat="45.78562" lon="5.44617">
        <ele>205.6</ele>
        <time>2019-05-01T06:39:42Z</time>
      </trkpt>
      <trkpt lat="45.78543" lon="5.44645">
        <ele>207.2</ele>
        <time>2019-05-01T06:39:49Z</time>
      </trkpt>
      <trkpt lat="45.7853" lon="5.44662">
        <ele>208.3</ele>
        <time>2019-05-01T06:39:54Z</time>
      </trkpt>
      <trkpt lat="45.78524" lon="5.44672">
        <ele>209</ele>
        <time>2019-05-01T06:39:57Z</time>
      </trkpt>
      <trkpt lat="45.78517" lon="5.44682">
        <ele>209.6</ele>
        <time>2019-05-01T06:40:00Z</time>
      </trkpt>
      <trkpt lat="45.78506" lon="5.44697">
        <ele>210.6</ele>
        <time>2019-05-01T06:40:05Z</time>
      </trkpt>
      <trkpt lat="45.78504" lon="5.447">
        <ele>210.8</ele>
        <time>2019-05-01T06:40:06Z</time>
      </trkpt>
      <trkpt lat="45.78499" lon="5.44705">
        <ele>211.2</ele>
        <time>2019-05-01T06:40:08Z</time>
      </trkpt>
      <trkpt lat="45.78482" lon="5.44718">
        <ele>212.4</ele>
        <time>2019-05-01T06:40:14Z</time>
      </trkpt>
      <trkpt lat="45.78456" lon="5.44735">
        <ele>213.9</ele>
        <time>2019-05-01T06:40:22Z</time>
      </trkpt>
      <trkpt lat="45.78448" lon="5.4474">
        <ele>214.2</ele>
        <time>2019-05-01T06:40:24Z</time>
      </trkpt>
      <trkpt lat="45.78421" lon="5.44758">
        <ele>214.8</ele>
        <time>2019-05-01T06:40:31Z</time>
      </trkpt>
      <trkpt lat="45.7841" lon="5.4477">
        <ele>214.8</ele>
        <time>2019-05-01T06:40:35Z</time>
      </trkpt>
      <trkpt lat="45.78409" lon="5.44774">
        <ele>214.8</ele>
        <time>2019-05-01T06:40:36Z</time>
      </trkpt>
      <trkpt lat="45.78407" lon="5.44798">
        <ele>213.4</ele>
        <time>2019-05-01T06:40:40Z</time>
      </trkpt>
      <trkpt lat="45.78403" lon="5.44805">
        <ele>213.2</ele>
        <time>2019-05-01T06:40:41Z</time>
      </trkpt>
      <trkpt lat="45.78394" lon="5.44819">
        <ele>215.2</ele>
        <time>2019-05-01T06:40:43Z</time>
      </trkpt>
      <trkpt lat="45.78389" lon="5.44827">
        <ele>215.9</ele>
        <time>2019-05-01T06:40:44Z</time>
      </trkpt>
      <trkpt lat="45.78374" lon="5.44852">
        <ele>213.8</ele>
        <time>2019-05-01T06:40:47Z</time>
      </trkpt>
      <trkpt lat="45.78369" lon="5.44862">
        <ele>213.9</ele>
        <time>2019-05-01T06:40:48Z</time>
      </trkpt>
      <trkpt lat="45.78356" lon="5.4489">
        <ele>214.8</ele>
        <time>2019-05-01T06:40:51Z</time>
      </trkpt>
      <trkpt lat="45.78351" lon="5.44903">
        <ele>213.8</ele>
        <time>2019-05-01T06:40:53Z</time>
      </trkpt>
      <trkpt lat="45.78351" lon="5.4491">
        <ele>213</ele>
        <time>2019-05-01T06:40:55Z</time>
      </trkpt>
      <trkpt lat="45.78353" lon="5.44913">
        <ele>213.1</ele>
        <time>2019-05-01T06:40:56Z</time>
      </trkpt>
      <trkpt lat="45.78363" lon="5.44913">
        <ele>213.1</ele>
        <time>2019-05-01T06:40:59Z</time>
      </trkpt>
      <trkpt lat="45.78366" lon="5.44912">
        <ele>212.7</ele>
        <time>2019-05-01T06:41:00Z</time>
      </trkpt>
      <trkpt lat="45.78371" lon="5.44914">
        <ele>210.4</ele>
        <time>2019-05-01T06:41:02Z</time>
      </trkpt>
      <trkpt lat="45.78372" lon="5.44916">
        <ele>209.8</ele>
        <time>2019-05-01T06:41:03Z</time>
      </trkpt>
      <trkpt lat="45.78373" lon="5.44919">
        <ele>207.8</ele>
        <time>2019-05-01T06:41:04Z</time>
      </trkpt>
      <trkpt lat="45.78374" lon="5.44928">
        <ele>203.1</ele>
        <time>2019-05-01T06:41:07Z</time>
      </trkpt>
      <trkpt lat="45.78374" lon="5.4493">
        <ele>203.2</ele>
        <time>2019-05-01T06:41:08Z</time>
      </trkpt>
      <trkpt lat="45.78373" lon="5.44941">
        <ele>201.8</ele>
        <time>2019-05-01T06:41:13Z</time>
      </trkpt>
      <trkpt lat="45.78369" lon="5.44945">
        <ele>203.2</ele>
        <time>2019-05-01T06:41:14Z</time>
      </trkpt>
      <trkpt lat="45.78362" lon="5.44953">
        <ele>208.1</ele>
        <time>2019-05-01T06:41:16Z</time>
      </trkpt>
      <trkpt lat="45.78358" lon="5.44959">
        <ele>209.2</ele>
        <time>2019-05-01T06:41:17Z</time>
      </trkpt>
      <trkpt lat="45.7835" lon="5.44971">
        <ele>208</ele>
        <time>2019-05-01T06:41:19Z</time>
      </trkpt>
      <trkpt lat="45.78346" lon="5.44977">
        <ele>206.9</ele>
        <time>2019-05-01T06:41:20Z</time>
      </trkpt>
      <trkpt lat="45.78325" lon="5.45011">
        <ele>212.4</ele>
        <time>2019-05-01T06:41:26Z</time>
      </trkpt>
      <trkpt lat="45.78322" lon="5.45018">
        <ele>211.5</ele>
        <time>2019-05-01T06:41:27Z</time>
      </trkpt>
      <trkpt lat="45.78319" lon="5.45025">
        <ele>210.8</ele>
        <time>2019-05-01T06:41:28Z</time>
      </trkpt>
      <trkpt lat="45.78313" lon="5.45039">
        <ele>206.2</ele>
        <time>2019-05-01T06:41:30Z</time>
      </trkpt>
      <trkpt lat="45.78307" lon="5.45051">
        <ele>207.4</ele>
        <time>2019-05-01T06:41:32Z</time>
      </trkpt>
      <trkpt lat="45.78292" lon="5.45063">
        <ele>213.7</ele>
        <time>2019-05-01T06:41:36Z</time>
      </trkpt>
      <trkpt lat="45.78289" lon="5.45068">
        <ele>214.5</ele>
        <time>2019-05-01T06:41:38Z</time>
      </trkpt>
      <trkpt lat="45.78289" lon="5.45072">
        <ele>214.7</ele>
        <time>2019-05-01T06:41:40Z</time>
      </trkpt>
      <trkpt lat="45.78299" lon="5.45088">
        <ele>212.4</ele>
        <time>2019-05-01T06:41:44Z</time>
      </trkpt>
      <trkpt lat="45.78303" lon="5.45093">
        <ele>210</ele>
        <time>2019-05-01T06:41:45Z</time>
      </trkpt>
      <trkpt lat="45.7831" lon="5.45101">
        <ele>207.3</ele>
        <time>2019-05-01T06:41:47Z</time>
      </trkpt>
      <trkpt lat="45.78312" lon="5.45106">
        <ele>206.4</ele>
        <time>2019-05-01T06:41:48Z</time>
      </trkpt>
      <trkpt lat="45.78314" lon="5.45125">
        <ele>205.4</ele>
        <time>2019-05-01T06:41:51Z</time>
      </trkpt>
      <trkpt lat="45.78307" lon="5.45133">
        <ele>204.8</ele>
        <time>2019-05-01T06:41:54Z</time>
      </trkpt>
      <trkpt lat="45.78294" lon="5.4513">
        <ele>204.9</ele>
        <time>2019-05-01T06:41:57Z</time>
      </trkpt>
      <trkpt lat="45.78284" lon="5.45127">
        <ele>205.4</ele>
        <time>2019-05-01T06:41:59Z</time>
      </trkpt>
      <trkpt lat="45.78263" lon="5.45116">
        <ele>206.5</ele>
        <time>2019-05-01T06:42:05Z</time>
      </trkpt>
      <trkpt lat="45.78241" lon="5.45098">
        <ele>207.8</ele>
        <time>2019-05-01T06:42:12Z</time>
      </trkpt>
      <trkpt lat="45.78223" lon="5.45084">
        <ele>209.3</ele>
        <time>2019-05-01T06:42:18Z</time>
      </trkpt>
      <trkpt lat="45.78215" lon="5.45078">
        <ele>209.9</ele>
        <time>2019-05-01T06:42:21Z</time>
      </trkpt>
      <trkpt lat="45.78197" lon="5.45064">
        <ele>211.1</ele>
        <time>2019-05-01T06:42:28Z</time>
      </trkpt>
      <trkpt lat="45.7819" lon="5.45058">
        <ele>211.4</ele>
        <time>2019-05-01T06:42:31Z</time>
      </trkpt>
      <trkpt lat="45.78183" lon="5.45051">
        <ele>211.8</ele>
        <time>2019-05-01T06:42:35Z</time>
      </trkpt>
      <trkpt lat="45.7818" lon="5.45048">
        <ele>211.9</ele>
        <time>2019-05-01T06:42:37Z</time>
      </trkpt>
      <trkpt lat="45.78178" lon="5.45043">
        <ele>211.8</ele>
        <time>2019-05-01T06:42:41Z</time>
      </trkpt>
      <trkpt lat="45.78179" lon="5.45041">
        <ele>211.8</ele>
        <time>2019-05-01T06:42:42Z</time>
      </trkpt>
      <trkpt lat="45.78183" lon="5.45036">
        <ele>211.5</ele>
        <time>2019-05-01T06:42:45Z</time>
      </trkpt>
      <trkpt lat="45.78191" lon="5.45038">
        <ele>211.2</ele>
        <time>2019-05-01T06:42:49Z</time>
      </trkpt>
      <trkpt lat="45.78193" lon="5.4504">
        <ele>211.1</ele>
        <time>2019-05-01T06:42:50Z</time>
      </trkpt>
      <trkpt lat="45.78208" lon="5.45053">
        <ele>210.3</ele>
        <time>2019-05-01T06:42:55Z</time>
      </trkpt>
      <trkpt lat="45.78241" lon="5.45076">
        <ele>208</ele>
        <time>2019-05-01T06:43:03Z</time>
      </trkpt>
      <trkpt lat="45.78256" lon="5.45087">
        <ele>207.1</ele>
        <time>2019-05-01T06:43:07Z</time>
      </trkpt>
      <trkpt lat="45.78277" lon="5.45101">
        <ele>206.1</ele>
        <time>2019-05-01T06:43:12Z</time>
      </trkpt>
      <trkpt lat="45.78316" lon="5.45128">
        <ele>203.7</ele>
        <time>2019-05-01T06:43:21Z</time>
      </trkpt>
      <trkpt lat="45.78325" lon="5.45134">
        <ele>203</ele>
        <time>2019-05-01T06:43:23Z</time>
      </trkpt>
      <trkpt lat="45.7836" lon="5.45159">
        <ele>199.6</ele>
        <time>2019-05-01T06:43:31Z</time>
      </trkpt>
      <trkpt lat="45.78374" lon="5.45168">
        <ele>199.8</ele>
        <time>2019-05-01T06:43:34Z</time>
      </trkpt>
      <trkpt lat="45.78404" lon="5.4519">
        <ele>202.5</ele>
        <time>2019-05-01T06:43:40Z</time>
      </trkpt>
      <trkpt lat="45.78414" lon="5.45197">
        <ele>203.2</ele>
        <time>2019-05-01T06:43:42Z</time>
      </trkpt>
      <trkpt lat="45.78448" lon="5.45221">
        <ele>204.6</ele>
        <time>2019-05-01T06:43:48Z</time>
      </trkpt>
      <trkpt lat="45.78454" lon="5.45225">
        <ele>204.7</ele>
        <time>2019-05-01T06:43:49Z</time>
      </trkpt>
      <trkpt lat="45.78473" lon="5.45238">
        <ele>205.1</ele>
        <time>2019-05-01T06:43:52Z</time>
      </trkpt>
      <trkpt lat="45.78491" lon="5.45251">
        <ele>205.6</ele>
        <time>2019-05-01T06:43:55Z</time>
      </trkpt>
      <trkpt lat="45.78498" lon="5.45255">
        <ele>205.8</ele>
        <time>2019-05-01T06:43:56Z</time>
      </trkpt>
      <trkpt lat="45.78505" lon="5.45261">
        <ele>206</ele>
        <time>2019-05-01T06:43:57Z</time>
      </trkpt>
      <trkpt lat="45.78526" lon="5.45275">
        <ele>206.3</ele>
        <time>2019-05-01T06:44:00Z</time>
      </trkpt>
      <trkpt lat="45.7854" lon="5.45284">
        <ele>206.4</ele>
        <time>2019-05-01T06:44:02Z</time>
      </trkpt>
      <trkpt lat="45.78552" lon="5.45293">
        <ele>206.5</ele>
        <time>2019-05-01T06:44:04Z</time>
      </trkpt>
      <trkpt lat="45.78574" lon="5.4531">
        <ele>207.2</ele>
        <time>2019-05-01T06:44:08Z</time>
      </trkpt>
      <trkpt lat="45.78579" lon="5.45315">
        <ele>207.5</ele>
        <time>2019-05-01T06:44:09Z</time>
      </trkpt>
      <trkpt lat="45.78613" lon="5.45341">
        <ele>208.6</ele>
        <time>2019-05-01T06:44:16Z</time>
      </trkpt>
      <trkpt lat="45.78639" lon="5.45366">
        <ele>208.9</ele>
        <time>2019-05-01T06:44:22Z</time>
      </trkpt>
      <trkpt lat="45.78642" lon="5.45372">
        <ele>209</ele>
        <time>2019-05-01T06:44:23Z</time>
      </trkpt>
      <trkpt lat="45.78643" lon="5.45394">
        <ele>209.6</ele>
        <time>2019-05-01T06:44:26Z</time>
      </trkpt>
      <trkpt lat="45.7864" lon="5.4541">
        <ele>209.6</ele>
        <time>2019-05-01T06:44:28Z</time>
      </trkpt>
      <trkpt lat="45.78638" lon="5.45433">
        <ele>209.6</ele>
        <time>2019-05-01T06:44:31Z</time>
      </trkpt>
      <trkpt lat="45.78634" lon="5.45496">
        <ele>209.7</ele>
        <time>2019-05-01T06:44:39Z</time>
      </trkpt>
      <trkpt lat="45.78632" lon="5.4557">
        <ele>210.4</ele>
        <time>2019-05-01T06:44:48Z</time>
      </trkpt>
      <trkpt lat="45.78634" lon="5.45627">
        <ele>210.7</ele>
        <time>2019-05-01T06:44:55Z</time>
      </trkpt>
      <trkpt lat="45.78636" lon="5.45642">
        <ele>210.7</ele>
        <time>2019-05-01T06:44:57Z</time>
      </trkpt>
      <trkpt lat="45.78639" lon="5.457">
        <ele>210.7</ele>
        <time>2019-05-01T06:45:04Z</time>
      </trkpt>
      <trkpt lat="45.78638" lon="5.45768">
        <ele>210.7</ele>
        <time>2019-05-01T06:45:12Z</time>
      </trkpt>
      <trkpt lat="45.78631" lon="5.45828">
        <ele>210.6</ele>
        <time>2019-05-01T06:45:19Z</time>
      </trkpt>
      <trkpt lat="45.78619" lon="5.45907">
        <ele>209.9</ele>
        <time>2019-05-01T06:45:28Z</time>
      </trkpt>
      <trkpt lat="45.7861" lon="5.45985">
        <ele>209.1</ele>
        <time>2019-05-01T06:45:37Z</time>
      </trkpt>
      <trkpt lat="45.78609" lon="5.45993">
        <ele>209</ele>
        <time>2019-05-01T06:45:38Z</time>
      </trkpt>
      <trkpt lat="45.78603" lon="5.46049">
        <ele>208.6</ele>
        <time>2019-05-01T06:45:45Z</time>
      </trkpt>
      <trkpt lat="45.78602" lon="5.46055">
        <ele>208.5</ele>
        <time>2019-05-01T06:45:46Z</time>
      </trkpt>
      <trkpt lat="45.786" lon="5.46076">
        <ele>208.4</ele>
        <time>2019-05-01T06:45:49Z</time>
      </trkpt>
      <trkpt lat="45.786" lon="5.46084">
        <ele>208.4</ele>
        <time>2019-05-01T06:45:50Z</time>
      </trkpt>
      <trkpt lat="45.786" lon="5.46108">
        <ele>208</ele>
        <time>2019-05-01T06:45:53Z</time>
      </trkpt>
      <trkpt lat="45.78598" lon="5.46124">
        <ele>207.9</ele>
        <time>2019-05-01T06:45:55Z</time>
      </trkpt>
      <trkpt lat="45.78596" lon="5.4614">
        <ele>207.8</ele>
        <time>2019-05-01T06:45:57Z</time>
      </trkpt>
      <trkpt lat="45.78592" lon="5.46174">
        <ele>207.3</ele>
        <time>2019-05-01T06:46:01Z</time>
      </trkpt>
      <trkpt lat="45.78595" lon="5.46227">
        <ele>207</ele>
        <time>2019-05-01T06:46:07Z</time>
      </trkpt>
      <trkpt lat="45.78601" lon="5.46275">
        <ele>207.5</ele>
        <time>2019-05-01T06:46:13Z</time>
      </trkpt>
      <trkpt lat="45.7861" lon="5.46346">
        <ele>209.2</ele>
        <time>2019-05-01T06:46:22Z</time>
      </trkpt>
      <trkpt lat="45.7861" lon="5.46399">
        <ele>213.9</ele>
        <time>2019-05-01T06:46:29Z</time>
      </trkpt>
      <trkpt lat="45.78609" lon="5.46412">
        <ele>214.5</ele>
        <time>2019-05-01T06:46:31Z</time>
      </trkpt>
      <trkpt lat="45.78607" lon="5.4643">
        <ele>215.2</ele>
        <time>2019-05-01T06:46:34Z</time>
      </trkpt>
      <trkpt lat="45.78604" lon="5.46449">
        <ele>216.4</ele>
        <time>2019-05-01T06:46:37Z</time>
      </trkpt>
      <trkpt lat="45.78603" lon="5.4646">
        <ele>217.5</ele>
        <time>2019-05-01T06:46:39Z</time>
      </trkpt>
      <trkpt lat="45.786" lon="5.46473">
        <ele>218.3</ele>
        <time>2019-05-01T06:46:42Z</time>
      </trkpt>
      <trkpt lat="45.78597" lon="5.46483">
        <ele>219.1</ele>
        <time>2019-05-01T06:46:44Z</time>
      </trkpt>
      <trkpt lat="45.78589" lon="5.465">
        <ele>220.6</ele>
        <time>2019-05-01T06:46:48Z</time>
      </trkpt>
      <trkpt lat="45.7858" lon="5.46515">
        <ele>221.3</ele>
        <time>2019-05-01T06:46:52Z</time>
      </trkpt>
      <trkpt lat="45.78577" lon="5.46521">
        <ele>221.6</ele>
        <time>2019-05-01T06:46:54Z</time>
      </trkpt>
      <trkpt lat="45.78563" lon="5.46543">
        <ele>222</ele>
        <time>2019-05-01T06:47:01Z</time>
      </trkpt>
      <trkpt lat="45.78552" lon="5.46559">
        <ele>222</ele>
        <time>2019-05-01T06:47:08Z</time>
      </trkpt>
      <trkpt lat="45.78542" lon="5.46583">
        <ele>223.8</ele>
        <time>2019-05-01T06:47:15Z</time>
      </trkpt>
      <trkpt lat="45.78541" lon="5.46593">
        <ele>225.3</ele>
        <time>2019-05-01T06:47:18Z</time>
      </trkpt>
      <trkpt lat="45.78543" lon="5.46597">
        <ele>226.5</ele>
        <time>2019-05-01T06:47:20Z</time>
      </trkpt>
      <trkpt lat="45.78545" lon="5.46601">
        <ele>228.2</ele>
        <time>2019-05-01T06:47:22Z</time>
      </trkpt>
      <trkpt lat="45.7855" lon="5.46604">
        <ele>228.2</ele>
        <time>2019-05-01T06:47:25Z</time>
      </trkpt>
      <trkpt lat="45.78552" lon="5.46602">
        <ele>228.3</ele>
        <time>2019-05-01T06:47:26Z</time>
      </trkpt>
      <trkpt lat="45.78564" lon="5.46593">
        <ele>228.4</ele>
        <time>2019-05-01T06:47:30Z</time>
      </trkpt>
      <trkpt lat="45.78573" lon="5.46584">
        <ele>228.5</ele>
        <time>2019-05-01T06:47:33Z</time>
      </trkpt>
      <trkpt lat="45.78595" lon="5.46567">
        <ele>228.9</ele>
        <time>2019-05-01T06:47:40Z</time>
      </trkpt>
      <trkpt lat="45.78609" lon="5.46555">
        <ele>229.1</ele>
        <time>2019-05-01T06:47:44Z</time>
      </trkpt>
      <trkpt lat="45.7862" lon="5.46544">
        <ele>229.3</ele>
        <time>2019-05-01T06:47:47Z</time>
      </trkpt>
      <trkpt lat="45.78624" lon="5.46541">
        <ele>229.4</ele>
        <time>2019-05-01T06:47:48Z</time>
      </trkpt>
      <trkpt lat="45.78648" lon="5.46519">
        <ele>229.8</ele>
        <time>2019-05-01T06:47:54Z</time>
      </trkpt>
      <trkpt lat="45.78652" lon="5.46516">
        <ele>229.9</ele>
        <time>2019-05-01T06:47:55Z</time>
      </trkpt>
      <trkpt lat="45.78678" lon="5.46488">
        <ele>230.3</ele>
        <time>2019-05-01T06:48:02Z</time>
      </trkpt>
      <trkpt lat="45.78703" lon="5.46463">
        <ele>230.8</ele>
        <time>2019-05-01T06:48:09Z</time>
      </trkpt>
      <trkpt lat="45.7871" lon="5.46457">
        <ele>230.9</ele>
        <time>2019-05-01T06:48:11Z</time>
      </trkpt>
      <trkpt lat="45.78726" lon="5.46454">
        <ele>231.2</ele>
        <time>2019-05-01T06:48:16Z</time>
      </trkpt>
      <trkpt lat="45.78733" lon="5.46457">
        <ele>233.4</ele>
        <time>2019-05-01T06:48:21Z</time>
      </trkpt>
      <trkpt lat="45.78731" lon="5.46464">
        <ele>233.8</ele>
        <time>2019-05-01T06:48:24Z</time>
      </trkpt>
      <trkpt lat="45.78729" lon="5.46465">
        <ele>234</ele>
        <time>2019-05-01T06:48:25Z</time>
      </trkpt>
      <trkpt lat="45.78727" lon="5.46468">
        <ele>234.2</ele>
        <time>2019-05-01T06:48:26Z</time>
      </trkpt>
      <trkpt lat="45.78718" lon="5.46479">
        <ele>235.2</ele>
        <time>2019-05-01T06:48:30Z</time>
      </trkpt>
      <trkpt lat="45.78712" lon="5.46487">
        <ele>235.8</ele>
        <time>2019-05-01T06:48:33Z</time>
      </trkpt>
      <trkpt lat="45.78706" lon="5.465">
        <ele>236.6</ele>
        <time>2019-05-01T06:48:37Z</time>
      </trkpt>
      <trkpt lat="45.78701" lon="5.46507">
        <ele>236.9</ele>
        <time>2019-05-01T06:48:39Z</time>
      </trkpt>
      <trkpt lat="45.78693" lon="5.46516">
        <ele>237.3</ele>
        <time>2019-05-01T06:48:42Z</time>
      </trkpt>
      <trkpt lat="45.78684" lon="5.46527">
        <ele>237.7</ele>
        <time>2019-05-01T06:48:45Z</time>
      </trkpt>
      <trkpt lat="45.78678" lon="5.46534">
        <ele>238</ele>
        <time>2019-05-01T06:48:47Z</time>
      </trkpt>
      <trkpt lat="45.78667" lon="5.46546">
        <ele>238.5</ele>
        <time>2019-05-01T06:48:51Z</time>
      </trkpt>
      <trkpt lat="45.78664" lon="5.46548">
        <ele>238.6</ele>
        <time>2019-05-01T06:48:52Z</time>
      </trkpt>
      <trkpt lat="45.78657" lon="5.46555">
        <ele>239.3</ele>
        <time>2019-05-01T06:48:55Z</time>
      </trkpt>
      <trkpt lat="45.78643" lon="5.46571">
        <ele>240.7</ele>
        <time>2019-05-01T06:49:01Z</time>
      </trkpt>
      <trkpt lat="45.78641" lon="5.46573">
        <ele>240.9</ele>
        <time>2019-05-01T06:49:02Z</time>
      </trkpt>
      <trkpt lat="45.78638" lon="5.46576">
        <ele>241.1</ele>
        <time>2019-05-01T06:49:03Z</time>
      </trkpt>
      <trkpt lat="45.78631" lon="5.46583">
        <ele>241.6</ele>
        <time>2019-05-01T06:49:06Z</time>
      </trkpt>
      <trkpt lat="45.78622" lon="5.46593">
        <ele>242.2</ele>
        <time>2019-05-01T06:49:10Z</time>
      </trkpt>
      <trkpt lat="45.7862" lon="5.46596">
        <ele>242.4</ele>
        <time>2019-05-01T06:49:11Z</time>
      </trkpt>
      <trkpt lat="45.78612" lon="5.46607">
        <ele>242.9</ele>
        <time>2019-05-01T06:49:15Z</time>
      </trkpt>
      <trkpt lat="45.78608" lon="5.46612">
        <ele>243.2</ele>
        <time>2019-05-01T06:49:17Z</time>
      </trkpt>
      <trkpt lat="45.78604" lon="5.46615">
        <ele>243.4</ele>
        <time>2019-05-01T06:49:19Z</time>
      </trkpt>
      <trkpt lat="45.78602" lon="5.46617">
        <ele>243.5</ele>
        <time>2019-05-01T06:49:20Z</time>
      </trkpt>
      <trkpt lat="45.78596" lon="5.46624">
        <ele>243.9</ele>
        <time>2019-05-01T06:49:23Z</time>
      </trkpt>
      <trkpt lat="45.78591" lon="5.46629">
        <ele>244.3</ele>
        <time>2019-05-01T06:49:26Z</time>
      </trkpt>
      <trkpt lat="45.78589" lon="5.46631">
        <ele>244.4</ele>
        <time>2019-05-01T06:49:27Z</time>
      </trkpt>
      <trkpt lat="45.78585" lon="5.46636">
        <ele>244.7</ele>
        <time>2019-05-01T06:49:29Z</time>
      </trkpt>
      <trkpt lat="45.78575" lon="5.4665">
        <ele>245.4</ele>
        <time>2019-05-01T06:49:34Z</time>
      </trkpt>
      <trkpt lat="45.7857" lon="5.46657">
        <ele>246</ele>
        <time>2019-05-01T06:49:37Z</time>
      </trkpt>
      <trkpt lat="45.78563" lon="5.46665">
        <ele>246.4</ele>
        <time>2019-05-01T06:49:41Z</time>
      </trkpt>
      <trkpt lat="45.78561" lon="5.46668">
        <ele>246.6</ele>
        <time>2019-05-01T06:49:42Z</time>
      </trkpt>
      <trkpt lat="45.78552" lon="5.46682">
        <ele>247.2</ele>
        <time>2019-05-01T06:49:47Z</time>
      </trkpt>
      <trkpt lat="45.7855" lon="5.46684">
        <ele>247.3</ele>
        <time>2019-05-01T06:49:48Z</time>
      </trkpt>
      <trkpt lat="45.78544" lon="5.46696">
        <ele>247.9</ele>
        <time>2019-05-01T06:49:52Z</time>
      </trkpt>
      <trkpt lat="45.78538" lon="5.46704">
        <ele>248.5</ele>
        <time>2019-05-01T06:49:55Z</time>
      </trkpt>
      <trkpt lat="45.78536" lon="5.46709">
        <ele>248.7</ele>
        <time>2019-05-01T06:49:57Z</time>
      </trkpt>
      <trkpt lat="45.78529" lon="5.46724">
        <ele>249.3</ele>
        <time>2019-05-01T06:50:02Z</time>
      </trkpt>
      <trkpt lat="45.78528" lon="5.46728">
        <ele>249.4</ele>
        <time>2019-05-01T06:50:03Z</time>
      </trkpt>
      <trkpt lat="45.7852" lon="5.46746">
        <ele>250.2</ele>
        <time>2019-05-01T06:50:09Z</time>
      </trkpt>
      <trkpt lat="45.78518" lon="5.46749">
        <ele>250.3</ele>
        <time>2019-05-01T06:50:10Z</time>
      </trkpt>
      <trkpt lat="45.78513" lon="5.46755">
        <ele>250.5</ele>
        <time>2019-05-01T06:50:12Z</time>
      </trkpt>
      <trkpt lat="45.78506" lon="5.46765">
        <ele>251</ele>
        <time>2019-05-01T06:50:15Z</time>
      </trkpt>
      <trkpt lat="45.785" lon="5.46776">
        <ele>251.4</ele>
        <time>2019-05-01T06:50:18Z</time>
      </trkpt>
      <trkpt lat="45.78494" lon="5.46785">
        <ele>252</ele>
        <time>2019-05-01T06:50:21Z</time>
      </trkpt>
      <trkpt lat="45.78484" lon="5.46795">
        <ele>252.7</ele>
        <time>2019-05-01T06:50:25Z</time>
      </trkpt>
      <trkpt lat="45.78475" lon="5.46809">
        <ele>253.5</ele>
        <time>2019-05-01T06:50:30Z</time>
      </trkpt>
      <trkpt lat="45.78472" lon="5.46815">
        <ele>253.8</ele>
        <time>2019-05-01T06:50:32Z</time>
      </trkpt>
      <trkpt lat="45.78461" lon="5.46835">
        <ele>255</ele>
        <time>2019-05-01T06:50:39Z</time>
      </trkpt>
      <trkpt lat="45.78452" lon="5.46856">
        <ele>256.6</ele>
        <time>2019-05-01T06:50:46Z</time>
      </trkpt>
      <trkpt lat="45.78448" lon="5.46866">
        <ele>257.2</ele>
        <time>2019-05-01T06:50:50Z</time>
      </trkpt>
      <trkpt lat="45.78445" lon="5.4687">
        <ele>257.7</ele>
        <time>2019-05-01T06:50:52Z</time>
      </trkpt>
      <trkpt lat="45.7844" lon="5.46879">
        <ele>258.5</ele>
        <time>2019-05-01T06:50:56Z</time>
      </trkpt>
      <trkpt lat="45.78436" lon="5.46891">
        <ele>259.1</ele>
        <time>2019-05-01T06:51:00Z</time>
      </trkpt>
      <trkpt lat="45.78427" lon="5.46912">
        <ele>260.5</ele>
        <time>2019-05-01T06:51:07Z</time>
      </trkpt>
      <trkpt lat="45.7842" lon="5.46936">
        <ele>261.9</ele>
        <time>2019-05-01T06:51:16Z</time>
      </trkpt>
      <trkpt lat="45.78418" lon="5.46946">
        <ele>262.5</ele>
        <time>2019-05-01T06:51:20Z</time>
      </trkpt>
      <trkpt lat="45.78414" lon="5.46959">
        <ele>263.3</ele>
        <time>2019-05-01T06:51:25Z</time>
      </trkpt>
      <trkpt lat="45.78408" lon="5.46972">
        <ele>264.1</ele>
        <time>2019-05-01T06:51:31Z</time>
      </trkpt>
      <trkpt lat="45.78407" lon="5.46975">
        <ele>264.3</ele>
        <time>2019-05-01T06:51:32Z</time>
      </trkpt>
      <trkpt lat="45.784" lon="5.46992">
        <ele>265.5</ele>
        <time>2019-05-01T06:51:39Z</time>
      </trkpt>
      <trkpt lat="45.784" lon="5.46995">
        <ele>265.7</ele>
        <time>2019-05-01T06:51:40Z</time>
      </trkpt>
      <trkpt lat="45.78394" lon="5.4701">
        <ele>266.8</ele>
        <time>2019-05-01T06:51:46Z</time>
      </trkpt>
      <trkpt lat="45.78391" lon="5.4702">
        <ele>267.4</ele>
        <time>2019-05-01T06:51:50Z</time>
      </trkpt>
      <trkpt lat="45.78389" lon="5.47027">
        <ele>267.7</ele>
        <time>2019-05-01T06:51:53Z</time>
      </trkpt>
      <trkpt lat="45.78387" lon="5.47039">
        <ele>268</ele>
        <time>2019-05-01T06:51:57Z</time>
      </trkpt>
      <trkpt lat="45.78386" lon="5.47042">
        <ele>268.1</ele>
        <time>2019-05-01T06:51:58Z</time>
      </trkpt>
      <trkpt lat="45.78379" lon="5.47063">
        <ele>268.8</ele>
        <time>2019-05-01T06:52:06Z</time>
      </trkpt>
      <trkpt lat="45.78373" lon="5.47078">
        <ele>269.2</ele>
        <time>2019-05-01T06:52:11Z</time>
      </trkpt>
      <trkpt lat="45.78369" lon="5.47087">
        <ele>269.4</ele>
        <time>2019-05-01T06:52:14Z</time>
      </trkpt>
      <trkpt lat="45.78368" lon="5.4709">
        <ele>269.5</ele>
        <time>2019-05-01T06:52:15Z</time>
      </trkpt>
      <trkpt lat="45.78359" lon="5.4711">
        <ele>269.9</ele>
        <time>2019-05-01T06:52:22Z</time>
      </trkpt>
      <trkpt lat="45.78347" lon="5.4713">
        <ele>270.4</ele>
        <time>2019-05-01T06:52:29Z</time>
      </trkpt>
      <trkpt lat="45.78338" lon="5.47147">
        <ele>270.6</ele>
        <time>2019-05-01T06:52:34Z</time>
      </trkpt>
      <trkpt lat="45.78327" lon="5.47164">
        <ele>270.9</ele>
        <time>2019-05-01T06:52:39Z</time>
      </trkpt>
      <trkpt lat="45.78311" lon="5.47188">
        <ele>271.5</ele>
        <time>2019-05-01T06:52:46Z</time>
      </trkpt>
      <trkpt lat="45.78306" lon="5.47194">
        <ele>271.8</ele>
        <time>2019-05-01T06:52:48Z</time>
      </trkpt>
      <trkpt lat="45.78299" lon="5.47204">
        <ele>272.3</ele>
        <time>2019-05-01T06:52:51Z</time>
      </trkpt>
      <trkpt lat="45.78288" lon="5.47217">
        <ele>273.1</ele>
        <time>2019-05-01T06:52:56Z</time>
      </trkpt>
      <trkpt lat="45.78286" lon="5.4722">
        <ele>273.2</ele>
        <time>2019-05-01T06:52:57Z</time>
      </trkpt>
      <trkpt lat="45.78275" lon="5.47235">
        <ele>273.9</ele>
        <time>2019-05-01T06:53:03Z</time>
      </trkpt>
      <trkpt lat="45.78273" lon="5.47238">
        <ele>274</ele>
        <time>2019-05-01T06:53:04Z</time>
      </trkpt>
      <trkpt lat="45.7827" lon="5.47243">
        <ele>274.2</ele>
        <time>2019-05-01T06:53:06Z</time>
      </trkpt>
      <trkpt lat="45.78263" lon="5.47254">
        <ele>274.6</ele>
        <time>2019-05-01T06:53:09Z</time>
      </trkpt>
      <trkpt lat="45.78258" lon="5.47262">
        <ele>274.9</ele>
        <time>2019-05-01T06:53:11Z</time>
      </trkpt>
      <trkpt lat="45.78247" lon="5.47279">
        <ele>275.4</ele>
        <time>2019-05-01T06:53:16Z</time>
      </trkpt>
      <trkpt lat="45.78242" lon="5.47285">
        <ele>275.5</ele>
        <time>2019-05-01T06:53:18Z</time>
      </trkpt>
      <trkpt lat="45.78231" lon="5.473">
        <ele>276.3</ele>
        <time>2019-05-01T06:53:23Z</time>
      </trkpt>
      <trkpt lat="45.78226" lon="5.47306">
        <ele>276.7</ele>
        <time>2019-05-01T06:53:25Z</time>
      </trkpt>
      <trkpt lat="45.78219" lon="5.47314">
        <ele>277.3</ele>
        <time>2019-05-01T06:53:28Z</time>
      </trkpt>
      <trkpt lat="45.78209" lon="5.47325">
        <ele>277.9</ele>
        <time>2019-05-01T06:53:33Z</time>
      </trkpt>
      <trkpt lat="45.78196" lon="5.47335">
        <ele>278.3</ele>
        <time>2019-05-01T06:53:39Z</time>
      </trkpt>
      <trkpt lat="45.78182" lon="5.47344">
        <ele>278.7</ele>
        <time>2019-05-01T06:53:44Z</time>
      </trkpt>
      <trkpt lat="45.78159" lon="5.47358">
        <ele>279</ele>
        <time>2019-05-01T06:53:50Z</time>
      </trkpt>
      <trkpt lat="45.78131" lon="5.47379">
        <ele>279.2</ele>
        <time>2019-05-01T06:53:58Z</time>
      </trkpt>
      <trkpt lat="45.78105" lon="5.47396">
        <ele>279</ele>
        <time>2019-05-01T06:54:05Z</time>
      </trkpt>
      <trkpt lat="45.78096" lon="5.47402">
        <ele>278.7</ele>
        <time>2019-05-01T06:54:07Z</time>
      </trkpt>
      <trkpt lat="45.78091" lon="5.47405">
        <ele>278.6</ele>
        <time>2019-05-01T06:54:08Z</time>
      </trkpt>
      <trkpt lat="45.78078" lon="5.47417">
        <ele>278.1</ele>
        <time>2019-05-01T06:54:11Z</time>
      </trkpt>
      <trkpt lat="45.78058" lon="5.47426">
        <ele>277.3</ele>
        <time>2019-05-01T06:54:15Z</time>
      </trkpt>
      <trkpt lat="45.78052" lon="5.47429">
        <ele>277</ele>
        <time>2019-05-01T06:54:16Z</time>
      </trkpt>
      <trkpt lat="45.78025" lon="5.47448">
        <ele>275.9</ele>
        <time>2019-05-01T06:54:21Z</time>
      </trkpt>
      <trkpt lat="45.77994" lon="5.47468">
        <ele>275.6</ele>
        <time>2019-05-01T06:54:27Z</time>
      </trkpt>
      <trkpt lat="45.77974" lon="5.47477">
        <ele>276</ele>
        <time>2019-05-01T06:54:33Z</time>
      </trkpt>
      <trkpt lat="45.77959" lon="5.47485">
        <ele>276.5</ele>
        <time>2019-05-01T06:54:39Z</time>
      </trkpt>
      <trkpt lat="45.7795" lon="5.47491">
        <ele>276.8</ele>
        <time>2019-05-01T06:54:45Z</time>
      </trkpt>
      <trkpt lat="45.77948" lon="5.47492">
        <ele>276.9</ele>
        <time>2019-05-01T06:54:53Z</time>
      </trkpt>
      <trkpt lat="45.77945" lon="5.47494">
        <ele>277</ele>
        <time>2019-05-01T06:54:54Z</time>
      </trkpt>
      <trkpt lat="45.77936" lon="5.47498">
        <ele>277.2</ele>
        <time>2019-05-01T06:54:57Z</time>
      </trkpt>
      <trkpt lat="45.77929" lon="5.47503">
        <ele>277.4</ele>
        <time>2019-05-01T06:54:59Z</time>
      </trkpt>
      <trkpt lat="45.77925" lon="5.47505">
        <ele>277.5</ele>
        <time>2019-05-01T06:55:00Z</time>
      </trkpt>
      <trkpt lat="45.77914" lon="5.4751">
        <ele>277.7</ele>
        <time>2019-05-01T06:55:03Z</time>
      </trkpt>
      <trkpt lat="45.77903" lon="5.47515">
        <ele>277.9</ele>
        <time>2019-05-01T06:55:06Z</time>
      </trkpt>
      <trkpt lat="45.77897" lon="5.47519">
        <ele>278.1</ele>
        <time>2019-05-01T06:55:08Z</time>
      </trkpt>
      <trkpt lat="45.77887" lon="5.47526">
        <ele>278.3</ele>
        <time>2019-05-01T06:55:11Z</time>
      </trkpt>
      <trkpt lat="45.77878" lon="5.4753">
        <ele>278.5</ele>
        <time>2019-05-01T06:55:13Z</time>
      </trkpt>
      <trkpt lat="45.77874" lon="5.47532">
        <ele>278.6</ele>
        <time>2019-05-01T06:55:14Z</time>
      </trkpt>
      <trkpt lat="45.77863" lon="5.4754">
        <ele>278.8</ele>
        <time>2019-05-01T06:55:17Z</time>
      </trkpt>
      <trkpt lat="45.77852" lon="5.47546">
        <ele>278.9</ele>
        <time>2019-05-01T06:55:20Z</time>
      </trkpt>
      <trkpt lat="45.77848" lon="5.47549">
        <ele>279</ele>
        <time>2019-05-01T06:55:21Z</time>
      </trkpt>
      <trkpt lat="45.77833" lon="5.47557">
        <ele>279.1</ele>
        <time>2019-05-01T06:55:25Z</time>
      </trkpt>
      <trkpt lat="45.77823" lon="5.47568">
        <ele>279.1</ele>
        <time>2019-05-01T06:55:28Z</time>
      </trkpt>
      <trkpt lat="45.77819" lon="5.47572">
        <ele>279</ele>
        <time>2019-05-01T06:55:29Z</time>
      </trkpt>
      <trkpt lat="45.77811" lon="5.47584">
        <ele>278.7</ele>
        <time>2019-05-01T06:55:32Z</time>
      </trkpt>
      <trkpt lat="45.77807" lon="5.47591">
        <ele>278.5</ele>
        <time>2019-05-01T06:55:34Z</time>
      </trkpt>
      <trkpt lat="45.77805" lon="5.47594">
        <ele>278.5</ele>
        <time>2019-05-01T06:55:35Z</time>
      </trkpt>
      <trkpt lat="45.77801" lon="5.476">
        <ele>278.3</ele>
        <time>2019-05-01T06:55:37Z</time>
      </trkpt>
      <trkpt lat="45.77798" lon="5.47604">
        <ele>278.2</ele>
        <time>2019-05-01T06:55:39Z</time>
      </trkpt>
      <trkpt lat="45.77796" lon="5.47607">
        <ele>278.2</ele>
        <time>2019-05-01T06:55:40Z</time>
      </trkpt>
      <trkpt lat="45.77793" lon="5.47611">
        <ele>278</ele>
        <time>2019-05-01T06:55:42Z</time>
      </trkpt>
      <trkpt lat="45.77789" lon="5.47618">
        <ele>277.6</ele>
        <time>2019-05-01T06:55:44Z</time>
      </trkpt>
      <trkpt lat="45.77784" lon="5.47623">
        <ele>277.3</ele>
        <time>2019-05-01T06:55:46Z</time>
      </trkpt>
      <trkpt lat="45.77775" lon="5.47634">
        <ele>276.6</ele>
        <time>2019-05-01T06:55:50Z</time>
      </trkpt>
      <trkpt lat="45.77767" lon="5.47643">
        <ele>275.9</ele>
        <time>2019-05-01T06:55:53Z</time>
      </trkpt>
      <trkpt lat="45.77761" lon="5.4765">
        <ele>275.1</ele>
        <time>2019-05-01T06:55:55Z</time>
      </trkpt>
      <trkpt lat="45.77754" lon="5.47659">
        <ele>274.5</ele>
        <time>2019-05-01T06:55:57Z</time>
      </trkpt>
      <trkpt lat="45.7774" lon="5.4768">
        <ele>273.5</ele>
        <time>2019-05-01T06:56:02Z</time>
      </trkpt>
      <trkpt lat="45.77728" lon="5.47697">
        <ele>272.7</ele>
        <time>2019-05-01T06:56:07Z</time>
      </trkpt>
      <trkpt lat="45.77724" lon="5.47704">
        <ele>272.5</ele>
        <time>2019-05-01T06:56:09Z</time>
      </trkpt>
      <trkpt lat="45.77719" lon="5.47716">
        <ele>272.3</ele>
        <time>2019-05-01T06:56:12Z</time>
      </trkpt>
      <trkpt lat="45.77716" lon="5.47723">
        <ele>272.1</ele>
        <time>2019-05-01T06:56:14Z</time>
      </trkpt>
      <trkpt lat="45.77713" lon="5.47723">
        <ele>272.1</ele>
        <time>2019-05-01T06:56:16Z</time>
      </trkpt>
      <trkpt lat="45.77713" lon="5.4772">
        <ele>272.1</ele>
        <time>2019-05-01T06:56:17Z</time>
      </trkpt>
      <trkpt lat="45.77715" lon="5.47707">
        <ele>271.9</ele>
        <time>2019-05-01T06:56:21Z</time>
      </trkpt>
      <trkpt lat="45.77715" lon="5.47702">
        <ele>271.8</ele>
        <time>2019-05-01T06:56:22Z</time>
      </trkpt>
      <trkpt lat="45.77716" lon="5.47684">
        <ele>271.5</ele>
        <time>2019-05-01T06:56:26Z</time>
      </trkpt>
      <trkpt lat="45.77713" lon="5.47688">
        <ele>271.5</ele>
        <time>2019-05-01T06:56:29Z</time>
      </trkpt>
      <trkpt lat="45.77713" lon="5.47691">
        <ele>271.4</ele>
        <time>2019-05-01T06:56:30Z</time>
      </trkpt>
      <trkpt lat="45.77713" lon="5.477">
        <ele>271.8</ele>
        <time>2019-05-01T06:56:34Z</time>
      </trkpt>
      <trkpt lat="45.7771" lon="5.47714">
        <ele>272.3</ele>
        <time>2019-05-01T06:56:41Z</time>
      </trkpt>
      <trkpt lat="45.77705" lon="5.47716">
        <ele>272.2</ele>
        <time>2019-05-01T06:56:43Z</time>
      </trkpt>
      <trkpt lat="45.77694" lon="5.47721">
        <ele>272</ele>
        <time>2019-05-01T06:56:47Z</time>
      </trkpt>
      <trkpt lat="45.7769" lon="5.47722">
        <ele>272.1</ele>
        <time>2019-05-01T06:56:49Z</time>
      </trkpt>
      <trkpt lat="45.77685" lon="5.47728">
        <ele>272.2</ele>
        <time>2019-05-01T06:56:52Z</time>
      </trkpt>
      <trkpt lat="45.77673" lon="5.47742">
        <ele>273</ele>
        <time>2019-05-01T06:56:57Z</time>
      </trkpt>
      <trkpt lat="45.77644" lon="5.47769">
        <ele>275.5</ele>
        <time>2019-05-01T06:57:06Z</time>
      </trkpt>
      <trkpt lat="45.77621" lon="5.47794">
        <ele>278.1</ele>
        <time>2019-05-01T06:57:14Z</time>
      </trkpt>
      <trkpt lat="45.77614" lon="5.47801">
        <ele>278.9</ele>
        <time>2019-05-01T06:57:17Z</time>
      </trkpt>
      <trkpt lat="45.77603" lon="5.47814">
        <ele>279.9</ele>
        <time>2019-05-01T06:57:22Z</time>
      </trkpt>
      <trkpt lat="45.77592" lon="5.47834">
        <ele>281</ele>
        <time>2019-05-01T06:57:29Z</time>
      </trkpt>
      <trkpt lat="45.77589" lon="5.4784">
        <ele>281.2</ele>
        <time>2019-05-01T06:57:31Z</time>
      </trkpt>
      <trkpt lat="45.77582" lon="5.47849">
        <ele>281.8</ele>
        <time>2019-05-01T06:57:35Z</time>
      </trkpt>
      <trkpt lat="45.77572" lon="5.47862">
        <ele>282.5</ele>
        <time>2019-05-01T06:57:41Z</time>
      </trkpt>
      <trkpt lat="45.77569" lon="5.47866">
        <ele>282.7</ele>
        <time>2019-05-01T06:57:43Z</time>
      </trkpt>
      <trkpt lat="45.77563" lon="5.47873">
        <ele>283.1</ele>
        <time>2019-05-01T06:57:47Z</time>
      </trkpt>
      <trkpt lat="45.77559" lon="5.47877">
        <ele>283.5</ele>
        <time>2019-05-01T06:57:50Z</time>
      </trkpt>
      <trkpt lat="45.77555" lon="5.4788">
        <ele>283.8</ele>
        <time>2019-05-01T06:57:53Z</time>
      </trkpt>
      <trkpt lat="45.77552" lon="5.47879">
        <ele>284.1</ele>
        <time>2019-05-01T06:57:55Z</time>
      </trkpt>
      <trkpt lat="45.77551" lon="5.47878">
        <ele>284.3</ele>
        <time>2019-05-01T06:57:56Z</time>
      </trkpt>
      <trkpt lat="45.77548" lon="5.47878">
        <ele>284.6</ele>
        <time>2019-05-01T06:57:58Z</time>
      </trkpt>
      <trkpt lat="45.77542" lon="5.47879">
        <ele>285.1</ele>
        <time>2019-05-01T06:58:01Z</time>
      </trkpt>
      <trkpt lat="45.77538" lon="5.47878">
        <ele>285.4</ele>
        <time>2019-05-01T06:58:03Z</time>
      </trkpt>
      <trkpt lat="45.77532" lon="5.47878">
        <ele>286</ele>
        <time>2019-05-01T06:58:07Z</time>
      </trkpt>
      <trkpt lat="45.77521" lon="5.4788">
        <ele>286.9</ele>
        <time>2019-05-01T06:58:12Z</time>
      </trkpt>
      <trkpt lat="45.77519" lon="5.4788">
        <ele>287.1</ele>
        <time>2019-05-01T06:58:13Z</time>
      </trkpt>
      <trkpt lat="45.77512" lon="5.47884">
        <ele>287.9</ele>
        <time>2019-05-01T06:58:17Z</time>
      </trkpt>
      <trkpt lat="45.77509" lon="5.47888">
        <ele>288.5</ele>
        <time>2019-05-01T06:58:20Z</time>
      </trkpt>
      <trkpt lat="45.77507" lon="5.4789">
        <ele>288.8</ele>
        <time>2019-05-01T06:58:22Z</time>
      </trkpt>
      <trkpt lat="45.775" lon="5.47895">
        <ele>289.7</ele>
        <time>2019-05-01T06:58:27Z</time>
      </trkpt>
      <trkpt lat="45.77496" lon="5.47899">
        <ele>290.7</ele>
        <time>2019-05-01T06:58:30Z</time>
      </trkpt>
      <trkpt lat="45.77493" lon="5.47902">
        <ele>291.4</ele>
        <time>2019-05-01T06:58:32Z</time>
      </trkpt>
      <trkpt lat="45.77491" lon="5.47904">
        <ele>291.7</ele>
        <time>2019-05-01T06:58:33Z</time>
      </trkpt>
      <trkpt lat="45.77487" lon="5.4791">
        <ele>292.3</ele>
        <time>2019-05-01T06:58:36Z</time>
      </trkpt>
      <trkpt lat="45.7748" lon="5.47919">
        <ele>293.6</ele>
        <time>2019-05-01T06:58:40Z</time>
      </trkpt>
      <trkpt lat="45.77474" lon="5.47928">
        <ele>295.2</ele>
        <time>2019-05-01T06:58:44Z</time>
      </trkpt>
      <trkpt lat="45.77469" lon="5.47935">
        <ele>296.6</ele>
        <time>2019-05-01T06:58:47Z</time>
      </trkpt>
      <trkpt lat="45.77451" lon="5.47954">
        <ele>300.2</ele>
        <time>2019-05-01T06:58:56Z</time>
      </trkpt>
      <trkpt lat="45.77444" lon="5.47971">
        <ele>301.2</ele>
        <time>2019-05-01T06:59:03Z</time>
      </trkpt>
      <trkpt lat="45.77443" lon="5.47976">
        <ele>301</ele>
        <time>2019-05-01T06:59:05Z</time>
      </trkpt>
      <trkpt lat="45.77443" lon="5.47992">
        <ele>300.4</ele>
        <time>2019-05-01T06:59:09Z</time>
      </trkpt>
      <trkpt lat="45.77443" lon="5.47999">
        <ele>300.1</ele>
        <time>2019-05-01T06:59:11Z</time>
      </trkpt>
      <trkpt lat="45.77444" lon="5.48015">
        <ele>299.8</ele>
        <time>2019-05-01T06:59:16Z</time>
      </trkpt>
      <trkpt lat="45.77443" lon="5.4803">
        <ele>300.6</ele>
        <time>2019-05-01T06:59:21Z</time>
      </trkpt>
      <trkpt lat="45.77443" lon="5.48038">
        <ele>300.9</ele>
        <time>2019-05-01T06:59:24Z</time>
      </trkpt>
      <trkpt lat="45.77446" lon="5.48048">
        <ele>300.5</ele>
        <time>2019-05-01T06:59:28Z</time>
      </trkpt>
      <trkpt lat="45.77448" lon="5.48052">
        <ele>300.1</ele>
        <time>2019-05-01T06:59:30Z</time>
      </trkpt>
      <trkpt lat="45.77449" lon="5.48054">
        <ele>300.1</ele>
        <time>2019-05-01T06:59:31Z</time>
      </trkpt>
      <trkpt lat="45.77452" lon="5.48058">
        <ele>299.8</ele>
        <time>2019-05-01T06:59:33Z</time>
      </trkpt>
      <trkpt lat="45.77454" lon="5.48059">
        <ele>299.4</ele>
        <time>2019-05-01T06:59:35Z</time>
      </trkpt>
      <trkpt lat="45.77459" lon="5.4806">
        <ele>299.2</ele>
        <time>2019-05-01T06:59:38Z</time>
      </trkpt>
      <trkpt lat="45.7746" lon="5.48061">
        <ele>298.8</ele>
        <time>2019-05-01T06:59:39Z</time>
      </trkpt>
      <trkpt lat="45.77464" lon="5.48066">
        <ele>298.6</ele>
        <time>2019-05-01T06:59:42Z</time>
      </trkpt>
      <trkpt lat="45.77468" lon="5.48073">
        <ele>298.3</ele>
        <time>2019-05-01T06:59:46Z</time>
      </trkpt>
      <trkpt lat="45.77474" lon="5.48076">
        <ele>297.8</ele>
        <time>2019-05-01T06:59:50Z</time>
      </trkpt>
      <trkpt lat="45.77475" lon="5.48075">
        <ele>297.3</ele>
        <time>2019-05-01T06:59:51Z</time>
      </trkpt>
      <trkpt lat="45.77477" lon="5.48075">
        <ele>296.8</ele>
        <time>2019-05-01T06:59:52Z</time>
      </trkpt>
      <trkpt lat="45.77489" lon="5.48077">
        <ele>295.3</ele>
        <time>2019-05-01T06:59:58Z</time>
      </trkpt>
      <trkpt lat="45.77494" lon="5.48075">
        <ele>294.6</ele>
        <time>2019-05-01T07:00:00Z</time>
      </trkpt>
      <trkpt lat="45.77508" lon="5.48073">
        <ele>293.1</ele>
        <time>2019-05-01T07:00:05Z</time>
      </trkpt>
      <trkpt lat="45.77526" lon="5.48075">
        <ele>291.6</ele>
        <time>2019-05-01T07:00:10Z</time>
      </trkpt>
      <trkpt lat="45.77542" lon="5.48085">
        <ele>289.4</ele>
        <time>2019-05-01T07:00:16Z</time>
      </trkpt>
      <trkpt lat="45.77545" lon="5.48086">
        <ele>289.2</ele>
        <time>2019-05-01T07:00:17Z</time>
      </trkpt>
      <trkpt lat="45.77555" lon="5.48082">
        <ele>288.1</ele>
        <time>2019-05-01T07:00:20Z</time>
      </trkpt>
      <trkpt lat="45.77563" lon="5.48081">
        <ele>287.4</ele>
        <time>2019-05-01T07:00:25Z</time>
      </trkpt>
      <trkpt lat="45.77564" lon="5.48088">
        <ele>286.9</ele>
        <time>2019-05-01T07:00:28Z</time>
      </trkpt>
      <trkpt lat="45.77563" lon="5.48092">
        <ele>286.5</ele>
        <time>2019-05-01T07:00:29Z</time>
      </trkpt>
      <trkpt lat="45.77563" lon="5.48096">
        <ele>286.2</ele>
        <time>2019-05-01T07:00:30Z</time>
      </trkpt>
      <trkpt lat="45.77562" lon="5.48103">
        <ele>285.6</ele>
        <time>2019-05-01T07:00:32Z</time>
      </trkpt>
      <trkpt lat="45.77561" lon="5.4811">
        <ele>285.3</ele>
        <time>2019-05-01T07:00:34Z</time>
      </trkpt>
      <trkpt lat="45.7756" lon="5.48114">
        <ele>285.6</ele>
        <time>2019-05-01T07:00:35Z</time>
      </trkpt>
      <trkpt lat="45.77559" lon="5.48118">
        <ele>285.3</ele>
        <time>2019-05-01T07:00:36Z</time>
      </trkpt>
      <trkpt lat="45.77556" lon="5.48127">
        <ele>285.4</ele>
        <time>2019-05-01T07:00:38Z</time>
      </trkpt>
      <trkpt lat="45.77556" lon="5.48131">
        <ele>285.1</ele>
        <time>2019-05-01T07:00:39Z</time>
      </trkpt>
      <trkpt lat="45.77556" lon="5.48134">
        <ele>284.8</ele>
        <time>2019-05-01T07:00:40Z</time>
      </trkpt>
      <trkpt lat="45.77558" lon="5.48142">
        <ele>283.5</ele>
        <time>2019-05-01T07:00:42Z</time>
      </trkpt>
      <trkpt lat="45.77559" lon="5.48152">
        <ele>282.7</ele>
        <time>2019-05-01T07:00:44Z</time>
      </trkpt>
      <trkpt lat="45.77561" lon="5.4816">
        <ele>281.9</ele>
        <time>2019-05-01T07:00:46Z</time>
      </trkpt>
      <trkpt lat="45.77562" lon="5.48168">
        <ele>280.4</ele>
        <time>2019-05-01T07:00:48Z</time>
      </trkpt>
      <trkpt lat="45.77565" lon="5.48176">
        <ele>279.2</ele>
        <time>2019-05-01T07:00:50Z</time>
      </trkpt>
      <trkpt lat="45.77566" lon="5.48185">
        <ele>278.6</ele>
        <time>2019-05-01T07:00:52Z</time>
      </trkpt>
      <trkpt lat="45.77565" lon="5.48193">
        <ele>278</ele>
        <time>2019-05-01T07:00:54Z</time>
      </trkpt>
      <trkpt lat="45.77565" lon="5.48202">
        <ele>277.3</ele>
        <time>2019-05-01T07:00:57Z</time>
      </trkpt>
      <trkpt lat="45.77566" lon="5.48209">
        <ele>276.7</ele>
        <time>2019-05-01T07:00:59Z</time>
      </trkpt>
      <trkpt lat="45.77567" lon="5.48215">
        <ele>276.4</ele>
        <time>2019-05-01T07:01:00Z</time>
      </trkpt>
      <trkpt lat="45.77569" lon="5.48222">
        <ele>275.6</ele>
        <time>2019-05-01T07:01:01Z</time>
      </trkpt>
      <trkpt lat="45.77574" lon="5.48234">
        <ele>274.3</ele>
        <time>2019-05-01T07:01:03Z</time>
      </trkpt>
      <trkpt lat="45.77583" lon="5.48256">
        <ele>273</ele>
        <time>2019-05-01T07:01:06Z</time>
      </trkpt>
      <trkpt lat="45.77588" lon="5.48263">
        <ele>272.7</ele>
        <time>2019-05-01T07:01:07Z</time>
      </trkpt>
      <trkpt lat="45.77592" lon="5.48269">
        <ele>272.4</ele>
        <time>2019-05-01T07:01:08Z</time>
      </trkpt>
      <trkpt lat="45.77595" lon="5.48276">
        <ele>272.2</ele>
        <time>2019-05-01T07:01:09Z</time>
      </trkpt>
      <trkpt lat="45.77599" lon="5.4829">
        <ele>271.6</ele>
        <time>2019-05-01T07:01:11Z</time>
      </trkpt>
      <trkpt lat="45.77601" lon="5.48296">
        <ele>271.1</ele>
        <time>2019-05-01T07:01:12Z</time>
      </trkpt>
      <trkpt lat="45.77613" lon="5.48304">
        <ele>269.9</ele>
        <time>2019-05-01T07:01:15Z</time>
      </trkpt>
      <trkpt lat="45.77624" lon="5.48312">
        <ele>268.9</ele>
        <time>2019-05-01T07:01:19Z</time>
      </trkpt>
      <trkpt lat="45.77617" lon="5.48323">
        <ele>269.2</ele>
        <time>2019-05-01T07:01:22Z</time>
      </trkpt>
      <trkpt lat="45.77614" lon="5.48327">
        <ele>269.3</ele>
        <time>2019-05-01T07:01:23Z</time>
      </trkpt>
      <trkpt lat="45.77599" lon="5.48356">
        <ele>269.7</ele>
        <time>2019-05-01T07:01:29Z</time>
      </trkpt>
      <trkpt lat="45.77597" lon="5.48362">
        <ele>269.6</ele>
        <time>2019-05-01T07:01:30Z</time>
      </trkpt>
      <trkpt lat="45.77581" lon="5.48403">
        <ele>269.1</ele>
        <time>2019-05-01T07:01:38Z</time>
      </trkpt>
      <trkpt lat="45.7756" lon="5.48436">
        <ele>268.5</ele>
        <time>2019-05-01T07:01:45Z</time>
      </trkpt>
      <trkpt lat="45.77542" lon="5.48467">
        <ele>269.6</ele>
        <time>2019-05-01T07:01:51Z</time>
      </trkpt>
      <trkpt lat="45.77537" lon="5.48479">
        <ele>270.2</ele>
        <time>2019-05-01T07:01:53Z</time>
      </trkpt>
      <trkpt lat="45.7753" lon="5.4849">
        <ele>271.4</ele>
        <time>2019-05-01T07:01:55Z</time>
      </trkpt>
      <trkpt lat="45.77526" lon="5.48494">
        <ele>271.9</ele>
        <time>2019-05-01T07:01:56Z</time>
      </trkpt>
      <trkpt lat="45.77509" lon="5.48511">
        <ele>273.7</ele>
        <time>2019-05-01T07:02:01Z</time>
      </trkpt>
      <trkpt lat="45.77497" lon="5.48523">
        <ele>275</ele>
        <time>2019-05-01T07:02:06Z</time>
      </trkpt>
      <trkpt lat="45.77495" lon="5.48526">
        <ele>275.1</ele>
        <time>2019-05-01T07:02:07Z</time>
      </trkpt>
      <trkpt lat="45.77491" lon="5.48536">
        <ele>276.4</ele>
        <time>2019-05-01T07:02:09Z</time>
      </trkpt>
      <trkpt lat="45.77485" lon="5.48548">
        <ele>277.4</ele>
        <time>2019-05-01T07:02:12Z</time>
      </trkpt>
      <trkpt lat="45.7748" lon="5.48558">
        <ele>278.8</ele>
        <time>2019-05-01T07:02:15Z</time>
      </trkpt>
      <trkpt lat="45.77478" lon="5.48567">
        <ele>279.9</ele>
        <time>2019-05-01T07:02:18Z</time>
      </trkpt>
      <trkpt lat="45.77482" lon="5.48574">
        <ele>280.2</ele>
        <time>2019-05-01T07:02:24Z</time>
      </trkpt>
      <trkpt lat="45.77487" lon="5.48576">
        <ele>280.2</ele>
        <time>2019-05-01T07:02:26Z</time>
      </trkpt>
      <trkpt lat="45.7749" lon="5.48577">
        <ele>280.3</ele>
        <time>2019-05-01T07:02:27Z</time>
      </trkpt>
      <trkpt lat="45.77498" lon="5.48578">
        <ele>280.4</ele>
        <time>2019-05-01T07:02:30Z</time>
      </trkpt>
      <trkpt lat="45.77508" lon="5.4858">
        <ele>280.6</ele>
        <time>2019-05-01T07:02:34Z</time>
      </trkpt>
      <trkpt lat="45.7751" lon="5.48581">
        <ele>280.7</ele>
        <time>2019-05-01T07:02:35Z</time>
      </trkpt>
      <trkpt lat="45.77515" lon="5.48581">
        <ele>280.8</ele>
        <time>2019-05-01T07:02:38Z</time>
      </trkpt>
      <trkpt lat="45.77518" lon="5.48582">
        <ele>280.9</ele>
        <time>2019-05-01T07:02:40Z</time>
      </trkpt>
      <trkpt lat="45.77522" lon="5.48583">
        <ele>281</ele>
        <time>2019-05-01T07:02:42Z</time>
      </trkpt>
      <trkpt lat="45.77531" lon="5.48582">
        <ele>281.3</ele>
        <time>2019-05-01T07:02:48Z</time>
      </trkpt>
      <trkpt lat="45.77548" lon="5.48582">
        <ele>281.8</ele>
        <time>2019-05-01T07:02:56Z</time>
      </trkpt>
      <trkpt lat="45.77563" lon="5.48583">
        <ele>282.2</ele>
        <time>2019-05-01T07:03:04Z</time>
      </trkpt>
      <trkpt lat="45.77576" lon="5.48591">
        <ele>282.3</ele>
        <time>2019-05-01T07:03:11Z</time>
      </trkpt>
      <trkpt lat="45.77594" lon="5.48606">
        <ele>281.8</ele>
        <time>2019-05-01T07:03:18Z</time>
      </trkpt>
      <trkpt lat="45.77604" lon="5.48624">
        <ele>280.7</ele>
        <time>2019-05-01T07:03:23Z</time>
      </trkpt>
      <trkpt lat="45.77606" lon="5.48628">
        <ele>280.5</ele>
        <time>2019-05-01T07:03:24Z</time>
      </trkpt>
      <trkpt lat="45.77618" lon="5.48649">
        <ele>279.3</ele>
        <time>2019-05-01T07:03:29Z</time>
      </trkpt>
      <trkpt lat="45.77621" lon="5.48654">
        <ele>279.1</ele>
        <time>2019-05-01T07:03:30Z</time>
      </trkpt>
      <trkpt lat="45.77632" lon="5.48668">
        <ele>278.3</ele>
        <time>2019-05-01T07:03:33Z</time>
      </trkpt>
      <trkpt lat="45.7765" lon="5.48688">
        <ele>278.9</ele>
        <time>2019-05-01T07:03:38Z</time>
      </trkpt>
      <trkpt lat="45.77657" lon="5.48697">
        <ele>279.2</ele>
        <time>2019-05-01T07:03:40Z</time>
      </trkpt>
      <trkpt lat="45.77667" lon="5.4871">
        <ele>279.7</ele>
        <time>2019-05-01T07:03:43Z</time>
      </trkpt>
      <trkpt lat="45.77671" lon="5.48714">
        <ele>280</ele>
        <time>2019-05-01T07:03:44Z</time>
      </trkpt>
      <trkpt lat="45.77697" lon="5.48749">
        <ele>282.6</ele>
        <time>2019-05-01T07:03:52Z</time>
      </trkpt>
      <trkpt lat="45.77701" lon="5.48758">
        <ele>283.6</ele>
        <time>2019-05-01T07:03:54Z</time>
      </trkpt>
      <trkpt lat="45.77707" lon="5.48771">
        <ele>284.8</ele>
        <time>2019-05-01T07:03:57Z</time>
      </trkpt>
      <trkpt lat="45.77711" lon="5.48778">
        <ele>285.6</ele>
        <time>2019-05-01T07:03:59Z</time>
      </trkpt>
      <trkpt lat="45.77715" lon="5.48785">
        <ele>286.5</ele>
        <time>2019-05-01T07:04:01Z</time>
      </trkpt>
      <trkpt lat="45.77722" lon="5.48795">
        <ele>287.4</ele>
        <time>2019-05-01T07:04:05Z</time>
      </trkpt>
      <trkpt lat="45.77723" lon="5.48798">
        <ele>287.4</ele>
        <time>2019-05-01T07:04:06Z</time>
      </trkpt>
      <trkpt lat="45.77722" lon="5.48801">
        <ele>287.4</ele>
        <time>2019-05-01T07:04:07Z</time>
      </trkpt>
      <trkpt lat="45.77718" lon="5.48807">
        <ele>288.2</ele>
        <time>2019-05-01T07:04:09Z</time>
      </trkpt>
      <trkpt lat="45.77716" lon="5.48809">
        <ele>288.4</ele>
        <time>2019-05-01T07:04:10Z</time>
      </trkpt>
      <trkpt lat="45.7771" lon="5.48816">
        <ele>289</ele>
        <time>2019-05-01T07:04:13Z</time>
      </trkpt>
      <trkpt lat="45.77704" lon="5.48822">
        <ele>289.5</ele>
        <time>2019-05-01T07:04:16Z</time>
      </trkpt>
      <trkpt lat="45.77695" lon="5.48834">
        <ele>290.3</ele>
        <time>2019-05-01T07:04:21Z</time>
      </trkpt>
      <trkpt lat="45.77693" lon="5.48836">
        <ele>290.5</ele>
        <time>2019-05-01T07:04:22Z</time>
      </trkpt>
      <trkpt lat="45.77689" lon="5.4884">
        <ele>290.8</ele>
        <time>2019-05-01T07:04:24Z</time>
      </trkpt>
      <trkpt lat="45.77681" lon="5.48846">
        <ele>291.3</ele>
        <time>2019-05-01T07:04:27Z</time>
      </trkpt>
      <trkpt lat="45.77676" lon="5.4885">
        <ele>291.7</ele>
        <time>2019-05-01T07:04:29Z</time>
      </trkpt>
      <trkpt lat="45.77673" lon="5.48854">
        <ele>291.9</ele>
        <time>2019-05-01T07:04:31Z</time>
      </trkpt>
      <trkpt lat="45.77665" lon="5.48863">
        <ele>292.7</ele>
        <time>2019-05-01T07:04:35Z</time>
      </trkpt>
      <trkpt lat="45.77663" lon="5.48865">
        <ele>292.8</ele>
        <time>2019-05-01T07:04:36Z</time>
      </trkpt>
      <trkpt lat="45.77656" lon="5.48871">
        <ele>293.3</ele>
        <time>2019-05-01T07:04:39Z</time>
      </trkpt>
      <trkpt lat="45.77647" lon="5.48883">
        <ele>294.4</ele>
        <time>2019-05-01T07:04:43Z</time>
      </trkpt>
      <trkpt lat="45.77637" lon="5.48898">
        <ele>295.5</ele>
        <time>2019-05-01T07:04:48Z</time>
      </trkpt>
      <trkpt lat="45.77633" lon="5.48903">
        <ele>295.8</ele>
        <time>2019-05-01T07:04:50Z</time>
      </trkpt>
      <trkpt lat="45.77627" lon="5.48907">
        <ele>295.9</ele>
        <time>2019-05-01T07:04:52Z</time>
      </trkpt>
      <trkpt lat="45.77615" lon="5.48919">
        <ele>295.9</ele>
        <time>2019-05-01T07:04:57Z</time>
      </trkpt>
      <trkpt lat="45.77605" lon="5.48928">
        <ele>296.2</ele>
        <time>2019-05-01T07:05:01Z</time>
      </trkpt>
      <trkpt lat="45.7759" lon="5.4894">
        <ele>297.4</ele>
        <time>2019-05-01T07:05:07Z</time>
      </trkpt>
      <trkpt lat="45.77588" lon="5.48942">
        <ele>297.6</ele>
        <time>2019-05-01T07:05:08Z</time>
      </trkpt>
      <trkpt lat="45.77578" lon="5.4895">
        <ele>298.6</ele>
        <time>2019-05-01T07:05:12Z</time>
      </trkpt>
      <trkpt lat="45.77565" lon="5.48963">
        <ele>299.9</ele>
        <time>2019-05-01T07:05:17Z</time>
      </trkpt>
      <trkpt lat="45.77544" lon="5.48987">
        <ele>301.8</ele>
        <time>2019-05-01T07:05:26Z</time>
      </trkpt>
      <trkpt lat="45.77529" lon="5.49008">
        <ele>303.2</ele>
        <time>2019-05-01T07:05:34Z</time>
      </trkpt>
      <trkpt lat="45.77527" lon="5.49011">
        <ele>303.4</ele>
        <time>2019-05-01T07:05:35Z</time>
      </trkpt>
      <trkpt lat="45.77512" lon="5.49029">
        <ele>306.1</ele>
        <time>2019-05-01T07:05:43Z</time>
      </trkpt>
      <trkpt lat="45.77501" lon="5.49041">
        <ele>307.2</ele>
        <time>2019-05-01T07:05:49Z</time>
      </trkpt>
      <trkpt lat="45.77499" lon="5.49042">
        <ele>307.2</ele>
        <time>2019-05-01T07:05:50Z</time>
      </trkpt>
      <trkpt lat="45.77482" lon="5.49051">
        <ele>308.1</ele>
        <time>2019-05-01T07:05:57Z</time>
      </trkpt>
      <trkpt lat="45.77457" lon="5.49061">
        <ele>309.7</ele>
        <time>2019-05-01T07:06:06Z</time>
      </trkpt>
      <trkpt lat="45.77449" lon="5.49066">
        <ele>310.3</ele>
        <time>2019-05-01T07:06:09Z</time>
      </trkpt>
      <trkpt lat="45.77435" lon="5.49074">
        <ele>311.2</ele>
        <time>2019-05-01T07:06:14Z</time>
      </trkpt>
      <trkpt lat="45.7743" lon="5.49077">
        <ele>311.6</ele>
        <time>2019-05-01T07:06:16Z</time>
      </trkpt>
      <trkpt lat="45.77412" lon="5.49089">
        <ele>313.3</ele>
        <time>2019-05-01T07:06:24Z</time>
      </trkpt>
      <trkpt lat="45.77398" lon="5.49105">
        <ele>315.4</ele>
        <time>2019-05-01T07:06:31Z</time>
      </trkpt>
      <trkpt lat="45.77396" lon="5.49107">
        <ele>315.7</ele>
        <time>2019-05-01T07:06:32Z</time>
      </trkpt>
      <trkpt lat="45.77389" lon="5.49114">
        <ele>316.7</ele>
        <time>2019-05-01T07:06:36Z</time>
      </trkpt>
      <trkpt lat="45.77376" lon="5.49128">
        <ele>318.6</ele>
        <time>2019-05-01T07:06:43Z</time>
      </trkpt>
      <trkpt lat="45.77373" lon="5.4913">
        <ele>318.9</ele>
        <time>2019-05-01T07:06:44Z</time>
      </trkpt>
      <trkpt lat="45.77365" lon="5.49135">
        <ele>320.1</ele>
        <time>2019-05-01T07:06:48Z</time>
      </trkpt>
      <trkpt lat="45.77361" lon="5.49138">
        <ele>320.8</ele>
        <time>2019-05-01T07:06:50Z</time>
      </trkpt>
      <trkpt lat="45.77355" lon="5.49142">
        <ele>321.6</ele>
        <time>2019-05-01T07:06:53Z</time>
      </trkpt>
      <trkpt lat="45.77351" lon="5.49145">
        <ele>322.4</ele>
        <time>2019-05-01T07:06:56Z</time>
      </trkpt>
      <trkpt lat="45.77349" lon="5.49145">
        <ele>322.7</ele>
        <time>2019-05-01T07:06:57Z</time>
      </trkpt>
      <trkpt lat="45.77341" lon="5.49151">
        <ele>324.3</ele>
        <time>2019-05-01T07:07:01Z</time>
      </trkpt>
      <trkpt lat="45.77337" lon="5.49153">
        <ele>324.9</ele>
        <time>2019-05-01T07:07:03Z</time>
      </trkpt>
      <trkpt lat="45.77332" lon="5.49156">
        <ele>325.7</ele>
        <time>2019-05-01T07:07:06Z</time>
      </trkpt>
      <trkpt lat="45.77326" lon="5.49158">
        <ele>326.2</ele>
        <time>2019-05-01T07:07:10Z</time>
      </trkpt>
      <trkpt lat="45.77323" lon="5.4916">
        <ele>326.2</ele>
        <time>2019-05-01T07:07:11Z</time>
      </trkpt>
      <trkpt lat="45.77311" lon="5.49165">
        <ele>326.6</ele>
        <time>2019-05-01T07:07:18Z</time>
      </trkpt>
      <trkpt lat="45.77306" lon="5.49166">
        <ele>326.7</ele>
        <time>2019-05-01T07:07:22Z</time>
      </trkpt>
      <trkpt lat="45.77301" lon="5.49168">
        <ele>326.9</ele>
        <time>2019-05-01T07:07:25Z</time>
      </trkpt>
      <trkpt lat="45.77296" lon="5.49171">
        <ele>327</ele>
        <time>2019-05-01T07:07:28Z</time>
      </trkpt>
      <trkpt lat="45.77293" lon="5.49172">
        <ele>327.1</ele>
        <time>2019-05-01T07:07:30Z</time>
      </trkpt>
      <trkpt lat="45.7729" lon="5.49173">
        <ele>327.2</ele>
        <time>2019-05-01T07:07:32Z</time>
      </trkpt>
      <trkpt lat="45.77287" lon="5.49175">
        <ele>327.3</ele>
        <time>2019-05-01T07:07:34Z</time>
      </trkpt>
      <trkpt lat="45.77284" lon="5.49175">
        <ele>327.4</ele>
        <time>2019-05-01T07:07:36Z</time>
      </trkpt>
      <trkpt lat="45.77274" lon="5.49178">
        <ele>327.8</ele>
        <time>2019-05-01T07:07:41Z</time>
      </trkpt>
      <trkpt lat="45.77266" lon="5.49183">
        <ele>328</ele>
        <time>2019-05-01T07:07:45Z</time>
      </trkpt>
      <trkpt lat="45.77256" lon="5.49189">
        <ele>328.3</ele>
        <time>2019-05-01T07:07:50Z</time>
      </trkpt>
      <trkpt lat="45.77242" lon="5.49201">
        <ele>328.7</ele>
        <time>2019-05-01T07:07:58Z</time>
      </trkpt>
      <trkpt lat="45.7723" lon="5.4922">
        <ele>329.2</ele>
        <time>2019-05-01T07:08:06Z</time>
      </trkpt>
      <trkpt lat="45.77218" lon="5.49242">
        <ele>330.5</ele>
        <time>2019-05-01T07:08:14Z</time>
      </trkpt>
      <trkpt lat="45.77201" lon="5.49275">
        <ele>332.4</ele>
        <time>2019-05-01T07:08:25Z</time>
      </trkpt>
      <trkpt lat="45.77185" lon="5.49305">
        <ele>334.8</ele>
        <time>2019-05-01T07:08:35Z</time>
      </trkpt>
      <trkpt lat="45.77171" lon="5.49326">
        <ele>336.6</ele>
        <time>2019-05-01T07:08:43Z</time>
      </trkpt>
      <trkpt lat="45.77169" lon="5.49328">
        <ele>336.7</ele>
        <time>2019-05-01T07:08:44Z</time>
      </trkpt>
      <trkpt lat="45.77152" lon="5.49347">
        <ele>336.8</ele>
        <time>2019-05-01T07:08:52Z</time>
      </trkpt>
      <trkpt lat="45.77138" lon="5.49361">
        <ele>336</ele>
        <time>2019-05-01T07:08:59Z</time>
      </trkpt>
      <trkpt lat="45.77136" lon="5.49363">
        <ele>335.8</ele>
        <time>2019-05-01T07:09:00Z</time>
      </trkpt>
      <trkpt lat="45.77122" lon="5.49373">
        <ele>334.4</ele>
        <time>2019-05-01T07:09:06Z</time>
      </trkpt>
      <trkpt lat="45.77114" lon="5.49382">
        <ele>334</ele>
        <time>2019-05-01T07:09:10Z</time>
      </trkpt>
      <trkpt lat="45.77108" lon="5.49389">
        <ele>333.3</ele>
        <time>2019-05-01T07:09:13Z</time>
      </trkpt>
      <trkpt lat="45.77101" lon="5.49395">
        <ele>332.5</ele>
        <time>2019-05-01T07:09:16Z</time>
      </trkpt>
      <trkpt lat="45.77092" lon="5.49404">
        <ele>332.4</ele>
        <time>2019-05-01T07:09:20Z</time>
      </trkpt>
      <trkpt lat="45.77082" lon="5.49413">
        <ele>331.5</ele>
        <time>2019-05-01T07:09:24Z</time>
      </trkpt>
      <trkpt lat="45.77072" lon="5.49421">
        <ele>331.4</ele>
        <time>2019-05-01T07:09:28Z</time>
      </trkpt>
      <trkpt lat="45.77068" lon="5.49426">
        <ele>331.6</ele>
        <time>2019-05-01T07:09:30Z</time>
      </trkpt>
      <trkpt lat="45.77054" lon="5.49444">
        <ele>331.1</ele>
        <time>2019-05-01T07:09:36Z</time>
      </trkpt>
      <trkpt lat="45.77048" lon="5.49453">
        <ele>331.1</ele>
        <time>2019-05-01T07:09:38Z</time>
      </trkpt>
      <trkpt lat="45.77038" lon="5.49469">
        <ele>331.8</ele>
        <time>2019-05-01T07:09:41Z</time>
      </trkpt>
      <trkpt lat="45.77019" lon="5.49493">
        <ele>332.8</ele>
        <time>2019-05-01T07:09:46Z</time>
      </trkpt>
      <trkpt lat="45.77007" lon="5.49506">
        <ele>333.4</ele>
        <time>2019-05-01T07:09:49Z</time>
      </trkpt>
      <trkpt lat="45.76989" lon="5.49525">
        <ele>334.1</ele>
        <time>2019-05-01T07:09:54Z</time>
      </trkpt>
      <trkpt lat="45.76985" lon="5.49529">
        <ele>334.2</ele>
        <time>2019-05-01T07:09:55Z</time>
      </trkpt>
      <trkpt lat="45.76973" lon="5.49538">
        <ele>334.9</ele>
        <time>2019-05-01T07:09:58Z</time>
      </trkpt>
      <trkpt lat="45.7696" lon="5.49543">
        <ele>335.5</ele>
        <time>2019-05-01T07:10:01Z</time>
      </trkpt>
      <trkpt lat="45.76942" lon="5.49551">
        <ele>336.4</ele>
        <time>2019-05-01T07:10:05Z</time>
      </trkpt>
      <trkpt lat="45.76931" lon="5.49559">
        <ele>337.3</ele>
        <time>2019-05-01T07:10:08Z</time>
      </trkpt>
      <trkpt lat="45.76926" lon="5.49564">
        <ele>337.8</ele>
        <time>2019-05-01T07:10:10Z</time>
      </trkpt>
      <trkpt lat="45.76917" lon="5.49572">
        <ele>338.7</ele>
        <time>2019-05-01T07:10:14Z</time>
      </trkpt>
      <trkpt lat="45.76914" lon="5.49574">
        <ele>339</ele>
        <time>2019-05-01T07:10:16Z</time>
      </trkpt>
      <trkpt lat="45.7691" lon="5.49579">
        <ele>339.6</ele>
        <time>2019-05-01T07:10:20Z</time>
      </trkpt>
      <trkpt lat="45.76908" lon="5.49581">
        <ele>339.8</ele>
        <time>2019-05-01T07:10:21Z</time>
      </trkpt>
      <trkpt lat="45.76902" lon="5.49589">
        <ele>340.8</ele>
        <time>2019-05-01T07:10:26Z</time>
      </trkpt>
      <trkpt lat="45.76894" lon="5.49596">
        <ele>342.7</ele>
        <time>2019-05-01T07:10:32Z</time>
      </trkpt>
      <trkpt lat="45.76892" lon="5.49598">
        <ele>343.1</ele>
        <time>2019-05-01T07:10:34Z</time>
      </trkpt>
      <trkpt lat="45.76888" lon="5.49603">
        <ele>343.8</ele>
        <time>2019-05-01T07:10:37Z</time>
      </trkpt>
      <trkpt lat="45.76883" lon="5.49614">
        <ele>345.1</ele>
        <time>2019-05-01T07:10:43Z</time>
      </trkpt>
      <trkpt lat="45.76879" lon="5.49628">
        <ele>346.7</ele>
        <time>2019-05-01T07:10:50Z</time>
      </trkpt>
      <trkpt lat="45.76875" lon="5.49641">
        <ele>348</ele>
        <time>2019-05-01T07:10:57Z</time>
      </trkpt>
      <trkpt lat="45.76875" lon="5.49643">
        <ele>348.2</ele>
        <time>2019-05-01T07:10:58Z</time>
      </trkpt>
      <trkpt lat="45.76874" lon="5.49647">
        <ele>348.7</ele>
        <time>2019-05-01T07:11:00Z</time>
      </trkpt>
      <trkpt lat="45.76873" lon="5.49651">
        <ele>349.1</ele>
        <time>2019-05-01T07:11:02Z</time>
      </trkpt>
      <trkpt lat="45.76872" lon="5.49654">
        <ele>349.5</ele>
        <time>2019-05-01T07:11:04Z</time>
      </trkpt>
      <trkpt lat="45.7687" lon="5.49657">
        <ele>349.8</ele>
        <time>2019-05-01T07:11:06Z</time>
      </trkpt>
      <trkpt lat="45.76868" lon="5.49663">
        <ele>350.3</ele>
        <time>2019-05-01T07:11:09Z</time>
      </trkpt>
      <trkpt lat="45.76865" lon="5.49671">
        <ele>350.9</ele>
        <time>2019-05-01T07:11:13Z</time>
      </trkpt>
      <trkpt lat="45.76865" lon="5.49673">
        <ele>351.1</ele>
        <time>2019-05-01T07:11:14Z</time>
      </trkpt>
      <trkpt lat="45.76863" lon="5.49677">
        <ele>351.4</ele>
        <time>2019-05-01T07:11:16Z</time>
      </trkpt>
      <trkpt lat="45.76861" lon="5.49684">
        <ele>352</ele>
        <time>2019-05-01T07:11:20Z</time>
      </trkpt>
      <trkpt lat="45.7686" lon="5.49686">
        <ele>352.2</ele>
        <time>2019-05-01T07:11:21Z</time>
      </trkpt>
      <trkpt lat="45.7685" lon="5.49703">
        <ele>354</ele>
        <time>2019-05-01T07:11:33Z</time>
      </trkpt>
      <trkpt lat="45.76847" lon="5.49709">
        <ele>354.7</ele>
        <time>2019-05-01T07:11:36Z</time>
      </trkpt>
      <trkpt lat="45.76836" lon="5.49723">
        <ele>356.8</ele>
        <time>2019-05-01T07:11:45Z</time>
      </trkpt>
      <trkpt lat="45.76826" lon="5.49736">
        <ele>358.6</ele>
        <time>2019-05-01T07:11:54Z</time>
      </trkpt>
      <trkpt lat="45.76816" lon="5.4975">
        <ele>360.8</ele>
        <time>2019-05-01T07:12:04Z</time>
      </trkpt>
      <trkpt lat="45.76805" lon="5.49767">
        <ele>363.3</ele>
        <time>2019-05-01T07:12:13Z</time>
      </trkpt>
      <trkpt lat="45.76804" lon="5.49768">
        <ele>363.6</ele>
        <time>2019-05-01T07:12:14Z</time>
      </trkpt>
      <trkpt lat="45.76796" lon="5.49777">
        <ele>364.5</ele>
        <time>2019-05-01T07:12:20Z</time>
      </trkpt>
      <trkpt lat="45.76793" lon="5.49781">
        <ele>364.9</ele>
        <time>2019-05-01T07:12:22Z</time>
      </trkpt>
      <trkpt lat="45.76783" lon="5.49792">
        <ele>365.8</ele>
        <time>2019-05-01T07:12:28Z</time>
      </trkpt>
      <trkpt lat="45.76775" lon="5.49799">
        <ele>366.3</ele>
        <time>2019-05-01T07:12:32Z</time>
      </trkpt>
      <trkpt lat="45.76766" lon="5.49808">
        <ele>366.9</ele>
        <time>2019-05-01T07:12:37Z</time>
      </trkpt>
      <trkpt lat="45.76755" lon="5.49819">
        <ele>367.8</ele>
        <time>2019-05-01T07:12:44Z</time>
      </trkpt>
      <trkpt lat="45.76749" lon="5.49825">
        <ele>368.4</ele>
        <time>2019-05-01T07:12:48Z</time>
      </trkpt>
      <trkpt lat="45.76746" lon="5.4983">
        <ele>368.8</ele>
        <time>2019-05-01T07:12:51Z</time>
      </trkpt>
      <trkpt lat="45.76742" lon="5.49835">
        <ele>369.1</ele>
        <time>2019-05-01T07:12:54Z</time>
      </trkpt>
      <trkpt lat="45.76737" lon="5.49841">
        <ele>370.2</ele>
        <time>2019-05-01T07:12:58Z</time>
      </trkpt>
      <trkpt lat="45.76736" lon="5.49843">
        <ele>370.4</ele>
        <time>2019-05-01T07:12:59Z</time>
      </trkpt>
      <trkpt lat="45.76735" lon="5.49844">
        <ele>370.6</ele>
        <time>2019-05-01T07:13:00Z</time>
      </trkpt>
      <trkpt lat="45.76733" lon="5.49846">
        <ele>371</ele>
        <time>2019-05-01T07:13:02Z</time>
      </trkpt>
      <trkpt lat="45.7673" lon="5.4985">
        <ele>371.4</ele>
        <time>2019-05-01T07:13:04Z</time>
      </trkpt>
      <trkpt lat="45.76728" lon="5.49853">
        <ele>371.9</ele>
        <time>2019-05-01T07:13:06Z</time>
      </trkpt>
      <trkpt lat="45.76726" lon="5.49856">
        <ele>372.3</ele>
        <time>2019-05-01T07:13:08Z</time>
      </trkpt>
      <trkpt lat="45.76724" lon="5.49857">
        <ele>372.5</ele>
        <time>2019-05-01T07:13:09Z</time>
      </trkpt>
      <trkpt lat="45.76721" lon="5.4986">
        <ele>373.1</ele>
        <time>2019-05-01T07:13:12Z</time>
      </trkpt>
      <trkpt lat="45.76716" lon="5.49866">
        <ele>374</ele>
        <time>2019-05-01T07:13:16Z</time>
      </trkpt>
      <trkpt lat="45.76712" lon="5.4987">
        <ele>374.7</ele>
        <time>2019-05-01T07:13:20Z</time>
      </trkpt>
      <trkpt lat="45.76711" lon="5.49872">
        <ele>374.9</ele>
        <time>2019-05-01T07:13:21Z</time>
      </trkpt>
      <trkpt lat="45.76707" lon="5.49877">
        <ele>375.8</ele>
        <time>2019-05-01T07:13:25Z</time>
      </trkpt>
      <trkpt lat="45.76705" lon="5.49881">
        <ele>376.4</ele>
        <time>2019-05-01T07:13:28Z</time>
      </trkpt>
      <trkpt lat="45.76704" lon="5.49883">
        <ele>376.6</ele>
        <time>2019-05-01T07:13:29Z</time>
      </trkpt>
      <trkpt lat="45.76701" lon="5.49888">
        <ele>377.3</ele>
        <time>2019-05-01T07:13:32Z</time>
      </trkpt>
      <trkpt lat="45.76697" lon="5.49898">
        <ele>378.5</ele>
        <time>2019-05-01T07:13:38Z</time>
      </trkpt>
      <trkpt lat="45.76694" lon="5.49904">
        <ele>379.2</ele>
        <time>2019-05-01T07:13:42Z</time>
      </trkpt>
      <trkpt lat="45.76691" lon="5.49911">
        <ele>380.2</ele>
        <time>2019-05-01T07:13:46Z</time>
      </trkpt>
      <trkpt lat="45.76689" lon="5.49918">
        <ele>381.2</ele>
        <time>2019-05-01T07:13:50Z</time>
      </trkpt>
      <trkpt lat="45.76685" lon="5.49926">
        <ele>382.5</ele>
        <time>2019-05-01T07:13:56Z</time>
      </trkpt>
      <trkpt lat="45.7666" lon="5.49966">
        <ele>388.8</ele>
        <time>2019-05-01T07:14:24Z</time>
      </trkpt>
      <trkpt lat="45.76658" lon="5.49969">
        <ele>389.2</ele>
        <time>2019-05-01T07:14:26Z</time>
      </trkpt>
      <trkpt lat="45.76656" lon="5.49972">
        <ele>389.7</ele>
        <time>2019-05-01T07:14:28Z</time>
      </trkpt>
      <trkpt lat="45.7665" lon="5.49983">
        <ele>391.6</ele>
        <time>2019-05-01T07:14:35Z</time>
      </trkpt>
      <trkpt lat="45.76648" lon="5.49986">
        <ele>392</ele>
        <time>2019-05-01T07:14:37Z</time>
      </trkpt>
      <trkpt lat="45.76645" lon="5.49991">
        <ele>392.7</ele>
        <time>2019-05-01T07:14:40Z</time>
      </trkpt>
      <trkpt lat="45.76641" lon="5.49999">
        <ele>393.8</ele>
        <time>2019-05-01T07:14:46Z</time>
      </trkpt>
      <trkpt lat="45.7664" lon="5.50001">
        <ele>394</ele>
        <time>2019-05-01T07:14:47Z</time>
      </trkpt>
      <trkpt lat="45.76636" lon="5.50008">
        <ele>395.4</ele>
        <time>2019-05-01T07:14:52Z</time>
      </trkpt>
      <trkpt lat="45.76632" lon="5.50015">
        <ele>397.3</ele>
        <time>2019-05-01T07:14:56Z</time>
      </trkpt>
      <trkpt lat="45.76627" lon="5.50024">
        <ele>398.5</ele>
        <time>2019-05-01T07:15:02Z</time>
      </trkpt>
      <trkpt lat="45.76625" lon="5.50026">
        <ele>398.8</ele>
        <time>2019-05-01T07:15:04Z</time>
      </trkpt>
      <trkpt lat="45.76619" lon="5.50035">
        <ele>400.1</ele>
        <time>2019-05-01T07:15:10Z</time>
      </trkpt>
      <trkpt lat="45.76615" lon="5.5004">
        <ele>400.9</ele>
        <time>2019-05-01T07:15:13Z</time>
      </trkpt>
      <trkpt lat="45.76615" lon="5.50041">
        <ele>401.1</ele>
        <time>2019-05-01T07:15:14Z</time>
      </trkpt>
      <trkpt lat="45.76612" lon="5.50046">
        <ele>401.9</ele>
        <time>2019-05-01T07:15:17Z</time>
      </trkpt>
      <trkpt lat="45.76608" lon="5.50053">
        <ele>402.8</ele>
        <time>2019-05-01T07:15:20Z</time>
      </trkpt>
      <trkpt lat="45.76606" lon="5.50056">
        <ele>404</ele>
        <time>2019-05-01T07:15:22Z</time>
      </trkpt>
      <trkpt lat="45.76601" lon="5.50063">
        <ele>406.4</ele>
        <time>2019-05-01T07:15:27Z</time>
      </trkpt>
      <trkpt lat="45.76597" lon="5.5007">
        <ele>407.5</ele>
        <time>2019-05-01T07:15:31Z</time>
      </trkpt>
      <trkpt lat="45.76593" lon="5.50076">
        <ele>408.6</ele>
        <time>2019-05-01T07:15:35Z</time>
      </trkpt>
      <trkpt lat="45.76592" lon="5.50077">
        <ele>408.9</ele>
        <time>2019-05-01T07:15:36Z</time>
      </trkpt>
      <trkpt lat="45.76589" lon="5.50081">
        <ele>409.7</ele>
        <time>2019-05-01T07:15:39Z</time>
      </trkpt>
      <trkpt lat="45.76584" lon="5.50086">
        <ele>410.8</ele>
        <time>2019-05-01T07:15:43Z</time>
      </trkpt>
      <trkpt lat="45.76569" lon="5.50099">
        <ele>411.5</ele>
        <time>2019-05-01T07:15:52Z</time>
      </trkpt>
      <trkpt lat="45.76557" lon="5.50114">
        <ele>412.1</ele>
        <time>2019-05-01T07:15:58Z</time>
      </trkpt>
      <trkpt lat="45.76547" lon="5.50125">
        <ele>412.9</ele>
        <time>2019-05-01T07:16:05Z</time>
      </trkpt>
      <trkpt lat="45.76538" lon="5.50135">
        <ele>413.9</ele>
        <time>2019-05-01T07:16:11Z</time>
      </trkpt>
      <trkpt lat="45.76526" lon="5.50146">
        <ele>415.6</ele>
        <time>2019-05-01T07:16:19Z</time>
      </trkpt>
      <trkpt lat="45.76514" lon="5.50159">
        <ele>416.8</ele>
        <time>2019-05-01T07:16:26Z</time>
      </trkpt>
      <trkpt lat="45.76513" lon="5.50161">
        <ele>417</ele>
        <time>2019-05-01T07:16:27Z</time>
      </trkpt>
      <trkpt lat="45.76503" lon="5.50173">
        <ele>417.9</ele>
        <time>2019-05-01T07:16:34Z</time>
      </trkpt>
      <trkpt lat="45.7649" lon="5.50188">
        <ele>419.3</ele>
        <time>2019-05-01T07:16:41Z</time>
      </trkpt>
      <trkpt lat="45.76478" lon="5.50206">
        <ele>420.7</ele>
        <time>2019-05-01T07:16:48Z</time>
      </trkpt>
      <trkpt lat="45.76476" lon="5.50208">
        <ele>420.9</ele>
        <time>2019-05-01T07:16:49Z</time>
      </trkpt>
      <trkpt lat="45.76472" lon="5.50214">
        <ele>421.4</ele>
        <time>2019-05-01T07:16:51Z</time>
      </trkpt>
      <trkpt lat="45.76466" lon="5.50223">
        <ele>421.9</ele>
        <time>2019-05-01T07:16:55Z</time>
      </trkpt>
      <trkpt lat="45.76465" lon="5.50225">
        <ele>422</ele>
        <time>2019-05-01T07:16:56Z</time>
      </trkpt>
      <trkpt lat="45.76462" lon="5.50227">
        <ele>422.3</ele>
        <time>2019-05-01T07:16:59Z</time>
      </trkpt>
      <trkpt lat="45.76455" lon="5.50234">
        <ele>422.6</ele>
        <time>2019-05-01T07:17:03Z</time>
      </trkpt>
      <trkpt lat="45.76443" lon="5.50246">
        <ele>422.5</ele>
        <time>2019-05-01T07:17:07Z</time>
      </trkpt>
      <trkpt lat="45.76419" lon="5.50269">
        <ele>421.6</ele>
        <time>2019-05-01T07:17:12Z</time>
      </trkpt>
      <trkpt lat="45.76379" lon="5.503">
        <ele>422.2</ele>
        <time>2019-05-01T07:17:19Z</time>
      </trkpt>
      <trkpt lat="45.76368" lon="5.50307">
        <ele>422.9</ele>
        <time>2019-05-01T07:17:23Z</time>
      </trkpt>
      <trkpt lat="45.7635" lon="5.50321">
        <ele>423.8</ele>
        <time>2019-05-01T07:17:29Z</time>
      </trkpt>
      <trkpt lat="45.7633" lon="5.50343">
        <ele>424.6</ele>
        <time>2019-05-01T07:17:35Z</time>
      </trkpt>
      <trkpt lat="45.76326" lon="5.50348">
        <ele>424.7</ele>
        <time>2019-05-01T07:17:36Z</time>
      </trkpt>
      <trkpt lat="45.7632" lon="5.50357">
        <ele>425.1</ele>
        <time>2019-05-01T07:17:38Z</time>
      </trkpt>
      <trkpt lat="45.76313" lon="5.50372">
        <ele>425.9</ele>
        <time>2019-05-01T07:17:42Z</time>
      </trkpt>
      <trkpt lat="45.76305" lon="5.50384">
        <ele>426.9</ele>
        <time>2019-05-01T07:17:46Z</time>
      </trkpt>
      <trkpt lat="45.76298" lon="5.50392">
        <ele>427.7</ele>
        <time>2019-05-01T07:17:49Z</time>
      </trkpt>
      <trkpt lat="45.76293" lon="5.50399">
        <ele>428.5</ele>
        <time>2019-05-01T07:17:52Z</time>
      </trkpt>
      <trkpt lat="45.76286" lon="5.50409">
        <ele>429.4</ele>
        <time>2019-05-01T07:17:56Z</time>
      </trkpt>
      <trkpt lat="45.76283" lon="5.50414">
        <ele>429.9</ele>
        <time>2019-05-01T07:17:58Z</time>
      </trkpt>
      <trkpt lat="45.76278" lon="5.50423">
        <ele>430.7</ele>
        <time>2019-05-01T07:18:02Z</time>
      </trkpt>
      <trkpt lat="45.76275" lon="5.50429">
        <ele>431.5</ele>
        <time>2019-05-01T07:18:05Z</time>
      </trkpt>
      <trkpt lat="45.7627" lon="5.50439">
        <ele>433.1</ele>
        <time>2019-05-01T07:18:10Z</time>
      </trkpt>
      <trkpt lat="45.76267" lon="5.50444">
        <ele>433.9</ele>
        <time>2019-05-01T07:18:13Z</time>
      </trkpt>
      <trkpt lat="45.76264" lon="5.5045">
        <ele>434.7</ele>
        <time>2019-05-01T07:18:16Z</time>
      </trkpt>
      <trkpt lat="45.76261" lon="5.50455">
        <ele>435.4</ele>
        <time>2019-05-01T07:18:19Z</time>
      </trkpt>
      <trkpt lat="45.76256" lon="5.50463">
        <ele>436.2</ele>
        <time>2019-05-01T07:18:23Z</time>
      </trkpt>
      <trkpt lat="45.76253" lon="5.5047">
        <ele>436.7</ele>
        <time>2019-05-01T07:18:26Z</time>
      </trkpt>
      <trkpt lat="45.76251" lon="5.50475">
        <ele>437.1</ele>
        <time>2019-05-01T07:18:28Z</time>
      </trkpt>
      <trkpt lat="45.76245" lon="5.50493">
        <ele>437.7</ele>
        <time>2019-05-01T07:18:33Z</time>
      </trkpt>
      <trkpt lat="45.76233" lon="5.5053">
        <ele>438.3</ele>
        <time>2019-05-01T07:18:40Z</time>
      </trkpt>
      <trkpt lat="45.76225" lon="5.50551">
        <ele>438.6</ele>
        <time>2019-05-01T07:18:44Z</time>
      </trkpt>
      <trkpt lat="45.76217" lon="5.50572">
        <ele>438.9</ele>
        <time>2019-05-01T07:18:48Z</time>
      </trkpt>
      <trkpt lat="45.762" lon="5.50603">
        <ele>439.8</ele>
        <time>2019-05-01T07:18:55Z</time>
      </trkpt>
      <trkpt lat="45.76178" lon="5.50639">
        <ele>441.9</ele>
        <time>2019-05-01T07:19:04Z</time>
      </trkpt>
      <trkpt lat="45.7616" lon="5.50676">
        <ele>444</ele>
        <time>2019-05-01T07:19:13Z</time>
      </trkpt>
      <trkpt lat="45.76151" lon="5.50694">
        <ele>444.9</ele>
        <time>2019-05-01T07:19:18Z</time>
      </trkpt>
      <trkpt lat="45.76147" lon="5.507">
        <ele>445.3</ele>
        <time>2019-05-01T07:19:20Z</time>
      </trkpt>
      <trkpt lat="45.76141" lon="5.50708">
        <ele>446.1</ele>
        <time>2019-05-01T07:19:23Z</time>
      </trkpt>
      <trkpt lat="45.76133" lon="5.50718">
        <ele>447.2</ele>
        <time>2019-05-01T07:19:27Z</time>
      </trkpt>
      <trkpt lat="45.76128" lon="5.50724">
        <ele>448</ele>
        <time>2019-05-01T07:19:30Z</time>
      </trkpt>
      <trkpt lat="45.76122" lon="5.50728">
        <ele>448.7</ele>
        <time>2019-05-01T07:19:33Z</time>
      </trkpt>
      <trkpt lat="45.76117" lon="5.50734">
        <ele>449.5</ele>
        <time>2019-05-01T07:19:36Z</time>
      </trkpt>
      <trkpt lat="45.76112" lon="5.50741">
        <ele>450.5</ele>
        <time>2019-05-01T07:19:39Z</time>
      </trkpt>
      <trkpt lat="45.76109" lon="5.50746">
        <ele>451.1</ele>
        <time>2019-05-01T07:19:41Z</time>
      </trkpt>
      <trkpt lat="45.76107" lon="5.50748">
        <ele>451.4</ele>
        <time>2019-05-01T07:19:42Z</time>
      </trkpt>
      <trkpt lat="45.76102" lon="5.50753">
        <ele>452.1</ele>
        <time>2019-05-01T07:19:45Z</time>
      </trkpt>
      <trkpt lat="45.76096" lon="5.50758">
        <ele>453.1</ele>
        <time>2019-05-01T07:19:48Z</time>
      </trkpt>
      <trkpt lat="45.76091" lon="5.50762">
        <ele>453.8</ele>
        <time>2019-05-01T07:19:51Z</time>
      </trkpt>
      <trkpt lat="45.76087" lon="5.50769">
        <ele>454.4</ele>
        <time>2019-05-01T07:19:54Z</time>
      </trkpt>
      <trkpt lat="45.76084" lon="5.50774">
        <ele>454.9</ele>
        <time>2019-05-01T07:19:56Z</time>
      </trkpt>
      <trkpt lat="45.7608" lon="5.50784">
        <ele>455.9</ele>
        <time>2019-05-01T07:20:00Z</time>
      </trkpt>
      <trkpt lat="45.76079" lon="5.50786">
        <ele>456.1</ele>
        <time>2019-05-01T07:20:01Z</time>
      </trkpt>
      <trkpt lat="45.76072" lon="5.50798">
        <ele>457.5</ele>
        <time>2019-05-01T07:20:06Z</time>
      </trkpt>
      <trkpt lat="45.76068" lon="5.50805">
        <ele>458.3</ele>
        <time>2019-05-01T07:20:09Z</time>
      </trkpt>
      <trkpt lat="45.76063" lon="5.50811">
        <ele>459.1</ele>
        <time>2019-05-01T07:20:12Z</time>
      </trkpt>
      <trkpt lat="45.76059" lon="5.50817">
        <ele>460</ele>
        <time>2019-05-01T07:20:15Z</time>
      </trkpt>
      <trkpt lat="45.76055" lon="5.50822">
        <ele>460.9</ele>
        <time>2019-05-01T07:20:18Z</time>
      </trkpt>
      <trkpt lat="45.76054" lon="5.50823">
        <ele>461.2</ele>
        <time>2019-05-01T07:20:19Z</time>
      </trkpt>
      <trkpt lat="45.76052" lon="5.50824">
        <ele>461.5</ele>
        <time>2019-05-01T07:20:20Z</time>
      </trkpt>
      <trkpt lat="45.76048" lon="5.50829">
        <ele>462.5</ele>
        <time>2019-05-01T07:20:24Z</time>
      </trkpt>
      <trkpt lat="45.76041" lon="5.5084">
        <ele>463.9</ele>
        <time>2019-05-01T07:20:31Z</time>
      </trkpt>
      <trkpt lat="45.76041" lon="5.50849">
        <ele>464.6</ele>
        <time>2019-05-01T07:20:36Z</time>
      </trkpt>
      <trkpt lat="45.76041" lon="5.5085">
        <ele>464.8</ele>
        <time>2019-05-01T07:20:37Z</time>
      </trkpt>
      <trkpt lat="45.76041" lon="5.50868">
        <ele>466.2</ele>
        <time>2019-05-01T07:20:45Z</time>
      </trkpt>
      <trkpt lat="45.7604" lon="5.50872">
        <ele>466.5</ele>
        <time>2019-05-01T07:20:48Z</time>
      </trkpt>
      <trkpt lat="45.76038" lon="5.50877">
        <ele>466.9</ele>
        <time>2019-05-01T07:20:51Z</time>
      </trkpt>
      <trkpt lat="45.76033" lon="5.50886">
        <ele>468</ele>
        <time>2019-05-01T07:20:57Z</time>
      </trkpt>
      <trkpt lat="45.76032" lon="5.50887">
        <ele>468.2</ele>
        <time>2019-05-01T07:20:58Z</time>
      </trkpt>
      <trkpt lat="45.76026" lon="5.50895">
        <ele>469.2</ele>
        <time>2019-05-01T07:21:04Z</time>
      </trkpt>
      <trkpt lat="45.76023" lon="5.50898">
        <ele>469.6</ele>
        <time>2019-05-01T07:21:07Z</time>
      </trkpt>
      <trkpt lat="45.76021" lon="5.50902">
        <ele>470</ele>
        <time>2019-05-01T07:21:10Z</time>
      </trkpt>
      <trkpt lat="45.76016" lon="5.50906">
        <ele>470.9</ele>
        <time>2019-05-01T07:21:14Z</time>
      </trkpt>
      <trkpt lat="45.76014" lon="5.50906">
        <ele>471.3</ele>
        <time>2019-05-01T07:21:16Z</time>
      </trkpt>
      <trkpt lat="45.76013" lon="5.50906">
        <ele>471.4</ele>
        <time>2019-05-01T07:21:17Z</time>
      </trkpt>
      <trkpt lat="45.7601" lon="5.50908">
        <ele>472</ele>
        <time>2019-05-01T07:21:20Z</time>
      </trkpt>
      <trkpt lat="45.76008" lon="5.5091">
        <ele>472.4</ele>
        <time>2019-05-01T07:21:22Z</time>
      </trkpt>
      <trkpt lat="45.76008" lon="5.50912">
        <ele>472.5</ele>
        <time>2019-05-01T07:21:23Z</time>
      </trkpt>
      <trkpt lat="45.76007" lon="5.50913">
        <ele>472.7</ele>
        <time>2019-05-01T07:21:24Z</time>
      </trkpt>
      <trkpt lat="45.76007" lon="5.50918">
        <ele>473.3</ele>
        <time>2019-05-01T07:21:26Z</time>
      </trkpt>
      <trkpt lat="45.76007" lon="5.50923">
        <ele>474</ele>
        <time>2019-05-01T07:21:29Z</time>
      </trkpt>
      <trkpt lat="45.7601" lon="5.50925">
        <ele>474.5</ele>
        <time>2019-05-01T07:21:31Z</time>
      </trkpt>
      <trkpt lat="45.76011" lon="5.50926">
        <ele>474.7</ele>
        <time>2019-05-01T07:21:32Z</time>
      </trkpt>
      <trkpt lat="45.76014" lon="5.50926">
        <ele>475.1</ele>
        <time>2019-05-01T07:21:34Z</time>
      </trkpt>
      <trkpt lat="45.76023" lon="5.50923">
        <ele>474.9</ele>
        <time>2019-05-01T07:21:41Z</time>
      </trkpt>
      <trkpt lat="45.76028" lon="5.50921">
        <ele>474.9</ele>
        <time>2019-05-01T07:21:45Z</time>
      </trkpt>
      <trkpt lat="45.76032" lon="5.50918">
        <ele>474.8</ele>
        <time>2019-05-01T07:21:48Z</time>
      </trkpt>
      <trkpt lat="45.76044" lon="5.50911">
        <ele>474.7</ele>
        <time>2019-05-01T07:21:57Z</time>
      </trkpt>
      <trkpt lat="45.76053" lon="5.50905">
        <ele>475.5</ele>
        <time>2019-05-01T07:22:04Z</time>
      </trkpt>
      <trkpt lat="45.76062" lon="5.50902">
        <ele>475.8</ele>
        <time>2019-05-01T07:22:10Z</time>
      </trkpt>
      <trkpt lat="45.76065" lon="5.50901">
        <ele>475.7</ele>
        <time>2019-05-01T07:22:12Z</time>
      </trkpt>
      <trkpt lat="45.76067" lon="5.509">
        <ele>475.6</ele>
        <time>2019-05-01T07:22:14Z</time>
      </trkpt>
      <trkpt lat="45.76072" lon="5.50898">
        <ele>475.5</ele>
        <time>2019-05-01T07:22:18Z</time>
      </trkpt>
      <trkpt lat="45.76075" lon="5.50896">
        <ele>475.5</ele>
        <time>2019-05-01T07:22:20Z</time>
      </trkpt>
      <trkpt lat="45.76081" lon="5.50893">
        <ele>475.5</ele>
        <time>2019-05-01T07:22:25Z</time>
      </trkpt>
      <trkpt lat="45.76082" lon="5.50892">
        <ele>475.6</ele>
        <time>2019-05-01T07:22:26Z</time>
      </trkpt>
      <trkpt lat="45.76091" lon="5.50889">
        <ele>475.6</ele>
        <time>2019-05-01T07:22:32Z</time>
      </trkpt>
      <trkpt lat="45.76098" lon="5.50885">
        <ele>475.7</ele>
        <time>2019-05-01T07:22:37Z</time>
      </trkpt>
      <trkpt lat="45.76103" lon="5.50885">
        <ele>476</ele>
        <time>2019-05-01T07:22:40Z</time>
      </trkpt>
      <trkpt lat="45.76112" lon="5.50879">
        <ele>477.2</ele>
        <time>2019-05-01T07:22:47Z</time>
      </trkpt>
      <trkpt lat="45.76118" lon="5.50874">
        <ele>476.7</ele>
        <time>2019-05-01T07:22:52Z</time>
      </trkpt>
      <trkpt lat="45.76121" lon="5.50872">
        <ele>476.8</ele>
        <time>2019-05-01T07:22:54Z</time>
      </trkpt>
      <trkpt lat="45.76125" lon="5.5087">
        <ele>476.9</ele>
        <time>2019-05-01T07:22:57Z</time>
      </trkpt>
      <trkpt lat="45.7613" lon="5.50867">
        <ele>477.5</ele>
        <time>2019-05-01T07:23:01Z</time>
      </trkpt>
      <trkpt lat="45.76132" lon="5.50867">
        <ele>477.6</ele>
        <time>2019-05-01T07:23:02Z</time>
      </trkpt>
      <trkpt lat="45.76137" lon="5.50862">
        <ele>477.4</ele>
        <time>2019-05-01T07:23:06Z</time>
      </trkpt>
      <trkpt lat="45.76141" lon="5.50858">
        <ele>477.5</ele>
        <time>2019-05-01T07:23:09Z</time>
      </trkpt>
      <trkpt lat="45.76142" lon="5.50857">
        <ele>477.9</ele>
        <time>2019-05-01T07:23:10Z</time>
      </trkpt>
      <trkpt lat="45.76146" lon="5.50854">
        <ele>478.9</ele>
        <time>2019-05-01T07:23:13Z</time>
      </trkpt>
      <trkpt lat="45.76152" lon="5.50849">
        <ele>479.2</ele>
        <time>2019-05-01T07:23:18Z</time>
      </trkpt>
      <trkpt lat="45.76153" lon="5.50848">
        <ele>479.2</ele>
        <time>2019-05-01T07:23:19Z</time>
      </trkpt>
      <trkpt lat="45.76157" lon="5.50846">
        <ele>479.4</ele>
        <time>2019-05-01T07:23:22Z</time>
      </trkpt>
      <trkpt lat="45.76162" lon="5.50844">
        <ele>479.8</ele>
        <time>2019-05-01T07:23:25Z</time>
      </trkpt>
      <trkpt lat="45.76163" lon="5.50842">
        <ele>480</ele>
        <time>2019-05-01T07:23:26Z</time>
      </trkpt>
      <trkpt lat="45.76171" lon="5.50833">
        <ele>481.1</ele>
        <time>2019-05-01T07:23:33Z</time>
      </trkpt>
      <trkpt lat="45.76181" lon="5.50827">
        <ele>481.6</ele>
        <time>2019-05-01T07:23:40Z</time>
      </trkpt>
      <trkpt lat="45.7619" lon="5.50817">
        <ele>482.9</ele>
        <time>2019-05-01T07:23:47Z</time>
      </trkpt>
      <trkpt lat="45.76199" lon="5.50812">
        <ele>485.5</ele>
        <time>2019-05-01T07:23:53Z</time>
      </trkpt>
      <trkpt lat="45.76203" lon="5.50808">
        <ele>487</ele>
        <time>2019-05-01T07:23:56Z</time>
      </trkpt>
      <trkpt lat="45.76206" lon="5.50806">
        <ele>487.4</ele>
        <time>2019-05-01T07:23:58Z</time>
      </trkpt>
      <trkpt lat="45.76207" lon="5.50805">
        <ele>487.6</ele>
        <time>2019-05-01T07:23:59Z</time>
      </trkpt>
      <trkpt lat="45.76212" lon="5.50798">
        <ele>489</ele>
        <time>2019-05-01T07:24:03Z</time>
      </trkpt>
      <trkpt lat="45.76216" lon="5.50793">
        <ele>490.2</ele>
        <time>2019-05-01T07:24:06Z</time>
      </trkpt>
      <trkpt lat="45.76217" lon="5.50791">
        <ele>490.4</ele>
        <time>2019-05-01T07:24:07Z</time>
      </trkpt>
      <trkpt lat="45.76221" lon="5.50787">
        <ele>490.8</ele>
        <time>2019-05-01T07:24:10Z</time>
      </trkpt>
      <trkpt lat="45.76226" lon="5.50781">
        <ele>492.1</ele>
        <time>2019-05-01T07:24:14Z</time>
      </trkpt>
      <trkpt lat="45.7623" lon="5.50777">
        <ele>493.1</ele>
        <time>2019-05-01T07:24:17Z</time>
      </trkpt>
      <trkpt lat="45.76235" lon="5.50771">
        <ele>495</ele>
        <time>2019-05-01T07:24:21Z</time>
      </trkpt>
      <trkpt lat="45.76236" lon="5.50769">
        <ele>495.5</ele>
        <time>2019-05-01T07:24:22Z</time>
      </trkpt>
      <trkpt lat="45.76243" lon="5.50761">
        <ele>496.5</ele>
        <time>2019-05-01T07:24:28Z</time>
      </trkpt>
      <trkpt lat="45.76247" lon="5.50757">
        <ele>497.9</ele>
        <time>2019-05-01T07:24:31Z</time>
      </trkpt>
      <trkpt lat="45.76255" lon="5.50749">
        <ele>500.5</ele>
        <time>2019-05-01T07:24:37Z</time>
      </trkpt>
      <trkpt lat="45.76257" lon="5.50747">
        <ele>501.3</ele>
        <time>2019-05-01T07:24:39Z</time>
      </trkpt>
      <trkpt lat="45.76259" lon="5.50747">
        <ele>501.6</ele>
        <time>2019-05-01T07:24:40Z</time>
      </trkpt>
      <trkpt lat="45.76263" lon="5.50745">
        <ele>502.2</ele>
        <time>2019-05-01T07:24:43Z</time>
      </trkpt>
      <trkpt lat="45.76266" lon="5.50743">
        <ele>502.6</ele>
        <time>2019-05-01T07:24:45Z</time>
      </trkpt>
      <trkpt lat="45.76269" lon="5.5074">
        <ele>503.3</ele>
        <time>2019-05-01T07:24:47Z</time>
      </trkpt>
      <trkpt lat="45.76273" lon="5.50737">
        <ele>504.4</ele>
        <time>2019-05-01T07:24:50Z</time>
      </trkpt>
      <trkpt lat="45.76275" lon="5.50736">
        <ele>504.8</ele>
        <time>2019-05-01T07:24:51Z</time>
      </trkpt>
      <trkpt lat="45.76279" lon="5.50731">
        <ele>505.4</ele>
        <time>2019-05-01T07:24:54Z</time>
      </trkpt>
      <trkpt lat="45.76284" lon="5.50726">
        <ele>506.8</ele>
        <time>2019-05-01T07:24:58Z</time>
      </trkpt>
      <trkpt lat="45.76285" lon="5.50725">
        <ele>507.4</ele>
        <time>2019-05-01T07:24:59Z</time>
      </trkpt>
      <trkpt lat="45.76288" lon="5.5072">
        <ele>509</ele>
        <time>2019-05-01T07:25:02Z</time>
      </trkpt>
      <trkpt lat="45.76292" lon="5.50716">
        <ele>509.6</ele>
        <time>2019-05-01T07:25:05Z</time>
      </trkpt>
      <trkpt lat="45.76293" lon="5.50715">
        <ele>509.7</ele>
        <time>2019-05-01T07:25:06Z</time>
      </trkpt>
      <trkpt lat="45.76301" lon="5.50707">
        <ele>511.5</ele>
        <time>2019-05-01T07:25:12Z</time>
      </trkpt>
      <trkpt lat="45.76306" lon="5.50701">
        <ele>512.6</ele>
        <time>2019-05-01T07:25:16Z</time>
      </trkpt>
      <trkpt lat="45.76309" lon="5.50699">
        <ele>512.9</ele>
        <time>2019-05-01T07:25:18Z</time>
      </trkpt>
      <trkpt lat="45.76315" lon="5.5069">
        <ele>514.3</ele>
        <time>2019-05-01T07:25:24Z</time>
      </trkpt>
      <trkpt lat="45.76317" lon="5.50688">
        <ele>514.8</ele>
        <time>2019-05-01T07:25:26Z</time>
      </trkpt>
      <trkpt lat="45.76323" lon="5.50684">
        <ele>516</ele>
        <time>2019-05-01T07:25:30Z</time>
      </trkpt>
      <trkpt lat="45.76328" lon="5.50681">
        <ele>516.4</ele>
        <time>2019-05-01T07:25:33Z</time>
      </trkpt>
      <trkpt lat="45.76332" lon="5.50672">
        <ele>517.1</ele>
        <time>2019-05-01T07:25:38Z</time>
      </trkpt>
      <trkpt lat="45.76341" lon="5.5066">
        <ele>519.6</ele>
        <time>2019-05-01T07:25:45Z</time>
      </trkpt>
      <trkpt lat="45.76344" lon="5.50657">
        <ele>519.9</ele>
        <time>2019-05-01T07:25:47Z</time>
      </trkpt>
      <trkpt lat="45.76352" lon="5.50652">
        <ele>520.3</ele>
        <time>2019-05-01T07:25:52Z</time>
      </trkpt>
      <trkpt lat="45.76359" lon="5.50646">
        <ele>521.3</ele>
        <time>2019-05-01T07:25:58Z</time>
      </trkpt>
      <trkpt lat="45.7636" lon="5.50644">
        <ele>521.5</ele>
        <time>2019-05-01T07:25:59Z</time>
      </trkpt>
      <trkpt lat="45.7637" lon="5.50632">
        <ele>522.9</ele>
        <time>2019-05-01T07:26:08Z</time>
      </trkpt>
      <trkpt lat="45.76376" lon="5.50628">
        <ele>523.3</ele>
        <time>2019-05-01T07:26:12Z</time>
      </trkpt>
      <trkpt lat="45.7638" lon="5.50624">
        <ele>523.9</ele>
        <time>2019-05-01T07:26:15Z</time>
      </trkpt>
      <trkpt lat="45.76386" lon="5.50614">
        <ele>524.1</ele>
        <time>2019-05-01T07:26:21Z</time>
      </trkpt>
      <trkpt lat="45.76392" lon="5.50608">
        <ele>524.8</ele>
        <time>2019-05-01T07:26:25Z</time>
      </trkpt>
      <trkpt lat="45.76395" lon="5.50605">
        <ele>525.2</ele>
        <time>2019-05-01T07:26:27Z</time>
      </trkpt>
      <trkpt lat="45.76396" lon="5.50603">
        <ele>525.4</ele>
        <time>2019-05-01T07:26:28Z</time>
      </trkpt>
      <trkpt lat="45.764" lon="5.50597">
        <ele>525.9</ele>
        <time>2019-05-01T07:26:31Z</time>
      </trkpt>
      <trkpt lat="45.76403" lon="5.50595">
        <ele>525.7</ele>
        <time>2019-05-01T07:26:33Z</time>
      </trkpt>
      <trkpt lat="45.76405" lon="5.50592">
        <ele>525.6</ele>
        <time>2019-05-01T07:26:35Z</time>
      </trkpt>
      <trkpt lat="45.76411" lon="5.50587">
        <ele>525.7</ele>
        <time>2019-05-01T07:27:37Z</time>
      </trkpt>
      <trkpt lat="45.76413" lon="5.50584">
        <ele>525.9</ele>
        <time>2019-05-01T07:27:38Z</time>
      </trkpt>
      <trkpt lat="45.76414" lon="5.50581">
        <ele>525.9</ele>
        <time>2019-05-01T07:27:39Z</time>
      </trkpt>
      <trkpt lat="45.76416" lon="5.50579">
        <ele>525.9</ele>
        <time>2019-05-01T07:27:40Z</time>
      </trkpt>
      <trkpt lat="45.76419" lon="5.50574">
        <ele>525.9</ele>
        <time>2019-05-01T07:27:42Z</time>
      </trkpt>
      <trkpt lat="45.7642" lon="5.50573">
        <ele>525.9</ele>
        <time>2019-05-01T07:27:43Z</time>
      </trkpt>
      <trkpt lat="45.76421" lon="5.50571">
        <ele>526</ele>
        <time>2019-05-01T07:27:44Z</time>
      </trkpt>
      <trkpt lat="45.76424" lon="5.50569">
        <ele>526.3</ele>
        <time>2019-05-01T07:27:46Z</time>
      </trkpt>
      <trkpt lat="45.76433" lon="5.50563">
        <ele>526.1</ele>
        <time>2019-05-01T07:27:51Z</time>
      </trkpt>
      <trkpt lat="45.76437" lon="5.50557">
        <ele>526.1</ele>
        <time>2019-05-01T07:27:54Z</time>
      </trkpt>
      <trkpt lat="45.76443" lon="5.50552">
        <ele>526.5</ele>
        <time>2019-05-01T07:27:58Z</time>
      </trkpt>
      <trkpt lat="45.76449" lon="5.50546">
        <ele>526.9</ele>
        <time>2019-05-01T07:28:02Z</time>
      </trkpt>
      <trkpt lat="45.76452" lon="5.50544">
        <ele>526.8</ele>
        <time>2019-05-01T07:28:04Z</time>
      </trkpt>
      <trkpt lat="45.76453" lon="5.50542">
        <ele>526.7</ele>
        <time>2019-05-01T07:28:05Z</time>
      </trkpt>
      <trkpt lat="45.76457" lon="5.50538">
        <ele>526.7</ele>
        <time>2019-05-01T07:28:08Z</time>
      </trkpt>
      <trkpt lat="45.76461" lon="5.50534">
        <ele>527.2</ele>
        <time>2019-05-01T07:28:11Z</time>
      </trkpt>
      <trkpt lat="45.76463" lon="5.5053">
        <ele>527.6</ele>
        <time>2019-05-01T07:28:13Z</time>
      </trkpt>
      <trkpt lat="45.76466" lon="5.50527">
        <ele>527.9</ele>
        <time>2019-05-01T07:28:15Z</time>
      </trkpt>
      <trkpt lat="45.76468" lon="5.50524">
        <ele>528.2</ele>
        <time>2019-05-01T07:28:17Z</time>
      </trkpt>
      <trkpt lat="45.76472" lon="5.5052">
        <ele>528.3</ele>
        <time>2019-05-01T07:28:20Z</time>
      </trkpt>
      <trkpt lat="45.76475" lon="5.50518">
        <ele>528.3</ele>
        <time>2019-05-01T07:28:22Z</time>
      </trkpt>
      <trkpt lat="45.7648" lon="5.50511">
        <ele>528.2</ele>
        <time>2019-05-01T07:28:26Z</time>
      </trkpt>
      <trkpt lat="45.76482" lon="5.50508">
        <ele>528.1</ele>
        <time>2019-05-01T07:28:28Z</time>
      </trkpt>
      <trkpt lat="45.76483" lon="5.50507">
        <ele>528.3</ele>
        <time>2019-05-01T07:28:29Z</time>
      </trkpt>
      <trkpt lat="45.76488" lon="5.50501">
        <ele>529.7</ele>
        <time>2019-05-01T07:28:33Z</time>
      </trkpt>
      <trkpt lat="45.7649" lon="5.50501">
        <ele>530</ele>
        <time>2019-05-01T07:28:34Z</time>
      </trkpt>
      <trkpt lat="45.76498" lon="5.50495">
        <ele>530</ele>
        <time>2019-05-01T07:28:40Z</time>
      </trkpt>
      <trkpt lat="45.76507" lon="5.50486">
        <ele>532.4</ele>
        <time>2019-05-01T07:28:46Z</time>
      </trkpt>
      <trkpt lat="45.7651" lon="5.50482">
        <ele>533</ele>
        <time>2019-05-01T07:28:49Z</time>
      </trkpt>
      <trkpt lat="45.76516" lon="5.50475">
        <ele>534.4</ele>
        <time>2019-05-01T07:28:53Z</time>
      </trkpt>
      <trkpt lat="45.7652" lon="5.50469">
        <ele>535.4</ele>
        <time>2019-05-01T07:28:57Z</time>
      </trkpt>
      <trkpt lat="45.76521" lon="5.50467">
        <ele>535.5</ele>
        <time>2019-05-01T07:28:58Z</time>
      </trkpt>
      <trkpt lat="45.76528" lon="5.50463">
        <ele>536.6</ele>
        <time>2019-05-01T07:29:03Z</time>
      </trkpt>
      <trkpt lat="45.76532" lon="5.5046">
        <ele>537.2</ele>
        <time>2019-05-01T07:29:06Z</time>
      </trkpt>
      <trkpt lat="45.76537" lon="5.50456">
        <ele>537.9</ele>
        <time>2019-05-01T07:29:10Z</time>
      </trkpt>
      <trkpt lat="45.76545" lon="5.50451">
        <ele>539.4</ele>
        <time>2019-05-01T07:29:15Z</time>
      </trkpt>
      <trkpt lat="45.76548" lon="5.5045">
        <ele>539.9</ele>
        <time>2019-05-01T07:29:17Z</time>
      </trkpt>
      <trkpt lat="45.76557" lon="5.50444">
        <ele>541.2</ele>
        <time>2019-05-01T07:29:23Z</time>
      </trkpt>
      <trkpt lat="45.76562" lon="5.5044">
        <ele>542.5</ele>
        <time>2019-05-01T07:29:27Z</time>
      </trkpt>
      <trkpt lat="45.76568" lon="5.50435">
        <ele>542.5</ele>
        <time>2019-05-01T07:29:32Z</time>
      </trkpt>
      <trkpt lat="45.76573" lon="5.50433">
        <ele>543</ele>
        <time>2019-05-01T07:29:35Z</time>
      </trkpt>
      <trkpt lat="45.76579" lon="5.5043">
        <ele>543.9</ele>
        <time>2019-05-01T07:29:39Z</time>
      </trkpt>
      <trkpt lat="45.76586" lon="5.50426">
        <ele>544.4</ele>
        <time>2019-05-01T07:29:44Z</time>
      </trkpt>
      <trkpt lat="45.76591" lon="5.50423">
        <ele>545.3</ele>
        <time>2019-05-01T07:29:48Z</time>
      </trkpt>
      <trkpt lat="45.76594" lon="5.50421">
        <ele>545.7</ele>
        <time>2019-05-01T07:29:50Z</time>
      </trkpt>
      <trkpt lat="45.76596" lon="5.50419">
        <ele>546</ele>
        <time>2019-05-01T07:29:52Z</time>
      </trkpt>
      <trkpt lat="45.76604" lon="5.50414">
        <ele>546.9</ele>
        <time>2019-05-01T07:29:57Z</time>
      </trkpt>
      <trkpt lat="45.76605" lon="5.50414">
        <ele>547.1</ele>
        <time>2019-05-01T07:29:58Z</time>
      </trkpt>
      <trkpt lat="45.76609" lon="5.50414">
        <ele>547.5</ele>
        <time>2019-05-01T07:30:00Z</time>
      </trkpt>
      <trkpt lat="45.76617" lon="5.50414">
        <ele>547.8</ele>
        <time>2019-05-01T07:30:06Z</time>
      </trkpt>
      <trkpt lat="45.76624" lon="5.50412">
        <ele>547.8</ele>
        <time>2019-05-01T07:30:11Z</time>
      </trkpt>
      <trkpt lat="45.76625" lon="5.5041">
        <ele>547.9</ele>
        <time>2019-05-01T07:31:01Z</time>
      </trkpt>
      <trkpt lat="45.76629" lon="5.50406">
        <ele>547.9</ele>
        <time>2019-05-01T07:31:03Z</time>
      </trkpt>
      <trkpt lat="45.76643" lon="5.50396">
        <ele>548.5</ele>
        <time>2019-05-01T07:31:07Z</time>
      </trkpt>
      <trkpt lat="45.76649" lon="5.50395">
        <ele>549.5</ele>
        <time>2019-05-01T07:31:08Z</time>
      </trkpt>
      <trkpt lat="45.76661" lon="5.50395">
        <ele>550.3</ele>
        <time>2019-05-01T07:31:10Z</time>
      </trkpt>
      <trkpt lat="45.76666" lon="5.50395">
        <ele>550.4</ele>
        <time>2019-05-01T07:31:11Z</time>
      </trkpt>
      <trkpt lat="45.76672" lon="5.50394">
        <ele>550.9</ele>
        <time>2019-05-01T07:31:12Z</time>
      </trkpt>
      <trkpt lat="45.76683" lon="5.50393">
        <ele>551.3</ele>
        <time>2019-05-01T07:31:14Z</time>
      </trkpt>
      <trkpt lat="45.76695" lon="5.5039">
        <ele>551.5</ele>
        <time>2019-05-01T07:31:16Z</time>
      </trkpt>
      <trkpt lat="45.76707" lon="5.50383">
        <ele>551.8</ele>
        <time>2019-05-01T07:31:18Z</time>
      </trkpt>
      <trkpt lat="45.76716" lon="5.50377">
        <ele>551.7</ele>
        <time>2019-05-01T07:31:20Z</time>
      </trkpt>
      <trkpt lat="45.7672" lon="5.50374">
        <ele>551.7</ele>
        <time>2019-05-01T07:31:21Z</time>
      </trkpt>
      <trkpt lat="45.76724" lon="5.50372">
        <ele>551.8</ele>
        <time>2019-05-01T07:31:22Z</time>
      </trkpt>
      <trkpt lat="45.7673" lon="5.50365">
        <ele>551.9</ele>
        <time>2019-05-01T07:31:24Z</time>
      </trkpt>
      <trkpt lat="45.7674" lon="5.50354">
        <ele>552</ele>
        <time>2019-05-01T07:31:27Z</time>
      </trkpt>
      <trkpt lat="45.76752" lon="5.50338">
        <ele>552.1</ele>
        <time>2019-05-01T07:31:30Z</time>
      </trkpt>
      <trkpt lat="45.76756" lon="5.5033">
        <ele>552</ele>
        <time>2019-05-01T07:31:31Z</time>
      </trkpt>
      <trkpt lat="45.76771" lon="5.5029">
        <ele>550.1</ele>
        <time>2019-05-01T07:31:36Z</time>
      </trkpt>
      <trkpt lat="45.76784" lon="5.50261">
        <ele>547.3</ele>
        <time>2019-05-01T07:31:40Z</time>
      </trkpt>
      <trkpt lat="45.76785" lon="5.50258">
        <ele>547.3</ele>
        <time>2019-05-01T07:31:41Z</time>
      </trkpt>
      <trkpt lat="45.76788" lon="5.50255">
        <ele>547.3</ele>
        <time>2019-05-01T07:31:44Z</time>
      </trkpt>
      <trkpt lat="45.76833" lon="5.50291">
        <ele>557.3</ele>
        <time>2019-05-01T07:33:31Z</time>
      </trkpt>
      <trkpt lat="45.76835" lon="5.50295">
        <ele>557.5</ele>
        <time>2019-05-01T07:33:33Z</time>
      </trkpt>
      <trkpt lat="45.76836" lon="5.50298">
        <ele>557.5</ele>
        <time>2019-05-01T07:33:34Z</time>
      </trkpt>
      <trkpt lat="45.76837" lon="5.50313">
        <ele>557.4</ele>
        <time>2019-05-01T07:33:53Z</time>
      </trkpt>
      <trkpt lat="45.76836" lon="5.50316">
        <ele>557.3</ele>
        <time>2019-05-01T07:33:54Z</time>
      </trkpt>
      <trkpt lat="45.76828" lon="5.50326">
        <ele>557.1</ele>
        <time>2019-05-01T07:33:58Z</time>
      </trkpt>
      <trkpt lat="45.76823" lon="5.50333">
        <ele>556.9</ele>
        <time>2019-05-01T07:34:00Z</time>
      </trkpt>
      <trkpt lat="45.76816" lon="5.50341">
        <ele>556.5</ele>
        <time>2019-05-01T07:34:04Z</time>
      </trkpt>
      <trkpt lat="45.76806" lon="5.50353">
        <ele>555.6</ele>
        <time>2019-05-01T07:34:10Z</time>
      </trkpt>
      <trkpt lat="45.76804" lon="5.50357">
        <ele>555.4</ele>
        <time>2019-05-01T07:34:11Z</time>
      </trkpt>
      <trkpt lat="45.76792" lon="5.50371">
        <ele>554.8</ele>
        <time>2019-05-01T07:34:15Z</time>
      </trkpt>
      <trkpt lat="45.76784" lon="5.50382">
        <ele>554.3</ele>
        <time>2019-05-01T07:34:17Z</time>
      </trkpt>
      <trkpt lat="45.76764" lon="5.50404">
        <ele>553.2</ele>
        <time>2019-05-01T07:34:22Z</time>
      </trkpt>
      <trkpt lat="45.76761" lon="5.50409">
        <ele>553</ele>
        <time>2019-05-01T07:34:23Z</time>
      </trkpt>
      <trkpt lat="45.7675" lon="5.50427">
        <ele>551.6</ele>
        <time>2019-05-01T07:34:28Z</time>
      </trkpt>
      <trkpt lat="45.76734" lon="5.50449">
        <ele>549.7</ele>
        <time>2019-05-01T07:34:35Z</time>
      </trkpt>
      <trkpt lat="45.76719" lon="5.5047">
        <ele>548.5</ele>
        <time>2019-05-01T07:34:40Z</time>
      </trkpt>
      <trkpt lat="45.76696" lon="5.50492">
        <ele>548.3</ele>
        <time>2019-05-01T07:34:47Z</time>
      </trkpt>
      <trkpt lat="45.76683" lon="5.50506">
        <ele>548.5</ele>
        <time>2019-05-01T07:34:52Z</time>
      </trkpt>
      <trkpt lat="45.76654" lon="5.50549">
        <ele>550.6</ele>
        <time>2019-05-01T07:35:21Z</time>
      </trkpt>
      <trkpt lat="45.76653" lon="5.50552">
        <ele>550.6</ele>
        <time>2019-05-01T07:35:22Z</time>
      </trkpt>
      <trkpt lat="45.76638" lon="5.50569">
        <ele>551.4</ele>
        <time>2019-05-01T07:35:30Z</time>
      </trkpt>
      <trkpt lat="45.76628" lon="5.50578">
        <ele>551.6</ele>
        <time>2019-05-01T07:35:33Z</time>
      </trkpt>
      <trkpt lat="45.76618" lon="5.50586">
        <ele>552</ele>
        <time>2019-05-01T07:35:36Z</time>
      </trkpt>
      <trkpt lat="45.76615" lon="5.50589">
        <ele>552.5</ele>
        <time>2019-05-01T07:35:37Z</time>
      </trkpt>
      <trkpt lat="45.76598" lon="5.50606">
        <ele>553.4</ele>
        <time>2019-05-01T07:35:43Z</time>
      </trkpt>
      <trkpt lat="45.76587" lon="5.5062">
        <ele>553.4</ele>
        <time>2019-05-01T07:35:48Z</time>
      </trkpt>
      <trkpt lat="45.76582" lon="5.50624">
        <ele>553.4</ele>
        <time>2019-05-01T07:35:50Z</time>
      </trkpt>
      <trkpt lat="45.76556" lon="5.50637">
        <ele>552.8</ele>
        <time>2019-05-01T07:35:57Z</time>
      </trkpt>
      <trkpt lat="45.76537" lon="5.50646">
        <ele>552.2</ele>
        <time>2019-05-01T07:36:03Z</time>
      </trkpt>
      <trkpt lat="45.76535" lon="5.50649">
        <ele>552.2</ele>
        <time>2019-05-01T07:36:04Z</time>
      </trkpt>
      <trkpt lat="45.76525" lon="5.50661">
        <ele>552.4</ele>
        <time>2019-05-01T07:36:10Z</time>
      </trkpt>
      <trkpt lat="45.76511" lon="5.50683">
        <ele>554.7</ele>
        <time>2019-05-01T07:36:17Z</time>
      </trkpt>
      <trkpt lat="45.76494" lon="5.50699">
        <ele>557.1</ele>
        <time>2019-05-01T07:36:23Z</time>
      </trkpt>
      <trkpt lat="45.76471" lon="5.50715">
        <ele>557</ele>
        <time>2019-05-01T07:36:29Z</time>
      </trkpt>
      <trkpt lat="45.76468" lon="5.50718">
        <ele>556.4</ele>
        <time>2019-05-01T07:36:30Z</time>
      </trkpt>
      <trkpt lat="45.7645" lon="5.50731">
        <ele>554.9</ele>
        <time>2019-05-01T07:36:35Z</time>
      </trkpt>
      <trkpt lat="45.76436" lon="5.50745">
        <ele>554</ele>
        <time>2019-05-01T07:36:38Z</time>
      </trkpt>
      <trkpt lat="45.7643" lon="5.50752">
        <ele>553.6</ele>
        <time>2019-05-01T07:36:39Z</time>
      </trkpt>
      <trkpt lat="45.7641" lon="5.50777">
        <ele>551.3</ele>
        <time>2019-05-01T07:36:43Z</time>
      </trkpt>
      <trkpt lat="45.76401" lon="5.50789">
        <ele>550.6</ele>
        <time>2019-05-01T07:36:45Z</time>
      </trkpt>
      <trkpt lat="45.76392" lon="5.50802">
        <ele>549.6</ele>
        <time>2019-05-01T07:36:47Z</time>
      </trkpt>
      <trkpt lat="45.7638" lon="5.50825">
        <ele>548.8</ele>
        <time>2019-05-01T07:36:50Z</time>
      </trkpt>
      <trkpt lat="45.76351" lon="5.50878">
        <ele>547.4</ele>
        <time>2019-05-01T07:36:57Z</time>
      </trkpt>
      <trkpt lat="45.76338" lon="5.509">
        <ele>547.3</ele>
        <time>2019-05-01T07:37:00Z</time>
      </trkpt>
      <trkpt lat="45.76313" lon="5.50944">
        <ele>547.2</ele>
        <time>2019-05-01T07:37:06Z</time>
      </trkpt>
      <trkpt lat="45.76282" lon="5.50989">
        <ele>543.9</ele>
        <time>2019-05-01T07:37:13Z</time>
      </trkpt>
      <trkpt lat="45.76278" lon="5.50997">
        <ele>544</ele>
        <time>2019-05-01T07:37:14Z</time>
      </trkpt>
      <trkpt lat="45.76255" lon="5.51029">
        <ele>542.8</ele>
        <time>2019-05-01T07:37:19Z</time>
      </trkpt>
      <trkpt lat="45.76236" lon="5.5105">
        <ele>541.1</ele>
        <time>2019-05-01T07:37:24Z</time>
      </trkpt>
      <trkpt lat="45.76221" lon="5.51066">
        <ele>539.4</ele>
        <time>2019-05-01T07:37:28Z</time>
      </trkpt>
      <trkpt lat="45.76217" lon="5.51071">
        <ele>539.2</ele>
        <time>2019-05-01T07:37:29Z</time>
      </trkpt>
      <trkpt lat="45.76212" lon="5.51077">
        <ele>539.1</ele>
        <time>2019-05-01T07:37:30Z</time>
      </trkpt>
      <trkpt lat="45.76196" lon="5.51098">
        <ele>539.7</ele>
        <time>2019-05-01T07:37:33Z</time>
      </trkpt>
      <trkpt lat="45.76185" lon="5.5111">
        <ele>539.8</ele>
        <time>2019-05-01T07:37:35Z</time>
      </trkpt>
      <trkpt lat="45.7618" lon="5.51116">
        <ele>539.6</ele>
        <time>2019-05-01T07:37:36Z</time>
      </trkpt>
      <trkpt lat="45.76164" lon="5.51129">
        <ele>539</ele>
        <time>2019-05-01T07:37:39Z</time>
      </trkpt>
      <trkpt lat="45.76159" lon="5.51131">
        <ele>537.8</ele>
        <time>2019-05-01T07:37:40Z</time>
      </trkpt>
      <trkpt lat="45.76144" lon="5.51134">
        <ele>535.8</ele>
        <time>2019-05-01T07:37:43Z</time>
      </trkpt>
      <trkpt lat="45.76133" lon="5.51136">
        <ele>534</ele>
        <time>2019-05-01T07:37:45Z</time>
      </trkpt>
      <trkpt lat="45.76116" lon="5.51142">
        <ele>532.1</ele>
        <time>2019-05-01T07:37:48Z</time>
      </trkpt>
      <trkpt lat="45.76099" lon="5.51152">
        <ele>529.9</ele>
        <time>2019-05-01T07:37:51Z</time>
      </trkpt>
      <trkpt lat="45.76087" lon="5.51159">
        <ele>529</ele>
        <time>2019-05-01T07:37:53Z</time>
      </trkpt>
      <trkpt lat="45.76069" lon="5.51157">
        <ele>525.6</ele>
        <time>2019-05-01T07:37:56Z</time>
      </trkpt>
      <trkpt lat="45.76049" lon="5.51146">
        <ele>522.6</ele>
        <time>2019-05-01T07:37:59Z</time>
      </trkpt>
      <trkpt lat="45.76042" lon="5.51143">
        <ele>521.3</ele>
        <time>2019-05-01T07:38:00Z</time>
      </trkpt>
      <trkpt lat="45.76021" lon="5.51141">
        <ele>520.5</ele>
        <time>2019-05-01T07:38:03Z</time>
      </trkpt>
      <trkpt lat="45.76008" lon="5.51139">
        <ele>520.6</ele>
        <time>2019-05-01T07:38:05Z</time>
      </trkpt>
      <trkpt lat="45.76003" lon="5.51138">
        <ele>520.8</ele>
        <time>2019-05-01T07:38:06Z</time>
      </trkpt>
      <trkpt lat="45.75987" lon="5.51138">
        <ele>521.2</ele>
        <time>2019-05-01T07:38:10Z</time>
      </trkpt>
      <trkpt lat="45.7598" lon="5.51139">
        <ele>521.3</ele>
        <time>2019-05-01T07:38:13Z</time>
      </trkpt>
      <trkpt lat="45.75976" lon="5.51141">
        <ele>521.3</ele>
        <time>2019-05-01T07:38:15Z</time>
      </trkpt>
      <trkpt lat="45.75973" lon="5.51143">
        <ele>521.2</ele>
        <time>2019-05-01T07:38:17Z</time>
      </trkpt>
      <trkpt lat="45.7597" lon="5.51147">
        <ele>521.1</ele>
        <time>2019-05-01T07:38:20Z</time>
      </trkpt>
      <trkpt lat="45.75968" lon="5.5115">
        <ele>521.1</ele>
        <time>2019-05-01T07:38:22Z</time>
      </trkpt>
      <trkpt lat="45.75967" lon="5.51152">
        <ele>521</ele>
        <time>2019-05-01T07:38:23Z</time>
      </trkpt>
      <trkpt lat="45.75965" lon="5.51158">
        <ele>521.2</ele>
        <time>2019-05-01T07:38:26Z</time>
      </trkpt>
      <trkpt lat="45.75962" lon="5.5116">
        <ele>521.5</ele>
        <time>2019-05-01T07:38:28Z</time>
      </trkpt>
      <trkpt lat="45.75958" lon="5.51162">
        <ele>521.6</ele>
        <time>2019-05-01T07:38:30Z</time>
      </trkpt>
      <trkpt lat="45.7595" lon="5.51165">
        <ele>521.4</ele>
        <time>2019-05-01T07:38:35Z</time>
      </trkpt>
      <trkpt lat="45.75948" lon="5.51166">
        <ele>521.3</ele>
        <time>2019-05-01T07:38:36Z</time>
      </trkpt>
      <trkpt lat="45.75937" lon="5.51169">
        <ele>521.2</ele>
        <time>2019-05-01T07:38:42Z</time>
      </trkpt>
      <trkpt lat="45.75935" lon="5.5117">
        <ele>521.3</ele>
        <time>2019-05-01T07:38:43Z</time>
      </trkpt>
      <trkpt lat="45.7593" lon="5.5117">
        <ele>521</ele>
        <time>2019-05-01T07:38:45Z</time>
      </trkpt>
      <trkpt lat="45.75924" lon="5.51173">
        <ele>520.5</ele>
        <time>2019-05-01T07:38:48Z</time>
      </trkpt>
      <trkpt lat="45.75919" lon="5.51175">
        <ele>520.3</ele>
        <time>2019-05-01T07:38:50Z</time>
      </trkpt>
      <trkpt lat="45.75919" lon="5.51177">
        <ele>520.3</ele>
        <time>2019-05-01T07:38:51Z</time>
      </trkpt>
      <trkpt lat="45.75917" lon="5.51181">
        <ele>520</ele>
        <time>2019-05-01T07:38:53Z</time>
      </trkpt>
      <trkpt lat="45.75916" lon="5.51185">
        <ele>519.7</ele>
        <time>2019-05-01T07:38:55Z</time>
      </trkpt>
      <trkpt lat="45.75917" lon="5.51191">
        <ele>519.4</ele>
        <time>2019-05-01T07:38:58Z</time>
      </trkpt>
      <trkpt lat="45.75919" lon="5.51198">
        <ele>520</ele>
        <time>2019-05-01T07:39:01Z</time>
      </trkpt>
      <trkpt lat="45.75919" lon="5.51201">
        <ele>520.2</ele>
        <time>2019-05-01T07:39:02Z</time>
      </trkpt>
      <trkpt lat="45.75918" lon="5.51215">
        <ele>521.4</ele>
        <time>2019-05-01T07:39:07Z</time>
      </trkpt>
      <trkpt lat="45.75915" lon="5.51219">
        <ele>522.1</ele>
        <time>2019-05-01T07:39:09Z</time>
      </trkpt>
      <trkpt lat="45.75907" lon="5.5122">
        <ele>522.9</ele>
        <time>2019-05-01T07:39:12Z</time>
      </trkpt>
      <trkpt lat="45.75904" lon="5.5122">
        <ele>523</ele>
        <time>2019-05-01T07:39:13Z</time>
      </trkpt>
      <trkpt lat="45.75892" lon="5.51219">
        <ele>523.4</ele>
        <time>2019-05-01T07:39:19Z</time>
      </trkpt>
      <trkpt lat="45.75887" lon="5.51221">
        <ele>523.7</ele>
        <time>2019-05-01T07:39:23Z</time>
      </trkpt>
      <trkpt lat="45.75885" lon="5.51223">
        <ele>524</ele>
        <time>2019-05-01T07:39:25Z</time>
      </trkpt>
      <trkpt lat="45.75872" lon="5.51241">
        <ele>525.4</ele>
        <time>2019-05-01T07:39:30Z</time>
      </trkpt>
      <trkpt lat="45.75859" lon="5.51265">
        <ele>526.7</ele>
        <time>2019-05-01T07:39:33Z</time>
      </trkpt>
      <trkpt lat="45.75856" lon="5.51274">
        <ele>527.4</ele>
        <time>2019-05-01T07:39:34Z</time>
      </trkpt>
      <trkpt lat="45.75853" lon="5.51284">
        <ele>527.8</ele>
        <time>2019-05-01T07:39:35Z</time>
      </trkpt>
      <trkpt lat="45.75848" lon="5.51299">
        <ele>528.4</ele>
        <time>2019-05-01T07:39:37Z</time>
      </trkpt>
      <trkpt lat="45.75844" lon="5.51303">
        <ele>528.6</ele>
        <time>2019-05-01T07:39:38Z</time>
      </trkpt>
      <trkpt lat="45.75841" lon="5.51306">
        <ele>528.7</ele>
        <time>2019-05-01T07:39:39Z</time>
      </trkpt>
      <trkpt lat="45.75833" lon="5.51309">
        <ele>528.7</ele>
        <time>2019-05-01T07:39:41Z</time>
      </trkpt>
      <trkpt lat="45.75828" lon="5.5131">
        <ele>528.5</ele>
        <time>2019-05-01T07:39:42Z</time>
      </trkpt>
      <trkpt lat="45.75817" lon="5.51312">
        <ele>528.6</ele>
        <time>2019-05-01T07:39:44Z</time>
      </trkpt>
      <trkpt lat="45.75805" lon="5.51313">
        <ele>528.1</ele>
        <time>2019-05-01T07:39:46Z</time>
      </trkpt>
      <trkpt lat="45.75798" lon="5.51313">
        <ele>527.6</ele>
        <time>2019-05-01T07:39:47Z</time>
      </trkpt>
      <trkpt lat="45.7578" lon="5.51315">
        <ele>526.3</ele>
        <time>2019-05-01T07:39:50Z</time>
      </trkpt>
      <trkpt lat="45.75767" lon="5.51316">
        <ele>525.3</ele>
        <time>2019-05-01T07:39:52Z</time>
      </trkpt>
      <trkpt lat="45.75741" lon="5.51322">
        <ele>521.9</ele>
        <time>2019-05-01T07:39:56Z</time>
      </trkpt>
      <trkpt lat="45.75726" lon="5.51324">
        <ele>520.5</ele>
        <time>2019-05-01T07:39:58Z</time>
      </trkpt>
      <trkpt lat="45.75718" lon="5.51324">
        <ele>519.7</ele>
        <time>2019-05-01T07:39:59Z</time>
      </trkpt>
      <trkpt lat="45.75692" lon="5.51325">
        <ele>516.3</ele>
        <time>2019-05-01T07:40:02Z</time>
      </trkpt>
      <trkpt lat="45.75665" lon="5.51329">
        <ele>510.9</ele>
        <time>2019-05-01T07:40:05Z</time>
      </trkpt>
      <trkpt lat="45.75641" lon="5.51339">
        <ele>507.5</ele>
        <time>2019-05-01T07:40:08Z</time>
      </trkpt>
      <trkpt lat="45.75633" lon="5.51344">
        <ele>506.6</ele>
        <time>2019-05-01T07:40:09Z</time>
      </trkpt>
      <trkpt lat="45.7562" lon="5.51355">
        <ele>505.9</ele>
        <time>2019-05-01T07:40:11Z</time>
      </trkpt>
      <trkpt lat="45.75611" lon="5.5137">
        <ele>505.6</ele>
        <time>2019-05-01T07:40:13Z</time>
      </trkpt>
      <trkpt lat="45.75602" lon="5.51386">
        <ele>506.2</ele>
        <time>2019-05-01T07:40:15Z</time>
      </trkpt>
      <trkpt lat="45.7559" lon="5.51397">
        <ele>507.1</ele>
        <time>2019-05-01T07:40:17Z</time>
      </trkpt>
      <trkpt lat="45.75579" lon="5.51401">
        <ele>507.8</ele>
        <time>2019-05-01T07:40:19Z</time>
      </trkpt>
      <trkpt lat="45.75568" lon="5.51408">
        <ele>508.2</ele>
        <time>2019-05-01T07:40:21Z</time>
      </trkpt>
      <trkpt lat="45.7556" lon="5.51427">
        <ele>508.4</ele>
        <time>2019-05-01T07:40:24Z</time>
      </trkpt>
      <trkpt lat="45.75556" lon="5.51447">
        <ele>509.3</ele>
        <time>2019-05-01T07:40:27Z</time>
      </trkpt>
      <trkpt lat="45.75554" lon="5.51458">
        <ele>509.8</ele>
        <time>2019-05-01T07:40:29Z</time>
      </trkpt>
      <trkpt lat="45.75553" lon="5.51469">
        <ele>510.4</ele>
        <time>2019-05-01T07:40:31Z</time>
      </trkpt>
      <trkpt lat="45.75554" lon="5.51482">
        <ele>511</ele>
        <time>2019-05-01T07:40:33Z</time>
      </trkpt>
      <trkpt lat="45.75555" lon="5.5151">
        <ele>512</ele>
        <time>2019-05-01T07:40:37Z</time>
      </trkpt>
      <trkpt lat="45.75553" lon="5.51522">
        <ele>512.3</ele>
        <time>2019-05-01T07:40:39Z</time>
      </trkpt>
      <trkpt lat="45.75551" lon="5.51532">
        <ele>512.4</ele>
        <time>2019-05-01T07:40:41Z</time>
      </trkpt>
      <trkpt lat="45.75548" lon="5.51547">
        <ele>512.3</ele>
        <time>2019-05-01T07:40:44Z</time>
      </trkpt>
      <trkpt lat="45.75546" lon="5.51552">
        <ele>512.2</ele>
        <time>2019-05-01T07:40:45Z</time>
      </trkpt>
      <trkpt lat="45.75543" lon="5.51563">
        <ele>512.3</ele>
        <time>2019-05-01T07:40:47Z</time>
      </trkpt>
      <trkpt lat="45.75538" lon="5.51578">
        <ele>512.1</ele>
        <time>2019-05-01T07:40:50Z</time>
      </trkpt>
      <trkpt lat="45.75523" lon="5.51618">
        <ele>511</ele>
        <time>2019-05-01T07:40:56Z</time>
      </trkpt>
      <trkpt lat="45.75503" lon="5.51664">
        <ele>509.6</ele>
        <time>2019-05-01T07:41:02Z</time>
      </trkpt>
      <trkpt lat="45.75491" lon="5.51701">
        <ele>508.7</ele>
        <time>2019-05-01T07:41:06Z</time>
      </trkpt>
      <trkpt lat="45.75481" lon="5.51747">
        <ele>506.5</ele>
        <time>2019-05-01T07:41:10Z</time>
      </trkpt>
      <trkpt lat="45.75476" lon="5.5177">
        <ele>504.6</ele>
        <time>2019-05-01T07:41:12Z</time>
      </trkpt>
      <trkpt lat="45.75468" lon="5.51793">
        <ele>503</ele>
        <time>2019-05-01T07:41:14Z</time>
      </trkpt>
      <trkpt lat="45.75464" lon="5.51805">
        <ele>502.3</ele>
        <time>2019-05-01T07:41:15Z</time>
      </trkpt>
      <trkpt lat="45.7546" lon="5.51815">
        <ele>501.7</ele>
        <time>2019-05-01T07:41:16Z</time>
      </trkpt>
      <trkpt lat="45.75455" lon="5.51823">
        <ele>501.1</ele>
        <time>2019-05-01T07:41:17Z</time>
      </trkpt>
      <trkpt lat="45.75451" lon="5.51831">
        <ele>500.4</ele>
        <time>2019-05-01T07:41:18Z</time>
      </trkpt>
      <trkpt lat="45.75445" lon="5.51838">
        <ele>499.6</ele>
        <time>2019-05-01T07:41:19Z</time>
      </trkpt>
      <trkpt lat="45.75419" lon="5.51865">
        <ele>496.4</ele>
        <time>2019-05-01T07:41:23Z</time>
      </trkpt>
      <trkpt lat="45.7541" lon="5.51885">
        <ele>495.5</ele>
        <time>2019-05-01T07:41:25Z</time>
      </trkpt>
      <trkpt lat="45.75407" lon="5.51895">
        <ele>495.2</ele>
        <time>2019-05-01T07:41:26Z</time>
      </trkpt>
      <trkpt lat="45.75404" lon="5.51906">
        <ele>495.1</ele>
        <time>2019-05-01T07:41:27Z</time>
      </trkpt>
      <trkpt lat="45.754" lon="5.51942">
        <ele>494.5</ele>
        <time>2019-05-01T07:41:30Z</time>
      </trkpt>
      <trkpt lat="45.754" lon="5.51955">
        <ele>493.7</ele>
        <time>2019-05-01T07:41:31Z</time>
      </trkpt>
      <trkpt lat="45.75399" lon="5.51967">
        <ele>492.8</ele>
        <time>2019-05-01T07:41:32Z</time>
      </trkpt>
      <trkpt lat="45.75397" lon="5.51999">
        <ele>489.7</ele>
        <time>2019-05-01T07:41:35Z</time>
      </trkpt>
      <trkpt lat="45.75395" lon="5.52006">
        <ele>489.3</ele>
        <time>2019-05-01T07:41:36Z</time>
      </trkpt>
      <trkpt lat="45.75391" lon="5.52012">
        <ele>488.5</ele>
        <time>2019-05-01T07:41:38Z</time>
      </trkpt>
      <trkpt lat="45.75388" lon="5.52014">
        <ele>488.7</ele>
        <time>2019-05-01T07:41:39Z</time>
      </trkpt>
      <trkpt lat="45.75385" lon="5.52017">
        <ele>488.4</ele>
        <time>2019-05-01T07:41:40Z</time>
      </trkpt>
      <trkpt lat="45.7538" lon="5.52022">
        <ele>488.3</ele>
        <time>2019-05-01T07:41:43Z</time>
      </trkpt>
      <trkpt lat="45.7538" lon="5.52023">
        <ele>488.2</ele>
        <time>2019-05-01T07:41:44Z</time>
      </trkpt>
      <trkpt lat="45.7538" lon="5.52026">
        <ele>487.7</ele>
        <time>2019-05-01T07:41:45Z</time>
      </trkpt>
      <trkpt lat="45.75383" lon="5.52035">
        <ele>486.5</ele>
        <time>2019-05-01T07:41:47Z</time>
      </trkpt>
      <trkpt lat="45.75383" lon="5.52047">
        <ele>485.1</ele>
        <time>2019-05-01T07:41:49Z</time>
      </trkpt>
      <trkpt lat="45.75384" lon="5.52058">
        <ele>484.1</ele>
        <time>2019-05-01T07:41:51Z</time>
      </trkpt>
      <trkpt lat="45.75385" lon="5.52066">
        <ele>483</ele>
        <time>2019-05-01T07:41:53Z</time>
      </trkpt>
      <trkpt lat="45.75385" lon="5.52071">
        <ele>482.5</ele>
        <time>2019-05-01T07:41:54Z</time>
      </trkpt>
      <trkpt lat="45.75389" lon="5.5208">
        <ele>481.4</ele>
        <time>2019-05-01T07:41:56Z</time>
      </trkpt>
      <trkpt lat="45.75392" lon="5.52092">
        <ele>480.1</ele>
        <time>2019-05-01T07:41:58Z</time>
      </trkpt>
      <trkpt lat="45.75396" lon="5.52097">
        <ele>479.5</ele>
        <time>2019-05-01T07:41:59Z</time>
      </trkpt>
      <trkpt lat="45.754" lon="5.52099">
        <ele>478.8</ele>
        <time>2019-05-01T07:42:00Z</time>
      </trkpt>
      <trkpt lat="45.75404" lon="5.521">
        <ele>478.6</ele>
        <time>2019-05-01T07:42:01Z</time>
      </trkpt>
      <trkpt lat="45.75415" lon="5.52108">
        <ele>476.7</ele>
        <time>2019-05-01T07:42:04Z</time>
      </trkpt>
      <trkpt lat="45.75419" lon="5.52107">
        <ele>476.6</ele>
        <time>2019-05-01T07:42:05Z</time>
      </trkpt>
      <trkpt lat="45.75429" lon="5.52104">
        <ele>476.2</ele>
        <time>2019-05-01T07:42:07Z</time>
      </trkpt>
      <trkpt lat="45.75452" lon="5.52091">
        <ele>474.6</ele>
        <time>2019-05-01T07:42:11Z</time>
      </trkpt>
      <trkpt lat="45.75458" lon="5.52087">
        <ele>474.5</ele>
        <time>2019-05-01T07:42:12Z</time>
      </trkpt>
      <trkpt lat="45.75481" lon="5.52075">
        <ele>473.7</ele>
        <time>2019-05-01T07:42:16Z</time>
      </trkpt>
      <trkpt lat="45.75495" lon="5.52067">
        <ele>473</ele>
        <time>2019-05-01T07:42:18Z</time>
      </trkpt>
      <trkpt lat="45.7551" lon="5.52065">
        <ele>472.3</ele>
        <time>2019-05-01T07:42:20Z</time>
      </trkpt>
      <trkpt lat="45.75518" lon="5.52064">
        <ele>471.9</ele>
        <time>2019-05-01T07:42:21Z</time>
      </trkpt>
      <trkpt lat="45.75544" lon="5.52058">
        <ele>471.7</ele>
        <time>2019-05-01T07:42:25Z</time>
      </trkpt>
      <trkpt lat="45.75548" lon="5.52055">
        <ele>471.6</ele>
        <time>2019-05-01T07:42:26Z</time>
      </trkpt>
      <trkpt lat="45.75559" lon="5.52044">
        <ele>472.3</ele>
        <time>2019-05-01T07:42:29Z</time>
      </trkpt>
      <trkpt lat="45.75577" lon="5.52026">
        <ele>475</ele>
        <time>2019-05-01T07:42:35Z</time>
      </trkpt>
      <trkpt lat="45.75586" lon="5.52017">
        <ele>477</ele>
        <time>2019-05-01T07:42:39Z</time>
      </trkpt>
      <trkpt lat="45.75591" lon="5.52014">
        <ele>477.2</ele>
        <time>2019-05-01T07:42:41Z</time>
      </trkpt>
      <trkpt lat="45.75606" lon="5.52008">
        <ele>479</ele>
        <time>2019-05-01T07:42:47Z</time>
      </trkpt>
      <trkpt lat="45.75615" lon="5.52004">
        <ele>480.4</ele>
        <time>2019-05-01T07:42:49Z</time>
      </trkpt>
      <trkpt lat="45.75624" lon="5.51999">
        <ele>481</ele>
        <time>2019-05-01T07:42:51Z</time>
      </trkpt>
      <trkpt lat="45.75641" lon="5.51987">
        <ele>483.7</ele>
        <time>2019-05-01T07:42:55Z</time>
      </trkpt>
      <trkpt lat="45.75644" lon="5.51978">
        <ele>484.9</ele>
        <time>2019-05-01T07:42:57Z</time>
      </trkpt>
      <trkpt lat="45.75648" lon="5.51971">
        <ele>485.5</ele>
        <time>2019-05-01T07:43:00Z</time>
      </trkpt>
      <trkpt lat="45.75649" lon="5.5197">
        <ele>485.6</ele>
        <time>2019-05-01T07:43:01Z</time>
      </trkpt>
      <trkpt lat="45.75651" lon="5.51964">
        <ele>485.6</ele>
        <time>2019-05-01T07:43:04Z</time>
      </trkpt>
      <trkpt lat="45.7566" lon="5.51956">
        <ele>485.4</ele>
        <time>2019-05-01T07:43:19Z</time>
      </trkpt>
      <trkpt lat="45.75666" lon="5.51949">
        <ele>485.5</ele>
        <time>2019-05-01T07:43:23Z</time>
      </trkpt>
      <trkpt lat="45.75669" lon="5.51943">
        <ele>485.1</ele>
        <time>2019-05-01T07:43:26Z</time>
      </trkpt>
      <trkpt lat="45.75674" lon="5.51937">
        <ele>485.6</ele>
        <time>2019-05-01T07:43:30Z</time>
      </trkpt>
      <trkpt lat="45.75675" lon="5.51934">
        <ele>485.8</ele>
        <time>2019-05-01T07:43:31Z</time>
      </trkpt>
      <trkpt lat="45.75677" lon="5.51932">
        <ele>486.1</ele>
        <time>2019-05-01T07:43:33Z</time>
      </trkpt>
      <trkpt lat="45.75681" lon="5.51929">
        <ele>486.6</ele>
        <time>2019-05-01T07:43:35Z</time>
      </trkpt>
      <trkpt lat="45.75683" lon="5.51926">
        <ele>487</ele>
        <time>2019-05-01T07:43:37Z</time>
      </trkpt>
      <trkpt lat="45.75692" lon="5.51919">
        <ele>486.8</ele>
        <time>2019-05-01T07:43:41Z</time>
      </trkpt>
      <trkpt lat="45.75695" lon="5.51917">
        <ele>487.1</ele>
        <time>2019-05-01T07:43:42Z</time>
      </trkpt>
      <trkpt lat="45.75709" lon="5.51908">
        <ele>488.7</ele>
        <time>2019-05-01T07:43:46Z</time>
      </trkpt>
      <trkpt lat="45.75725" lon="5.51904">
        <ele>489</ele>
        <time>2019-05-01T07:43:49Z</time>
      </trkpt>
      <trkpt lat="45.7573" lon="5.51903">
        <ele>488.6</ele>
        <time>2019-05-01T07:43:50Z</time>
      </trkpt>
      <trkpt lat="45.75738" lon="5.51908">
        <ele>489.2</ele>
        <time>2019-05-01T07:43:53Z</time>
      </trkpt>
      <trkpt lat="45.75741" lon="5.51912">
        <ele>489.6</ele>
        <time>2019-05-01T07:43:54Z</time>
      </trkpt>
      <trkpt lat="45.75743" lon="5.51915">
        <ele>489.8</ele>
        <time>2019-05-01T07:43:55Z</time>
      </trkpt>
      <trkpt lat="45.75745" lon="5.51917">
        <ele>490.1</ele>
        <time>2019-05-01T07:43:56Z</time>
      </trkpt>
      <trkpt lat="45.75749" lon="5.51918">
        <ele>490.2</ele>
        <time>2019-05-01T07:43:57Z</time>
      </trkpt>
      <trkpt lat="45.75757" lon="5.51917">
        <ele>490.1</ele>
        <time>2019-05-01T07:43:59Z</time>
      </trkpt>
      <trkpt lat="45.75768" lon="5.51913">
        <ele>489.1</ele>
        <time>2019-05-01T07:44:01Z</time>
      </trkpt>
      <trkpt lat="45.75772" lon="5.51911">
        <ele>488.6</ele>
        <time>2019-05-01T07:44:02Z</time>
      </trkpt>
      <trkpt lat="45.75778" lon="5.51908">
        <ele>488.1</ele>
        <time>2019-05-01T07:44:04Z</time>
      </trkpt>
      <trkpt lat="45.75787" lon="5.5191">
        <ele>487.2</ele>
        <time>2019-05-01T07:44:17Z</time>
      </trkpt>
      <trkpt lat="45.75795" lon="5.51913">
        <ele>486.5</ele>
        <time>2019-05-01T07:44:22Z</time>
      </trkpt>
      <trkpt lat="45.75802" lon="5.51917">
        <ele>486</ele>
        <time>2019-05-01T07:44:25Z</time>
      </trkpt>
      <trkpt lat="45.75803" lon="5.51921">
        <ele>485.8</ele>
        <time>2019-05-01T07:44:26Z</time>
      </trkpt>
      <trkpt lat="45.75807" lon="5.51934">
        <ele>485.2</ele>
        <time>2019-05-01T07:44:30Z</time>
      </trkpt>
      <trkpt lat="45.7582" lon="5.51933">
        <ele>484.3</ele>
        <time>2019-05-01T07:44:34Z</time>
      </trkpt>
      <trkpt lat="45.75831" lon="5.51923">
        <ele>483.5</ele>
        <time>2019-05-01T07:44:39Z</time>
      </trkpt>
      <trkpt lat="45.75841" lon="5.51915">
        <ele>482.6</ele>
        <time>2019-05-01T07:44:43Z</time>
      </trkpt>
      <trkpt lat="45.75857" lon="5.51902">
        <ele>480.5</ele>
        <time>2019-05-01T07:44:47Z</time>
      </trkpt>
      <trkpt lat="45.75867" lon="5.51891">
        <ele>478.6</ele>
        <time>2019-05-01T07:44:51Z</time>
      </trkpt>
      <trkpt lat="45.75873" lon="5.5189">
        <ele>477.6</ele>
        <time>2019-05-01T07:44:59Z</time>
      </trkpt>
      <trkpt lat="45.75876" lon="5.5189">
        <ele>477</ele>
        <time>2019-05-01T07:45:00Z</time>
      </trkpt>
      <trkpt lat="45.75887" lon="5.5189">
        <ele>475.2</ele>
        <time>2019-05-01T07:45:03Z</time>
      </trkpt>
      <trkpt lat="45.75891" lon="5.51887">
        <ele>474.7</ele>
        <time>2019-05-01T07:45:04Z</time>
      </trkpt>
      <trkpt lat="45.75901" lon="5.51881">
        <ele>473.2</ele>
        <time>2019-05-01T07:45:08Z</time>
      </trkpt>
      <trkpt lat="45.7591" lon="5.51876">
        <ele>471.7</ele>
        <time>2019-05-01T07:45:14Z</time>
      </trkpt>
      <trkpt lat="45.75916" lon="5.51872">
        <ele>470.6</ele>
        <time>2019-05-01T07:45:17Z</time>
      </trkpt>
      <trkpt lat="45.75919" lon="5.51871">
        <ele>470.2</ele>
        <time>2019-05-01T07:45:19Z</time>
      </trkpt>
      <trkpt lat="45.75921" lon="5.5187">
        <ele>469.8</ele>
        <time>2019-05-01T07:45:20Z</time>
      </trkpt>
      <trkpt lat="45.75925" lon="5.51867">
        <ele>468.9</ele>
        <time>2019-05-01T07:45:23Z</time>
      </trkpt>
      <trkpt lat="45.7593" lon="5.5186">
        <ele>467.4</ele>
        <time>2019-05-01T07:45:35Z</time>
      </trkpt>
      <trkpt lat="45.75943" lon="5.51851">
        <ele>464.3</ele>
        <time>2019-05-01T07:45:53Z</time>
      </trkpt>
      <trkpt lat="45.75951" lon="5.51845">
        <ele>462</ele>
        <time>2019-05-01T07:45:56Z</time>
      </trkpt>
      <trkpt lat="45.75952" lon="5.51843">
        <ele>461.6</ele>
        <time>2019-05-01T07:45:57Z</time>
      </trkpt>
      <trkpt lat="45.75966" lon="5.51834">
        <ele>458.3</ele>
        <time>2019-05-01T07:46:12Z</time>
      </trkpt>
      <trkpt lat="45.7597" lon="5.51834">
        <ele>457.5</ele>
        <time>2019-05-01T07:46:13Z</time>
      </trkpt>
      <trkpt lat="45.75978" lon="5.51829">
        <ele>455.3</ele>
        <time>2019-05-01T07:46:17Z</time>
      </trkpt>
      <trkpt lat="45.75989" lon="5.51826">
        <ele>453.5</ele>
        <time>2019-05-01T07:46:26Z</time>
      </trkpt>
      <trkpt lat="45.75994" lon="5.51826">
        <ele>452.3</ele>
        <time>2019-05-01T07:46:29Z</time>
      </trkpt>
      <trkpt lat="45.75995" lon="5.51826">
        <ele>451.9</ele>
        <time>2019-05-01T07:46:30Z</time>
      </trkpt>
      <trkpt lat="45.76003" lon="5.51826">
        <ele>450.6</ele>
        <time>2019-05-01T07:46:34Z</time>
      </trkpt>
      <trkpt lat="45.76006" lon="5.51826">
        <ele>450.1</ele>
        <time>2019-05-01T07:46:36Z</time>
      </trkpt>
      <trkpt lat="45.76008" lon="5.51826">
        <ele>449.9</ele>
        <time>2019-05-01T07:46:37Z</time>
      </trkpt>
      <trkpt lat="45.76012" lon="5.51826">
        <ele>449.4</ele>
        <time>2019-05-01T07:46:39Z</time>
      </trkpt>
      <trkpt lat="45.76015" lon="5.51829">
        <ele>448.9</ele>
        <time>2019-05-01T07:46:41Z</time>
      </trkpt>
      <trkpt lat="45.76014" lon="5.51832">
        <ele>448.6</ele>
        <time>2019-05-01T07:46:42Z</time>
      </trkpt>
      <trkpt lat="45.76014" lon="5.51833">
        <ele>448.5</ele>
        <time>2019-05-01T07:46:43Z</time>
      </trkpt>
      <trkpt lat="45.76012" lon="5.51834">
        <ele>448.3</ele>
        <time>2019-05-01T07:46:44Z</time>
      </trkpt>
      <trkpt lat="45.76008" lon="5.51843">
        <ele>447.2</ele>
        <time>2019-05-01T07:46:47Z</time>
      </trkpt>
      <trkpt lat="45.76007" lon="5.51845">
        <ele>446.7</ele>
        <time>2019-05-01T07:46:48Z</time>
      </trkpt>
      <trkpt lat="45.76004" lon="5.51852">
        <ele>445.4</ele>
        <time>2019-05-01T07:46:51Z</time>
      </trkpt>
      <trkpt lat="45.76004" lon="5.51857">
        <ele>444.5</ele>
        <time>2019-05-01T07:46:53Z</time>
      </trkpt>
      <trkpt lat="45.76003" lon="5.51861">
        <ele>443.5</ele>
        <time>2019-05-01T07:46:55Z</time>
      </trkpt>
      <trkpt lat="45.75997" lon="5.51867">
        <ele>441.3</ele>
        <time>2019-05-01T07:46:58Z</time>
      </trkpt>
      <trkpt lat="45.75996" lon="5.51868">
        <ele>440.7</ele>
        <time>2019-05-01T07:46:59Z</time>
      </trkpt>
      <trkpt lat="45.75994" lon="5.5187">
        <ele>440</ele>
        <time>2019-05-01T07:47:00Z</time>
      </trkpt>
      <trkpt lat="45.7599" lon="5.51881">
        <ele>437.7</ele>
        <time>2019-05-01T07:47:07Z</time>
      </trkpt>
      <trkpt lat="45.7599" lon="5.51885">
        <ele>437</ele>
        <time>2019-05-01T07:47:08Z</time>
      </trkpt>
      <trkpt lat="45.75989" lon="5.51889">
        <ele>436.2</ele>
        <time>2019-05-01T07:47:09Z</time>
      </trkpt>
      <trkpt lat="45.75985" lon="5.51906">
        <ele>433.6</ele>
        <time>2019-05-01T07:47:12Z</time>
      </trkpt>
      <trkpt lat="45.75982" lon="5.51909">
        <ele>433.2</ele>
        <time>2019-05-01T07:47:13Z</time>
      </trkpt>
      <trkpt lat="45.75976" lon="5.51914">
        <ele>432.6</ele>
        <time>2019-05-01T07:47:15Z</time>
      </trkpt>
      <trkpt lat="45.75966" lon="5.51924">
        <ele>431.8</ele>
        <time>2019-05-01T07:47:18Z</time>
      </trkpt>
      <trkpt lat="45.75958" lon="5.51933">
        <ele>431.4</ele>
        <time>2019-05-01T07:47:20Z</time>
      </trkpt>
      <trkpt lat="45.75954" lon="5.51939">
        <ele>431.3</ele>
        <time>2019-05-01T07:47:21Z</time>
      </trkpt>
      <trkpt lat="45.75943" lon="5.51957">
        <ele>431</ele>
        <time>2019-05-01T07:47:24Z</time>
      </trkpt>
      <trkpt lat="45.75935" lon="5.51971">
        <ele>430.9</ele>
        <time>2019-05-01T07:47:26Z</time>
      </trkpt>
      <trkpt lat="45.75926" lon="5.51986">
        <ele>430.8</ele>
        <time>2019-05-01T07:47:28Z</time>
      </trkpt>
      <trkpt lat="45.75921" lon="5.51997">
        <ele>430.8</ele>
        <time>2019-05-01T07:47:29Z</time>
      </trkpt>
      <trkpt lat="45.75919" lon="5.52004">
        <ele>430.8</ele>
        <time>2019-05-01T07:47:30Z</time>
      </trkpt>
      <trkpt lat="45.7592" lon="5.52021">
        <ele>430.6</ele>
        <time>2019-05-01T07:47:32Z</time>
      </trkpt>
      <trkpt lat="45.75929" lon="5.52059">
        <ele>429.7</ele>
        <time>2019-05-01T07:47:36Z</time>
      </trkpt>
      <trkpt lat="45.75939" lon="5.52083">
        <ele>429.1</ele>
        <time>2019-05-01T07:47:39Z</time>
      </trkpt>
      <trkpt lat="45.75952" lon="5.52122">
        <ele>429</ele>
        <time>2019-05-01T07:47:44Z</time>
      </trkpt>
      <trkpt lat="45.75955" lon="5.52129">
        <ele>429</ele>
        <time>2019-05-01T07:47:45Z</time>
      </trkpt>
      <trkpt lat="45.75961" lon="5.52154">
        <ele>428.9</ele>
        <time>2019-05-01T07:47:48Z</time>
      </trkpt>
      <trkpt lat="45.7597" lon="5.52187">
        <ele>428.7</ele>
        <time>2019-05-01T07:47:52Z</time>
      </trkpt>
      <trkpt lat="45.75974" lon="5.52203">
        <ele>428.5</ele>
        <time>2019-05-01T07:47:54Z</time>
      </trkpt>
      <trkpt lat="45.75985" lon="5.52247">
        <ele>427.7</ele>
        <time>2019-05-01T07:48:00Z</time>
      </trkpt>
      <trkpt lat="45.75985" lon="5.52264">
        <ele>427.6</ele>
        <time>2019-05-01T07:48:03Z</time>
      </trkpt>
      <trkpt lat="45.7599" lon="5.52274">
        <ele>428.5</ele>
        <time>2019-05-01T07:48:05Z</time>
      </trkpt>
      <trkpt lat="45.75993" lon="5.52279">
        <ele>428.9</ele>
        <time>2019-05-01T07:48:06Z</time>
      </trkpt>
      <trkpt lat="45.75996" lon="5.52284">
        <ele>429.4</ele>
        <time>2019-05-01T07:48:07Z</time>
      </trkpt>
      <trkpt lat="45.76008" lon="5.52304">
        <ele>430.9</ele>
        <time>2019-05-01T07:48:11Z</time>
      </trkpt>
      <trkpt lat="45.76011" lon="5.52315">
        <ele>431.4</ele>
        <time>2019-05-01T07:48:13Z</time>
      </trkpt>
      <trkpt lat="45.76024" lon="5.52359">
        <ele>431.9</ele>
        <time>2019-05-01T07:48:21Z</time>
      </trkpt>
      <trkpt lat="45.76034" lon="5.52384">
        <ele>432.3</ele>
        <time>2019-05-01T07:48:27Z</time>
      </trkpt>
      <trkpt lat="45.76038" lon="5.52395">
        <ele>432.6</ele>
        <time>2019-05-01T07:48:33Z</time>
      </trkpt>
      <trkpt lat="45.76044" lon="5.52422">
        <ele>433.8</ele>
        <time>2019-05-01T07:54:11Z</time>
      </trkpt>
      <trkpt lat="45.76045" lon="5.52426">
        <ele>434</ele>
        <time>2019-05-01T07:54:13Z</time>
      </trkpt>
      <trkpt lat="45.76048" lon="5.52431">
        <ele>434.3</ele>
        <time>2019-05-01T07:54:15Z</time>
      </trkpt>
      <trkpt lat="45.76054" lon="5.52445">
        <ele>435.3</ele>
        <time>2019-05-01T07:54:20Z</time>
      </trkpt>
      <trkpt lat="45.76055" lon="5.52468">
        <ele>436.6</ele>
        <time>2019-05-01T07:54:26Z</time>
      </trkpt>
      <trkpt lat="45.76057" lon="5.52493">
        <ele>439.1</ele>
        <time>2019-05-01T07:54:33Z</time>
      </trkpt>
      <trkpt lat="45.76057" lon="5.52513">
        <ele>440.6</ele>
        <time>2019-05-01T07:54:39Z</time>
      </trkpt>
      <trkpt lat="45.76057" lon="5.52516">
        <ele>441.5</ele>
        <time>2019-05-01T07:54:40Z</time>
      </trkpt>
      <trkpt lat="45.76058" lon="5.52533">
        <ele>443.8</ele>
        <time>2019-05-01T07:54:45Z</time>
      </trkpt>
      <trkpt lat="45.76058" lon="5.52541">
        <ele>445.1</ele>
        <time>2019-05-01T07:54:48Z</time>
      </trkpt>
      <trkpt lat="45.76059" lon="5.52545">
        <ele>446</ele>
        <time>2019-05-01T07:54:49Z</time>
      </trkpt>
      <trkpt lat="45.76061" lon="5.52563">
        <ele>448</ele>
        <time>2019-05-01T07:54:55Z</time>
      </trkpt>
      <trkpt lat="45.76062" lon="5.52575">
        <ele>450.4</ele>
        <time>2019-05-01T07:54:59Z</time>
      </trkpt>
      <trkpt lat="45.76063" lon="5.52587">
        <ele>452.4</ele>
        <time>2019-05-01T07:55:03Z</time>
      </trkpt>
      <trkpt lat="45.76063" lon="5.52597">
        <ele>453.8</ele>
        <time>2019-05-01T07:55:07Z</time>
      </trkpt>
      <trkpt lat="45.76063" lon="5.52603">
        <ele>454.9</ele>
        <time>2019-05-01T07:55:09Z</time>
      </trkpt>
      <trkpt lat="45.76063" lon="5.52608">
        <ele>456.5</ele>
        <time>2019-05-01T07:55:11Z</time>
      </trkpt>
      <trkpt lat="45.76062" lon="5.52614">
        <ele>457.9</ele>
        <time>2019-05-01T07:55:13Z</time>
      </trkpt>
      <trkpt lat="45.76063" lon="5.52616">
        <ele>458.6</ele>
        <time>2019-05-01T07:55:14Z</time>
      </trkpt>
      <trkpt lat="45.76064" lon="5.52618">
        <ele>460.3</ele>
        <time>2019-05-01T07:55:15Z</time>
      </trkpt>
      <trkpt lat="45.76067" lon="5.52622">
        <ele>461.9</ele>
        <time>2019-05-01T07:55:18Z</time>
      </trkpt>
      <trkpt lat="45.76068" lon="5.52622">
        <ele>462.2</ele>
        <time>2019-05-01T07:55:19Z</time>
      </trkpt>
      <trkpt lat="45.7607" lon="5.52623">
        <ele>462.6</ele>
        <time>2019-05-01T07:55:20Z</time>
      </trkpt>
      <trkpt lat="45.76076" lon="5.52624">
        <ele>462.6</ele>
        <time>2019-05-01T07:55:23Z</time>
      </trkpt>
      <trkpt lat="45.76077" lon="5.52623">
        <ele>462.6</ele>
        <time>2019-05-01T07:55:24Z</time>
      </trkpt>
      <trkpt lat="45.7608" lon="5.52622">
        <ele>462.8</ele>
        <time>2019-05-01T07:55:26Z</time>
      </trkpt>
      <trkpt lat="45.76085" lon="5.52619">
        <ele>463.5</ele>
        <time>2019-05-01T07:55:30Z</time>
      </trkpt>
      <trkpt lat="45.76092" lon="5.52616">
        <ele>464.8</ele>
        <time>2019-05-01T07:55:35Z</time>
      </trkpt>
      <trkpt lat="45.76096" lon="5.52615">
        <ele>465.5</ele>
        <time>2019-05-01T07:55:37Z</time>
      </trkpt>
      <trkpt lat="45.76098" lon="5.52615">
        <ele>465.6</ele>
        <time>2019-05-01T07:55:38Z</time>
      </trkpt>
      <trkpt lat="45.76103" lon="5.52612">
        <ele>466</ele>
        <time>2019-05-01T07:55:41Z</time>
      </trkpt>
      <trkpt lat="45.76108" lon="5.5261">
        <ele>466.7</ele>
        <time>2019-05-01T07:55:44Z</time>
      </trkpt>
      <trkpt lat="45.76117" lon="5.52606">
        <ele>468.6</ele>
        <time>2019-05-01T07:55:50Z</time>
      </trkpt>
      <trkpt lat="45.7612" lon="5.52604">
        <ele>469.4</ele>
        <time>2019-05-01T07:55:52Z</time>
      </trkpt>
      <trkpt lat="45.76208" lon="5.52546">
        <ele>489.5</ele>
        <time>2019-05-01T07:58:00Z</time>
      </trkpt>
      <trkpt lat="45.76211" lon="5.52545">
        <ele>490.1</ele>
        <time>2019-05-01T07:58:02Z</time>
      </trkpt>
      <trkpt lat="45.76225" lon="5.52537">
        <ele>493.7</ele>
        <time>2019-05-01T07:58:14Z</time>
      </trkpt>
      <trkpt lat="45.76255" lon="5.52527">
        <ele>500.8</ele>
        <time>2019-05-01T08:00:05Z</time>
      </trkpt>
      <trkpt lat="45.76254" lon="5.52528">
        <ele>500.7</ele>
        <time>2019-05-01T08:00:06Z</time>
      </trkpt>
      <trkpt lat="45.76251" lon="5.52531">
        <ele>500.3</ele>
        <time>2019-05-01T08:00:08Z</time>
      </trkpt>
      <trkpt lat="45.76245" lon="5.52536">
        <ele>499.7</ele>
        <time>2019-05-01T08:00:11Z</time>
      </trkpt>
      <trkpt lat="45.76235" lon="5.52545">
        <ele>498.8</ele>
        <time>2019-05-01T08:00:15Z</time>
      </trkpt>
      <trkpt lat="45.76226" lon="5.52554">
        <ele>498</ele>
        <time>2019-05-01T08:00:18Z</time>
      </trkpt>
      <trkpt lat="45.76209" lon="5.52571">
        <ele>496.6</ele>
        <time>2019-05-01T08:00:22Z</time>
      </trkpt>
      <trkpt lat="45.76205" lon="5.52576">
        <ele>496.3</ele>
        <time>2019-05-01T08:00:23Z</time>
      </trkpt>
      <trkpt lat="45.76201" lon="5.52582">
        <ele>496</ele>
        <time>2019-05-01T08:00:24Z</time>
      </trkpt>
      <trkpt lat="45.76195" lon="5.52596">
        <ele>495.4</ele>
        <time>2019-05-01T08:00:26Z</time>
      </trkpt>
      <trkpt lat="45.76198" lon="5.52621">
        <ele>494.6</ele>
        <time>2019-05-01T08:00:29Z</time>
      </trkpt>
      <trkpt lat="45.762" lon="5.52629">
        <ele>494.4</ele>
        <time>2019-05-01T08:00:30Z</time>
      </trkpt>
      <trkpt lat="45.76203" lon="5.52643">
        <ele>494.1</ele>
        <time>2019-05-01T08:00:32Z</time>
      </trkpt>
      <trkpt lat="45.76207" lon="5.52663">
        <ele>494</ele>
        <time>2019-05-01T08:00:35Z</time>
      </trkpt>
      <trkpt lat="45.76208" lon="5.52668">
        <ele>494</ele>
        <time>2019-05-01T08:00:36Z</time>
      </trkpt>
      <trkpt lat="45.76213" lon="5.52688">
        <ele>494</ele>
        <time>2019-05-01T08:00:40Z</time>
      </trkpt>
      <trkpt lat="45.76217" lon="5.52697">
        <ele>494</ele>
        <time>2019-05-01T08:00:42Z</time>
      </trkpt>
      <trkpt lat="45.76225" lon="5.52724">
        <ele>494</ele>
        <time>2019-05-01T08:00:47Z</time>
      </trkpt>
      <trkpt lat="45.76236" lon="5.52754">
        <ele>494</ele>
        <time>2019-05-01T08:00:53Z</time>
      </trkpt>
      <trkpt lat="45.76243" lon="5.52768">
        <ele>493.9</ele>
        <time>2019-05-01T08:00:56Z</time>
      </trkpt>
      <trkpt lat="45.76248" lon="5.52784">
        <ele>493.6</ele>
        <time>2019-05-01T08:00:59Z</time>
      </trkpt>
      <trkpt lat="45.76249" lon="5.52796">
        <ele>493.5</ele>
        <time>2019-05-01T08:01:01Z</time>
      </trkpt>
      <trkpt lat="45.76248" lon="5.52806">
        <ele>493.3</ele>
        <time>2019-05-01T08:01:03Z</time>
      </trkpt>
      <trkpt lat="45.76247" lon="5.52819">
        <ele>493</ele>
        <time>2019-05-01T08:01:05Z</time>
      </trkpt>
      <trkpt lat="45.76248" lon="5.52826">
        <ele>492.7</ele>
        <time>2019-05-01T08:01:06Z</time>
      </trkpt>
      <trkpt lat="45.76249" lon="5.52838">
        <ele>492</ele>
        <time>2019-05-01T08:01:08Z</time>
      </trkpt>
      <trkpt lat="45.76254" lon="5.5285">
        <ele>490.9</ele>
        <time>2019-05-01T08:01:10Z</time>
      </trkpt>
      <trkpt lat="45.76257" lon="5.52855">
        <ele>490.5</ele>
        <time>2019-05-01T08:01:11Z</time>
      </trkpt>
      <trkpt lat="45.76261" lon="5.52857">
        <ele>489.9</ele>
        <time>2019-05-01T08:01:12Z</time>
      </trkpt>
      <trkpt lat="45.76265" lon="5.52856">
        <ele>490.1</ele>
        <time>2019-05-01T08:01:13Z</time>
      </trkpt>
      <trkpt lat="45.76277" lon="5.52851">
        <ele>490.7</ele>
        <time>2019-05-01T08:01:17Z</time>
      </trkpt>
      <trkpt lat="45.76291" lon="5.52848">
        <ele>491.4</ele>
        <time>2019-05-01T08:01:22Z</time>
      </trkpt>
      <trkpt lat="45.7631" lon="5.52848">
        <ele>491.6</ele>
        <time>2019-05-01T08:01:27Z</time>
      </trkpt>
      <trkpt lat="45.76329" lon="5.52844">
        <ele>492.3</ele>
        <time>2019-05-01T08:01:32Z</time>
      </trkpt>
      <trkpt lat="45.76338" lon="5.52842">
        <ele>492.6</ele>
        <time>2019-05-01T08:01:34Z</time>
      </trkpt>
      <trkpt lat="45.76353" lon="5.52834">
        <ele>492.9</ele>
        <time>2019-05-01T08:01:38Z</time>
      </trkpt>
      <trkpt lat="45.76357" lon="5.52831">
        <ele>492.9</ele>
        <time>2019-05-01T08:01:39Z</time>
      </trkpt>
      <trkpt lat="45.76369" lon="5.52825">
        <ele>493.1</ele>
        <time>2019-05-01T08:01:42Z</time>
      </trkpt>
      <trkpt lat="45.76382" lon="5.52818">
        <ele>493.3</ele>
        <time>2019-05-01T08:01:45Z</time>
      </trkpt>
      <trkpt lat="45.76391" lon="5.52814">
        <ele>493.5</ele>
        <time>2019-05-01T08:01:47Z</time>
      </trkpt>
      <trkpt lat="45.76395" lon="5.52813">
        <ele>493.6</ele>
        <time>2019-05-01T08:01:48Z</time>
      </trkpt>
      <trkpt lat="45.76405" lon="5.52811">
        <ele>493.8</ele>
        <time>2019-05-01T08:01:50Z</time>
      </trkpt>
      <trkpt lat="45.7641" lon="5.5281">
        <ele>493.9</ele>
        <time>2019-05-01T08:01:51Z</time>
      </trkpt>
      <trkpt lat="45.76422" lon="5.52808">
        <ele>494.3</ele>
        <time>2019-05-01T08:01:54Z</time>
      </trkpt>
      <trkpt lat="45.76435" lon="5.52808">
        <ele>494.7</ele>
        <time>2019-05-01T08:01:57Z</time>
      </trkpt>
      <trkpt lat="45.76442" lon="5.52807">
        <ele>495</ele>
        <time>2019-05-01T08:01:59Z</time>
      </trkpt>
      <trkpt lat="45.76453" lon="5.52805">
        <ele>495.5</ele>
        <time>2019-05-01T08:02:02Z</time>
      </trkpt>
      <trkpt lat="45.76484" lon="5.52795">
        <ele>496.7</ele>
        <time>2019-05-01T08:02:10Z</time>
      </trkpt>
      <trkpt lat="45.76513" lon="5.52785">
        <ele>497.5</ele>
        <time>2019-05-01T08:02:17Z</time>
      </trkpt>
      <trkpt lat="45.76532" lon="5.52775">
        <ele>497.9</ele>
        <time>2019-05-01T08:02:22Z</time>
      </trkpt>
      <trkpt lat="45.76539" lon="5.52771">
        <ele>498</ele>
        <time>2019-05-01T08:02:24Z</time>
      </trkpt>
      <trkpt lat="45.76559" lon="5.52765">
        <ele>498.5</ele>
        <time>2019-05-01T08:02:29Z</time>
      </trkpt>
      <trkpt lat="45.76567" lon="5.52764">
        <ele>498.7</ele>
        <time>2019-05-01T08:02:31Z</time>
      </trkpt>
      <trkpt lat="45.76575" lon="5.52761">
        <ele>499</ele>
        <time>2019-05-01T08:02:33Z</time>
      </trkpt>
      <trkpt lat="45.76586" lon="5.52759">
        <ele>499.6</ele>
        <time>2019-05-01T08:02:36Z</time>
      </trkpt>
      <trkpt lat="45.76589" lon="5.52758">
        <ele>499.7</ele>
        <time>2019-05-01T08:02:37Z</time>
      </trkpt>
      <trkpt lat="45.76597" lon="5.52757">
        <ele>500.1</ele>
        <time>2019-05-01T08:02:39Z</time>
      </trkpt>
      <trkpt lat="45.76608" lon="5.52752">
        <ele>500.7</ele>
        <time>2019-05-01T08:02:42Z</time>
      </trkpt>
      <trkpt lat="45.76615" lon="5.52749">
        <ele>501.2</ele>
        <time>2019-05-01T08:02:44Z</time>
      </trkpt>
      <trkpt lat="45.76619" lon="5.52746">
        <ele>501.4</ele>
        <time>2019-05-01T08:02:45Z</time>
      </trkpt>
      <trkpt lat="45.76627" lon="5.52743">
        <ele>501.7</ele>
        <time>2019-05-01T08:02:47Z</time>
      </trkpt>
      <trkpt lat="45.76637" lon="5.52738">
        <ele>502.2</ele>
        <time>2019-05-01T08:02:50Z</time>
      </trkpt>
      <trkpt lat="45.76644" lon="5.52735">
        <ele>502.5</ele>
        <time>2019-05-01T08:02:52Z</time>
      </trkpt>
      <trkpt lat="45.76647" lon="5.52733">
        <ele>502.7</ele>
        <time>2019-05-01T08:02:53Z</time>
      </trkpt>
      <trkpt lat="45.76655" lon="5.52729">
        <ele>503</ele>
        <time>2019-05-01T08:02:55Z</time>
      </trkpt>
      <trkpt lat="45.76662" lon="5.52725">
        <ele>503.4</ele>
        <time>2019-05-01T08:02:57Z</time>
      </trkpt>
      <trkpt lat="45.76669" lon="5.52721">
        <ele>503.8</ele>
        <time>2019-05-01T08:02:59Z</time>
      </trkpt>
      <trkpt lat="45.76672" lon="5.52719">
        <ele>504</ele>
        <time>2019-05-01T08:03:00Z</time>
      </trkpt>
      <trkpt lat="45.76676" lon="5.52717">
        <ele>504.2</ele>
        <time>2019-05-01T08:03:01Z</time>
      </trkpt>
      <trkpt lat="45.76697" lon="5.52697">
        <ele>505.5</ele>
        <time>2019-05-01T08:03:07Z</time>
      </trkpt>
      <trkpt lat="45.76701" lon="5.52689">
        <ele>506</ele>
        <time>2019-05-01T08:03:09Z</time>
      </trkpt>
      <trkpt lat="45.76705" lon="5.52676">
        <ele>507.3</ele>
        <time>2019-05-01T08:03:12Z</time>
      </trkpt>
      <trkpt lat="45.76706" lon="5.52672">
        <ele>507.6</ele>
        <time>2019-05-01T08:03:13Z</time>
      </trkpt>
      <trkpt lat="45.76707" lon="5.52655">
        <ele>508.6</ele>
        <time>2019-05-01T08:03:18Z</time>
      </trkpt>
      <trkpt lat="45.76714" lon="5.52638">
        <ele>509.3</ele>
        <time>2019-05-01T08:03:24Z</time>
      </trkpt>
      <trkpt lat="45.76726" lon="5.52618">
        <ele>510</ele>
        <time>2019-05-01T08:03:31Z</time>
      </trkpt>
      <trkpt lat="45.76737" lon="5.52601">
        <ele>510.3</ele>
        <time>2019-05-01T08:03:36Z</time>
      </trkpt>
      <trkpt lat="45.76758" lon="5.52581">
        <ele>509.7</ele>
        <time>2019-05-01T08:03:42Z</time>
      </trkpt>
      <trkpt lat="45.76767" lon="5.52573">
        <ele>509.2</ele>
        <time>2019-05-01T08:03:44Z</time>
      </trkpt>
      <trkpt lat="45.7678" lon="5.52561">
        <ele>508.4</ele>
        <time>2019-05-01T08:03:47Z</time>
      </trkpt>
      <trkpt lat="45.76785" lon="5.52556">
        <ele>508.2</ele>
        <time>2019-05-01T08:03:48Z</time>
      </trkpt>
      <trkpt lat="45.76789" lon="5.52551">
        <ele>508</ele>
        <time>2019-05-01T08:03:49Z</time>
      </trkpt>
      <trkpt lat="45.76808" lon="5.52532">
        <ele>507.5</ele>
        <time>2019-05-01T08:03:53Z</time>
      </trkpt>
      <trkpt lat="45.76813" lon="5.52527">
        <ele>507.4</ele>
        <time>2019-05-01T08:03:54Z</time>
      </trkpt>
      <trkpt lat="45.76835" lon="5.52503">
        <ele>507.2</ele>
        <time>2019-05-01T08:03:59Z</time>
      </trkpt>
      <trkpt lat="45.76839" lon="5.52499">
        <ele>507.1</ele>
        <time>2019-05-01T08:04:00Z</time>
      </trkpt>
      <trkpt lat="45.76858" lon="5.52485">
        <ele>507.1</ele>
        <time>2019-05-01T08:04:04Z</time>
      </trkpt>
      <trkpt lat="45.76889" lon="5.52473">
        <ele>506.8</ele>
        <time>2019-05-01T08:04:10Z</time>
      </trkpt>
      <trkpt lat="45.76914" lon="5.5246">
        <ele>505.9</ele>
        <time>2019-05-01T08:04:15Z</time>
      </trkpt>
      <trkpt lat="45.76919" lon="5.52456">
        <ele>505.6</ele>
        <time>2019-05-01T08:04:16Z</time>
      </trkpt>
      <trkpt lat="45.76957" lon="5.52424">
        <ele>503.3</ele>
        <time>2019-05-01T08:04:24Z</time>
      </trkpt>
      <trkpt lat="45.76975" lon="5.52413">
        <ele>501.7</ele>
        <time>2019-05-01T08:04:27Z</time>
      </trkpt>
      <trkpt lat="45.76995" lon="5.52399">
        <ele>499.8</ele>
        <time>2019-05-01T08:04:30Z</time>
      </trkpt>
      <trkpt lat="45.77034" lon="5.52369">
        <ele>497.2</ele>
        <time>2019-05-01T08:04:35Z</time>
      </trkpt>
      <trkpt lat="45.77079" lon="5.52342">
        <ele>495.4</ele>
        <time>2019-05-01T08:04:41Z</time>
      </trkpt>
      <trkpt lat="45.77114" lon="5.52323">
        <ele>494.7</ele>
        <time>2019-05-01T08:04:46Z</time>
      </trkpt>
      <trkpt lat="45.77128" lon="5.52313">
        <ele>494.7</ele>
        <time>2019-05-01T08:04:48Z</time>
      </trkpt>
      <trkpt lat="45.77146" lon="5.52302">
        <ele>494.8</ele>
        <time>2019-05-01T08:04:51Z</time>
      </trkpt>
      <trkpt lat="45.77157" lon="5.52295">
        <ele>494.9</ele>
        <time>2019-05-01T08:04:53Z</time>
      </trkpt>
      <trkpt lat="45.77181" lon="5.52282">
        <ele>495.3</ele>
        <time>2019-05-01T08:04:58Z</time>
      </trkpt>
      <trkpt lat="45.77204" lon="5.52269">
        <ele>495.7</ele>
        <time>2019-05-01T08:05:02Z</time>
      </trkpt>
      <trkpt lat="45.77209" lon="5.52265">
        <ele>495.9</ele>
        <time>2019-05-01T08:05:03Z</time>
      </trkpt>
      <trkpt lat="45.77223" lon="5.52253">
        <ele>496.2</ele>
        <time>2019-05-01T08:05:06Z</time>
      </trkpt>
      <trkpt lat="45.77236" lon="5.52241">
        <ele>496.6</ele>
        <time>2019-05-01T08:05:09Z</time>
      </trkpt>
      <trkpt lat="45.77241" lon="5.52237">
        <ele>496.7</ele>
        <time>2019-05-01T08:05:10Z</time>
      </trkpt>
      <trkpt lat="45.77249" lon="5.52227">
        <ele>497</ele>
        <time>2019-05-01T08:05:12Z</time>
      </trkpt>
      <trkpt lat="45.77261" lon="5.52214">
        <ele>497.4</ele>
        <time>2019-05-01T08:05:15Z</time>
      </trkpt>
      <trkpt lat="45.77287" lon="5.52186">
        <ele>498</ele>
        <time>2019-05-01T08:05:22Z</time>
      </trkpt>
      <trkpt lat="45.77313" lon="5.52162">
        <ele>497.8</ele>
        <time>2019-05-01T08:05:28Z</time>
      </trkpt>
      <trkpt lat="45.77331" lon="5.52147">
        <ele>498.3</ele>
        <time>2019-05-01T08:05:32Z</time>
      </trkpt>
      <trkpt lat="45.7734" lon="5.52142">
        <ele>498.3</ele>
        <time>2019-05-01T08:05:34Z</time>
      </trkpt>
      <trkpt lat="45.77344" lon="5.52138">
        <ele>498.8</ele>
        <time>2019-05-01T08:05:35Z</time>
      </trkpt>
      <trkpt lat="45.77351" lon="5.52133">
        <ele>499.2</ele>
        <time>2019-05-01T08:05:37Z</time>
      </trkpt>
      <trkpt lat="45.77357" lon="5.52128">
        <ele>499.5</ele>
        <time>2019-05-01T08:05:39Z</time>
      </trkpt>
      <trkpt lat="45.77368" lon="5.5212">
        <ele>500.4</ele>
        <time>2019-05-01T08:05:43Z</time>
      </trkpt>
      <trkpt lat="45.77372" lon="5.52117">
        <ele>500.9</ele>
        <time>2019-05-01T08:05:45Z</time>
      </trkpt>
      <trkpt lat="45.77374" lon="5.52116">
        <ele>500.9</ele>
        <time>2019-05-01T08:05:46Z</time>
      </trkpt>
      <trkpt lat="45.77378" lon="5.52112">
        <ele>501.5</ele>
        <time>2019-05-01T08:05:49Z</time>
      </trkpt>
      <trkpt lat="45.77382" lon="5.5211">
        <ele>502</ele>
        <time>2019-05-01T08:05:51Z</time>
      </trkpt>
      <trkpt lat="45.77386" lon="5.52108">
        <ele>502</ele>
        <time>2019-05-01T08:05:53Z</time>
      </trkpt>
      <trkpt lat="45.77391" lon="5.52105">
        <ele>502.4</ele>
        <time>2019-05-01T08:05:56Z</time>
      </trkpt>
      <trkpt lat="45.77393" lon="5.52104">
        <ele>502.4</ele>
        <time>2019-05-01T08:05:57Z</time>
      </trkpt>
      <trkpt lat="45.77396" lon="5.52102">
        <ele>502.3</ele>
        <time>2019-05-01T08:05:59Z</time>
      </trkpt>
      <trkpt lat="45.77399" lon="5.521">
        <ele>502.7</ele>
        <time>2019-05-01T08:06:01Z</time>
      </trkpt>
      <trkpt lat="45.77403" lon="5.52098">
        <ele>502.6</ele>
        <time>2019-05-01T08:06:03Z</time>
      </trkpt>
      <trkpt lat="45.77411" lon="5.52091">
        <ele>503</ele>
        <time>2019-05-01T08:06:06Z</time>
      </trkpt>
      <trkpt lat="45.77419" lon="5.52083">
        <ele>503.4</ele>
        <time>2019-05-01T08:06:10Z</time>
      </trkpt>
      <trkpt lat="45.77427" lon="5.52074">
        <ele>503.5</ele>
        <time>2019-05-01T08:06:15Z</time>
      </trkpt>
      <trkpt lat="45.77433" lon="5.52067">
        <ele>503.7</ele>
        <time>2019-05-01T08:06:19Z</time>
      </trkpt>
      <trkpt lat="45.7744" lon="5.52058">
        <ele>503.7</ele>
        <time>2019-05-01T08:06:23Z</time>
      </trkpt>
      <trkpt lat="45.77444" lon="5.52053">
        <ele>503.7</ele>
        <time>2019-05-01T08:06:25Z</time>
      </trkpt>
      <trkpt lat="45.77447" lon="5.52048">
        <ele>503.6</ele>
        <time>2019-05-01T08:06:27Z</time>
      </trkpt>
      <trkpt lat="45.77453" lon="5.52038">
        <ele>503</ele>
        <time>2019-05-01T08:06:31Z</time>
      </trkpt>
      <trkpt lat="45.77454" lon="5.52036">
        <ele>503.2</ele>
        <time>2019-05-01T08:06:32Z</time>
      </trkpt>
      <trkpt lat="45.77457" lon="5.52029">
        <ele>503.2</ele>
        <time>2019-05-01T08:06:34Z</time>
      </trkpt>
      <trkpt lat="45.77466" lon="5.52016">
        <ele>503</ele>
        <time>2019-05-01T08:06:39Z</time>
      </trkpt>
      <trkpt lat="45.77471" lon="5.52011">
        <ele>503.1</ele>
        <time>2019-05-01T08:06:41Z</time>
      </trkpt>
      <trkpt lat="45.77482" lon="5.52">
        <ele>501.8</ele>
        <time>2019-05-01T08:06:45Z</time>
      </trkpt>
      <trkpt lat="45.77486" lon="5.51995">
        <ele>501.3</ele>
        <time>2019-05-01T08:06:46Z</time>
      </trkpt>
      <trkpt lat="45.77499" lon="5.51978">
        <ele>500.8</ele>
        <time>2019-05-01T08:06:49Z</time>
      </trkpt>
      <trkpt lat="45.77503" lon="5.51972">
        <ele>500.8</ele>
        <time>2019-05-01T08:06:50Z</time>
      </trkpt>
      <trkpt lat="45.77521" lon="5.51943">
        <ele>500.1</ele>
        <time>2019-05-01T08:06:54Z</time>
      </trkpt>
      <trkpt lat="45.77526" lon="5.51936">
        <ele>499.9</ele>
        <time>2019-05-01T08:06:55Z</time>
      </trkpt>
      <trkpt lat="45.7754" lon="5.5192">
        <ele>499.8</ele>
        <time>2019-05-01T08:06:58Z</time>
      </trkpt>
      <trkpt lat="45.77545" lon="5.51915">
        <ele>499.8</ele>
        <time>2019-05-01T08:06:59Z</time>
      </trkpt>
      <trkpt lat="45.77558" lon="5.51898">
        <ele>499.1</ele>
        <time>2019-05-01T08:07:02Z</time>
      </trkpt>
      <trkpt lat="45.77567" lon="5.51888">
        <ele>499.2</ele>
        <time>2019-05-01T08:07:04Z</time>
      </trkpt>
      <trkpt lat="45.77575" lon="5.5188">
        <ele>499.2</ele>
        <time>2019-05-01T08:07:06Z</time>
      </trkpt>
      <trkpt lat="45.77583" lon="5.51874">
        <ele>499.2</ele>
        <time>2019-05-01T08:07:08Z</time>
      </trkpt>
      <trkpt lat="45.77591" lon="5.51869">
        <ele>499</ele>
        <time>2019-05-01T08:07:10Z</time>
      </trkpt>
      <trkpt lat="45.77602" lon="5.51859">
        <ele>499.2</ele>
        <time>2019-05-01T08:07:14Z</time>
      </trkpt>
      <trkpt lat="45.77605" lon="5.51857">
        <ele>499</ele>
        <time>2019-05-01T08:07:15Z</time>
      </trkpt>
      <trkpt lat="45.77612" lon="5.51852">
        <ele>499.1</ele>
        <time>2019-05-01T08:07:20Z</time>
      </trkpt>
      <trkpt lat="45.77613" lon="5.51853">
        <ele>498.6</ele>
        <time>2019-05-01T08:07:21Z</time>
      </trkpt>
      <trkpt lat="45.77621" lon="5.51865">
        <ele>496.7</ele>
        <time>2019-05-01T08:07:26Z</time>
      </trkpt>
      <trkpt lat="45.77623" lon="5.51884">
        <ele>494.6</ele>
        <time>2019-05-01T08:07:30Z</time>
      </trkpt>
      <trkpt lat="45.77624" lon="5.51891">
        <ele>493.9</ele>
        <time>2019-05-01T08:07:31Z</time>
      </trkpt>
      <trkpt lat="45.77627" lon="5.51911">
        <ele>491.6</ele>
        <time>2019-05-01T08:07:34Z</time>
      </trkpt>
      <trkpt lat="45.77629" lon="5.51916">
        <ele>491.3</ele>
        <time>2019-05-01T08:07:35Z</time>
      </trkpt>
      <trkpt lat="45.77635" lon="5.51926">
        <ele>489.8</ele>
        <time>2019-05-01T08:07:38Z</time>
      </trkpt>
      <trkpt lat="45.77636" lon="5.51929">
        <ele>489.4</ele>
        <time>2019-05-01T08:07:39Z</time>
      </trkpt>
      <trkpt lat="45.77637" lon="5.51938">
        <ele>488.8</ele>
        <time>2019-05-01T08:07:42Z</time>
      </trkpt>
      <trkpt lat="45.77636" lon="5.51942">
        <ele>488.4</ele>
        <time>2019-05-01T08:07:43Z</time>
      </trkpt>
      <trkpt lat="45.77637" lon="5.51958">
        <ele>487.1</ele>
        <time>2019-05-01T08:07:46Z</time>
      </trkpt>
      <trkpt lat="45.77638" lon="5.51963">
        <ele>486.8</ele>
        <time>2019-05-01T08:07:47Z</time>
      </trkpt>
      <trkpt lat="45.77637" lon="5.51972">
        <ele>486.4</ele>
        <time>2019-05-01T08:07:49Z</time>
      </trkpt>
      <trkpt lat="45.77635" lon="5.51982">
        <ele>486</ele>
        <time>2019-05-01T08:07:51Z</time>
      </trkpt>
      <trkpt lat="45.77632" lon="5.51993">
        <ele>485.8</ele>
        <time>2019-05-01T08:07:53Z</time>
      </trkpt>
      <trkpt lat="45.77623" lon="5.52005">
        <ele>485.6</ele>
        <time>2019-05-01T08:07:56Z</time>
      </trkpt>
      <trkpt lat="45.7761" lon="5.5202">
        <ele>486.5</ele>
        <time>2019-05-01T08:08:01Z</time>
      </trkpt>
      <trkpt lat="45.77606" lon="5.52024">
        <ele>486.7</ele>
        <time>2019-05-01T08:08:04Z</time>
      </trkpt>
      <trkpt lat="45.77606" lon="5.52027">
        <ele>486.7</ele>
        <time>2019-05-01T08:08:05Z</time>
      </trkpt>
      <trkpt lat="45.77606" lon="5.52029">
        <ele>486.7</ele>
        <time>2019-05-01T08:08:06Z</time>
      </trkpt>
      <trkpt lat="45.77611" lon="5.52034">
        <ele>486.5</ele>
        <time>2019-05-01T08:08:11Z</time>
      </trkpt>
      <trkpt lat="45.77613" lon="5.52034">
        <ele>486.3</ele>
        <time>2019-05-01T08:08:12Z</time>
      </trkpt>
      <trkpt lat="45.77615" lon="5.52035">
        <ele>486</ele>
        <time>2019-05-01T08:08:14Z</time>
      </trkpt>
      <trkpt lat="45.77621" lon="5.52037">
        <ele>485.6</ele>
        <time>2019-05-01T08:08:18Z</time>
      </trkpt>
      <trkpt lat="45.77622" lon="5.52037">
        <ele>485.6</ele>
        <time>2019-05-01T08:08:19Z</time>
      </trkpt>
      <trkpt lat="45.77624" lon="5.52037">
        <ele>485.4</ele>
        <time>2019-05-01T08:08:20Z</time>
      </trkpt>
      <trkpt lat="45.77629" lon="5.52037">
        <ele>485.3</ele>
        <time>2019-05-01T08:08:22Z</time>
      </trkpt>
      <trkpt lat="45.77636" lon="5.52037">
        <ele>484.6</ele>
        <time>2019-05-01T08:08:24Z</time>
      </trkpt>
      <trkpt lat="45.7764" lon="5.52037">
        <ele>484.4</ele>
        <time>2019-05-01T08:08:25Z</time>
      </trkpt>
      <trkpt lat="45.77649" lon="5.52035">
        <ele>483.6</ele>
        <time>2019-05-01T08:08:27Z</time>
      </trkpt>
      <trkpt lat="45.7766" lon="5.52031">
        <ele>482.5</ele>
        <time>2019-05-01T08:08:29Z</time>
      </trkpt>
      <trkpt lat="45.77665" lon="5.5203">
        <ele>482.2</ele>
        <time>2019-05-01T08:08:30Z</time>
      </trkpt>
      <trkpt lat="45.77675" lon="5.52028">
        <ele>480.9</ele>
        <time>2019-05-01T08:08:33Z</time>
      </trkpt>
      <trkpt lat="45.7768" lon="5.52029">
        <ele>480.7</ele>
        <time>2019-05-01T08:08:36Z</time>
      </trkpt>
      <trkpt lat="45.77692" lon="5.52029">
        <ele>479.9</ele>
        <time>2019-05-01T08:08:57Z</time>
      </trkpt>
      <trkpt lat="45.77704" lon="5.52019">
        <ele>478.6</ele>
        <time>2019-05-01T08:09:03Z</time>
      </trkpt>
      <trkpt lat="45.77719" lon="5.52007">
        <ele>477.6</ele>
        <time>2019-05-01T08:09:09Z</time>
      </trkpt>
      <trkpt lat="45.77736" lon="5.52005">
        <ele>477.1</ele>
        <time>2019-05-01T08:09:16Z</time>
      </trkpt>
      <trkpt lat="45.77744" lon="5.52006">
        <ele>477.1</ele>
        <time>2019-05-01T08:09:19Z</time>
      </trkpt>
      <trkpt lat="45.77748" lon="5.52008">
        <ele>477.3</ele>
        <time>2019-05-01T08:09:22Z</time>
      </trkpt>
      <trkpt lat="45.7783" lon="5.52022">
        <ele>479.6</ele>
        <time>2019-05-01T08:10:52Z</time>
      </trkpt>
      <trkpt lat="45.77833" lon="5.52018">
        <ele>479.4</ele>
        <time>2019-05-01T08:10:54Z</time>
      </trkpt>
      <trkpt lat="45.77841" lon="5.52003">
        <ele>478.9</ele>
        <time>2019-05-01T08:10:58Z</time>
      </trkpt>
      <trkpt lat="45.77846" lon="5.51996">
        <ele>478.6</ele>
        <time>2019-05-01T08:11:00Z</time>
      </trkpt>
      <trkpt lat="45.77855" lon="5.51986">
        <ele>478.2</ele>
        <time>2019-05-01T08:11:03Z</time>
      </trkpt>
      <trkpt lat="45.77858" lon="5.51982">
        <ele>478</ele>
        <time>2019-05-01T08:11:04Z</time>
      </trkpt>
      <trkpt lat="45.77869" lon="5.51966">
        <ele>477.5</ele>
        <time>2019-05-01T08:11:08Z</time>
      </trkpt>
      <trkpt lat="45.77878" lon="5.51952">
        <ele>476.9</ele>
        <time>2019-05-01T08:11:12Z</time>
      </trkpt>
      <trkpt lat="45.77886" lon="5.51956">
        <ele>476.4</ele>
        <time>2019-05-01T08:11:16Z</time>
      </trkpt>
      <trkpt lat="45.77889" lon="5.51959">
        <ele>476.1</ele>
        <time>2019-05-01T08:11:17Z</time>
      </trkpt>
      <trkpt lat="45.77897" lon="5.51969">
        <ele>475.5</ele>
        <time>2019-05-01T08:11:20Z</time>
      </trkpt>
      <trkpt lat="45.779" lon="5.51972">
        <ele>475.2</ele>
        <time>2019-05-01T08:11:21Z</time>
      </trkpt>
      <trkpt lat="45.77906" lon="5.51981">
        <ele>474.8</ele>
        <time>2019-05-01T08:11:23Z</time>
      </trkpt>
      <trkpt lat="45.77914" lon="5.51996">
        <ele>474.3</ele>
        <time>2019-05-01T08:11:26Z</time>
      </trkpt>
      <trkpt lat="45.7792" lon="5.52003">
        <ele>474.2</ele>
        <time>2019-05-01T08:11:28Z</time>
      </trkpt>
      <trkpt lat="45.77926" lon="5.52007">
        <ele>474.2</ele>
        <time>2019-05-01T08:11:30Z</time>
      </trkpt>
      <trkpt lat="45.77938" lon="5.52018">
        <ele>473.9</ele>
        <time>2019-05-01T08:11:34Z</time>
      </trkpt>
      <trkpt lat="45.7794" lon="5.52022">
        <ele>473.8</ele>
        <time>2019-05-01T08:11:35Z</time>
      </trkpt>
      <trkpt lat="45.77941" lon="5.52038">
        <ele>473.2</ele>
        <time>2019-05-01T08:11:38Z</time>
      </trkpt>
      <trkpt lat="45.77939" lon="5.52045">
        <ele>473</ele>
        <time>2019-05-01T08:11:39Z</time>
      </trkpt>
      <trkpt lat="45.77935" lon="5.52071">
        <ele>472.8</ele>
        <time>2019-05-01T08:11:42Z</time>
      </trkpt>
      <trkpt lat="45.77936" lon="5.5208">
        <ele>472.8</ele>
        <time>2019-05-01T08:11:43Z</time>
      </trkpt>
      <trkpt lat="45.77943" lon="5.521">
        <ele>473.1</ele>
        <time>2019-05-01T08:11:46Z</time>
      </trkpt>
      <trkpt lat="45.77949" lon="5.52107">
        <ele>473.5</ele>
        <time>2019-05-01T08:11:48Z</time>
      </trkpt>
      <trkpt lat="45.77951" lon="5.5211">
        <ele>473.7</ele>
        <time>2019-05-01T08:11:49Z</time>
      </trkpt>
      <trkpt lat="45.77963" lon="5.52132">
        <ele>475.4</ele>
        <time>2019-05-01T08:11:55Z</time>
      </trkpt>
      <trkpt lat="45.77966" lon="5.52141">
        <ele>476.2</ele>
        <time>2019-05-01T08:11:58Z</time>
      </trkpt>
      <trkpt lat="45.77969" lon="5.52148">
        <ele>477</ele>
        <time>2019-05-01T08:12:00Z</time>
      </trkpt>
      <trkpt lat="45.77976" lon="5.52174">
        <ele>478.7</ele>
        <time>2019-05-01T08:12:06Z</time>
      </trkpt>
      <trkpt lat="45.77982" lon="5.52203">
        <ele>479</ele>
        <time>2019-05-01T08:12:11Z</time>
      </trkpt>
      <trkpt lat="45.77987" lon="5.52204">
        <ele>479</ele>
        <time>2019-05-01T08:12:14Z</time>
      </trkpt>
      <trkpt lat="45.77989" lon="5.52201">
        <ele>478.9</ele>
        <time>2019-05-01T08:12:15Z</time>
      </trkpt>
      <trkpt lat="45.78001" lon="5.52181">
        <ele>472.3</ele>
        <time>2019-05-01T08:12:20Z</time>
      </trkpt>
      <trkpt lat="45.78004" lon="5.52175">
        <ele>471</ele>
        <time>2019-05-01T08:12:21Z</time>
      </trkpt>
      <trkpt lat="45.7801" lon="5.52164">
        <ele>468.5</ele>
        <time>2019-05-01T08:12:23Z</time>
      </trkpt>
      <trkpt lat="45.78013" lon="5.5216">
        <ele>467.3</ele>
        <time>2019-05-01T08:12:24Z</time>
      </trkpt>
      <trkpt lat="45.78017" lon="5.52156">
        <ele>466.4</ele>
        <time>2019-05-01T08:12:25Z</time>
      </trkpt>
      <trkpt lat="45.78021" lon="5.52153">
        <ele>465.3</ele>
        <time>2019-05-01T08:12:26Z</time>
      </trkpt>
      <trkpt lat="45.7803" lon="5.52145">
        <ele>463.8</ele>
        <time>2019-05-01T08:12:28Z</time>
      </trkpt>
      <trkpt lat="45.78039" lon="5.52135">
        <ele>461.7</ele>
        <time>2019-05-01T08:12:30Z</time>
      </trkpt>
      <trkpt lat="45.78043" lon="5.5213">
        <ele>460.5</ele>
        <time>2019-05-01T08:12:31Z</time>
      </trkpt>
      <trkpt lat="45.78048" lon="5.52125">
        <ele>459.7</ele>
        <time>2019-05-01T08:12:32Z</time>
      </trkpt>
      <trkpt lat="45.78061" lon="5.52109">
        <ele>456.8</ele>
        <time>2019-05-01T08:12:35Z</time>
      </trkpt>
      <trkpt lat="45.78066" lon="5.52098">
        <ele>455.4</ele>
        <time>2019-05-01T08:12:37Z</time>
      </trkpt>
      <trkpt lat="45.78071" lon="5.52091">
        <ele>454</ele>
        <time>2019-05-01T08:12:39Z</time>
      </trkpt>
      <trkpt lat="45.78079" lon="5.52085">
        <ele>452.5</ele>
        <time>2019-05-01T08:12:41Z</time>
      </trkpt>
      <trkpt lat="45.7809" lon="5.52081">
        <ele>450.9</ele>
        <time>2019-05-01T08:12:43Z</time>
      </trkpt>
      <trkpt lat="45.78095" lon="5.5208">
        <ele>450.1</ele>
        <time>2019-05-01T08:12:44Z</time>
      </trkpt>
      <trkpt lat="45.78099" lon="5.52079">
        <ele>449.5</ele>
        <time>2019-05-01T08:12:45Z</time>
      </trkpt>
      <trkpt lat="45.78101" lon="5.52079">
        <ele>449.1</ele>
        <time>2019-05-01T08:12:46Z</time>
      </trkpt>
      <trkpt lat="45.78109" lon="5.5208">
        <ele>447.9</ele>
        <time>2019-05-01T08:12:48Z</time>
      </trkpt>
      <trkpt lat="45.78113" lon="5.52082">
        <ele>447.3</ele>
        <time>2019-05-01T08:12:49Z</time>
      </trkpt>
      <trkpt lat="45.78116" lon="5.52084">
        <ele>446.7</ele>
        <time>2019-05-01T08:12:50Z</time>
      </trkpt>
      <trkpt lat="45.78122" lon="5.52089">
        <ele>445.6</ele>
        <time>2019-05-01T08:12:52Z</time>
      </trkpt>
      <trkpt lat="45.78129" lon="5.52091">
        <ele>444.2</ele>
        <time>2019-05-01T08:12:54Z</time>
      </trkpt>
      <trkpt lat="45.78132" lon="5.52091">
        <ele>443.4</ele>
        <time>2019-05-01T08:12:55Z</time>
      </trkpt>
      <trkpt lat="45.78134" lon="5.52091">
        <ele>442.9</ele>
        <time>2019-05-01T08:12:56Z</time>
      </trkpt>
      <trkpt lat="45.78136" lon="5.52093">
        <ele>442.5</ele>
        <time>2019-05-01T08:12:57Z</time>
      </trkpt>
      <trkpt lat="45.78137" lon="5.52095">
        <ele>442.2</ele>
        <time>2019-05-01T08:12:58Z</time>
      </trkpt>
      <trkpt lat="45.78138" lon="5.52097">
        <ele>442</ele>
        <time>2019-05-01T08:12:59Z</time>
      </trkpt>
      <trkpt lat="45.78139" lon="5.52101">
        <ele>441.6</ele>
        <time>2019-05-01T08:13:02Z</time>
      </trkpt>
      <trkpt lat="45.7814" lon="5.52103">
        <ele>441.3</ele>
        <time>2019-05-01T08:13:03Z</time>
      </trkpt>
      <trkpt lat="45.78141" lon="5.52105">
        <ele>441.1</ele>
        <time>2019-05-01T08:13:04Z</time>
      </trkpt>
      <trkpt lat="45.78143" lon="5.52106">
        <ele>440.8</ele>
        <time>2019-05-01T08:13:05Z</time>
      </trkpt>
      <trkpt lat="45.78148" lon="5.52108">
        <ele>439.7</ele>
        <time>2019-05-01T08:13:10Z</time>
      </trkpt>
      <trkpt lat="45.78151" lon="5.52107">
        <ele>438.9</ele>
        <time>2019-05-01T08:13:11Z</time>
      </trkpt>
      <trkpt lat="45.78153" lon="5.52107">
        <ele>438.2</ele>
        <time>2019-05-01T08:13:12Z</time>
      </trkpt>
      <trkpt lat="45.78156" lon="5.52107">
        <ele>437.5</ele>
        <time>2019-05-01T08:13:13Z</time>
      </trkpt>
      <trkpt lat="45.78158" lon="5.52106">
        <ele>436.9</ele>
        <time>2019-05-01T08:13:14Z</time>
      </trkpt>
      <trkpt lat="45.78161" lon="5.52106">
        <ele>436.3</ele>
        <time>2019-05-01T08:13:15Z</time>
      </trkpt>
      <trkpt lat="45.78165" lon="5.52105">
        <ele>435.1</ele>
        <time>2019-05-01T08:13:17Z</time>
      </trkpt>
      <trkpt lat="45.78167" lon="5.52104">
        <ele>434.4</ele>
        <time>2019-05-01T08:13:18Z</time>
      </trkpt>
      <trkpt lat="45.7817" lon="5.52103">
        <ele>433.6</ele>
        <time>2019-05-01T08:13:19Z</time>
      </trkpt>
      <trkpt lat="45.78173" lon="5.52102">
        <ele>432.7</ele>
        <time>2019-05-01T08:13:20Z</time>
      </trkpt>
      <trkpt lat="45.78176" lon="5.521">
        <ele>431.9</ele>
        <time>2019-05-01T08:13:21Z</time>
      </trkpt>
      <trkpt lat="45.78178" lon="5.52099">
        <ele>431.4</ele>
        <time>2019-05-01T08:13:22Z</time>
      </trkpt>
      <trkpt lat="45.7818" lon="5.52097">
        <ele>430.9</ele>
        <time>2019-05-01T08:13:23Z</time>
      </trkpt>
      <trkpt lat="45.78182" lon="5.52095">
        <ele>430.4</ele>
        <time>2019-05-01T08:13:24Z</time>
      </trkpt>
      <trkpt lat="45.78185" lon="5.52091">
        <ele>429.3</ele>
        <time>2019-05-01T08:13:26Z</time>
      </trkpt>
      <trkpt lat="45.78188" lon="5.52088">
        <ele>428.5</ele>
        <time>2019-05-01T08:13:27Z</time>
      </trkpt>
      <trkpt lat="45.78191" lon="5.52086">
        <ele>427.8</ele>
        <time>2019-05-01T08:13:28Z</time>
      </trkpt>
      <trkpt lat="45.78195" lon="5.52083">
        <ele>426.5</ele>
        <time>2019-05-01T08:13:30Z</time>
      </trkpt>
      <trkpt lat="45.78198" lon="5.52081">
        <ele>425.7</ele>
        <time>2019-05-01T08:13:31Z</time>
      </trkpt>
      <trkpt lat="45.78202" lon="5.52075">
        <ele>424</ele>
        <time>2019-05-01T08:13:33Z</time>
      </trkpt>
      <trkpt lat="45.78207" lon="5.52068">
        <ele>421.6</ele>
        <time>2019-05-01T08:13:35Z</time>
      </trkpt>
      <trkpt lat="45.78213" lon="5.5206">
        <ele>421.1</ele>
        <time>2019-05-01T08:13:37Z</time>
      </trkpt>
      <trkpt lat="45.78223" lon="5.52051">
        <ele>420.4</ele>
        <time>2019-05-01T08:13:39Z</time>
      </trkpt>
      <trkpt lat="45.78228" lon="5.52047">
        <ele>420.2</ele>
        <time>2019-05-01T08:13:40Z</time>
      </trkpt>
      <trkpt lat="45.78235" lon="5.52044">
        <ele>420</ele>
        <time>2019-05-01T08:13:41Z</time>
      </trkpt>
      <trkpt lat="45.78242" lon="5.52042">
        <ele>420.1</ele>
        <time>2019-05-01T08:13:42Z</time>
      </trkpt>
      <trkpt lat="45.7825" lon="5.5204">
        <ele>420.1</ele>
        <time>2019-05-01T08:13:43Z</time>
      </trkpt>
      <trkpt lat="45.78262" lon="5.52038">
        <ele>420.5</ele>
        <time>2019-05-01T08:13:45Z</time>
      </trkpt>
      <trkpt lat="45.78282" lon="5.52035">
        <ele>421.6</ele>
        <time>2019-05-01T08:13:49Z</time>
      </trkpt>
      <trkpt lat="45.78296" lon="5.52037">
        <ele>422.5</ele>
        <time>2019-05-01T08:13:53Z</time>
      </trkpt>
      <trkpt lat="45.783" lon="5.5204">
        <ele>422.6</ele>
        <time>2019-05-01T08:13:54Z</time>
      </trkpt>
      <trkpt lat="45.78303" lon="5.52044">
        <ele>422.5</ele>
        <time>2019-05-01T08:13:55Z</time>
      </trkpt>
      <trkpt lat="45.7831" lon="5.52055">
        <ele>421.6</ele>
        <time>2019-05-01T08:13:57Z</time>
      </trkpt>
      <trkpt lat="45.78313" lon="5.52062">
        <ele>420.9</ele>
        <time>2019-05-01T08:13:58Z</time>
      </trkpt>
      <trkpt lat="45.78318" lon="5.52083">
        <ele>417.9</ele>
        <time>2019-05-01T08:14:01Z</time>
      </trkpt>
      <trkpt lat="45.78325" lon="5.52097">
        <ele>415.7</ele>
        <time>2019-05-01T08:14:03Z</time>
      </trkpt>
      <trkpt lat="45.78335" lon="5.52106">
        <ele>413.5</ele>
        <time>2019-05-01T08:14:06Z</time>
      </trkpt>
      <trkpt lat="45.78337" lon="5.52109">
        <ele>412.9</ele>
        <time>2019-05-01T08:14:07Z</time>
      </trkpt>
      <trkpt lat="45.78342" lon="5.52115">
        <ele>411.7</ele>
        <time>2019-05-01T08:14:09Z</time>
      </trkpt>
      <trkpt lat="45.78346" lon="5.52121">
        <ele>410.7</ele>
        <time>2019-05-01T08:14:11Z</time>
      </trkpt>
      <trkpt lat="45.78351" lon="5.52125">
        <ele>410</ele>
        <time>2019-05-01T08:14:13Z</time>
      </trkpt>
      <trkpt lat="45.78354" lon="5.52125">
        <ele>409.6</ele>
        <time>2019-05-01T08:14:14Z</time>
      </trkpt>
      <trkpt lat="45.78357" lon="5.52125">
        <ele>409.2</ele>
        <time>2019-05-01T08:14:15Z</time>
      </trkpt>
      <trkpt lat="45.78363" lon="5.52127">
        <ele>408.3</ele>
        <time>2019-05-01T08:14:17Z</time>
      </trkpt>
      <trkpt lat="45.78367" lon="5.52129">
        <ele>407.7</ele>
        <time>2019-05-01T08:14:18Z</time>
      </trkpt>
      <trkpt lat="45.78371" lon="5.52131">
        <ele>407.1</ele>
        <time>2019-05-01T08:14:19Z</time>
      </trkpt>
      <trkpt lat="45.78377" lon="5.52135">
        <ele>406.2</ele>
        <time>2019-05-01T08:14:21Z</time>
      </trkpt>
      <trkpt lat="45.78381" lon="5.52137">
        <ele>405.6</ele>
        <time>2019-05-01T08:14:23Z</time>
      </trkpt>
      <trkpt lat="45.78383" lon="5.52139">
        <ele>405.2</ele>
        <time>2019-05-01T08:14:24Z</time>
      </trkpt>
      <trkpt lat="45.78384" lon="5.52141">
        <ele>404.8</ele>
        <time>2019-05-01T08:14:25Z</time>
      </trkpt>
      <trkpt lat="45.78387" lon="5.52144">
        <ele>404</ele>
        <time>2019-05-01T08:14:27Z</time>
      </trkpt>
      <trkpt lat="45.78391" lon="5.52148">
        <ele>403.1</ele>
        <time>2019-05-01T08:14:29Z</time>
      </trkpt>
      <trkpt lat="45.78397" lon="5.52153">
        <ele>401.5</ele>
        <time>2019-05-01T08:14:31Z</time>
      </trkpt>
      <trkpt lat="45.78403" lon="5.52158">
        <ele>400.2</ele>
        <time>2019-05-01T08:14:33Z</time>
      </trkpt>
      <trkpt lat="45.78412" lon="5.52164">
        <ele>397.8</ele>
        <time>2019-05-01T08:14:36Z</time>
      </trkpt>
      <trkpt lat="45.78417" lon="5.52166">
        <ele>396.8</ele>
        <time>2019-05-01T08:14:37Z</time>
      </trkpt>
      <trkpt lat="45.7842" lon="5.52169">
        <ele>396.2</ele>
        <time>2019-05-01T08:14:38Z</time>
      </trkpt>
      <trkpt lat="45.78425" lon="5.52173">
        <ele>395.3</ele>
        <time>2019-05-01T08:14:40Z</time>
      </trkpt>
      <trkpt lat="45.78431" lon="5.52177">
        <ele>394.1</ele>
        <time>2019-05-01T08:14:42Z</time>
      </trkpt>
      <trkpt lat="45.78435" lon="5.5218">
        <ele>393.3</ele>
        <time>2019-05-01T08:14:43Z</time>
      </trkpt>
      <trkpt lat="45.78438" lon="5.52182">
        <ele>392.6</ele>
        <time>2019-05-01T08:14:44Z</time>
      </trkpt>
      <trkpt lat="45.78444" lon="5.52183">
        <ele>391.2</ele>
        <time>2019-05-01T08:14:46Z</time>
      </trkpt>
      <trkpt lat="45.78447" lon="5.52184">
        <ele>390.7</ele>
        <time>2019-05-01T08:14:47Z</time>
      </trkpt>
      <trkpt lat="45.7845" lon="5.52184">
        <ele>390.2</ele>
        <time>2019-05-01T08:14:48Z</time>
      </trkpt>
      <trkpt lat="45.78452" lon="5.52184">
        <ele>389.8</ele>
        <time>2019-05-01T08:14:49Z</time>
      </trkpt>
      <trkpt lat="45.78454" lon="5.52183">
        <ele>389.4</ele>
        <time>2019-05-01T08:14:50Z</time>
      </trkpt>
      <trkpt lat="45.78456" lon="5.52181">
        <ele>388.9</ele>
        <time>2019-05-01T08:14:51Z</time>
      </trkpt>
      <trkpt lat="45.78461" lon="5.52178">
        <ele>387.4</ele>
        <time>2019-05-01T08:14:53Z</time>
      </trkpt>
      <trkpt lat="45.78465" lon="5.52173">
        <ele>386.2</ele>
        <time>2019-05-01T08:14:55Z</time>
      </trkpt>
      <trkpt lat="45.78467" lon="5.52171">
        <ele>385.8</ele>
        <time>2019-05-01T08:14:56Z</time>
      </trkpt>
      <trkpt lat="45.78468" lon="5.52168">
        <ele>385.3</ele>
        <time>2019-05-01T08:14:57Z</time>
      </trkpt>
      <trkpt lat="45.78468" lon="5.52165">
        <ele>384.9</ele>
        <time>2019-05-01T08:14:58Z</time>
      </trkpt>
      <trkpt lat="45.78467" lon="5.52161">
        <ele>384.3</ele>
        <time>2019-05-01T08:14:59Z</time>
      </trkpt>
      <trkpt lat="45.78465" lon="5.52158">
        <ele>383.7</ele>
        <time>2019-05-01T08:15:00Z</time>
      </trkpt>
      <trkpt lat="45.78464" lon="5.52155">
        <ele>383.2</ele>
        <time>2019-05-01T08:15:01Z</time>
      </trkpt>
      <trkpt lat="45.78464" lon="5.52152">
        <ele>382.7</ele>
        <time>2019-05-01T08:15:02Z</time>
      </trkpt>
      <trkpt lat="45.78464" lon="5.52149">
        <ele>382.2</ele>
        <time>2019-05-01T08:15:03Z</time>
      </trkpt>
      <trkpt lat="45.78464" lon="5.52146">
        <ele>381.6</ele>
        <time>2019-05-01T08:15:04Z</time>
      </trkpt>
      <trkpt lat="45.78463" lon="5.52141">
        <ele>380.6</ele>
        <time>2019-05-01T08:15:06Z</time>
      </trkpt>
      <trkpt lat="45.78463" lon="5.52131">
        <ele>378.7</ele>
        <time>2019-05-01T08:15:10Z</time>
      </trkpt>
      <trkpt lat="45.78463" lon="5.52125">
        <ele>377.2</ele>
        <time>2019-05-01T08:15:12Z</time>
      </trkpt>
      <trkpt lat="45.78462" lon="5.52122">
        <ele>376.5</ele>
        <time>2019-05-01T08:15:13Z</time>
      </trkpt>
      <trkpt lat="45.78462" lon="5.52117">
        <ele>375.3</ele>
        <time>2019-05-01T08:15:15Z</time>
      </trkpt>
      <trkpt lat="45.78463" lon="5.52115">
        <ele>374.6</ele>
        <time>2019-05-01T08:15:16Z</time>
      </trkpt>
      <trkpt lat="45.78464" lon="5.52113">
        <ele>374.2</ele>
        <time>2019-05-01T08:15:17Z</time>
      </trkpt>
      <trkpt lat="45.78464" lon="5.52111">
        <ele>373.7</ele>
        <time>2019-05-01T08:15:18Z</time>
      </trkpt>
      <trkpt lat="45.78506" lon="5.52098">
        <ele>365.8</ele>
        <time>2019-05-01T08:17:28Z</time>
      </trkpt>
      <trkpt lat="45.78512" lon="5.52113">
        <ele>371.6</ele>
        <time>2019-05-01T08:17:34Z</time>
      </trkpt>
      <trkpt lat="45.78517" lon="5.52118">
        <ele>372.6</ele>
        <time>2019-05-01T08:17:37Z</time>
      </trkpt>
      <trkpt lat="45.7852" lon="5.52119">
        <ele>373</ele>
        <time>2019-05-01T08:17:39Z</time>
      </trkpt>
      <trkpt lat="45.78558" lon="5.52052">
        <ele>387.9</ele>
        <time>2019-05-01T08:18:41Z</time>
      </trkpt>
      <trkpt lat="45.78558" lon="5.52049">
        <ele>388.3</ele>
        <time>2019-05-01T08:18:42Z</time>
      </trkpt>
      <trkpt lat="45.78633" lon="5.5203">
        <ele>403.5</ele>
        <time>2019-05-01T08:20:40Z</time>
      </trkpt>
      <trkpt lat="45.78634" lon="5.52031">
        <ele>403.8</ele>
        <time>2019-05-01T08:20:41Z</time>
      </trkpt>
      <trkpt lat="45.78657" lon="5.5204">
        <ele>408.8</ele>
        <time>2019-05-01T08:20:59Z</time>
      </trkpt>
      <trkpt lat="45.78659" lon="5.52042">
        <ele>409.4</ele>
        <time>2019-05-01T08:21:00Z</time>
      </trkpt>
      <trkpt lat="45.7866" lon="5.52044">
        <ele>410</ele>
        <time>2019-05-01T08:21:01Z</time>
      </trkpt>
      <trkpt lat="45.7866" lon="5.52056">
        <ele>407.4</ele>
        <time>2019-05-01T08:21:06Z</time>
      </trkpt>
      <trkpt lat="45.78657" lon="5.52063">
        <ele>406.5</ele>
        <time>2019-05-01T08:21:10Z</time>
      </trkpt>
      <trkpt lat="45.78652" lon="5.52068">
        <ele>405.5</ele>
        <time>2019-05-01T08:21:13Z</time>
      </trkpt>
      <trkpt lat="45.78644" lon="5.52075">
        <ele>403.5</ele>
        <time>2019-05-01T08:21:18Z</time>
      </trkpt>
      <trkpt lat="45.7864" lon="5.5208">
        <ele>402.5</ele>
        <time>2019-05-01T08:21:21Z</time>
      </trkpt>
      <trkpt lat="45.78639" lon="5.52082">
        <ele>402.3</ele>
        <time>2019-05-01T08:21:22Z</time>
      </trkpt>
      <trkpt lat="45.78633" lon="5.52097">
        <ele>400.8</ele>
        <time>2019-05-01T08:21:28Z</time>
      </trkpt>
      <trkpt lat="45.78633" lon="5.52116">
        <ele>399.3</ele>
        <time>2019-05-01T08:21:34Z</time>
      </trkpt>
      <trkpt lat="45.78634" lon="5.5212">
        <ele>399</ele>
        <time>2019-05-01T08:21:35Z</time>
      </trkpt>
      <trkpt lat="45.78642" lon="5.52155">
        <ele>397.4</ele>
        <time>2019-05-01T08:21:42Z</time>
      </trkpt>
      <trkpt lat="45.78653" lon="5.522">
        <ele>398</ele>
        <time>2019-05-01T08:21:49Z</time>
      </trkpt>
      <trkpt lat="45.78655" lon="5.5222">
        <ele>398.8</ele>
        <time>2019-05-01T08:21:52Z</time>
      </trkpt>
      <trkpt lat="45.78655" lon="5.52233">
        <ele>399.5</ele>
        <time>2019-05-01T08:21:54Z</time>
      </trkpt>
      <trkpt lat="45.78656" lon="5.52239">
        <ele>400</ele>
        <time>2019-05-01T08:21:55Z</time>
      </trkpt>
      <trkpt lat="45.78656" lon="5.52246">
        <ele>400.3</ele>
        <time>2019-05-01T08:21:56Z</time>
      </trkpt>
      <trkpt lat="45.7866" lon="5.52294">
        <ele>403.1</ele>
        <time>2019-05-01T08:22:04Z</time>
      </trkpt>
      <trkpt lat="45.78659" lon="5.52329">
        <ele>405.7</ele>
        <time>2019-05-01T08:22:10Z</time>
      </trkpt>
      <trkpt lat="45.78659" lon="5.52335">
        <ele>406.1</ele>
        <time>2019-05-01T08:22:11Z</time>
      </trkpt>
      <trkpt lat="45.78658" lon="5.52365">
        <ele>408.2</ele>
        <time>2019-05-01T08:22:17Z</time>
      </trkpt>
      <trkpt lat="45.78662" lon="5.52376">
        <ele>409.2</ele>
        <time>2019-05-01T08:22:19Z</time>
      </trkpt>
      <trkpt lat="45.78669" lon="5.52387">
        <ele>409.9</ele>
        <time>2019-05-01T08:22:21Z</time>
      </trkpt>
      <trkpt lat="45.78687" lon="5.52397">
        <ele>411.3</ele>
        <time>2019-05-01T08:22:25Z</time>
      </trkpt>
      <trkpt lat="45.787" lon="5.52391">
        <ele>417.4</ele>
        <time>2019-05-01T08:22:28Z</time>
      </trkpt>
      <trkpt lat="45.7871" lon="5.52381">
        <ele>421</ele>
        <time>2019-05-01T08:22:32Z</time>
      </trkpt>
      <trkpt lat="45.78712" lon="5.52375">
        <ele>422.1</ele>
        <time>2019-05-01T08:22:34Z</time>
      </trkpt>
      <trkpt lat="45.78721" lon="5.5235">
        <ele>425.1</ele>
        <time>2019-05-01T08:22:41Z</time>
      </trkpt>
      <trkpt lat="45.78725" lon="5.52323">
        <ele>426.7</ele>
        <time>2019-05-01T08:22:46Z</time>
      </trkpt>
      <trkpt lat="45.78728" lon="5.5229">
        <ele>426.6</ele>
        <time>2019-05-01T08:22:51Z</time>
      </trkpt>
      <trkpt lat="45.78728" lon="5.5225">
        <ele>426.9</ele>
        <time>2019-05-01T08:22:58Z</time>
      </trkpt>
      <trkpt lat="45.78725" lon="5.52236">
        <ele>427.1</ele>
        <time>2019-05-01T08:23:00Z</time>
      </trkpt>
      <trkpt lat="45.78723" lon="5.52219">
        <ele>427.7</ele>
        <time>2019-05-01T08:23:03Z</time>
      </trkpt>
      <trkpt lat="45.78723" lon="5.52215">
        <ele>427.9</ele>
        <time>2019-05-01T08:23:04Z</time>
      </trkpt>
      <trkpt lat="45.78723" lon="5.52207">
        <ele>428.2</ele>
        <time>2019-05-01T08:23:06Z</time>
      </trkpt>
      <trkpt lat="45.78723" lon="5.522">
        <ele>428.6</ele>
        <time>2019-05-01T08:23:08Z</time>
      </trkpt>
      <trkpt lat="45.78722" lon="5.52192">
        <ele>429</ele>
        <time>2019-05-01T08:23:10Z</time>
      </trkpt>
      <trkpt lat="45.78722" lon="5.52189">
        <ele>429.2</ele>
        <time>2019-05-01T08:23:11Z</time>
      </trkpt>
      <trkpt lat="45.78721" lon="5.52186">
        <ele>429.3</ele>
        <time>2019-05-01T08:23:12Z</time>
      </trkpt>
      <trkpt lat="45.78721" lon="5.5218">
        <ele>429.5</ele>
        <time>2019-05-01T08:23:14Z</time>
      </trkpt>
      <trkpt lat="45.7872" lon="5.5217">
        <ele>429.9</ele>
        <time>2019-05-01T08:23:17Z</time>
      </trkpt>
      <trkpt lat="45.7872" lon="5.52167">
        <ele>430.1</ele>
        <time>2019-05-01T08:23:18Z</time>
      </trkpt>
      <trkpt lat="45.7872" lon="5.52163">
        <ele>430.2</ele>
        <time>2019-05-01T08:23:19Z</time>
      </trkpt>
      <trkpt lat="45.78719" lon="5.52157">
        <ele>430.5</ele>
        <time>2019-05-01T08:23:21Z</time>
      </trkpt>
      <trkpt lat="45.78718" lon="5.5215">
        <ele>430.8</ele>
        <time>2019-05-01T08:23:23Z</time>
      </trkpt>
      <trkpt lat="45.78718" lon="5.52144">
        <ele>431.1</ele>
        <time>2019-05-01T08:23:25Z</time>
      </trkpt>
      <trkpt lat="45.78719" lon="5.52135">
        <ele>431.5</ele>
        <time>2019-05-01T08:23:28Z</time>
      </trkpt>
      <trkpt lat="45.78719" lon="5.52126">
        <ele>432</ele>
        <time>2019-05-01T08:23:31Z</time>
      </trkpt>
      <trkpt lat="45.78719" lon="5.52124">
        <ele>432.1</ele>
        <time>2019-05-01T08:23:32Z</time>
      </trkpt>
      <trkpt lat="45.7872" lon="5.52121">
        <ele>432.3</ele>
        <time>2019-05-01T08:23:33Z</time>
      </trkpt>
      <trkpt lat="45.78721" lon="5.5211">
        <ele>432.8</ele>
        <time>2019-05-01T08:23:37Z</time>
      </trkpt>
      <trkpt lat="45.78721" lon="5.52107">
        <ele>433</ele>
        <time>2019-05-01T08:23:38Z</time>
      </trkpt>
      <trkpt lat="45.78722" lon="5.52105">
        <ele>433.1</ele>
        <time>2019-05-01T08:23:39Z</time>
      </trkpt>
      <trkpt lat="45.78722" lon="5.52097">
        <ele>433.4</ele>
        <time>2019-05-01T08:23:42Z</time>
      </trkpt>
      <trkpt lat="45.78723" lon="5.52094">
        <ele>433.5</ele>
        <time>2019-05-01T08:23:43Z</time>
      </trkpt>
      <trkpt lat="45.78723" lon="5.52088">
        <ele>433.8</ele>
        <time>2019-05-01T08:23:45Z</time>
      </trkpt>
      <trkpt lat="45.78726" lon="5.52079">
        <ele>434.1</ele>
        <time>2019-05-01T08:23:50Z</time>
      </trkpt>
      <trkpt lat="45.78728" lon="5.52075">
        <ele>434.3</ele>
        <time>2019-05-01T08:23:52Z</time>
      </trkpt>
      <trkpt lat="45.78728" lon="5.52069">
        <ele>434.8</ele>
        <time>2019-05-01T08:23:55Z</time>
      </trkpt>
      <trkpt lat="45.78728" lon="5.52067">
        <ele>434.9</ele>
        <time>2019-05-01T08:23:56Z</time>
      </trkpt>
      <trkpt lat="45.78727" lon="5.5206">
        <ele>435.3</ele>
        <time>2019-05-01T08:23:59Z</time>
      </trkpt>
      <trkpt lat="45.78726" lon="5.52052">
        <ele>435.7</ele>
        <time>2019-05-01T08:24:03Z</time>
      </trkpt>
      <trkpt lat="45.78724" lon="5.52046">
        <ele>436.3</ele>
        <time>2019-05-01T08:24:06Z</time>
      </trkpt>
      <trkpt lat="45.78725" lon="5.52039">
        <ele>436.9</ele>
        <time>2019-05-01T08:24:09Z</time>
      </trkpt>
      <trkpt lat="45.78725" lon="5.52029">
        <ele>437.7</ele>
        <time>2019-05-01T08:24:14Z</time>
      </trkpt>
      <trkpt lat="45.78725" lon="5.52025">
        <ele>438.1</ele>
        <time>2019-05-01T08:24:16Z</time>
      </trkpt>
      <trkpt lat="45.78725" lon="5.52023">
        <ele>438.3</ele>
        <time>2019-05-01T08:24:17Z</time>
      </trkpt>
      <trkpt lat="45.7873" lon="5.52008">
        <ele>439.8</ele>
        <time>2019-05-01T08:24:24Z</time>
      </trkpt>
      <trkpt lat="45.78731" lon="5.52004">
        <ele>440.1</ele>
        <time>2019-05-01T08:24:26Z</time>
      </trkpt>
      <trkpt lat="45.78736" lon="5.51995">
        <ele>441.2</ele>
        <time>2019-05-01T08:24:31Z</time>
      </trkpt>
      <trkpt lat="45.78738" lon="5.51989">
        <ele>441.8</ele>
        <time>2019-05-01T08:24:34Z</time>
      </trkpt>
      <trkpt lat="45.78741" lon="5.51981">
        <ele>442.6</ele>
        <time>2019-05-01T08:24:39Z</time>
      </trkpt>
      <trkpt lat="45.78742" lon="5.51979">
        <ele>442.8</ele>
        <time>2019-05-01T08:24:40Z</time>
      </trkpt>
      <trkpt lat="45.78745" lon="5.51972">
        <ele>443.6</ele>
        <time>2019-05-01T08:24:44Z</time>
      </trkpt>
      <trkpt lat="45.78747" lon="5.51967">
        <ele>444.1</ele>
        <time>2019-05-01T08:24:47Z</time>
      </trkpt>
      <trkpt lat="45.78749" lon="5.51963">
        <ele>444.3</ele>
        <time>2019-05-01T08:24:49Z</time>
      </trkpt>
      <trkpt lat="45.78749" lon="5.51961">
        <ele>444.4</ele>
        <time>2019-05-01T08:24:50Z</time>
      </trkpt>
      <trkpt lat="45.78756" lon="5.51951">
        <ele>445.4</ele>
        <time>2019-05-01T08:24:56Z</time>
      </trkpt>
      <trkpt lat="45.78763" lon="5.51939">
        <ele>446.3</ele>
        <time>2019-05-01T08:25:03Z</time>
      </trkpt>
      <trkpt lat="45.7877" lon="5.51928">
        <ele>446.9</ele>
        <time>2019-05-01T08:25:09Z</time>
      </trkpt>
      <trkpt lat="45.78777" lon="5.51912">
        <ele>447.7</ele>
        <time>2019-05-01T08:25:17Z</time>
      </trkpt>
      <trkpt lat="45.7878" lon="5.51907">
        <ele>447.8</ele>
        <time>2019-05-01T08:25:19Z</time>
      </trkpt>
      <trkpt lat="45.78784" lon="5.51893">
        <ele>448.2</ele>
        <time>2019-05-01T08:25:25Z</time>
      </trkpt>
      <trkpt lat="45.78786" lon="5.51889">
        <ele>448.3</ele>
        <time>2019-05-01T08:25:27Z</time>
      </trkpt>
      <trkpt lat="45.7879" lon="5.5188">
        <ele>448.5</ele>
        <time>2019-05-01T08:25:31Z</time>
      </trkpt>
      <trkpt lat="45.78792" lon="5.51876">
        <ele>448.6</ele>
        <time>2019-05-01T08:25:33Z</time>
      </trkpt>
      <trkpt lat="45.78799" lon="5.51857">
        <ele>448.9</ele>
        <time>2019-05-01T08:25:41Z</time>
      </trkpt>
      <trkpt lat="45.78806" lon="5.51841">
        <ele>449.2</ele>
        <time>2019-05-01T08:25:47Z</time>
      </trkpt>
      <trkpt lat="45.78816" lon="5.51826">
        <ele>449.5</ele>
        <time>2019-05-01T08:25:54Z</time>
      </trkpt>
      <trkpt lat="45.78825" lon="5.51812">
        <ele>449.9</ele>
        <time>2019-05-01T08:26:01Z</time>
      </trkpt>
      <trkpt lat="45.78831" lon="5.51803">
        <ele>450.3</ele>
        <time>2019-05-01T08:26:06Z</time>
      </trkpt>
      <trkpt lat="45.78835" lon="5.51798">
        <ele>450.6</ele>
        <time>2019-05-01T08:26:09Z</time>
      </trkpt>
      <trkpt lat="45.7884" lon="5.51793">
        <ele>450.9</ele>
        <time>2019-05-01T08:26:12Z</time>
      </trkpt>
      <trkpt lat="45.78845" lon="5.51786">
        <ele>451.5</ele>
        <time>2019-05-01T08:26:16Z</time>
      </trkpt>
      <trkpt lat="45.78852" lon="5.51778">
        <ele>452.2</ele>
        <time>2019-05-01T08:26:21Z</time>
      </trkpt>
      <trkpt lat="45.78855" lon="5.51775">
        <ele>452.5</ele>
        <time>2019-05-01T08:26:23Z</time>
      </trkpt>
      <trkpt lat="45.78859" lon="5.5177">
        <ele>452.9</ele>
        <time>2019-05-01T08:26:26Z</time>
      </trkpt>
      <trkpt lat="45.78865" lon="5.51761">
        <ele>453.5</ele>
        <time>2019-05-01T08:26:31Z</time>
      </trkpt>
      <trkpt lat="45.78872" lon="5.51751">
        <ele>454.3</ele>
        <time>2019-05-01T08:26:37Z</time>
      </trkpt>
      <trkpt lat="45.78875" lon="5.51747">
        <ele>454.5</ele>
        <time>2019-05-01T08:26:39Z</time>
      </trkpt>
      <trkpt lat="45.78879" lon="5.51741">
        <ele>454.9</ele>
        <time>2019-05-01T08:26:42Z</time>
      </trkpt>
      <trkpt lat="45.78886" lon="5.5173">
        <ele>455.7</ele>
        <time>2019-05-01T08:26:48Z</time>
      </trkpt>
      <trkpt lat="45.78889" lon="5.51726">
        <ele>455.9</ele>
        <time>2019-05-01T08:26:50Z</time>
      </trkpt>
      <trkpt lat="45.78898" lon="5.51714">
        <ele>456.6</ele>
        <time>2019-05-01T08:26:57Z</time>
      </trkpt>
      <trkpt lat="45.789" lon="5.51712">
        <ele>456.7</ele>
        <time>2019-05-01T08:26:58Z</time>
      </trkpt>
      <trkpt lat="45.78907" lon="5.51703">
        <ele>457.4</ele>
        <time>2019-05-01T08:27:03Z</time>
      </trkpt>
      <trkpt lat="45.78911" lon="5.51698">
        <ele>457.7</ele>
        <time>2019-05-01T08:27:06Z</time>
      </trkpt>
      <trkpt lat="45.78913" lon="5.51697">
        <ele>457.9</ele>
        <time>2019-05-01T08:27:07Z</time>
      </trkpt>
      <trkpt lat="45.78918" lon="5.5169">
        <ele>458.5</ele>
        <time>2019-05-01T08:27:11Z</time>
      </trkpt>
      <trkpt lat="45.78922" lon="5.51683">
        <ele>458.8</ele>
        <time>2019-05-01T08:27:14Z</time>
      </trkpt>
      <trkpt lat="45.78926" lon="5.5168">
        <ele>459.2</ele>
        <time>2019-05-01T08:27:17Z</time>
      </trkpt>
      <trkpt lat="45.78927" lon="5.51678">
        <ele>459.3</ele>
        <time>2019-05-01T08:27:18Z</time>
      </trkpt>
      <trkpt lat="45.78928" lon="5.51678">
        <ele>459.4</ele>
        <time>2019-05-01T08:27:19Z</time>
      </trkpt>
      <trkpt lat="45.78931" lon="5.51674">
        <ele>459.8</ele>
        <time>2019-05-01T08:27:22Z</time>
      </trkpt>
      <trkpt lat="45.78933" lon="5.51673">
        <ele>459.9</ele>
        <time>2019-05-01T08:27:23Z</time>
      </trkpt>
      <trkpt lat="45.78934" lon="5.51671">
        <ele>460</ele>
        <time>2019-05-01T08:27:24Z</time>
      </trkpt>
      <trkpt lat="45.78943" lon="5.51659">
        <ele>461.2</ele>
        <time>2019-05-01T08:27:32Z</time>
      </trkpt>
      <trkpt lat="45.78955" lon="5.51644">
        <ele>462.6</ele>
        <time>2019-05-01T08:27:41Z</time>
      </trkpt>
      <trkpt lat="45.78957" lon="5.51642">
        <ele>462.8</ele>
        <time>2019-05-01T08:27:42Z</time>
      </trkpt>
      <trkpt lat="45.78965" lon="5.51633">
        <ele>463.7</ele>
        <time>2019-05-01T08:27:47Z</time>
      </trkpt>
      <trkpt lat="45.78971" lon="5.51627">
        <ele>464.3</ele>
        <time>2019-05-01T08:27:50Z</time>
      </trkpt>
      <trkpt lat="45.78976" lon="5.5162">
        <ele>464.8</ele>
        <time>2019-05-01T08:27:53Z</time>
      </trkpt>
      <trkpt lat="45.78982" lon="5.5161">
        <ele>465.5</ele>
        <time>2019-05-01T08:27:57Z</time>
      </trkpt>
      <trkpt lat="45.78985" lon="5.51604">
        <ele>465.9</ele>
        <time>2019-05-01T08:27:59Z</time>
      </trkpt>
      <trkpt lat="45.78993" lon="5.51591">
        <ele>466.9</ele>
        <time>2019-05-01T08:28:04Z</time>
      </trkpt>
      <trkpt lat="45.78994" lon="5.51589">
        <ele>467.1</ele>
        <time>2019-05-01T08:28:05Z</time>
      </trkpt>
      <trkpt lat="45.79002" lon="5.51581">
        <ele>467.9</ele>
        <time>2019-05-01T08:28:09Z</time>
      </trkpt>
      <trkpt lat="45.79009" lon="5.51572">
        <ele>468.8</ele>
        <time>2019-05-01T08:28:13Z</time>
      </trkpt>
      <trkpt lat="45.79013" lon="5.51567">
        <ele>469.1</ele>
        <time>2019-05-01T08:28:15Z</time>
      </trkpt>
      <trkpt lat="45.79022" lon="5.51554">
        <ele>469.9</ele>
        <time>2019-05-01T08:28:20Z</time>
      </trkpt>
      <trkpt lat="45.79025" lon="5.51548">
        <ele>470.2</ele>
        <time>2019-05-01T08:28:22Z</time>
      </trkpt>
      <trkpt lat="45.79028" lon="5.51539">
        <ele>470.8</ele>
        <time>2019-05-01T08:28:25Z</time>
      </trkpt>
      <trkpt lat="45.79032" lon="5.51526">
        <ele>471.7</ele>
        <time>2019-05-01T08:28:29Z</time>
      </trkpt>
      <trkpt lat="45.79033" lon="5.51522">
        <ele>471.9</ele>
        <time>2019-05-01T08:28:30Z</time>
      </trkpt>
      <trkpt lat="45.79036" lon="5.51508">
        <ele>472.9</ele>
        <time>2019-05-01T08:28:34Z</time>
      </trkpt>
      <trkpt lat="45.79039" lon="5.51497">
        <ele>473.7</ele>
        <time>2019-05-01T08:28:37Z</time>
      </trkpt>
      <trkpt lat="45.7904" lon="5.5149">
        <ele>474.3</ele>
        <time>2019-05-01T08:28:39Z</time>
      </trkpt>
      <trkpt lat="45.79046" lon="5.51474">
        <ele>475.7</ele>
        <time>2019-05-01T08:28:44Z</time>
      </trkpt>
      <trkpt lat="45.79047" lon="5.51471">
        <ele>476</ele>
        <time>2019-05-01T08:28:45Z</time>
      </trkpt>
      <trkpt lat="45.79055" lon="5.5145">
        <ele>477.9</ele>
        <time>2019-05-01T08:28:52Z</time>
      </trkpt>
      <trkpt lat="45.79056" lon="5.51446">
        <ele>478.1</ele>
        <time>2019-05-01T08:28:53Z</time>
      </trkpt>
      <trkpt lat="45.79061" lon="5.51433">
        <ele>479</ele>
        <time>2019-05-01T08:28:57Z</time>
      </trkpt>
      <trkpt lat="45.79068" lon="5.51418">
        <ele>480.1</ele>
        <time>2019-05-01T08:29:02Z</time>
      </trkpt>
      <trkpt lat="45.79075" lon="5.51402">
        <ele>481.2</ele>
        <time>2019-05-01T08:29:07Z</time>
      </trkpt>
      <trkpt lat="45.79085" lon="5.51386">
        <ele>482.5</ele>
        <time>2019-05-01T08:29:13Z</time>
      </trkpt>
      <trkpt lat="45.79091" lon="5.51374">
        <ele>483.5</ele>
        <time>2019-05-01T08:29:17Z</time>
      </trkpt>
      <trkpt lat="45.79097" lon="5.51362">
        <ele>484.3</ele>
        <time>2019-05-01T08:29:21Z</time>
      </trkpt>
      <trkpt lat="45.79111" lon="5.5134">
        <ele>486</ele>
        <time>2019-05-01T08:29:29Z</time>
      </trkpt>
      <trkpt lat="45.79122" lon="5.51326">
        <ele>487.1</ele>
        <time>2019-05-01T08:29:35Z</time>
      </trkpt>
      <trkpt lat="45.79128" lon="5.5132">
        <ele>487.7</ele>
        <time>2019-05-01T08:29:38Z</time>
      </trkpt>
      <trkpt lat="45.79134" lon="5.51314">
        <ele>488.2</ele>
        <time>2019-05-01T08:29:41Z</time>
      </trkpt>
      <trkpt lat="45.7914" lon="5.51308">
        <ele>488.8</ele>
        <time>2019-05-01T08:29:44Z</time>
      </trkpt>
      <trkpt lat="45.79146" lon="5.51303">
        <ele>489.4</ele>
        <time>2019-05-01T08:29:47Z</time>
      </trkpt>
      <trkpt lat="45.79156" lon="5.51296">
        <ele>490.4</ele>
        <time>2019-05-01T08:29:51Z</time>
      </trkpt>
      <trkpt lat="45.7916" lon="5.51292">
        <ele>490.8</ele>
        <time>2019-05-01T08:29:53Z</time>
      </trkpt>
      <trkpt lat="45.79167" lon="5.51286">
        <ele>491.5</ele>
        <time>2019-05-01T08:29:56Z</time>
      </trkpt>
      <trkpt lat="45.79175" lon="5.51276">
        <ele>492.5</ele>
        <time>2019-05-01T08:30:00Z</time>
      </trkpt>
      <trkpt lat="45.79183" lon="5.51261">
        <ele>493.6</ele>
        <time>2019-05-01T08:30:05Z</time>
      </trkpt>
      <trkpt lat="45.79185" lon="5.51255">
        <ele>494.1</ele>
        <time>2019-05-01T08:30:07Z</time>
      </trkpt>
      <trkpt lat="45.79188" lon="5.51249">
        <ele>494.6</ele>
        <time>2019-05-01T08:30:09Z</time>
      </trkpt>
      <trkpt lat="45.79193" lon="5.51236">
        <ele>495.6</ele>
        <time>2019-05-01T08:30:13Z</time>
      </trkpt>
      <trkpt lat="45.79196" lon="5.51229">
        <ele>496.1</ele>
        <time>2019-05-01T08:30:15Z</time>
      </trkpt>
      <trkpt lat="45.79202" lon="5.51214">
        <ele>497.4</ele>
        <time>2019-05-01T08:30:20Z</time>
      </trkpt>
      <trkpt lat="45.79203" lon="5.51211">
        <ele>497.7</ele>
        <time>2019-05-01T08:30:21Z</time>
      </trkpt>
      <trkpt lat="45.79209" lon="5.51195">
        <ele>498.9</ele>
        <time>2019-05-01T08:30:26Z</time>
      </trkpt>
      <trkpt lat="45.7921" lon="5.51192">
        <ele>499.1</ele>
        <time>2019-05-01T08:30:27Z</time>
      </trkpt>
      <trkpt lat="45.79215" lon="5.51177">
        <ele>500.1</ele>
        <time>2019-05-01T08:30:32Z</time>
      </trkpt>
      <trkpt lat="45.79219" lon="5.51168">
        <ele>500.7</ele>
        <time>2019-05-01T08:30:35Z</time>
      </trkpt>
      <trkpt lat="45.79223" lon="5.5116">
        <ele>501.4</ele>
        <time>2019-05-01T08:30:38Z</time>
      </trkpt>
      <trkpt lat="45.79228" lon="5.51151">
        <ele>502</ele>
        <time>2019-05-01T08:30:41Z</time>
      </trkpt>
      <trkpt lat="45.79236" lon="5.51138">
        <ele>503.1</ele>
        <time>2019-05-01T08:30:46Z</time>
      </trkpt>
      <trkpt lat="45.79243" lon="5.51128">
        <ele>503.9</ele>
        <time>2019-05-01T08:30:50Z</time>
      </trkpt>
      <trkpt lat="45.79246" lon="5.51123">
        <ele>504.3</ele>
        <time>2019-05-01T08:30:52Z</time>
      </trkpt>
      <trkpt lat="45.79255" lon="5.51112">
        <ele>505.3</ele>
        <time>2019-05-01T08:30:57Z</time>
      </trkpt>
      <trkpt lat="45.79258" lon="5.51108">
        <ele>505.7</ele>
        <time>2019-05-01T08:30:59Z</time>
      </trkpt>
      <trkpt lat="45.79267" lon="5.51102">
        <ele>506.6</ele>
        <time>2019-05-01T08:31:03Z</time>
      </trkpt>
      <trkpt lat="45.79277" lon="5.51099">
        <ele>507.5</ele>
        <time>2019-05-01T08:31:07Z</time>
      </trkpt>
      <trkpt lat="45.79287" lon="5.51095">
        <ele>508.3</ele>
        <time>2019-05-01T08:31:11Z</time>
      </trkpt>
      <trkpt lat="45.79296" lon="5.51093">
        <ele>509.1</ele>
        <time>2019-05-01T08:31:15Z</time>
      </trkpt>
      <trkpt lat="45.79298" lon="5.51092">
        <ele>509.2</ele>
        <time>2019-05-01T08:31:16Z</time>
      </trkpt>
      <trkpt lat="45.79313" lon="5.51084">
        <ele>510.5</ele>
        <time>2019-05-01T08:31:23Z</time>
      </trkpt>
      <trkpt lat="45.7933" lon="5.5107">
        <ele>512.2</ele>
        <time>2019-05-01T08:31:32Z</time>
      </trkpt>
      <trkpt lat="45.79331" lon="5.51068">
        <ele>512.4</ele>
        <time>2019-05-01T08:31:33Z</time>
      </trkpt>
      <trkpt lat="45.7934" lon="5.51055">
        <ele>513.5</ele>
        <time>2019-05-01T08:31:38Z</time>
      </trkpt>
      <trkpt lat="45.79343" lon="5.51048">
        <ele>513.9</ele>
        <time>2019-05-01T08:31:40Z</time>
      </trkpt>
      <trkpt lat="45.79352" lon="5.51028">
        <ele>515.1</ele>
        <time>2019-05-01T08:31:46Z</time>
      </trkpt>
      <trkpt lat="45.79354" lon="5.51021">
        <ele>515.6</ele>
        <time>2019-05-01T08:31:48Z</time>
      </trkpt>
      <trkpt lat="45.79355" lon="5.51017">
        <ele>515.8</ele>
        <time>2019-05-01T08:31:49Z</time>
      </trkpt>
      <trkpt lat="45.79367" lon="5.50993">
        <ele>517.9</ele>
        <time>2019-05-01T08:31:56Z</time>
      </trkpt>
      <trkpt lat="45.79375" lon="5.50981">
        <ele>518.9</ele>
        <time>2019-05-01T08:32:00Z</time>
      </trkpt>
      <trkpt lat="45.79379" lon="5.50976">
        <ele>519.3</ele>
        <time>2019-05-01T08:32:02Z</time>
      </trkpt>
      <trkpt lat="45.79391" lon="5.50961">
        <ele>520.3</ele>
        <time>2019-05-01T08:32:08Z</time>
      </trkpt>
      <trkpt lat="45.79398" lon="5.50955">
        <ele>520.9</ele>
        <time>2019-05-01T08:32:11Z</time>
      </trkpt>
      <trkpt lat="45.79409" lon="5.50946">
        <ele>522</ele>
        <time>2019-05-01T08:32:17Z</time>
      </trkpt>
      <trkpt lat="45.79422" lon="5.50939">
        <ele>523.2</ele>
        <time>2019-05-01T08:32:22Z</time>
      </trkpt>
      <trkpt lat="45.7943" lon="5.50936">
        <ele>523.8</ele>
        <time>2019-05-01T08:32:25Z</time>
      </trkpt>
      <trkpt lat="45.79441" lon="5.50931">
        <ele>524.8</ele>
        <time>2019-05-01T08:32:29Z</time>
      </trkpt>
      <trkpt lat="45.79448" lon="5.50927">
        <ele>525.4</ele>
        <time>2019-05-01T08:32:32Z</time>
      </trkpt>
      <trkpt lat="45.79456" lon="5.50922">
        <ele>526.1</ele>
        <time>2019-05-01T08:32:35Z</time>
      </trkpt>
      <trkpt lat="45.79464" lon="5.50913">
        <ele>527.1</ele>
        <time>2019-05-01T08:32:39Z</time>
      </trkpt>
      <trkpt lat="45.79466" lon="5.5091">
        <ele>527.5</ele>
        <time>2019-05-01T08:32:40Z</time>
      </trkpt>
      <trkpt lat="45.7947" lon="5.50903">
        <ele>528.3</ele>
        <time>2019-05-01T08:32:43Z</time>
      </trkpt>
      <trkpt lat="45.79475" lon="5.50897">
        <ele>529.1</ele>
        <time>2019-05-01T08:32:46Z</time>
      </trkpt>
      <trkpt lat="45.79484" lon="5.50892">
        <ele>530.1</ele>
        <time>2019-05-01T08:32:50Z</time>
      </trkpt>
      <trkpt lat="45.79488" lon="5.50889">
        <ele>530.6</ele>
        <time>2019-05-01T08:32:52Z</time>
      </trkpt>
      <trkpt lat="45.7949" lon="5.50888">
        <ele>530.8</ele>
        <time>2019-05-01T08:32:53Z</time>
      </trkpt>
      <trkpt lat="45.79497" lon="5.50886">
        <ele>531.6</ele>
        <time>2019-05-01T08:32:56Z</time>
      </trkpt>
      <trkpt lat="45.79504" lon="5.50885">
        <ele>532.6</ele>
        <time>2019-05-01T08:32:59Z</time>
      </trkpt>
      <trkpt lat="45.79506" lon="5.50884">
        <ele>532.9</ele>
        <time>2019-05-01T08:33:00Z</time>
      </trkpt>
      <trkpt lat="45.79514" lon="5.50882">
        <ele>534.2</ele>
        <time>2019-05-01T08:33:04Z</time>
      </trkpt>
      <trkpt lat="45.7952" lon="5.50881">
        <ele>535.2</ele>
        <time>2019-05-01T08:33:07Z</time>
      </trkpt>
      <trkpt lat="45.79524" lon="5.50882">
        <ele>535.8</ele>
        <time>2019-05-01T08:33:09Z</time>
      </trkpt>
      <trkpt lat="45.79525" lon="5.50883">
        <ele>536</ele>
        <time>2019-05-01T08:33:10Z</time>
      </trkpt>
      <trkpt lat="45.7953" lon="5.50888">
        <ele>536.8</ele>
        <time>2019-05-01T08:33:13Z</time>
      </trkpt>
      <trkpt lat="45.79533" lon="5.50893">
        <ele>537.3</ele>
        <time>2019-05-01T08:33:15Z</time>
      </trkpt>
      <trkpt lat="45.79541" lon="5.50911">
        <ele>538.9</ele>
        <time>2019-05-01T08:33:22Z</time>
      </trkpt>
      <trkpt lat="45.79544" lon="5.5092">
        <ele>538.1</ele>
        <time>2019-05-01T08:35:09Z</time>
      </trkpt>
      <trkpt lat="45.79542" lon="5.50915">
        <ele>537.8</ele>
        <time>2019-05-01T08:35:11Z</time>
      </trkpt>
      <trkpt lat="45.79538" lon="5.50904">
        <ele>537.1</ele>
        <time>2019-05-01T08:35:13Z</time>
      </trkpt>
      <trkpt lat="45.79534" lon="5.50895">
        <ele>536.4</ele>
        <time>2019-05-01T08:35:15Z</time>
      </trkpt>
      <trkpt lat="45.7953" lon="5.50889">
        <ele>535.7</ele>
        <time>2019-05-01T08:35:17Z</time>
      </trkpt>
      <trkpt lat="45.79528" lon="5.50888">
        <ele>535.3</ele>
        <time>2019-05-01T08:35:18Z</time>
      </trkpt>
      <trkpt lat="45.79525" lon="5.50886">
        <ele>535</ele>
        <time>2019-05-01T08:35:19Z</time>
      </trkpt>
      <trkpt lat="45.7951" lon="5.50884">
        <ele>533.2</ele>
        <time>2019-05-01T08:35:23Z</time>
      </trkpt>
      <trkpt lat="45.79501" lon="5.50886">
        <ele>532</ele>
        <time>2019-05-01T08:35:25Z</time>
      </trkpt>
      <trkpt lat="45.79492" lon="5.50889">
        <ele>531</ele>
        <time>2019-05-01T08:35:27Z</time>
      </trkpt>
      <trkpt lat="45.79483" lon="5.50893">
        <ele>530.2</ele>
        <time>2019-05-01T08:35:29Z</time>
      </trkpt>
      <trkpt lat="45.79473" lon="5.50898">
        <ele>529.3</ele>
        <time>2019-05-01T08:35:31Z</time>
      </trkpt>
      <trkpt lat="45.79464" lon="5.50906">
        <ele>528.3</ele>
        <time>2019-05-01T08:35:33Z</time>
      </trkpt>
      <trkpt lat="45.7946" lon="5.50912">
        <ele>527.7</ele>
        <time>2019-05-01T08:35:34Z</time>
      </trkpt>
      <trkpt lat="45.79452" lon="5.50923">
        <ele>526.5</ele>
        <time>2019-05-01T08:35:36Z</time>
      </trkpt>
      <trkpt lat="45.79439" lon="5.50932">
        <ele>525.6</ele>
        <time>2019-05-01T08:35:38Z</time>
      </trkpt>
      <trkpt lat="45.79426" lon="5.5094">
        <ele>524.6</ele>
        <time>2019-05-01T08:35:40Z</time>
      </trkpt>
      <trkpt lat="45.79407" lon="5.50948">
        <ele>523.3</ele>
        <time>2019-05-01T08:35:43Z</time>
      </trkpt>
      <trkpt lat="45.79397" lon="5.50954">
        <ele>522.6</ele>
        <time>2019-05-01T08:35:46Z</time>
      </trkpt>
      <trkpt lat="45.79395" lon="5.50956">
        <ele>522.4</ele>
        <time>2019-05-01T08:35:48Z</time>
      </trkpt>
      <trkpt lat="45.79392" lon="5.50958">
        <ele>522.2</ele>
        <time>2019-05-01T08:35:50Z</time>
      </trkpt>
      <trkpt lat="45.79391" lon="5.50959">
        <ele>522.1</ele>
        <time>2019-05-01T08:35:51Z</time>
      </trkpt>
      <trkpt lat="45.79391" lon="5.5096">
        <ele>522.1</ele>
        <time>2019-05-01T08:35:52Z</time>
      </trkpt>
      <trkpt lat="45.79394" lon="5.50957">
        <ele>521.8</ele>
        <time>2019-05-01T08:35:59Z</time>
      </trkpt>
      <trkpt lat="45.79396" lon="5.50956">
        <ele>521.7</ele>
        <time>2019-05-01T08:36:00Z</time>
      </trkpt>
      <trkpt lat="45.79402" lon="5.50951">
        <ele>521.2</ele>
        <time>2019-05-01T08:36:03Z</time>
      </trkpt>
      <trkpt lat="45.79411" lon="5.50945">
        <ele>522.1</ele>
        <time>2019-05-01T08:36:07Z</time>
      </trkpt>
      <trkpt lat="45.79414" lon="5.50944">
        <ele>522.3</ele>
        <time>2019-05-01T08:36:08Z</time>
      </trkpt>
      <trkpt lat="45.79433" lon="5.50934">
        <ele>524</ele>
        <time>2019-05-01T08:36:17Z</time>
      </trkpt>
      <trkpt lat="45.79444" lon="5.5093">
        <ele>524.9</ele>
        <time>2019-05-01T08:36:22Z</time>
      </trkpt>
      <trkpt lat="45.79449" lon="5.50927">
        <ele>525.4</ele>
        <time>2019-05-01T08:36:25Z</time>
      </trkpt>
      <trkpt lat="45.79451" lon="5.50926">
        <ele>525.6</ele>
        <time>2019-05-01T08:36:26Z</time>
      </trkpt>
      <trkpt lat="45.79461" lon="5.50918">
        <ele>526.6</ele>
        <time>2019-05-01T08:36:32Z</time>
      </trkpt>
      <trkpt lat="45.79463" lon="5.50916">
        <ele>526.8</ele>
        <time>2019-05-01T08:36:33Z</time>
      </trkpt>
      <trkpt lat="45.79471" lon="5.50906">
        <ele>528.2</ele>
        <time>2019-05-01T08:36:38Z</time>
      </trkpt>
      <trkpt lat="45.79474" lon="5.50902">
        <ele>528.6</ele>
        <time>2019-05-01T08:36:40Z</time>
      </trkpt>
      <trkpt lat="45.79477" lon="5.50899">
        <ele>529.1</ele>
        <time>2019-05-01T08:36:42Z</time>
      </trkpt>
      <trkpt lat="45.79483" lon="5.50895">
        <ele>529.9</ele>
        <time>2019-05-01T08:36:45Z</time>
      </trkpt>
      <trkpt lat="45.79489" lon="5.50892">
        <ele>530.5</ele>
        <time>2019-05-01T08:36:48Z</time>
      </trkpt>
      <trkpt lat="45.79496" lon="5.50887">
        <ele>531.3</ele>
        <time>2019-05-01T08:36:52Z</time>
      </trkpt>
      <trkpt lat="45.79502" lon="5.50886">
        <ele>532.1</ele>
        <time>2019-05-01T08:36:55Z</time>
      </trkpt>
      <trkpt lat="45.79504" lon="5.50885">
        <ele>532.5</ele>
        <time>2019-05-01T08:36:56Z</time>
      </trkpt>
      <trkpt lat="45.79506" lon="5.50884">
        <ele>532.9</ele>
        <time>2019-05-01T08:36:57Z</time>
      </trkpt>
      <trkpt lat="45.7951" lon="5.50883">
        <ele>533.6</ele>
        <time>2019-05-01T08:36:59Z</time>
      </trkpt>
      <trkpt lat="45.79515" lon="5.50882">
        <ele>534.3</ele>
        <time>2019-05-01T08:37:02Z</time>
      </trkpt>
      <trkpt lat="45.79517" lon="5.50882">
        <ele>534.6</ele>
        <time>2019-05-01T08:37:03Z</time>
      </trkpt>
      <trkpt lat="45.79519" lon="5.50882">
        <ele>534.9</ele>
        <time>2019-05-01T08:37:04Z</time>
      </trkpt>
      <trkpt lat="45.79523" lon="5.50883">
        <ele>535.6</ele>
        <time>2019-05-01T08:37:06Z</time>
      </trkpt>
      <trkpt lat="45.79527" lon="5.50884">
        <ele>536.2</ele>
        <time>2019-05-01T08:37:08Z</time>
      </trkpt>
      <trkpt lat="45.79529" lon="5.50885">
        <ele>536.4</ele>
        <time>2019-05-01T08:37:09Z</time>
      </trkpt>
      <trkpt lat="45.7953" lon="5.50887">
        <ele>536.7</ele>
        <time>2019-05-01T08:37:10Z</time>
      </trkpt>
      <trkpt lat="45.79536" lon="5.50895">
        <ele>537.5</ele>
        <time>2019-05-01T08:37:14Z</time>
      </trkpt>
      <trkpt lat="45.79537" lon="5.50897">
        <ele>537.7</ele>
        <time>2019-05-01T08:37:15Z</time>
      </trkpt>
      <trkpt lat="45.7954" lon="5.50903">
        <ele>538.2</ele>
        <time>2019-05-01T08:37:18Z</time>
      </trkpt>
      <trkpt lat="45.79541" lon="5.50909">
        <ele>538.9</ele>
        <time>2019-05-01T08:37:21Z</time>
      </trkpt>
      <trkpt lat="45.79542" lon="5.50912">
        <ele>539.2</ele>
        <time>2019-05-01T08:37:22Z</time>
      </trkpt>
      <trkpt lat="45.79546" lon="5.50917">
        <ele>539.2</ele>
        <time>2019-05-01T08:37:25Z</time>
      </trkpt>
      <trkpt lat="45.7955" lon="5.50918">
        <ele>539.2</ele>
        <time>2019-05-01T08:37:27Z</time>
      </trkpt>
      <trkpt lat="45.79552" lon="5.50918">
        <ele>539.3</ele>
        <time>2019-05-01T08:37:28Z</time>
      </trkpt>
      <trkpt lat="45.79555" lon="5.50916">
        <ele>539.6</ele>
        <time>2019-05-01T08:37:30Z</time>
      </trkpt>
      <trkpt lat="45.79561" lon="5.50914">
        <ele>540</ele>
        <time>2019-05-01T08:37:33Z</time>
      </trkpt>
      <trkpt lat="45.79566" lon="5.50911">
        <ele>540.3</ele>
        <time>2019-05-01T08:37:36Z</time>
      </trkpt>
      <trkpt lat="45.7957" lon="5.50909">
        <ele>540.5</ele>
        <time>2019-05-01T08:37:38Z</time>
      </trkpt>
      <trkpt lat="45.79576" lon="5.50906">
        <ele>540.7</ele>
        <time>2019-05-01T08:37:41Z</time>
      </trkpt>
      <trkpt lat="45.79581" lon="5.50903">
        <ele>541</ele>
        <time>2019-05-01T08:37:44Z</time>
      </trkpt>
      <trkpt lat="45.79598" lon="5.50891">
        <ele>542.1</ele>
        <time>2019-05-01T08:37:52Z</time>
      </trkpt>
      <trkpt lat="45.79611" lon="5.50875">
        <ele>542.8</ele>
        <time>2019-05-01T08:37:59Z</time>
      </trkpt>
      <trkpt lat="45.79623" lon="5.50867">
        <ele>543.2</ele>
        <time>2019-05-01T08:38:05Z</time>
      </trkpt>
      <trkpt lat="45.79637" lon="5.50861">
        <ele>543.9</ele>
        <time>2019-05-01T08:38:12Z</time>
      </trkpt>
      <trkpt lat="45.79649" lon="5.50856">
        <ele>544.5</ele>
        <time>2019-05-01T08:38:18Z</time>
      </trkpt>
      <trkpt lat="45.7965" lon="5.50855">
        <ele>544.6</ele>
        <time>2019-05-01T08:38:19Z</time>
      </trkpt>
      <trkpt lat="45.79651" lon="5.50851">
        <ele>544.7</ele>
        <time>2019-05-01T08:38:21Z</time>
      </trkpt>
      <trkpt lat="45.79649" lon="5.50844">
        <ele>544.5</ele>
        <time>2019-05-01T08:38:24Z</time>
      </trkpt>
      <trkpt lat="45.79648" lon="5.50842">
        <ele>544.5</ele>
        <time>2019-05-01T08:38:25Z</time>
      </trkpt>
      <trkpt lat="45.79641" lon="5.50832">
        <ele>544.7</ele>
        <time>2019-05-01T08:38:31Z</time>
      </trkpt>
      <trkpt lat="45.79638" lon="5.50827">
        <ele>545.5</ele>
        <time>2019-05-01T08:38:34Z</time>
      </trkpt>
      <trkpt lat="45.79632" lon="5.50821">
        <ele>546.1</ele>
        <time>2019-05-01T08:38:38Z</time>
      </trkpt>
      <trkpt lat="45.7963" lon="5.50817">
        <ele>546.6</ele>
        <time>2019-05-01T08:38:40Z</time>
      </trkpt>
      <trkpt lat="45.79626" lon="5.50812">
        <ele>547.1</ele>
        <time>2019-05-01T08:38:44Z</time>
      </trkpt>
      <trkpt lat="45.79624" lon="5.50807">
        <ele>547.6</ele>
        <time>2019-05-01T08:38:47Z</time>
      </trkpt>
      <trkpt lat="45.79622" lon="5.50803">
        <ele>547.9</ele>
        <time>2019-05-01T08:38:50Z</time>
      </trkpt>
      <trkpt lat="45.79621" lon="5.50799">
        <ele>548.2</ele>
        <time>2019-05-01T08:38:52Z</time>
      </trkpt>
      <trkpt lat="45.79621" lon="5.50797">
        <ele>548.5</ele>
        <time>2019-05-01T08:38:53Z</time>
      </trkpt>
      <trkpt lat="45.79622" lon="5.50793">
        <ele>548.5</ele>
        <time>2019-05-01T08:38:55Z</time>
      </trkpt>
      <trkpt lat="45.79624" lon="5.50787">
        <ele>549</ele>
        <time>2019-05-01T08:38:58Z</time>
      </trkpt>
      <trkpt lat="45.79627" lon="5.50783">
        <ele>549.3</ele>
        <time>2019-05-01T08:39:01Z</time>
      </trkpt>
      <trkpt lat="45.79628" lon="5.50779">
        <ele>549.7</ele>
        <time>2019-05-01T08:39:03Z</time>
      </trkpt>
      <trkpt lat="45.79629" lon="5.50777">
        <ele>549.8</ele>
        <time>2019-05-01T08:39:05Z</time>
      </trkpt>
      <trkpt lat="45.7963" lon="5.50775">
        <ele>550.1</ele>
        <time>2019-05-01T08:39:07Z</time>
      </trkpt>
      <trkpt lat="45.79632" lon="5.50771">
        <ele>550.6</ele>
        <time>2019-05-01T08:39:10Z</time>
      </trkpt>
      <trkpt lat="45.79633" lon="5.50769">
        <ele>550.6</ele>
        <time>2019-05-01T08:39:12Z</time>
      </trkpt>
      <trkpt lat="45.79642" lon="5.50668">
        <ele>563</ele>
        <time>2019-05-01T08:40:18Z</time>
      </trkpt>
      <trkpt lat="45.79642" lon="5.50663">
        <ele>563.8</ele>
        <time>2019-05-01T08:40:21Z</time>
      </trkpt>
      <trkpt lat="45.79642" lon="5.50661">
        <ele>563.8</ele>
        <time>2019-05-01T08:40:22Z</time>
      </trkpt>
      <trkpt lat="45.79642" lon="5.50652">
        <ele>565.3</ele>
        <time>2019-05-01T08:40:29Z</time>
      </trkpt>
      <trkpt lat="45.79642" lon="5.5065">
        <ele>566.1</ele>
        <time>2019-05-01T08:40:30Z</time>
      </trkpt>
      <trkpt lat="45.79642" lon="5.50648">
        <ele>566.2</ele>
        <time>2019-05-01T08:40:31Z</time>
      </trkpt>
      <trkpt lat="45.79642" lon="5.50644">
        <ele>567</ele>
        <time>2019-05-01T08:40:34Z</time>
      </trkpt>
      <trkpt lat="45.79641" lon="5.50641">
        <ele>567.9</ele>
        <time>2019-05-01T08:40:36Z</time>
      </trkpt>
      <trkpt lat="45.79641" lon="5.5064">
        <ele>567.9</ele>
        <time>2019-05-01T08:40:37Z</time>
      </trkpt>
      <trkpt lat="45.79639" lon="5.50628">
        <ele>570.9</ele>
        <time>2019-05-01T08:40:45Z</time>
      </trkpt>
      <trkpt lat="45.79637" lon="5.50619">
        <ele>572.9</ele>
        <time>2019-05-01T08:40:51Z</time>
      </trkpt>
      <trkpt lat="45.79636" lon="5.50613">
        <ele>573.8</ele>
        <time>2019-05-01T08:40:55Z</time>
      </trkpt>
      <trkpt lat="45.79635" lon="5.50609">
        <ele>574.6</ele>
        <time>2019-05-01T08:40:58Z</time>
      </trkpt>
      <trkpt lat="45.79634" lon="5.50605">
        <ele>575.8</ele>
        <time>2019-05-01T08:41:01Z</time>
      </trkpt>
      <trkpt lat="45.79633" lon="5.50604">
        <ele>575.8</ele>
        <time>2019-05-01T08:41:02Z</time>
      </trkpt>
      <trkpt lat="45.79629" lon="5.50598">
        <ele>577.8</ele>
        <time>2019-05-01T08:41:07Z</time>
      </trkpt>
      <trkpt lat="45.79627" lon="5.50593">
        <ele>578.9</ele>
        <time>2019-05-01T08:41:11Z</time>
      </trkpt>
      <trkpt lat="45.79626" lon="5.50592">
        <ele>579</ele>
        <time>2019-05-01T08:41:12Z</time>
      </trkpt>
      <trkpt lat="45.79624" lon="5.50587">
        <ele>581</ele>
        <time>2019-05-01T08:41:16Z</time>
      </trkpt>
      <trkpt lat="45.79624" lon="5.50586">
        <ele>581</ele>
        <time>2019-05-01T08:41:18Z</time>
      </trkpt>
      <trkpt lat="45.79623" lon="5.5058">
        <ele>582</ele>
        <time>2019-05-01T08:42:16Z</time>
      </trkpt>
      <trkpt lat="45.79621" lon="5.5057">
        <ele>583.8</ele>
        <time>2019-05-01T08:42:23Z</time>
      </trkpt>
      <trkpt lat="45.79619" lon="5.50565">
        <ele>584.8</ele>
        <time>2019-05-01T08:42:31Z</time>
      </trkpt>
      <trkpt lat="45.79618" lon="5.50561">
        <ele>586.4</ele>
        <time>2019-05-01T08:42:33Z</time>
      </trkpt>
      <trkpt lat="45.79617" lon="5.50559">
        <ele>586.5</ele>
        <time>2019-05-01T08:42:34Z</time>
      </trkpt>
      <trkpt lat="45.79617" lon="5.50549">
        <ele>588.2</ele>
        <time>2019-05-01T08:42:39Z</time>
      </trkpt>
      <trkpt lat="45.79616" lon="5.50545">
        <ele>589.3</ele>
        <time>2019-05-01T08:42:41Z</time>
      </trkpt>
      <trkpt lat="45.79616" lon="5.50538">
        <ele>590.9</ele>
        <time>2019-05-01T08:42:45Z</time>
      </trkpt>
      <trkpt lat="45.79615" lon="5.50531">
        <ele>592.4</ele>
        <time>2019-05-01T08:42:49Z</time>
      </trkpt>
      <trkpt lat="45.79616" lon="5.50525">
        <ele>593</ele>
        <time>2019-05-01T08:42:53Z</time>
      </trkpt>
      <trkpt lat="45.79618" lon="5.50518">
        <ele>594.1</ele>
        <time>2019-05-01T08:42:58Z</time>
      </trkpt>
      <trkpt lat="45.79618" lon="5.50513">
        <ele>594.8</ele>
        <time>2019-05-01T08:43:01Z</time>
      </trkpt>
      <trkpt lat="45.79619" lon="5.50512">
        <ele>594.8</ele>
        <time>2019-05-01T08:43:02Z</time>
      </trkpt>
      <trkpt lat="45.79618" lon="5.5051">
        <ele>594.8</ele>
        <time>2019-05-01T08:43:03Z</time>
      </trkpt>
      <trkpt lat="45.79618" lon="5.50505">
        <ele>595.6</ele>
        <time>2019-05-01T08:43:06Z</time>
      </trkpt>
      <trkpt lat="45.79619" lon="5.50502">
        <ele>596.3</ele>
        <time>2019-05-01T08:43:08Z</time>
      </trkpt>
      <trkpt lat="45.79619" lon="5.505">
        <ele>597.1</ele>
        <time>2019-05-01T08:43:09Z</time>
      </trkpt>
      <trkpt lat="45.79619" lon="5.50495">
        <ele>597.9</ele>
        <time>2019-05-01T08:43:12Z</time>
      </trkpt>
      <trkpt lat="45.79622" lon="5.50491">
        <ele>598.4</ele>
        <time>2019-05-01T08:43:15Z</time>
      </trkpt>
      <trkpt lat="45.79625" lon="5.50488">
        <ele>598.9</ele>
        <time>2019-05-01T08:43:19Z</time>
      </trkpt>
      <trkpt lat="45.79627" lon="5.50485">
        <ele>598.8</ele>
        <time>2019-05-01T08:43:21Z</time>
      </trkpt>
      <trkpt lat="45.79632" lon="5.50478">
        <ele>599.6</ele>
        <time>2019-05-01T08:43:25Z</time>
      </trkpt>
      <trkpt lat="45.79635" lon="5.50473">
        <ele>600</ele>
        <time>2019-05-01T08:43:28Z</time>
      </trkpt>
      <trkpt lat="45.79638" lon="5.50467">
        <ele>600.5</ele>
        <time>2019-05-01T08:43:32Z</time>
      </trkpt>
      <trkpt lat="45.7964" lon="5.50464">
        <ele>601.2</ele>
        <time>2019-05-01T08:43:34Z</time>
      </trkpt>
      <trkpt lat="45.79647" lon="5.50456">
        <ele>602</ele>
        <time>2019-05-01T08:43:40Z</time>
      </trkpt>
      <trkpt lat="45.79648" lon="5.50455">
        <ele>602.1</ele>
        <time>2019-05-01T08:43:41Z</time>
      </trkpt>
      <trkpt lat="45.79716" lon="5.50378">
        <ele>611</ele>
        <time>2019-05-01T08:44:45Z</time>
      </trkpt>
      <trkpt lat="45.79724" lon="5.50379">
        <ele>611.1</ele>
        <time>2019-05-01T08:44:48Z</time>
      </trkpt>
      <trkpt lat="45.79742" lon="5.50381">
        <ele>609.4</ele>
        <time>2019-05-01T08:44:53Z</time>
      </trkpt>
      <trkpt lat="45.79747" lon="5.50381">
        <ele>609</ele>
        <time>2019-05-01T08:44:54Z</time>
      </trkpt>
      <trkpt lat="45.79769" lon="5.50377">
        <ele>607.6</ele>
        <time>2019-05-01T08:44:58Z</time>
      </trkpt>
      <trkpt lat="45.79808" lon="5.50363">
        <ele>605</ele>
        <time>2019-05-01T08:45:04Z</time>
      </trkpt>
      <trkpt lat="45.79821" lon="5.50359">
        <ele>603.9</ele>
        <time>2019-05-01T08:45:06Z</time>
      </trkpt>
      <trkpt lat="45.7983" lon="5.50348">
        <ele>601.8</ele>
        <time>2019-05-01T08:45:08Z</time>
      </trkpt>
      <trkpt lat="45.79833" lon="5.50331">
        <ele>600.3</ele>
        <time>2019-05-01T08:45:10Z</time>
      </trkpt>
      <trkpt lat="45.79839" lon="5.50313">
        <ele>601.7</ele>
        <time>2019-05-01T08:45:12Z</time>
      </trkpt>
      <trkpt lat="45.79847" lon="5.50297">
        <ele>602.8</ele>
        <time>2019-05-01T08:45:14Z</time>
      </trkpt>
      <trkpt lat="45.7986" lon="5.50285">
        <ele>603.5</ele>
        <time>2019-05-01T08:45:16Z</time>
      </trkpt>
      <trkpt lat="45.79883" lon="5.50274">
        <ele>600.6</ele>
        <time>2019-05-01T08:45:19Z</time>
      </trkpt>
      <trkpt lat="45.79892" lon="5.50271">
        <ele>598.8</ele>
        <time>2019-05-01T08:45:20Z</time>
      </trkpt>
      <trkpt lat="45.79932" lon="5.50259">
        <ele>590.5</ele>
        <time>2019-05-01T08:45:25Z</time>
      </trkpt>
      <trkpt lat="45.79944" lon="5.50251">
        <ele>587.8</ele>
        <time>2019-05-01T08:45:27Z</time>
      </trkpt>
      <trkpt lat="45.79957" lon="5.5024">
        <ele>585.2</ele>
        <time>2019-05-01T08:45:29Z</time>
      </trkpt>
      <trkpt lat="45.79964" lon="5.50235">
        <ele>584.4</ele>
        <time>2019-05-01T08:45:30Z</time>
      </trkpt>
      <trkpt lat="45.79986" lon="5.50216">
        <ele>582.8</ele>
        <time>2019-05-01T08:45:33Z</time>
      </trkpt>
      <trkpt lat="45.79998" lon="5.50201">
        <ele>581.9</ele>
        <time>2019-05-01T08:45:35Z</time>
      </trkpt>
      <trkpt lat="45.80005" lon="5.50195">
        <ele>581.7</ele>
        <time>2019-05-01T08:45:36Z</time>
      </trkpt>
      <trkpt lat="45.8002" lon="5.50186">
        <ele>580.9</ele>
        <time>2019-05-01T08:45:38Z</time>
      </trkpt>
      <trkpt lat="45.80027" lon="5.50181">
        <ele>580.1</ele>
        <time>2019-05-01T08:45:39Z</time>
      </trkpt>
      <trkpt lat="45.80035" lon="5.50177">
        <ele>578.4</ele>
        <time>2019-05-01T08:45:40Z</time>
      </trkpt>
      <trkpt lat="45.80052" lon="5.50166">
        <ele>575.6</ele>
        <time>2019-05-01T08:45:42Z</time>
      </trkpt>
      <trkpt lat="45.80076" lon="5.50148">
        <ele>573.4</ele>
        <time>2019-05-01T08:45:45Z</time>
      </trkpt>
      <trkpt lat="45.80083" lon="5.5014">
        <ele>572.9</ele>
        <time>2019-05-01T08:45:46Z</time>
      </trkpt>
      <trkpt lat="45.80089" lon="5.50131">
        <ele>573.1</ele>
        <time>2019-05-01T08:45:47Z</time>
      </trkpt>
      <trkpt lat="45.80093" lon="5.50124">
        <ele>572.8</ele>
        <time>2019-05-01T08:45:48Z</time>
      </trkpt>
      <trkpt lat="45.80094" lon="5.50112">
        <ele>575.1</ele>
        <time>2019-05-01T08:45:50Z</time>
      </trkpt>
      <trkpt lat="45.80095" lon="5.50108">
        <ele>575.9</ele>
        <time>2019-05-01T08:45:51Z</time>
      </trkpt>
      <trkpt lat="45.80095" lon="5.50103">
        <ele>576.8</ele>
        <time>2019-05-01T08:45:52Z</time>
      </trkpt>
      <trkpt lat="45.801" lon="5.50082">
        <ele>580.8</ele>
        <time>2019-05-01T08:45:58Z</time>
      </trkpt>
      <trkpt lat="45.80109" lon="5.50064">
        <ele>583.3</ele>
        <time>2019-05-01T08:46:04Z</time>
      </trkpt>
      <trkpt lat="45.80117" lon="5.50055">
        <ele>583.7</ele>
        <time>2019-05-01T08:46:08Z</time>
      </trkpt>
      <trkpt lat="45.80118" lon="5.50054">
        <ele>584.8</ele>
        <time>2019-05-01T08:46:09Z</time>
      </trkpt>
      <trkpt lat="45.80123" lon="5.50048">
        <ele>584.5</ele>
        <time>2019-05-01T08:46:12Z</time>
      </trkpt>
      <trkpt lat="45.80128" lon="5.50041">
        <ele>585.1</ele>
        <time>2019-05-01T08:46:15Z</time>
      </trkpt>
      <trkpt lat="45.80138" lon="5.50025">
        <ele>585.5</ele>
        <time>2019-05-01T08:46:21Z</time>
      </trkpt>
      <trkpt lat="45.80142" lon="5.50019">
        <ele>586.6</ele>
        <time>2019-05-01T08:46:23Z</time>
      </trkpt>
      <trkpt lat="45.80143" lon="5.50015">
        <ele>586.8</ele>
        <time>2019-05-01T08:46:24Z</time>
      </trkpt>
      <trkpt lat="45.80147" lon="5.50007">
        <ele>588.3</ele>
        <time>2019-05-01T08:46:27Z</time>
      </trkpt>
      <trkpt lat="45.80148" lon="5.50004">
        <ele>588.3</ele>
        <time>2019-05-01T08:46:28Z</time>
      </trkpt>
      <trkpt lat="45.80149" lon="5.50001">
        <ele>588.7</ele>
        <time>2019-05-01T08:46:29Z</time>
      </trkpt>
      <trkpt lat="45.8015" lon="5.49999">
        <ele>588.7</ele>
        <time>2019-05-01T08:46:30Z</time>
      </trkpt>
      <trkpt lat="45.80156" lon="5.49985">
        <ele>591.7</ele>
        <time>2019-05-01T08:46:37Z</time>
      </trkpt>
      <trkpt lat="45.80159" lon="5.49973">
        <ele>593</ele>
        <time>2019-05-01T08:46:42Z</time>
      </trkpt>
      <trkpt lat="45.8016" lon="5.49968">
        <ele>595</ele>
        <time>2019-05-01T08:46:45Z</time>
      </trkpt>
      <trkpt lat="45.80162" lon="5.49963">
        <ele>595.2</ele>
        <time>2019-05-01T08:46:48Z</time>
      </trkpt>
      <trkpt lat="45.80162" lon="5.49956">
        <ele>597.1</ele>
        <time>2019-05-01T08:46:51Z</time>
      </trkpt>
      <trkpt lat="45.80163" lon="5.49948">
        <ele>597.9</ele>
        <time>2019-05-01T08:46:54Z</time>
      </trkpt>
      <trkpt lat="45.80165" lon="5.49941">
        <ele>598.5</ele>
        <time>2019-05-01T08:46:57Z</time>
      </trkpt>
      <trkpt lat="45.80165" lon="5.49938">
        <ele>599.3</ele>
        <time>2019-05-01T08:46:58Z</time>
      </trkpt>
      <trkpt lat="45.80166" lon="5.49936">
        <ele>599.3</ele>
        <time>2019-05-01T08:46:59Z</time>
      </trkpt>
      <trkpt lat="45.80167" lon="5.49931">
        <ele>600</ele>
        <time>2019-05-01T08:47:01Z</time>
      </trkpt>
      <trkpt lat="45.80169" lon="5.49925">
        <ele>600.5</ele>
        <time>2019-05-01T08:47:04Z</time>
      </trkpt>
      <trkpt lat="45.80175" lon="5.49914">
        <ele>600.3</ele>
        <time>2019-05-01T08:47:09Z</time>
      </trkpt>
      <trkpt lat="45.80177" lon="5.49911">
        <ele>600.2</ele>
        <time>2019-05-01T08:47:11Z</time>
      </trkpt>
      <trkpt lat="45.80178" lon="5.49909">
        <ele>600.2</ele>
        <time>2019-05-01T08:47:12Z</time>
      </trkpt>
      <trkpt lat="45.80183" lon="5.49902">
        <ele>600</ele>
        <time>2019-05-01T08:47:16Z</time>
      </trkpt>
      <trkpt lat="45.80184" lon="5.499">
        <ele>600.6</ele>
        <time>2019-05-01T08:47:17Z</time>
      </trkpt>
      <trkpt lat="45.80188" lon="5.49895">
        <ele>599.6</ele>
        <time>2019-05-01T08:47:20Z</time>
      </trkpt>
      <trkpt lat="45.80191" lon="5.49892">
        <ele>598.8</ele>
        <time>2019-05-01T08:47:22Z</time>
      </trkpt>
      <trkpt lat="45.80195" lon="5.49888">
        <ele>598.6</ele>
        <time>2019-05-01T08:47:25Z</time>
      </trkpt>
      <trkpt lat="45.80197" lon="5.49887">
        <ele>598.6</ele>
        <time>2019-05-01T08:47:26Z</time>
      </trkpt>
      <trkpt lat="45.80206" lon="5.49883">
        <ele>596.9</ele>
        <time>2019-05-01T08:47:31Z</time>
      </trkpt>
      <trkpt lat="45.80208" lon="5.49882">
        <ele>596.8</ele>
        <time>2019-05-01T08:47:32Z</time>
      </trkpt>
      <trkpt lat="45.80211" lon="5.49879">
        <ele>596.1</ele>
        <time>2019-05-01T08:47:33Z</time>
      </trkpt>
      <trkpt lat="45.80213" lon="5.49877">
        <ele>596.2</ele>
        <time>2019-05-01T08:47:34Z</time>
      </trkpt>
      <trkpt lat="45.80215" lon="5.49874">
        <ele>596.2</ele>
        <time>2019-05-01T08:47:35Z</time>
      </trkpt>
      <trkpt lat="45.80217" lon="5.49872">
        <ele>596.2</ele>
        <time>2019-05-01T08:47:36Z</time>
      </trkpt>
      <trkpt lat="45.80218" lon="5.49869">
        <ele>596.1</ele>
        <time>2019-05-01T08:47:37Z</time>
      </trkpt>
      <trkpt lat="45.8022" lon="5.49867">
        <ele>596.1</ele>
        <time>2019-05-01T08:47:38Z</time>
      </trkpt>
      <trkpt lat="45.80222" lon="5.49862">
        <ele>596</ele>
        <time>2019-05-01T08:47:40Z</time>
      </trkpt>
      <trkpt lat="45.80232" lon="5.49843">
        <ele>596.6</ele>
        <time>2019-05-01T08:47:49Z</time>
      </trkpt>
      <trkpt lat="45.80235" lon="5.49824">
        <ele>597.9</ele>
        <time>2019-05-01T08:47:57Z</time>
      </trkpt>
      <trkpt lat="45.80236" lon="5.49823">
        <ele>597.8</ele>
        <time>2019-05-01T08:47:58Z</time>
      </trkpt>
      <trkpt lat="45.80237" lon="5.49811">
        <ele>598.6</ele>
        <time>2019-05-01T08:48:04Z</time>
      </trkpt>
      <trkpt lat="45.80236" lon="5.49809">
        <ele>598.9</ele>
        <time>2019-05-01T08:48:06Z</time>
      </trkpt>
      <trkpt lat="45.80237" lon="5.49803">
        <ele>599.3</ele>
        <time>2019-05-01T08:48:10Z</time>
      </trkpt>
      <trkpt lat="45.80245" lon="5.49797">
        <ele>598.6</ele>
        <time>2019-05-01T08:48:16Z</time>
      </trkpt>
      <trkpt lat="45.80246" lon="5.49797">
        <ele>598.4</ele>
        <time>2019-05-01T08:48:17Z</time>
      </trkpt>
      <trkpt lat="45.80253" lon="5.49794">
        <ele>597.2</ele>
        <time>2019-05-01T08:48:22Z</time>
      </trkpt>
      <trkpt lat="45.80266" lon="5.49785">
        <ele>594.9</ele>
        <time>2019-05-01T08:48:27Z</time>
      </trkpt>
      <trkpt lat="45.80271" lon="5.49781">
        <ele>594.4</ele>
        <time>2019-05-01T08:48:28Z</time>
      </trkpt>
      <trkpt lat="45.80282" lon="5.49776">
        <ele>591.7</ele>
        <time>2019-05-01T08:48:30Z</time>
      </trkpt>
      <trkpt lat="45.80296" lon="5.49773">
        <ele>588.5</ele>
        <time>2019-05-01T08:48:32Z</time>
      </trkpt>
      <trkpt lat="45.80304" lon="5.49773">
        <ele>587.1</ele>
        <time>2019-05-01T08:48:33Z</time>
      </trkpt>
      <trkpt lat="45.80313" lon="5.49773">
        <ele>584.6</ele>
        <time>2019-05-01T08:48:34Z</time>
      </trkpt>
      <trkpt lat="45.80323" lon="5.49774">
        <ele>581.6</ele>
        <time>2019-05-01T08:48:35Z</time>
      </trkpt>
      <trkpt lat="45.80342" lon="5.49774">
        <ele>576.4</ele>
        <time>2019-05-01T08:48:37Z</time>
      </trkpt>
      <trkpt lat="45.80361" lon="5.49773">
        <ele>571.3</ele>
        <time>2019-05-01T08:48:39Z</time>
      </trkpt>
      <trkpt lat="45.8038" lon="5.49769">
        <ele>565.5</ele>
        <time>2019-05-01T08:48:41Z</time>
      </trkpt>
      <trkpt lat="45.80397" lon="5.49766">
        <ele>561.6</ele>
        <time>2019-05-01T08:48:43Z</time>
      </trkpt>
      <trkpt lat="45.80405" lon="5.49762">
        <ele>559.7</ele>
        <time>2019-05-01T08:48:44Z</time>
      </trkpt>
      <trkpt lat="45.80411" lon="5.49756">
        <ele>558.5</ele>
        <time>2019-05-01T08:48:45Z</time>
      </trkpt>
      <trkpt lat="45.80418" lon="5.49749">
        <ele>557.2</ele>
        <time>2019-05-01T08:48:46Z</time>
      </trkpt>
      <trkpt lat="45.80424" lon="5.49739">
        <ele>556</ele>
        <time>2019-05-01T08:48:47Z</time>
      </trkpt>
      <trkpt lat="45.80429" lon="5.49728">
        <ele>555.1</ele>
        <time>2019-05-01T08:48:48Z</time>
      </trkpt>
      <trkpt lat="45.80435" lon="5.49716">
        <ele>554.3</ele>
        <time>2019-05-01T08:48:49Z</time>
      </trkpt>
      <trkpt lat="45.80441" lon="5.49703">
        <ele>553.6</ele>
        <time>2019-05-01T08:48:50Z</time>
      </trkpt>
      <trkpt lat="45.80446" lon="5.4969">
        <ele>553.1</ele>
        <time>2019-05-01T08:48:51Z</time>
      </trkpt>
      <trkpt lat="45.8045" lon="5.49677">
        <ele>552.8</ele>
        <time>2019-05-01T08:48:52Z</time>
      </trkpt>
      <trkpt lat="45.80453" lon="5.49665">
        <ele>552.5</ele>
        <time>2019-05-01T08:48:53Z</time>
      </trkpt>
      <trkpt lat="45.80454" lon="5.49652">
        <ele>552.3</ele>
        <time>2019-05-01T08:48:54Z</time>
      </trkpt>
      <trkpt lat="45.80454" lon="5.49639">
        <ele>551.6</ele>
        <time>2019-05-01T08:48:55Z</time>
      </trkpt>
      <trkpt lat="45.80455" lon="5.49626">
        <ele>551.5</ele>
        <time>2019-05-01T08:48:56Z</time>
      </trkpt>
      <trkpt lat="45.80456" lon="5.49613">
        <ele>551.3</ele>
        <time>2019-05-01T08:48:57Z</time>
      </trkpt>
      <trkpt lat="45.80457" lon="5.49599">
        <ele>551.1</ele>
        <time>2019-05-01T08:48:58Z</time>
      </trkpt>
      <trkpt lat="45.80459" lon="5.49587">
        <ele>550.8</ele>
        <time>2019-05-01T08:48:59Z</time>
      </trkpt>
      <trkpt lat="45.8046" lon="5.49576">
        <ele>550.4</ele>
        <time>2019-05-01T08:49:00Z</time>
      </trkpt>
      <trkpt lat="45.80459" lon="5.49564">
        <ele>550.1</ele>
        <time>2019-05-01T08:49:01Z</time>
      </trkpt>
      <trkpt lat="45.80458" lon="5.49554">
        <ele>549.8</ele>
        <time>2019-05-01T08:49:02Z</time>
      </trkpt>
      <trkpt lat="45.80457" lon="5.49545">
        <ele>549.6</ele>
        <time>2019-05-01T08:49:03Z</time>
      </trkpt>
      <trkpt lat="45.80457" lon="5.49536">
        <ele>549.4</ele>
        <time>2019-05-01T08:49:04Z</time>
      </trkpt>
      <trkpt lat="45.80459" lon="5.49526">
        <ele>549.2</ele>
        <time>2019-05-01T08:49:05Z</time>
      </trkpt>
      <trkpt lat="45.80468" lon="5.4951">
        <ele>549.1</ele>
        <time>2019-05-01T08:49:07Z</time>
      </trkpt>
      <trkpt lat="45.80474" lon="5.49502">
        <ele>549</ele>
        <time>2019-05-01T08:49:08Z</time>
      </trkpt>
      <trkpt lat="45.80479" lon="5.49492">
        <ele>549</ele>
        <time>2019-05-01T08:49:09Z</time>
      </trkpt>
      <trkpt lat="45.80488" lon="5.49471">
        <ele>548.7</ele>
        <time>2019-05-01T08:49:11Z</time>
      </trkpt>
      <trkpt lat="45.80492" lon="5.4946">
        <ele>548.3</ele>
        <time>2019-05-01T08:49:12Z</time>
      </trkpt>
      <trkpt lat="45.80496" lon="5.49449">
        <ele>547.8</ele>
        <time>2019-05-01T08:49:13Z</time>
      </trkpt>
      <trkpt lat="45.80505" lon="5.49429">
        <ele>546.8</ele>
        <time>2019-05-01T08:49:15Z</time>
      </trkpt>
      <trkpt lat="45.80511" lon="5.49407">
        <ele>545.9</ele>
        <time>2019-05-01T08:49:17Z</time>
      </trkpt>
      <trkpt lat="45.80516" lon="5.49384">
        <ele>544.8</ele>
        <time>2019-05-01T08:49:19Z</time>
      </trkpt>
      <trkpt lat="45.80518" lon="5.49372">
        <ele>544.1</ele>
        <time>2019-05-01T08:49:20Z</time>
      </trkpt>
      <trkpt lat="45.8052" lon="5.4936">
        <ele>543.4</ele>
        <time>2019-05-01T08:49:21Z</time>
      </trkpt>
      <trkpt lat="45.80523" lon="5.49336">
        <ele>542.2</ele>
        <time>2019-05-01T08:49:23Z</time>
      </trkpt>
      <trkpt lat="45.80525" lon="5.49324">
        <ele>541.8</ele>
        <time>2019-05-01T08:49:24Z</time>
      </trkpt>
      <trkpt lat="45.80527" lon="5.49311">
        <ele>541.7</ele>
        <time>2019-05-01T08:49:25Z</time>
      </trkpt>
      <trkpt lat="45.8053" lon="5.49286">
        <ele>541.3</ele>
        <time>2019-05-01T08:49:27Z</time>
      </trkpt>
      <trkpt lat="45.80534" lon="5.49261">
        <ele>540.3</ele>
        <time>2019-05-01T08:49:29Z</time>
      </trkpt>
      <trkpt lat="45.80542" lon="5.4924">
        <ele>539.3</ele>
        <time>2019-05-01T08:49:31Z</time>
      </trkpt>
      <trkpt lat="45.80548" lon="5.4923">
        <ele>538.9</ele>
        <time>2019-05-01T08:49:32Z</time>
      </trkpt>
      <trkpt lat="45.80567" lon="5.49207">
        <ele>538.1</ele>
        <time>2019-05-01T08:49:35Z</time>
      </trkpt>
      <trkpt lat="45.80573" lon="5.492">
        <ele>537.8</ele>
        <time>2019-05-01T08:49:36Z</time>
      </trkpt>
      <trkpt lat="45.80579" lon="5.49192">
        <ele>537.6</ele>
        <time>2019-05-01T08:49:37Z</time>
      </trkpt>
      <trkpt lat="45.80583" lon="5.49182">
        <ele>537.2</ele>
        <time>2019-05-01T08:49:38Z</time>
      </trkpt>
      <trkpt lat="45.80584" lon="5.49149">
        <ele>537.2</ele>
        <time>2019-05-01T08:49:41Z</time>
      </trkpt>
      <trkpt lat="45.8058" lon="5.49129">
        <ele>537.1</ele>
        <time>2019-05-01T08:49:43Z</time>
      </trkpt>
      <trkpt lat="45.80573" lon="5.49101">
        <ele>536.9</ele>
        <time>2019-05-01T08:49:46Z</time>
      </trkpt>
      <trkpt lat="45.80569" lon="5.49084">
        <ele>536.5</ele>
        <time>2019-05-01T08:49:48Z</time>
      </trkpt>
      <trkpt lat="45.80572" lon="5.49067">
        <ele>536.2</ele>
        <time>2019-05-01T08:49:50Z</time>
      </trkpt>
      <trkpt lat="45.80586" lon="5.49046">
        <ele>535.8</ele>
        <time>2019-05-01T08:49:53Z</time>
      </trkpt>
      <trkpt lat="45.80592" lon="5.49041">
        <ele>535.7</ele>
        <time>2019-05-01T08:49:54Z</time>
      </trkpt>
      <trkpt lat="45.80622" lon="5.49015">
        <ele>535.3</ele>
        <time>2019-05-01T08:49:59Z</time>
      </trkpt>
      <trkpt lat="45.80655" lon="5.4899">
        <ele>534.8</ele>
        <time>2019-05-01T08:50:05Z</time>
      </trkpt>
      <trkpt lat="45.80682" lon="5.48973">
        <ele>533.2</ele>
        <time>2019-05-01T08:50:10Z</time>
      </trkpt>
      <trkpt lat="45.80688" lon="5.4897">
        <ele>532.6</ele>
        <time>2019-05-01T08:50:11Z</time>
      </trkpt>
      <trkpt lat="45.80707" lon="5.48966">
        <ele>531.2</ele>
        <time>2019-05-01T08:50:14Z</time>
      </trkpt>
      <trkpt lat="45.80712" lon="5.48965">
        <ele>530.7</ele>
        <time>2019-05-01T08:50:15Z</time>
      </trkpt>
      <trkpt lat="45.80719" lon="5.48958">
        <ele>531.4</ele>
        <time>2019-05-01T08:50:17Z</time>
      </trkpt>
      <trkpt lat="45.80719" lon="5.48952">
        <ele>531.7</ele>
        <time>2019-05-01T08:50:18Z</time>
      </trkpt>
      <trkpt lat="45.80715" lon="5.48934">
        <ele>533</ele>
        <time>2019-05-01T08:50:20Z</time>
      </trkpt>
      <trkpt lat="45.80709" lon="5.48923">
        <ele>533.9</ele>
        <time>2019-05-01T08:50:21Z</time>
      </trkpt>
      <trkpt lat="45.80701" lon="5.48885">
        <ele>536.1</ele>
        <time>2019-05-01T08:50:24Z</time>
      </trkpt>
      <trkpt lat="45.80698" lon="5.48837">
        <ele>537.9</ele>
        <time>2019-05-01T08:50:28Z</time>
      </trkpt>
      <trkpt lat="45.80696" lon="5.48808">
        <ele>539.2</ele>
        <time>2019-05-01T08:50:32Z</time>
      </trkpt>
      <trkpt lat="45.80695" lon="5.48796">
        <ele>539.8</ele>
        <time>2019-05-01T08:50:35Z</time>
      </trkpt>
      <trkpt lat="45.80695" lon="5.4879">
        <ele>540</ele>
        <time>2019-05-01T08:50:37Z</time>
      </trkpt>
      <trkpt lat="45.80691" lon="5.48776">
        <ele>541.2</ele>
        <time>2019-05-01T08:50:43Z</time>
      </trkpt>
      <trkpt lat="45.80691" lon="5.48774">
        <ele>541.5</ele>
        <time>2019-05-01T08:50:44Z</time>
      </trkpt>
      <trkpt lat="45.80686" lon="5.48762">
        <ele>543.6</ele>
        <time>2019-05-01T08:50:50Z</time>
      </trkpt>
      <trkpt lat="45.80686" lon="5.4876">
        <ele>543.9</ele>
        <time>2019-05-01T08:50:51Z</time>
      </trkpt>
      <trkpt lat="45.80683" lon="5.48751">
        <ele>545.4</ele>
        <time>2019-05-01T08:50:56Z</time>
      </trkpt>
      <trkpt lat="45.80682" lon="5.48738">
        <ele>547.4</ele>
        <time>2019-05-01T08:51:03Z</time>
      </trkpt>
      <trkpt lat="45.80683" lon="5.48737">
        <ele>547.7</ele>
        <time>2019-05-01T08:51:04Z</time>
      </trkpt>
      <trkpt lat="45.80686" lon="5.48729">
        <ele>549.2</ele>
        <time>2019-05-01T08:51:08Z</time>
      </trkpt>
      <trkpt lat="45.80687" lon="5.48728">
        <ele>549.3</ele>
        <time>2019-05-01T08:51:09Z</time>
      </trkpt>
      <trkpt lat="45.80688" lon="5.48727">
        <ele>549.4</ele>
        <time>2019-05-01T08:51:10Z</time>
      </trkpt>
      <trkpt lat="45.80695" lon="5.4872">
        <ele>550.1</ele>
        <time>2019-05-01T08:51:15Z</time>
      </trkpt>
      <trkpt lat="45.807" lon="5.48717">
        <ele>550.6</ele>
        <time>2019-05-01T08:51:17Z</time>
      </trkpt>
      <trkpt lat="45.80709" lon="5.48709">
        <ele>551.6</ele>
        <time>2019-05-01T08:51:21Z</time>
      </trkpt>
      <trkpt lat="45.80714" lon="5.48706">
        <ele>552.2</ele>
        <time>2019-05-01T08:51:23Z</time>
      </trkpt>
      <trkpt lat="45.80732" lon="5.48696">
        <ele>554.2</ele>
        <time>2019-05-01T08:51:29Z</time>
      </trkpt>
      <trkpt lat="45.80751" lon="5.48691">
        <ele>556.4</ele>
        <time>2019-05-01T08:51:36Z</time>
      </trkpt>
      <trkpt lat="45.80765" lon="5.4869">
        <ele>558.3</ele>
        <time>2019-05-01T08:51:42Z</time>
      </trkpt>
      <trkpt lat="45.80776" lon="5.48689">
        <ele>559.9</ele>
        <time>2019-05-01T08:51:48Z</time>
      </trkpt>
      <trkpt lat="45.8078" lon="5.48688">
        <ele>560.7</ele>
        <time>2019-05-01T08:51:51Z</time>
      </trkpt>
      <trkpt lat="45.80787" lon="5.48686">
        <ele>561.9</ele>
        <time>2019-05-01T08:51:55Z</time>
      </trkpt>
      <trkpt lat="45.80789" lon="5.48686">
        <ele>562.2</ele>
        <time>2019-05-01T08:51:56Z</time>
      </trkpt>
      <trkpt lat="45.80792" lon="5.48685">
        <ele>562.9</ele>
        <time>2019-05-01T08:51:58Z</time>
      </trkpt>
      <trkpt lat="45.80796" lon="5.48683">
        <ele>563.7</ele>
        <time>2019-05-01T08:52:01Z</time>
      </trkpt>
      <trkpt lat="45.80799" lon="5.48681">
        <ele>564.3</ele>
        <time>2019-05-01T08:52:03Z</time>
      </trkpt>
      <trkpt lat="45.80802" lon="5.48679">
        <ele>565</ele>
        <time>2019-05-01T08:52:05Z</time>
      </trkpt>
      <trkpt lat="45.80809" lon="5.48674">
        <ele>566.6</ele>
        <time>2019-05-01T08:52:10Z</time>
      </trkpt>
      <trkpt lat="45.80814" lon="5.48667">
        <ele>568.5</ele>
        <time>2019-05-01T08:52:15Z</time>
      </trkpt>
      <trkpt lat="45.80817" lon="5.48663">
        <ele>569.5</ele>
        <time>2019-05-01T08:52:18Z</time>
      </trkpt>
      <trkpt lat="45.80818" lon="5.48662">
        <ele>569.8</ele>
        <time>2019-05-01T08:52:19Z</time>
      </trkpt>
      <trkpt lat="45.80842" lon="5.48626">
        <ele>577.6</ele>
        <time>2019-05-01T08:52:45Z</time>
      </trkpt>
      <trkpt lat="45.80844" lon="5.48623">
        <ele>578.1</ele>
        <time>2019-05-01T08:52:47Z</time>
      </trkpt>
      <trkpt lat="45.80846" lon="5.48619">
        <ele>578.7</ele>
        <time>2019-05-01T08:52:50Z</time>
      </trkpt>
      <trkpt lat="45.80848" lon="5.48614">
        <ele>579.4</ele>
        <time>2019-05-01T08:52:53Z</time>
      </trkpt>
      <trkpt lat="45.80853" lon="5.48607">
        <ele>580.4</ele>
        <time>2019-05-01T08:52:58Z</time>
      </trkpt>
      <trkpt lat="45.80855" lon="5.48602">
        <ele>581</ele>
        <time>2019-05-01T08:53:01Z</time>
      </trkpt>
      <trkpt lat="45.80856" lon="5.486">
        <ele>581.3</ele>
        <time>2019-05-01T08:53:03Z</time>
      </trkpt>
      <trkpt lat="45.80859" lon="5.48594">
        <ele>582</ele>
        <time>2019-05-01T08:53:07Z</time>
      </trkpt>
      <trkpt lat="45.80861" lon="5.4859">
        <ele>582.5</ele>
        <time>2019-05-01T08:53:10Z</time>
      </trkpt>
      <trkpt lat="45.80862" lon="5.48588">
        <ele>582.7</ele>
        <time>2019-05-01T08:53:11Z</time>
      </trkpt>
      <trkpt lat="45.80864" lon="5.48586">
        <ele>583</ele>
        <time>2019-05-01T08:53:13Z</time>
      </trkpt>
      <trkpt lat="45.80864" lon="5.48584">
        <ele>583.2</ele>
        <time>2019-05-01T08:53:14Z</time>
      </trkpt>
      <trkpt lat="45.80865" lon="5.48583">
        <ele>583.3</ele>
        <time>2019-05-01T08:53:15Z</time>
      </trkpt>
      <trkpt lat="45.80866" lon="5.48581">
        <ele>583.5</ele>
        <time>2019-05-01T08:53:16Z</time>
      </trkpt>
      <trkpt lat="45.80868" lon="5.48576">
        <ele>584</ele>
        <time>2019-05-01T08:53:20Z</time>
      </trkpt>
      <trkpt lat="45.80871" lon="5.48569">
        <ele>584.6</ele>
        <time>2019-05-01T08:53:24Z</time>
      </trkpt>
      <trkpt lat="45.80876" lon="5.48557">
        <ele>585.7</ele>
        <time>2019-05-01T08:53:32Z</time>
      </trkpt>
      <trkpt lat="45.80877" lon="5.48555">
        <ele>585.8</ele>
        <time>2019-05-01T08:53:33Z</time>
      </trkpt>
      <trkpt lat="45.80889" lon="5.48529">
        <ele>587.9</ele>
        <time>2019-05-01T08:55:25Z</time>
      </trkpt>
      <trkpt lat="45.80892" lon="5.48524">
        <ele>588.4</ele>
        <time>2019-05-01T08:55:28Z</time>
      </trkpt>
      <trkpt lat="45.80893" lon="5.48522">
        <ele>588.5</ele>
        <time>2019-05-01T08:55:29Z</time>
      </trkpt>
      <trkpt lat="45.80896" lon="5.48516">
        <ele>589</ele>
        <time>2019-05-01T08:55:32Z</time>
      </trkpt>
      <trkpt lat="45.809" lon="5.48508">
        <ele>589.6</ele>
        <time>2019-05-01T08:55:36Z</time>
      </trkpt>
      <trkpt lat="45.80905" lon="5.485">
        <ele>590.2</ele>
        <time>2019-05-01T08:55:41Z</time>
      </trkpt>
      <trkpt lat="45.80907" lon="5.48495">
        <ele>590.6</ele>
        <time>2019-05-01T08:55:44Z</time>
      </trkpt>
      <trkpt lat="45.80912" lon="5.48484">
        <ele>591.4</ele>
        <time>2019-05-01T08:55:50Z</time>
      </trkpt>
      <trkpt lat="45.80919" lon="5.48471">
        <ele>592.4</ele>
        <time>2019-05-01T08:55:58Z</time>
      </trkpt>
      <trkpt lat="45.80923" lon="5.48462">
        <ele>593.2</ele>
        <time>2019-05-01T08:56:05Z</time>
      </trkpt>
      <trkpt lat="45.80925" lon="5.48459">
        <ele>593.4</ele>
        <time>2019-05-01T08:56:07Z</time>
      </trkpt>
      <trkpt lat="45.8093" lon="5.48451">
        <ele>594.1</ele>
        <time>2019-05-01T08:56:12Z</time>
      </trkpt>
      <trkpt lat="45.80931" lon="5.48448">
        <ele>594.3</ele>
        <time>2019-05-01T08:56:14Z</time>
      </trkpt>
      <trkpt lat="45.80935" lon="5.48442">
        <ele>594.8</ele>
        <time>2019-05-01T08:56:18Z</time>
      </trkpt>
      <trkpt lat="45.80937" lon="5.48438">
        <ele>595.2</ele>
        <time>2019-05-01T08:56:20Z</time>
      </trkpt>
      <trkpt lat="45.80941" lon="5.48433">
        <ele>595.8</ele>
        <time>2019-05-01T08:56:24Z</time>
      </trkpt>
      <trkpt lat="45.80945" lon="5.48428">
        <ele>596.6</ele>
        <time>2019-05-01T08:56:28Z</time>
      </trkpt>
      <trkpt lat="45.80946" lon="5.48426">
        <ele>596.8</ele>
        <time>2019-05-01T08:56:29Z</time>
      </trkpt>
      <trkpt lat="45.80951" lon="5.48419">
        <ele>597.8</ele>
        <time>2019-05-01T08:56:34Z</time>
      </trkpt>
      <trkpt lat="45.80953" lon="5.48417">
        <ele>598.3</ele>
        <time>2019-05-01T08:56:36Z</time>
      </trkpt>
      <trkpt lat="45.80955" lon="5.48415">
        <ele>598.8</ele>
        <time>2019-05-01T08:56:38Z</time>
      </trkpt>
      <trkpt lat="45.8096" lon="5.48409">
        <ele>600</ele>
        <time>2019-05-01T08:56:42Z</time>
      </trkpt>
      <trkpt lat="45.80963" lon="5.48404">
        <ele>600.8</ele>
        <time>2019-05-01T08:56:45Z</time>
      </trkpt>
      <trkpt lat="45.80964" lon="5.48402">
        <ele>601.1</ele>
        <time>2019-05-01T08:56:46Z</time>
      </trkpt>
      <trkpt lat="45.80966" lon="5.48391">
        <ele>602.5</ele>
        <time>2019-05-01T08:56:52Z</time>
      </trkpt>
      <trkpt lat="45.80963" lon="5.48387">
        <ele>602.8</ele>
        <time>2019-05-01T08:56:55Z</time>
      </trkpt>
      <trkpt lat="45.80959" lon="5.48384">
        <ele>603.1</ele>
        <time>2019-05-01T08:56:58Z</time>
      </trkpt>
      <trkpt lat="45.80957" lon="5.48384">
        <ele>603.3</ele>
        <time>2019-05-01T08:57:00Z</time>
      </trkpt>
      <trkpt lat="45.80949" lon="5.48386">
        <ele>603.9</ele>
        <time>2019-05-01T08:57:05Z</time>
      </trkpt>
      <trkpt lat="45.80944" lon="5.48386">
        <ele>604.3</ele>
        <time>2019-05-01T08:57:08Z</time>
      </trkpt>
      <trkpt lat="45.80937" lon="5.48388">
        <ele>605</ele>
        <time>2019-05-01T08:57:13Z</time>
      </trkpt>
      <trkpt lat="45.80931" lon="5.48389">
        <ele>605.4</ele>
        <time>2019-05-01T08:57:16Z</time>
      </trkpt>
      <trkpt lat="45.80926" lon="5.4839">
        <ele>605.8</ele>
        <time>2019-05-01T08:57:19Z</time>
      </trkpt>
      <trkpt lat="45.80924" lon="5.48391">
        <ele>605.9</ele>
        <time>2019-05-01T08:57:21Z</time>
      </trkpt>
      <trkpt lat="45.80919" lon="5.48393">
        <ele>606.3</ele>
        <time>2019-05-01T08:57:24Z</time>
      </trkpt>
      <trkpt lat="45.80911" lon="5.48394">
        <ele>606.7</ele>
        <time>2019-05-01T08:57:28Z</time>
      </trkpt>
      <trkpt lat="45.80908" lon="5.48396">
        <ele>607</ele>
        <time>2019-05-01T08:57:30Z</time>
      </trkpt>
      <trkpt lat="45.80904" lon="5.48398">
        <ele>607.2</ele>
        <time>2019-05-01T08:57:32Z</time>
      </trkpt>
      <trkpt lat="45.80898" lon="5.484">
        <ele>607.5</ele>
        <time>2019-05-01T08:57:35Z</time>
      </trkpt>
      <trkpt lat="45.80892" lon="5.48402">
        <ele>607.9</ele>
        <time>2019-05-01T08:57:38Z</time>
      </trkpt>
      <trkpt lat="45.80884" lon="5.48405">
        <ele>608.4</ele>
        <time>2019-05-01T08:57:42Z</time>
      </trkpt>
      <trkpt lat="45.80877" lon="5.48408">
        <ele>608.9</ele>
        <time>2019-05-01T08:57:46Z</time>
      </trkpt>
      <trkpt lat="45.8087" lon="5.48411">
        <ele>609.3</ele>
        <time>2019-05-01T08:57:49Z</time>
      </trkpt>
      <trkpt lat="45.80863" lon="5.48413">
        <ele>609.9</ele>
        <time>2019-05-01T08:57:53Z</time>
      </trkpt>
      <trkpt lat="45.80859" lon="5.48415">
        <ele>610.1</ele>
        <time>2019-05-01T08:57:55Z</time>
      </trkpt>
      <trkpt lat="45.80847" lon="5.48417">
        <ele>610.9</ele>
        <time>2019-05-01T08:58:01Z</time>
      </trkpt>
      <trkpt lat="45.80823" lon="5.48421">
        <ele>612.4</ele>
        <time>2019-05-01T08:58:11Z</time>
      </trkpt>
      <trkpt lat="45.80806" lon="5.48425">
        <ele>613.6</ele>
        <time>2019-05-01T08:58:19Z</time>
      </trkpt>
      <trkpt lat="45.80795" lon="5.48425">
        <ele>614.3</ele>
        <time>2019-05-01T08:58:24Z</time>
      </trkpt>
      <trkpt lat="45.80791" lon="5.48426">
        <ele>614.6</ele>
        <time>2019-05-01T08:58:26Z</time>
      </trkpt>
      <trkpt lat="45.80774" lon="5.4843">
        <ele>615.8</ele>
        <time>2019-05-01T08:58:33Z</time>
      </trkpt>
      <trkpt lat="45.8076" lon="5.48434">
        <ele>616.9</ele>
        <time>2019-05-01T08:58:39Z</time>
      </trkpt>
      <trkpt lat="45.80746" lon="5.48438">
        <ele>617.9</ele>
        <time>2019-05-01T08:58:46Z</time>
      </trkpt>
      <trkpt lat="45.80738" lon="5.48439">
        <ele>618.4</ele>
        <time>2019-05-01T08:58:50Z</time>
      </trkpt>
      <trkpt lat="45.80733" lon="5.4844">
        <ele>618.7</ele>
        <time>2019-05-01T08:58:53Z</time>
      </trkpt>
      <trkpt lat="45.80724" lon="5.48437">
        <ele>619.3</ele>
        <time>2019-05-01T08:58:59Z</time>
      </trkpt>
      <trkpt lat="45.80715" lon="5.48436">
        <ele>620</ele>
        <time>2019-05-01T08:59:05Z</time>
      </trkpt>
      <trkpt lat="45.80702" lon="5.48429">
        <ele>621</ele>
        <time>2019-05-01T08:59:13Z</time>
      </trkpt>
      <trkpt lat="45.80698" lon="5.48425">
        <ele>621.4</ele>
        <time>2019-05-01T08:59:16Z</time>
      </trkpt>
      <trkpt lat="45.80691" lon="5.48415">
        <ele>622.1</ele>
        <time>2019-05-01T08:59:21Z</time>
      </trkpt>
      <trkpt lat="45.8069" lon="5.48413">
        <ele>622.2</ele>
        <time>2019-05-01T08:59:22Z</time>
      </trkpt>
      <trkpt lat="45.80683" lon="5.48397">
        <ele>623</ele>
        <time>2019-05-01T08:59:29Z</time>
      </trkpt>
      <trkpt lat="45.8067" lon="5.48386">
        <ele>623.7</ele>
        <time>2019-05-01T08:59:36Z</time>
      </trkpt>
      <trkpt lat="45.80666" lon="5.48388">
        <ele>623.9</ele>
        <time>2019-05-01T08:59:38Z</time>
      </trkpt>
      <trkpt lat="45.80658" lon="5.48393">
        <ele>624.3</ele>
        <time>2019-05-01T08:59:42Z</time>
      </trkpt>
      <trkpt lat="45.80652" lon="5.484">
        <ele>624.4</ele>
        <time>2019-05-01T08:59:46Z</time>
      </trkpt>
      <trkpt lat="45.80648" lon="5.48406">
        <ele>624.6</ele>
        <time>2019-05-01T08:59:49Z</time>
      </trkpt>
      <trkpt lat="45.80641" lon="5.48414">
        <ele>624.7</ele>
        <time>2019-05-01T08:59:54Z</time>
      </trkpt>
      <trkpt lat="45.80637" lon="5.48415">
        <ele>624.7</ele>
        <time>2019-05-01T08:59:56Z</time>
      </trkpt>
      <trkpt lat="45.80634" lon="5.48416">
        <ele>624.7</ele>
        <time>2019-05-01T08:59:58Z</time>
      </trkpt>
      <trkpt lat="45.80627" lon="5.48416">
        <ele>624.8</ele>
        <time>2019-05-01T09:00:02Z</time>
      </trkpt>
      <trkpt lat="45.80622" lon="5.48415">
        <ele>624.8</ele>
        <time>2019-05-01T09:00:05Z</time>
      </trkpt>
      <trkpt lat="45.80619" lon="5.48413">
        <ele>625.5</ele>
        <time>2019-05-01T09:00:07Z</time>
      </trkpt>
      <trkpt lat="45.80611" lon="5.48408">
        <ele>626.4</ele>
        <time>2019-05-01T09:00:12Z</time>
      </trkpt>
      <trkpt lat="45.80607" lon="5.48405">
        <ele>626.9</ele>
        <time>2019-05-01T09:00:15Z</time>
      </trkpt>
      <trkpt lat="45.80604" lon="5.48402">
        <ele>627.3</ele>
        <time>2019-05-01T09:00:18Z</time>
      </trkpt>
      <trkpt lat="45.806" lon="5.48398">
        <ele>627.8</ele>
        <time>2019-05-01T09:00:21Z</time>
      </trkpt>
      <trkpt lat="45.80596" lon="5.48394">
        <ele>628.5</ele>
        <time>2019-05-01T09:00:24Z</time>
      </trkpt>
      <trkpt lat="45.80587" lon="5.48386">
        <ele>630.2</ele>
        <time>2019-05-01T09:00:31Z</time>
      </trkpt>
      <trkpt lat="45.80586" lon="5.48385">
        <ele>630.4</ele>
        <time>2019-05-01T09:00:32Z</time>
      </trkpt>
      <trkpt lat="45.80581" lon="5.48381">
        <ele>631.5</ele>
        <time>2019-05-01T09:00:36Z</time>
      </trkpt>
      <trkpt lat="45.80578" lon="5.48377">
        <ele>632.3</ele>
        <time>2019-05-01T09:00:39Z</time>
      </trkpt>
      <trkpt lat="45.80577" lon="5.48375">
        <ele>632.6</ele>
        <time>2019-05-01T09:00:40Z</time>
      </trkpt>
      <trkpt lat="45.80574" lon="5.48369">
        <ele>633.3</ele>
        <time>2019-05-01T09:00:43Z</time>
      </trkpt>
      <trkpt lat="45.80573" lon="5.48367">
        <ele>633.6</ele>
        <time>2019-05-01T09:00:44Z</time>
      </trkpt>
      <trkpt lat="45.80567" lon="5.48355">
        <ele>635.1</ele>
        <time>2019-05-01T09:00:50Z</time>
      </trkpt>
      <trkpt lat="45.80566" lon="5.48345">
        <ele>636.1</ele>
        <time>2019-05-01T09:00:54Z</time>
      </trkpt>
      <trkpt lat="45.80565" lon="5.48344">
        <ele>636.2</ele>
        <time>2019-05-01T09:00:55Z</time>
      </trkpt>
      <trkpt lat="45.80566" lon="5.48341">
        <ele>636.5</ele>
        <time>2019-05-01T09:00:57Z</time>
      </trkpt>
      <trkpt lat="45.80567" lon="5.48333">
        <ele>637.1</ele>
        <time>2019-05-01T09:01:01Z</time>
      </trkpt>
      <trkpt lat="45.80571" lon="5.4832">
        <ele>638.4</ele>
        <time>2019-05-01T09:01:08Z</time>
      </trkpt>
      <trkpt lat="45.80576" lon="5.48303">
        <ele>640.3</ele>
        <time>2019-05-01T09:01:17Z</time>
      </trkpt>
      <trkpt lat="45.80581" lon="5.48284">
        <ele>642</ele>
        <time>2019-05-01T09:01:25Z</time>
      </trkpt>
      <trkpt lat="45.80582" lon="5.48281">
        <ele>642.2</ele>
        <time>2019-05-01T09:01:26Z</time>
      </trkpt>
      <trkpt lat="45.80586" lon="5.48271">
        <ele>643</ele>
        <time>2019-05-01T09:01:29Z</time>
      </trkpt>
      <trkpt lat="45.80588" lon="5.48264">
        <ele>643.5</ele>
        <time>2019-05-01T09:01:31Z</time>
      </trkpt>
      <trkpt lat="45.80592" lon="5.48253">
        <ele>644.1</ele>
        <time>2019-05-01T09:01:34Z</time>
      </trkpt>
      <trkpt lat="45.80596" lon="5.48241">
        <ele>644.7</ele>
        <time>2019-05-01T09:01:38Z</time>
      </trkpt>
      <trkpt lat="45.80598" lon="5.48236">
        <ele>645</ele>
        <time>2019-05-01T09:01:40Z</time>
      </trkpt>
      <trkpt lat="45.80601" lon="5.48224">
        <ele>645.9</ele>
        <time>2019-05-01T09:01:44Z</time>
      </trkpt>
      <trkpt lat="45.80602" lon="5.48218">
        <ele>646.5</ele>
        <time>2019-05-01T09:01:46Z</time>
      </trkpt>
      <trkpt lat="45.80602" lon="5.48215">
        <ele>647</ele>
        <time>2019-05-01T09:01:47Z</time>
      </trkpt>
      <trkpt lat="45.80602" lon="5.48208">
        <ele>647.5</ele>
        <time>2019-05-01T09:01:49Z</time>
      </trkpt>
      <trkpt lat="45.80601" lon="5.48202">
        <ele>647.9</ele>
        <time>2019-05-01T09:01:51Z</time>
      </trkpt>
      <trkpt lat="45.806" lon="5.48199">
        <ele>648.1</ele>
        <time>2019-05-01T09:01:52Z</time>
      </trkpt>
      <trkpt lat="45.80599" lon="5.48196">
        <ele>648.2</ele>
        <time>2019-05-01T09:01:53Z</time>
      </trkpt>
      <trkpt lat="45.80597" lon="5.48188">
        <ele>648.6</ele>
        <time>2019-05-01T09:01:56Z</time>
      </trkpt>
      <trkpt lat="45.80595" lon="5.4818">
        <ele>648.8</ele>
        <time>2019-05-01T09:01:59Z</time>
      </trkpt>
      <trkpt lat="45.80592" lon="5.4816">
        <ele>649.3</ele>
        <time>2019-05-01T09:02:05Z</time>
      </trkpt>
      <trkpt lat="45.80591" lon="5.48131">
        <ele>650.3</ele>
        <time>2019-05-01T09:02:13Z</time>
      </trkpt>
      <trkpt lat="45.80593" lon="5.48114">
        <ele>650.6</ele>
        <time>2019-05-01T09:02:18Z</time>
      </trkpt>
      <trkpt lat="45.8059" lon="5.48091">
        <ele>650.7</ele>
        <time>2019-05-01T09:02:24Z</time>
      </trkpt>
      <trkpt lat="45.8059" lon="5.48087">
        <ele>650.8</ele>
        <time>2019-05-01T09:02:25Z</time>
      </trkpt>
      <trkpt lat="45.80588" lon="5.48074">
        <ele>651.1</ele>
        <time>2019-05-01T09:02:29Z</time>
      </trkpt>
      <trkpt lat="45.80583" lon="5.48062">
        <ele>651.8</ele>
        <time>2019-05-01T09:02:33Z</time>
      </trkpt>
      <trkpt lat="45.80581" lon="5.48054">
        <ele>652.3</ele>
        <time>2019-05-01T09:02:35Z</time>
      </trkpt>
      <trkpt lat="45.80578" lon="5.48042">
        <ele>653.1</ele>
        <time>2019-05-01T09:02:38Z</time>
      </trkpt>
      <trkpt lat="45.80574" lon="5.4803">
        <ele>653.9</ele>
        <time>2019-05-01T09:02:41Z</time>
      </trkpt>
      <trkpt lat="45.80569" lon="5.48021">
        <ele>654.5</ele>
        <time>2019-05-01T09:02:44Z</time>
      </trkpt>
      <trkpt lat="45.80566" lon="5.48015">
        <ele>655</ele>
        <time>2019-05-01T09:02:47Z</time>
      </trkpt>
      <trkpt lat="45.80563" lon="5.48011">
        <ele>655.2</ele>
        <time>2019-05-01T09:02:49Z</time>
      </trkpt>
      <trkpt lat="45.80558" lon="5.48002">
        <ele>655.5</ele>
        <time>2019-05-01T09:02:53Z</time>
      </trkpt>
      <trkpt lat="45.80555" lon="5.47997">
        <ele>655.6</ele>
        <time>2019-05-01T09:02:55Z</time>
      </trkpt>
      <trkpt lat="45.80554" lon="5.47995">
        <ele>655.6</ele>
        <time>2019-05-01T09:02:56Z</time>
      </trkpt>
      <trkpt lat="45.8055" lon="5.47986">
        <ele>655.7</ele>
        <time>2019-05-01T09:03:00Z</time>
      </trkpt>
      <trkpt lat="45.80546" lon="5.4798">
        <ele>655.9</ele>
        <time>2019-05-01T09:03:03Z</time>
      </trkpt>
      <trkpt lat="45.8054" lon="5.47971">
        <ele>656.4</ele>
        <time>2019-05-01T09:03:08Z</time>
      </trkpt>
      <trkpt lat="45.80538" lon="5.47968">
        <ele>656.6</ele>
        <time>2019-05-01T09:03:10Z</time>
      </trkpt>
      <trkpt lat="45.8053" lon="5.47957">
        <ele>657.6</ele>
        <time>2019-05-01T09:03:16Z</time>
      </trkpt>
      <trkpt lat="45.80529" lon="5.47955">
        <ele>657.8</ele>
        <time>2019-05-01T09:03:17Z</time>
      </trkpt>
      <trkpt lat="45.80523" lon="5.4794">
        <ele>659.1</ele>
        <time>2019-05-01T09:03:23Z</time>
      </trkpt>
      <trkpt lat="45.8052" lon="5.47935">
        <ele>659.6</ele>
        <time>2019-05-01T09:03:25Z</time>
      </trkpt>
      <trkpt lat="45.80517" lon="5.47928">
        <ele>660.3</ele>
        <time>2019-05-01T09:03:28Z</time>
      </trkpt>
      <trkpt lat="45.80516" lon="5.47923">
        <ele>660.7</ele>
        <time>2019-05-01T09:03:30Z</time>
      </trkpt>
      <trkpt lat="45.80516" lon="5.47917">
        <ele>661.2</ele>
        <time>2019-05-01T09:03:32Z</time>
      </trkpt>
      <trkpt lat="45.80513" lon="5.47904">
        <ele>662</ele>
        <time>2019-05-01T09:03:36Z</time>
      </trkpt>
      <trkpt lat="45.80513" lon="5.47901">
        <ele>662.2</ele>
        <time>2019-05-01T09:03:37Z</time>
      </trkpt>
      <trkpt lat="45.80512" lon="5.47897">
        <ele>662.4</ele>
        <time>2019-05-01T09:03:39Z</time>
      </trkpt>
      <trkpt lat="45.80509" lon="5.47891">
        <ele>662.7</ele>
        <time>2019-05-01T09:03:42Z</time>
      </trkpt>
      <trkpt lat="45.80509" lon="5.4789">
        <ele>662.7</ele>
        <time>2019-05-01T09:03:43Z</time>
      </trkpt>
      <trkpt lat="45.8051" lon="5.47885">
        <ele>662.9</ele>
        <time>2019-05-01T09:03:57Z</time>
      </trkpt>
      <trkpt lat="45.8051" lon="5.47883">
        <ele>662.9</ele>
        <time>2019-05-01T09:03:58Z</time>
      </trkpt>
      <trkpt lat="45.8051" lon="5.47867">
        <ele>663.1</ele>
        <time>2019-05-01T09:04:03Z</time>
      </trkpt>
      <trkpt lat="45.8051" lon="5.47863">
        <ele>663.1</ele>
        <time>2019-05-01T09:04:04Z</time>
      </trkpt>
      <trkpt lat="45.80509" lon="5.47848">
        <ele>663.1</ele>
        <time>2019-05-01T09:04:08Z</time>
      </trkpt>
      <trkpt lat="45.80509" lon="5.47844">
        <ele>663.1</ele>
        <time>2019-05-01T09:04:09Z</time>
      </trkpt>
      <trkpt lat="45.80508" lon="5.47823">
        <ele>663.7</ele>
        <time>2019-05-01T09:04:13Z</time>
      </trkpt>
      <trkpt lat="45.80504" lon="5.47806">
        <ele>664.4</ele>
        <time>2019-05-01T09:04:18Z</time>
      </trkpt>
      <trkpt lat="45.80496" lon="5.47784">
        <ele>665.9</ele>
        <time>2019-05-01T09:04:22Z</time>
      </trkpt>
      <trkpt lat="45.80492" lon="5.4777">
        <ele>666.8</ele>
        <time>2019-05-01T09:04:24Z</time>
      </trkpt>
      <trkpt lat="45.80483" lon="5.4775">
        <ele>667.2</ele>
        <time>2019-05-01T09:04:28Z</time>
      </trkpt>
      <trkpt lat="45.80462" lon="5.47728">
        <ele>667</ele>
        <time>2019-05-01T09:04:33Z</time>
      </trkpt>
      <trkpt lat="45.80458" lon="5.47724">
        <ele>667.1</ele>
        <time>2019-05-01T09:04:34Z</time>
      </trkpt>
      <trkpt lat="45.80451" lon="5.47714">
        <ele>667.5</ele>
        <time>2019-05-01T09:04:36Z</time>
      </trkpt>
      <trkpt lat="45.80448" lon="5.47709">
        <ele>667.8</ele>
        <time>2019-05-01T09:04:37Z</time>
      </trkpt>
      <trkpt lat="45.80445" lon="5.47708">
        <ele>667.9</ele>
        <time>2019-05-01T09:04:38Z</time>
      </trkpt>
      <trkpt lat="45.80439" lon="5.47709">
        <ele>668.2</ele>
        <time>2019-05-01T09:04:40Z</time>
      </trkpt>
      <trkpt lat="45.80432" lon="5.4771">
        <ele>668.5</ele>
        <time>2019-05-01T09:04:42Z</time>
      </trkpt>
      <trkpt lat="45.8042" lon="5.4771">
        <ele>669</ele>
        <time>2019-05-01T09:04:45Z</time>
      </trkpt>
      <trkpt lat="45.80416" lon="5.47711">
        <ele>669.1</ele>
        <time>2019-05-01T09:04:46Z</time>
      </trkpt>
      <trkpt lat="45.804" lon="5.47713">
        <ele>669.3</ele>
        <time>2019-05-01T09:04:51Z</time>
      </trkpt>
      <trkpt lat="45.8038" lon="5.47717">
        <ele>669.6</ele>
        <time>2019-05-01T09:04:57Z</time>
      </trkpt>
      <trkpt lat="45.80374" lon="5.47718">
        <ele>669.9</ele>
        <time>2019-05-01T09:04:59Z</time>
      </trkpt>
      <trkpt lat="45.80368" lon="5.4772">
        <ele>669.7</ele>
        <time>2019-05-01T09:05:02Z</time>
      </trkpt>
      <trkpt lat="45.80342" lon="5.47726">
        <ele>670.6</ele>
        <time>2019-05-01T09:05:18Z</time>
      </trkpt>
      <trkpt lat="45.80341" lon="5.47726">
        <ele>670.6</ele>
        <time>2019-05-01T09:05:19Z</time>
      </trkpt>
      <trkpt lat="45.80321" lon="5.47727">
        <ele>672</ele>
        <time>2019-05-01T09:05:32Z</time>
      </trkpt>
      <trkpt lat="45.80298" lon="5.47735">
        <ele>673.4</ele>
        <time>2019-05-01T09:05:53Z</time>
      </trkpt>
      <trkpt lat="45.80296" lon="5.47735">
        <ele>673.4</ele>
        <time>2019-05-01T09:05:54Z</time>
      </trkpt>
      <trkpt lat="45.80292" lon="5.47736">
        <ele>673.9</ele>
        <time>2019-05-01T09:05:57Z</time>
      </trkpt>
      <trkpt lat="45.8029" lon="5.47735">
        <ele>673.9</ele>
        <time>2019-05-01T09:05:58Z</time>
      </trkpt>
      <trkpt lat="45.80278" lon="5.47739">
        <ele>674.7</ele>
        <time>2019-05-01T09:06:05Z</time>
      </trkpt>
      <trkpt lat="45.80269" lon="5.47741">
        <ele>675.3</ele>
        <time>2019-05-01T09:06:09Z</time>
      </trkpt>
      <trkpt lat="45.80259" lon="5.47743">
        <ele>676</ele>
        <time>2019-05-01T09:06:13Z</time>
      </trkpt>
      <trkpt lat="45.80246" lon="5.47747">
        <ele>676.7</ele>
        <time>2019-05-01T09:06:19Z</time>
      </trkpt>
      <trkpt lat="45.80241" lon="5.47747">
        <ele>677</ele>
        <time>2019-05-01T09:06:22Z</time>
      </trkpt>
      <trkpt lat="45.80233" lon="5.47749">
        <ele>677.2</ele>
        <time>2019-05-01T09:06:26Z</time>
      </trkpt>
      <trkpt lat="45.8022" lon="5.47751">
        <ele>677.5</ele>
        <time>2019-05-01T09:06:32Z</time>
      </trkpt>
      <trkpt lat="45.80201" lon="5.47756">
        <ele>677.3</ele>
        <time>2019-05-01T09:06:38Z</time>
      </trkpt>
      <trkpt lat="45.80193" lon="5.47758">
        <ele>677.2</ele>
        <time>2019-05-01T09:06:40Z</time>
      </trkpt>
      <trkpt lat="45.80181" lon="5.47759">
        <ele>676.7</ele>
        <time>2019-05-01T09:06:42Z</time>
      </trkpt>
      <trkpt lat="45.8017" lon="5.47762">
        <ele>676.2</ele>
        <time>2019-05-01T09:06:44Z</time>
      </trkpt>
      <trkpt lat="45.8016" lon="5.47765">
        <ele>675.7</ele>
        <time>2019-05-01T09:06:46Z</time>
      </trkpt>
      <trkpt lat="45.80156" lon="5.47766">
        <ele>675.6</ele>
        <time>2019-05-01T09:06:47Z</time>
      </trkpt>
      <trkpt lat="45.80144" lon="5.47768">
        <ele>675.1</ele>
        <time>2019-05-01T09:06:50Z</time>
      </trkpt>
      <trkpt lat="45.80125" lon="5.47774">
        <ele>673.9</ele>
        <time>2019-05-01T09:06:54Z</time>
      </trkpt>
      <trkpt lat="45.80089" lon="5.47783">
        <ele>669.4</ele>
        <time>2019-05-01T09:07:00Z</time>
      </trkpt>
      <trkpt lat="45.80056" lon="5.4779">
        <ele>665</ele>
        <time>2019-05-01T09:07:04Z</time>
      </trkpt>
      <trkpt lat="45.80038" lon="5.47794">
        <ele>663.7</ele>
        <time>2019-05-01T09:07:07Z</time>
      </trkpt>
      <trkpt lat="45.80035" lon="5.47793">
        <ele>663.4</ele>
        <time>2019-05-01T09:07:08Z</time>
      </trkpt>
      <trkpt lat="45.80032" lon="5.47793">
        <ele>663.2</ele>
        <time>2019-05-01T09:07:09Z</time>
      </trkpt>
      <trkpt lat="45.80025" lon="5.47794">
        <ele>662.7</ele>
        <time>2019-05-01T09:07:11Z</time>
      </trkpt>
      <trkpt lat="45.80019" lon="5.47796">
        <ele>662.1</ele>
        <time>2019-05-01T09:07:13Z</time>
      </trkpt>
      <trkpt lat="45.80015" lon="5.47797">
        <ele>661.9</ele>
        <time>2019-05-01T09:07:14Z</time>
      </trkpt>
      <trkpt lat="45.80008" lon="5.47799">
        <ele>661.1</ele>
        <time>2019-05-01T09:07:16Z</time>
      </trkpt>
      <trkpt lat="45.79996" lon="5.47802">
        <ele>660.1</ele>
        <time>2019-05-01T09:07:19Z</time>
      </trkpt>
      <trkpt lat="45.79982" lon="5.47805">
        <ele>659.5</ele>
        <time>2019-05-01T09:07:22Z</time>
      </trkpt>
      <trkpt lat="45.79973" lon="5.47807">
        <ele>659</ele>
        <time>2019-05-01T09:07:24Z</time>
      </trkpt>
      <trkpt lat="45.79956" lon="5.47809">
        <ele>658.2</ele>
        <time>2019-05-01T09:07:28Z</time>
      </trkpt>
      <trkpt lat="45.79944" lon="5.47811">
        <ele>657.7</ele>
        <time>2019-05-01T09:07:31Z</time>
      </trkpt>
      <trkpt lat="45.79941" lon="5.47812">
        <ele>657.7</ele>
        <time>2019-05-01T09:07:32Z</time>
      </trkpt>
      <trkpt lat="45.79937" lon="5.47813">
        <ele>657.6</ele>
        <time>2019-05-01T09:07:33Z</time>
      </trkpt>
      <trkpt lat="45.79931" lon="5.47814">
        <ele>657.6</ele>
        <time>2019-05-01T09:07:35Z</time>
      </trkpt>
      <trkpt lat="45.79925" lon="5.47815">
        <ele>657.4</ele>
        <time>2019-05-01T09:07:37Z</time>
      </trkpt>
      <trkpt lat="45.79921" lon="5.47816">
        <ele>657.4</ele>
        <time>2019-05-01T09:07:39Z</time>
      </trkpt>
      <trkpt lat="45.79917" lon="5.47817">
        <ele>657.4</ele>
        <time>2019-05-01T09:07:41Z</time>
      </trkpt>
      <trkpt lat="45.79916" lon="5.47817">
        <ele>657.4</ele>
        <time>2019-05-01T09:07:42Z</time>
      </trkpt>
      <trkpt lat="45.79914" lon="5.47817">
        <ele>657.4</ele>
        <time>2019-05-01T09:07:43Z</time>
      </trkpt>
      <trkpt lat="45.79905" lon="5.47818">
        <ele>657.3</ele>
        <time>2019-05-01T09:07:47Z</time>
      </trkpt>
      <trkpt lat="45.79902" lon="5.47818">
        <ele>657.4</ele>
        <time>2019-05-01T09:07:48Z</time>
      </trkpt>
      <trkpt lat="45.79887" lon="5.47822">
        <ele>657.1</ele>
        <time>2019-05-01T09:07:53Z</time>
      </trkpt>
      <trkpt lat="45.79884" lon="5.47823">
        <ele>657.1</ele>
        <time>2019-05-01T09:07:54Z</time>
      </trkpt>
      <trkpt lat="45.79862" lon="5.47827">
        <ele>656.7</ele>
        <time>2019-05-01T09:08:00Z</time>
      </trkpt>
      <trkpt lat="45.79847" lon="5.47829">
        <ele>656.5</ele>
        <time>2019-05-01T09:08:03Z</time>
      </trkpt>
      <trkpt lat="45.79841" lon="5.4783">
        <ele>656.5</ele>
        <time>2019-05-01T09:08:04Z</time>
      </trkpt>
      <trkpt lat="45.79824" lon="5.47833">
        <ele>656.5</ele>
        <time>2019-05-01T09:08:07Z</time>
      </trkpt>
      <trkpt lat="45.79814" lon="5.47837">
        <ele>656.5</ele>
        <time>2019-05-01T09:08:09Z</time>
      </trkpt>
      <trkpt lat="45.79787" lon="5.47846">
        <ele>657.4</ele>
        <time>2019-05-01T09:08:15Z</time>
      </trkpt>
      <trkpt lat="45.79771" lon="5.47851">
        <ele>658.1</ele>
        <time>2019-05-01T09:08:20Z</time>
      </trkpt>
      <trkpt lat="45.79751" lon="5.47855">
        <ele>657.7</ele>
        <time>2019-05-01T09:08:26Z</time>
      </trkpt>
      <trkpt lat="45.79725" lon="5.47864">
        <ele>655.7</ele>
        <time>2019-05-01T09:08:31Z</time>
      </trkpt>
      <trkpt lat="45.79691" lon="5.47876">
        <ele>653.5</ele>
        <time>2019-05-01T09:08:36Z</time>
      </trkpt>
      <trkpt lat="45.79669" lon="5.47886">
        <ele>651.7</ele>
        <time>2019-05-01T09:08:40Z</time>
      </trkpt>
      <trkpt lat="45.79643" lon="5.47897">
        <ele>648.9</ele>
        <time>2019-05-01T09:08:44Z</time>
      </trkpt>
      <trkpt lat="45.7963" lon="5.47902">
        <ele>647.9</ele>
        <time>2019-05-01T09:08:46Z</time>
      </trkpt>
      <trkpt lat="45.79611" lon="5.47907">
        <ele>646.6</ele>
        <time>2019-05-01T09:08:49Z</time>
      </trkpt>
      <trkpt lat="45.79574" lon="5.47915">
        <ele>642.2</ele>
        <time>2019-05-01T09:08:55Z</time>
      </trkpt>
      <trkpt lat="45.7955" lon="5.47923">
        <ele>640.4</ele>
        <time>2019-05-01T09:08:58Z</time>
      </trkpt>
      <trkpt lat="45.79526" lon="5.47932">
        <ele>639.2</ele>
        <time>2019-05-01T09:09:01Z</time>
      </trkpt>
      <trkpt lat="45.79492" lon="5.47944">
        <ele>638.1</ele>
        <time>2019-05-01T09:09:06Z</time>
      </trkpt>
      <trkpt lat="45.79467" lon="5.47955">
        <ele>637.6</ele>
        <time>2019-05-01T09:09:11Z</time>
      </trkpt>
      <trkpt lat="45.79462" lon="5.47957">
        <ele>637.2</ele>
        <time>2019-05-01T09:09:12Z</time>
      </trkpt>
      <trkpt lat="45.79433" lon="5.47965">
        <ele>634.3</ele>
        <time>2019-05-01T09:09:17Z</time>
      </trkpt>
      <trkpt lat="45.79396" lon="5.47979">
        <ele>632.6</ele>
        <time>2019-05-01T09:09:23Z</time>
      </trkpt>
      <trkpt lat="45.79391" lon="5.4798">
        <ele>631.9</ele>
        <time>2019-05-01T09:10:28Z</time>
      </trkpt>
      <trkpt lat="45.79389" lon="5.47981">
        <ele>631.4</ele>
        <time>2019-05-01T09:10:29Z</time>
      </trkpt>
      <trkpt lat="45.79385" lon="5.47982">
        <ele>630.6</ele>
        <time>2019-05-01T09:10:30Z</time>
      </trkpt>
      <trkpt lat="45.7938" lon="5.47983">
        <ele>629.6</ele>
        <time>2019-05-01T09:10:31Z</time>
      </trkpt>
      <trkpt lat="45.79376" lon="5.47984">
        <ele>628.4</ele>
        <time>2019-05-01T09:10:32Z</time>
      </trkpt>
      <trkpt lat="45.7937" lon="5.47986">
        <ele>626.9</ele>
        <time>2019-05-01T09:10:33Z</time>
      </trkpt>
      <trkpt lat="45.79362" lon="5.47988">
        <ele>625.4</ele>
        <time>2019-05-01T09:10:34Z</time>
      </trkpt>
      <trkpt lat="45.79354" lon="5.4799">
        <ele>624.3</ele>
        <time>2019-05-01T09:10:35Z</time>
      </trkpt>
      <trkpt lat="45.79347" lon="5.47992">
        <ele>623.3</ele>
        <time>2019-05-01T09:10:36Z</time>
      </trkpt>
      <trkpt lat="45.79339" lon="5.47994">
        <ele>622.6</ele>
        <time>2019-05-01T09:10:37Z</time>
      </trkpt>
      <trkpt lat="45.79333" lon="5.47995">
        <ele>621.6</ele>
        <time>2019-05-01T09:10:38Z</time>
      </trkpt>
      <trkpt lat="45.79327" lon="5.47997">
        <ele>620.7</ele>
        <time>2019-05-01T09:10:39Z</time>
      </trkpt>
      <trkpt lat="45.79321" lon="5.47999">
        <ele>619.8</ele>
        <time>2019-05-01T09:10:40Z</time>
      </trkpt>
      <trkpt lat="45.79317" lon="5.48">
        <ele>618.4</ele>
        <time>2019-05-01T09:10:41Z</time>
      </trkpt>
      <trkpt lat="45.79312" lon="5.48001">
        <ele>617.9</ele>
        <time>2019-05-01T09:10:42Z</time>
      </trkpt>
      <trkpt lat="45.79307" lon="5.48003">
        <ele>616.6</ele>
        <time>2019-05-01T09:10:43Z</time>
      </trkpt>
      <trkpt lat="45.79304" lon="5.48005">
        <ele>615.3</ele>
        <time>2019-05-01T09:10:44Z</time>
      </trkpt>
      <trkpt lat="45.79301" lon="5.48007">
        <ele>614.5</ele>
        <time>2019-05-01T09:10:45Z</time>
      </trkpt>
      <trkpt lat="45.79295" lon="5.48009">
        <ele>612.3</ele>
        <time>2019-05-01T09:10:47Z</time>
      </trkpt>
      <trkpt lat="45.79287" lon="5.48015">
        <ele>609.3</ele>
        <time>2019-05-01T09:10:51Z</time>
      </trkpt>
      <trkpt lat="45.79281" lon="5.48016">
        <ele>606.7</ele>
        <time>2019-05-01T09:10:53Z</time>
      </trkpt>
      <trkpt lat="45.79274" lon="5.48018">
        <ele>604.5</ele>
        <time>2019-05-01T09:10:55Z</time>
      </trkpt>
      <trkpt lat="45.79243" lon="5.48027">
        <ele>593.5</ele>
        <time>2019-05-01T09:11:00Z</time>
      </trkpt>
      <trkpt lat="45.7923" lon="5.48031">
        <ele>588.1</ele>
        <time>2019-05-01T09:11:02Z</time>
      </trkpt>
      <trkpt lat="45.79224" lon="5.48034">
        <ele>585.8</ele>
        <time>2019-05-01T09:11:03Z</time>
      </trkpt>
      <trkpt lat="45.7922" lon="5.48037">
        <ele>584.7</ele>
        <time>2019-05-01T09:11:04Z</time>
      </trkpt>
      <trkpt lat="45.79215" lon="5.4804">
        <ele>582.5</ele>
        <time>2019-05-01T09:11:05Z</time>
      </trkpt>
      <trkpt lat="45.7921" lon="5.48042">
        <ele>581.6</ele>
        <time>2019-05-01T09:11:06Z</time>
      </trkpt>
      <trkpt lat="45.79204" lon="5.48043">
        <ele>579.8</ele>
        <time>2019-05-01T09:11:07Z</time>
      </trkpt>
      <trkpt lat="45.79191" lon="5.48048">
        <ele>575.8</ele>
        <time>2019-05-01T09:11:09Z</time>
      </trkpt>
      <trkpt lat="45.7918" lon="5.48049">
        <ele>574.1</ele>
        <time>2019-05-01T09:11:11Z</time>
      </trkpt>
      <trkpt lat="45.79176" lon="5.48046">
        <ele>573.1</ele>
        <time>2019-05-01T09:11:13Z</time>
      </trkpt>
      <trkpt lat="45.79175" lon="5.48044">
        <ele>573.1</ele>
        <time>2019-05-01T09:11:14Z</time>
      </trkpt>
      <trkpt lat="45.79173" lon="5.48043">
        <ele>572.5</ele>
        <time>2019-05-01T09:11:16Z</time>
      </trkpt>
      <trkpt lat="45.7917" lon="5.48043">
        <ele>571.9</ele>
        <time>2019-05-01T09:11:17Z</time>
      </trkpt>
      <trkpt lat="45.79164" lon="5.48044">
        <ele>570.7</ele>
        <time>2019-05-01T09:11:19Z</time>
      </trkpt>
      <trkpt lat="45.79156" lon="5.48045">
        <ele>569.6</ele>
        <time>2019-05-01T09:11:21Z</time>
      </trkpt>
      <trkpt lat="45.79146" lon="5.48052">
        <ele>567.2</ele>
        <time>2019-05-01T09:11:24Z</time>
      </trkpt>
      <trkpt lat="45.79139" lon="5.48058">
        <ele>565.7</ele>
        <time>2019-05-01T09:11:26Z</time>
      </trkpt>
      <trkpt lat="45.79131" lon="5.48061">
        <ele>563.3</ele>
        <time>2019-05-01T09:11:28Z</time>
      </trkpt>
      <trkpt lat="45.79126" lon="5.4806">
        <ele>561.9</ele>
        <time>2019-05-01T09:11:30Z</time>
      </trkpt>
      <trkpt lat="45.79124" lon="5.48059">
        <ele>562.1</ele>
        <time>2019-05-01T09:11:31Z</time>
      </trkpt>
      <trkpt lat="45.79123" lon="5.48057">
        <ele>561.5</ele>
        <time>2019-05-01T09:11:32Z</time>
      </trkpt>
      <trkpt lat="45.79121" lon="5.48056">
        <ele>561.5</ele>
        <time>2019-05-01T09:11:34Z</time>
      </trkpt>
      <trkpt lat="45.79117" lon="5.48056">
        <ele>560.9</ele>
        <time>2019-05-01T09:11:42Z</time>
      </trkpt>
      <trkpt lat="45.79103" lon="5.48059">
        <ele>557.2</ele>
        <time>2019-05-01T09:12:15Z</time>
      </trkpt>
      <trkpt lat="45.791" lon="5.4806">
        <ele>556.6</ele>
        <time>2019-05-01T09:12:17Z</time>
      </trkpt>
      <trkpt lat="45.79095" lon="5.48062">
        <ele>555.4</ele>
        <time>2019-05-01T09:12:22Z</time>
      </trkpt>
      <trkpt lat="45.79093" lon="5.48063">
        <ele>555.5</ele>
        <time>2019-05-01T09:12:23Z</time>
      </trkpt>
      <trkpt lat="45.79092" lon="5.48065">
        <ele>554.6</ele>
        <time>2019-05-01T09:12:24Z</time>
      </trkpt>
      <trkpt lat="45.79088" lon="5.48071">
        <ele>553.6</ele>
        <time>2019-05-01T09:12:26Z</time>
      </trkpt>
      <trkpt lat="45.79084" lon="5.48077">
        <ele>551.9</ele>
        <time>2019-05-01T09:12:28Z</time>
      </trkpt>
      <trkpt lat="45.79079" lon="5.48083">
        <ele>549.7</ele>
        <time>2019-05-01T09:12:30Z</time>
      </trkpt>
      <trkpt lat="45.79076" lon="5.48086">
        <ele>548.3</ele>
        <time>2019-05-01T09:12:31Z</time>
      </trkpt>
      <trkpt lat="45.79074" lon="5.48088">
        <ele>547.6</ele>
        <time>2019-05-01T09:12:32Z</time>
      </trkpt>
      <trkpt lat="45.7907" lon="5.48089">
        <ele>546.1</ele>
        <time>2019-05-01T09:12:34Z</time>
      </trkpt>
      <trkpt lat="45.79065" lon="5.48088">
        <ele>545.6</ele>
        <time>2019-05-01T09:12:36Z</time>
      </trkpt>
      <trkpt lat="45.79059" lon="5.48087">
        <ele>544.2</ele>
        <time>2019-05-01T09:12:38Z</time>
      </trkpt>
      <trkpt lat="45.79053" lon="5.48088">
        <ele>542.7</ele>
        <time>2019-05-01T09:12:40Z</time>
      </trkpt>
      <trkpt lat="45.79045" lon="5.48091">
        <ele>540.3</ele>
        <time>2019-05-01T09:12:42Z</time>
      </trkpt>
      <trkpt lat="45.79039" lon="5.48093">
        <ele>539.1</ele>
        <time>2019-05-01T09:12:44Z</time>
      </trkpt>
      <trkpt lat="45.79037" lon="5.48093">
        <ele>538.5</ele>
        <time>2019-05-01T09:12:45Z</time>
      </trkpt>
      <trkpt lat="45.79033" lon="5.48093">
        <ele>537.3</ele>
        <time>2019-05-01T09:12:46Z</time>
      </trkpt>
      <trkpt lat="45.79031" lon="5.48094">
        <ele>536.6</ele>
        <time>2019-05-01T09:12:47Z</time>
      </trkpt>
      <trkpt lat="45.79022" lon="5.48096">
        <ele>534.5</ele>
        <time>2019-05-01T09:12:50Z</time>
      </trkpt>
      <trkpt lat="45.79019" lon="5.48097">
        <ele>533.8</ele>
        <time>2019-05-01T09:12:51Z</time>
      </trkpt>
      <trkpt lat="45.79016" lon="5.48097">
        <ele>533.3</ele>
        <time>2019-05-01T09:12:52Z</time>
      </trkpt>
      <trkpt lat="45.79012" lon="5.48098">
        <ele>532.8</ele>
        <time>2019-05-01T09:12:53Z</time>
      </trkpt>
      <trkpt lat="45.7901" lon="5.48099">
        <ele>531.9</ele>
        <time>2019-05-01T09:12:54Z</time>
      </trkpt>
      <trkpt lat="45.79008" lon="5.48099">
        <ele>531.3</ele>
        <time>2019-05-01T09:12:55Z</time>
      </trkpt>
      <trkpt lat="45.78999" lon="5.48095">
        <ele>529.4</ele>
        <time>2019-05-01T09:13:13Z</time>
      </trkpt>
      <trkpt lat="45.78994" lon="5.4809">
        <ele>528</ele>
        <time>2019-05-01T09:13:17Z</time>
      </trkpt>
      <trkpt lat="45.78992" lon="5.48089">
        <ele>528</ele>
        <time>2019-05-01T09:13:18Z</time>
      </trkpt>
      <trkpt lat="45.78991" lon="5.48088">
        <ele>527.1</ele>
        <time>2019-05-01T09:13:19Z</time>
      </trkpt>
      <trkpt lat="45.78989" lon="5.48088">
        <ele>527.1</ele>
        <time>2019-05-01T09:13:20Z</time>
      </trkpt>
      <trkpt lat="45.78988" lon="5.48088">
        <ele>526.3</ele>
        <time>2019-05-01T09:13:21Z</time>
      </trkpt>
      <trkpt lat="45.78986" lon="5.48088">
        <ele>526.3</ele>
        <time>2019-05-01T09:13:22Z</time>
      </trkpt>
      <trkpt lat="45.78985" lon="5.48088">
        <ele>525.5</ele>
        <time>2019-05-01T09:13:23Z</time>
      </trkpt>
      <trkpt lat="45.78983" lon="5.48087">
        <ele>525.5</ele>
        <time>2019-05-01T09:13:24Z</time>
      </trkpt>
      <trkpt lat="45.78965" lon="5.48099">
        <ele>520.6</ele>
        <time>2019-05-01T09:13:49Z</time>
      </trkpt>
      <trkpt lat="45.78961" lon="5.48101">
        <ele>518.8</ele>
        <time>2019-05-01T09:13:51Z</time>
      </trkpt>
      <trkpt lat="45.78959" lon="5.48102">
        <ele>519.1</ele>
        <time>2019-05-01T09:13:52Z</time>
      </trkpt>
      <trkpt lat="45.78957" lon="5.48104">
        <ele>518.4</ele>
        <time>2019-05-01T09:13:53Z</time>
      </trkpt>
      <trkpt lat="45.78952" lon="5.48106">
        <ele>517.6</ele>
        <time>2019-05-01T09:13:55Z</time>
      </trkpt>
      <trkpt lat="45.78948" lon="5.48107">
        <ele>516.2</ele>
        <time>2019-05-01T09:13:57Z</time>
      </trkpt>
      <trkpt lat="45.78942" lon="5.48106">
        <ele>514.3</ele>
        <time>2019-05-01T09:13:59Z</time>
      </trkpt>
      <trkpt lat="45.78933" lon="5.48105">
        <ele>511</ele>
        <time>2019-05-01T09:14:02Z</time>
      </trkpt>
      <trkpt lat="45.78927" lon="5.48103">
        <ele>509.2</ele>
        <time>2019-05-01T09:14:04Z</time>
      </trkpt>
      <trkpt lat="45.78924" lon="5.48103">
        <ele>508.2</ele>
        <time>2019-05-01T09:14:05Z</time>
      </trkpt>
      <trkpt lat="45.78915" lon="5.48109">
        <ele>505.6</ele>
        <time>2019-05-01T09:14:08Z</time>
      </trkpt>
      <trkpt lat="45.78912" lon="5.48114">
        <ele>505.3</ele>
        <time>2019-05-01T09:14:09Z</time>
      </trkpt>
      <trkpt lat="45.78906" lon="5.48126">
        <ele>505.4</ele>
        <time>2019-05-01T09:14:11Z</time>
      </trkpt>
      <trkpt lat="45.78895" lon="5.48142">
        <ele>503.3</ele>
        <time>2019-05-01T09:14:14Z</time>
      </trkpt>
      <trkpt lat="45.78885" lon="5.48151">
        <ele>500.7</ele>
        <time>2019-05-01T09:14:16Z</time>
      </trkpt>
      <trkpt lat="45.78876" lon="5.48159">
        <ele>498.2</ele>
        <time>2019-05-01T09:14:18Z</time>
      </trkpt>
      <trkpt lat="45.78866" lon="5.48163">
        <ele>495.8</ele>
        <time>2019-05-01T09:14:20Z</time>
      </trkpt>
      <trkpt lat="45.78861" lon="5.48164">
        <ele>494</ele>
        <time>2019-05-01T09:14:21Z</time>
      </trkpt>
      <trkpt lat="45.78855" lon="5.48169">
        <ele>492.4</ele>
        <time>2019-05-01T09:14:22Z</time>
      </trkpt>
      <trkpt lat="45.78843" lon="5.48178">
        <ele>490.1</ele>
        <time>2019-05-01T09:14:24Z</time>
      </trkpt>
      <trkpt lat="45.78838" lon="5.48183">
        <ele>488.9</ele>
        <time>2019-05-01T09:14:25Z</time>
      </trkpt>
      <trkpt lat="45.78834" lon="5.48189">
        <ele>488.4</ele>
        <time>2019-05-01T09:14:26Z</time>
      </trkpt>
      <trkpt lat="45.78826" lon="5.482">
        <ele>486.6</ele>
        <time>2019-05-01T09:14:28Z</time>
      </trkpt>
      <trkpt lat="45.78814" lon="5.48209">
        <ele>484.4</ele>
        <time>2019-05-01T09:14:30Z</time>
      </trkpt>
      <trkpt lat="45.78808" lon="5.48214">
        <ele>482.8</ele>
        <time>2019-05-01T09:14:31Z</time>
      </trkpt>
      <trkpt lat="45.78802" lon="5.48219">
        <ele>481</ele>
        <time>2019-05-01T09:14:32Z</time>
      </trkpt>
      <trkpt lat="45.78796" lon="5.48223">
        <ele>479.4</ele>
        <time>2019-05-01T09:14:33Z</time>
      </trkpt>
      <trkpt lat="45.78789" lon="5.48226">
        <ele>478.4</ele>
        <time>2019-05-01T09:14:34Z</time>
      </trkpt>
      <trkpt lat="45.78775" lon="5.48232">
        <ele>474.3</ele>
        <time>2019-05-01T09:14:36Z</time>
      </trkpt>
      <trkpt lat="45.78769" lon="5.48236">
        <ele>472.6</ele>
        <time>2019-05-01T09:14:37Z</time>
      </trkpt>
      <trkpt lat="45.78763" lon="5.48238">
        <ele>471.6</ele>
        <time>2019-05-01T09:14:38Z</time>
      </trkpt>
      <trkpt lat="45.78759" lon="5.48242">
        <ele>470.4</ele>
        <time>2019-05-01T09:14:39Z</time>
      </trkpt>
      <trkpt lat="45.78756" lon="5.48245">
        <ele>469.1</ele>
        <time>2019-05-01T09:14:40Z</time>
      </trkpt>
      <trkpt lat="45.78755" lon="5.48248">
        <ele>468.5</ele>
        <time>2019-05-01T09:14:41Z</time>
      </trkpt>
      <trkpt lat="45.78754" lon="5.48252">
        <ele>466.9</ele>
        <time>2019-05-01T09:14:43Z</time>
      </trkpt>
      <trkpt lat="45.78758" lon="5.48255">
        <ele>468</ele>
        <time>2019-05-01T09:14:45Z</time>
      </trkpt>
      <trkpt lat="45.78763" lon="5.48259">
        <ele>467.5</ele>
        <time>2019-05-01T09:14:47Z</time>
      </trkpt>
      <trkpt lat="45.78768" lon="5.48264">
        <ele>467.2</ele>
        <time>2019-05-01T09:14:49Z</time>
      </trkpt>
      <trkpt lat="45.78777" lon="5.48268">
        <ele>467.1</ele>
        <time>2019-05-01T09:14:52Z</time>
      </trkpt>
      <trkpt lat="45.78781" lon="5.4827">
        <ele>466.1</ele>
        <time>2019-05-01T09:14:53Z</time>
      </trkpt>
      <trkpt lat="45.78785" lon="5.48271">
        <ele>466.3</ele>
        <time>2019-05-01T09:14:54Z</time>
      </trkpt>
      <trkpt lat="45.78796" lon="5.48272">
        <ele>467</ele>
        <time>2019-05-01T09:14:57Z</time>
      </trkpt>
      <trkpt lat="45.78803" lon="5.48272">
        <ele>467.6</ele>
        <time>2019-05-01T09:14:59Z</time>
      </trkpt>
      <trkpt lat="45.78813" lon="5.48274">
        <ele>466.3</ele>
        <time>2019-05-01T09:15:02Z</time>
      </trkpt>
      <trkpt lat="45.78816" lon="5.48276">
        <ele>466.4</ele>
        <time>2019-05-01T09:15:03Z</time>
      </trkpt>
      <trkpt lat="45.78822" lon="5.4828">
        <ele>464.8</ele>
        <time>2019-05-01T09:15:05Z</time>
      </trkpt>
      <trkpt lat="45.78828" lon="5.48282">
        <ele>463.1</ele>
        <time>2019-05-01T09:15:07Z</time>
      </trkpt>
      <trkpt lat="45.78832" lon="5.48283">
        <ele>463.1</ele>
        <time>2019-05-01T09:15:08Z</time>
      </trkpt>
      <trkpt lat="45.78842" lon="5.48285">
        <ele>462.9</ele>
        <time>2019-05-01T09:15:11Z</time>
      </trkpt>
      <trkpt lat="45.78845" lon="5.48286">
        <ele>462.8</ele>
        <time>2019-05-01T09:15:12Z</time>
      </trkpt>
      <trkpt lat="45.78852" lon="5.4829">
        <ele>460.5</ele>
        <time>2019-05-01T09:15:14Z</time>
      </trkpt>
      <trkpt lat="45.78859" lon="5.48296">
        <ele>455.9</ele>
        <time>2019-05-01T09:15:16Z</time>
      </trkpt>
      <trkpt lat="45.78865" lon="5.48299">
        <ele>455.4</ele>
        <time>2019-05-01T09:15:18Z</time>
      </trkpt>
      <trkpt lat="45.78871" lon="5.48303">
        <ele>452.9</ele>
        <time>2019-05-01T09:15:21Z</time>
      </trkpt>
      <trkpt lat="45.78874" lon="5.48305">
        <ele>450.6</ele>
        <time>2019-05-01T09:15:22Z</time>
      </trkpt>
      <trkpt lat="45.78884" lon="5.48307">
        <ele>449.8</ele>
        <time>2019-05-01T09:15:25Z</time>
      </trkpt>
      <trkpt lat="45.78888" lon="5.48309">
        <ele>447.7</ele>
        <time>2019-05-01T09:15:26Z</time>
      </trkpt>
      <trkpt lat="45.78893" lon="5.4831">
        <ele>447.3</ele>
        <time>2019-05-01T09:15:27Z</time>
      </trkpt>
      <trkpt lat="45.78899" lon="5.48312">
        <ele>447</ele>
        <time>2019-05-01T09:15:29Z</time>
      </trkpt>
      <trkpt lat="45.78901" lon="5.48312">
        <ele>447</ele>
        <time>2019-05-01T09:15:30Z</time>
      </trkpt>
      <trkpt lat="45.78905" lon="5.48313">
        <ele>444.8</ele>
        <time>2019-05-01T09:15:32Z</time>
      </trkpt>
      <trkpt lat="45.78911" lon="5.48315">
        <ele>444.5</ele>
        <time>2019-05-01T09:15:34Z</time>
      </trkpt>
      <trkpt lat="45.78914" lon="5.48315">
        <ele>444.3</ele>
        <time>2019-05-01T09:15:35Z</time>
      </trkpt>
      <trkpt lat="45.78922" lon="5.48316">
        <ele>443.8</ele>
        <time>2019-05-01T09:15:37Z</time>
      </trkpt>
      <trkpt lat="45.78935" lon="5.48318">
        <ele>441.3</ele>
        <time>2019-05-01T09:15:40Z</time>
      </trkpt>
      <trkpt lat="45.78949" lon="5.48322">
        <ele>439</ele>
        <time>2019-05-01T09:15:43Z</time>
      </trkpt>
      <trkpt lat="45.78958" lon="5.48324">
        <ele>438.3</ele>
        <time>2019-05-01T09:15:45Z</time>
      </trkpt>
      <trkpt lat="45.78962" lon="5.48325">
        <ele>437.9</ele>
        <time>2019-05-01T09:15:46Z</time>
      </trkpt>
      <trkpt lat="45.78972" lon="5.48329">
        <ele>435.7</ele>
        <time>2019-05-01T09:15:49Z</time>
      </trkpt>
      <trkpt lat="45.78983" lon="5.48334">
        <ele>432.2</ele>
        <time>2019-05-01T09:15:52Z</time>
      </trkpt>
      <trkpt lat="45.78986" lon="5.48335">
        <ele>432.2</ele>
        <time>2019-05-01T09:15:53Z</time>
      </trkpt>
      <trkpt lat="45.7899" lon="5.48337">
        <ele>432.1</ele>
        <time>2019-05-01T09:15:54Z</time>
      </trkpt>
      <trkpt lat="45.78992" lon="5.48341">
        <ele>430.8</ele>
        <time>2019-05-01T09:15:55Z</time>
      </trkpt>
      <trkpt lat="45.78996" lon="5.48347">
        <ele>428.6</ele>
        <time>2019-05-01T09:15:57Z</time>
      </trkpt>
      <trkpt lat="45.78996" lon="5.48359">
        <ele>426.7</ele>
        <time>2019-05-01T09:15:59Z</time>
      </trkpt>
      <trkpt lat="45.78997" lon="5.48365">
        <ele>425.3</ele>
        <time>2019-05-01T09:16:00Z</time>
      </trkpt>
      <trkpt lat="45.78999" lon="5.48369">
        <ele>424.8</ele>
        <time>2019-05-01T09:16:01Z</time>
      </trkpt>
      <trkpt lat="45.79002" lon="5.48369">
        <ele>424.7</ele>
        <time>2019-05-01T09:16:02Z</time>
      </trkpt>
      <trkpt lat="45.79004" lon="5.48369">
        <ele>424.6</ele>
        <time>2019-05-01T09:16:03Z</time>
      </trkpt>
      <trkpt lat="45.79006" lon="5.48371">
        <ele>424.5</ele>
        <time>2019-05-01T09:16:04Z</time>
      </trkpt>
      <trkpt lat="45.79007" lon="5.48374">
        <ele>424.4</ele>
        <time>2019-05-01T09:16:06Z</time>
      </trkpt>
      <trkpt lat="45.79004" lon="5.48375">
        <ele>424.3</ele>
        <time>2019-05-01T09:16:07Z</time>
      </trkpt>
      <trkpt lat="45.78998" lon="5.48376">
        <ele>424.1</ele>
        <time>2019-05-01T09:16:09Z</time>
      </trkpt>
      <trkpt lat="45.78991" lon="5.48378">
        <ele>423.8</ele>
        <time>2019-05-01T09:16:11Z</time>
      </trkpt>
      <trkpt lat="45.78984" lon="5.48379">
        <ele>423.5</ele>
        <time>2019-05-01T09:16:13Z</time>
      </trkpt>
      <trkpt lat="45.78978" lon="5.48382">
        <ele>423.3</ele>
        <time>2019-05-01T09:16:15Z</time>
      </trkpt>
      <trkpt lat="45.78975" lon="5.48384">
        <ele>421.6</ele>
        <time>2019-05-01T09:16:16Z</time>
      </trkpt>
      <trkpt lat="45.78974" lon="5.48388">
        <ele>421.3</ele>
        <time>2019-05-01T09:16:17Z</time>
      </trkpt>
      <trkpt lat="45.78975" lon="5.48393">
        <ele>420.9</ele>
        <time>2019-05-01T09:16:18Z</time>
      </trkpt>
      <trkpt lat="45.78977" lon="5.48399">
        <ele>420.5</ele>
        <time>2019-05-01T09:16:19Z</time>
      </trkpt>
      <trkpt lat="45.78982" lon="5.48411">
        <ele>419.5</ele>
        <time>2019-05-01T09:16:21Z</time>
      </trkpt>
      <trkpt lat="45.78989" lon="5.48425">
        <ele>418.3</ele>
        <time>2019-05-01T09:16:23Z</time>
      </trkpt>
      <trkpt lat="45.78993" lon="5.48432">
        <ele>417.7</ele>
        <time>2019-05-01T09:16:24Z</time>
      </trkpt>
      <trkpt lat="45.79003" lon="5.48446">
        <ele>416.5</ele>
        <time>2019-05-01T09:16:26Z</time>
      </trkpt>
      <trkpt lat="45.79007" lon="5.48454">
        <ele>415.9</ele>
        <time>2019-05-01T09:16:27Z</time>
      </trkpt>
      <trkpt lat="45.79011" lon="5.48462">
        <ele>415.3</ele>
        <time>2019-05-01T09:16:28Z</time>
      </trkpt>
      <trkpt lat="45.79021" lon="5.48476">
        <ele>414.1</ele>
        <time>2019-05-01T09:16:30Z</time>
      </trkpt>
      <trkpt lat="45.79026" lon="5.48484">
        <ele>413.3</ele>
        <time>2019-05-01T09:16:31Z</time>
      </trkpt>
      <trkpt lat="45.79031" lon="5.48492">
        <ele>412.6</ele>
        <time>2019-05-01T09:16:32Z</time>
      </trkpt>
      <trkpt lat="45.7904" lon="5.48508">
        <ele>411.1</ele>
        <time>2019-05-01T09:16:34Z</time>
      </trkpt>
      <trkpt lat="45.79054" lon="5.48532">
        <ele>408.9</ele>
        <time>2019-05-01T09:16:37Z</time>
      </trkpt>
      <trkpt lat="45.79064" lon="5.48547">
        <ele>407.4</ele>
        <time>2019-05-01T09:16:39Z</time>
      </trkpt>
      <trkpt lat="45.79068" lon="5.48555">
        <ele>406.7</ele>
        <time>2019-05-01T09:16:40Z</time>
      </trkpt>
      <trkpt lat="45.79073" lon="5.48563">
        <ele>406</ele>
        <time>2019-05-01T09:16:41Z</time>
      </trkpt>
      <trkpt lat="45.79086" lon="5.48589">
        <ele>403.5</ele>
        <time>2019-05-01T09:16:45Z</time>
      </trkpt>
      <trkpt lat="45.79089" lon="5.48596">
        <ele>403.6</ele>
        <time>2019-05-01T09:16:47Z</time>
      </trkpt>
      <trkpt lat="45.7909" lon="5.48597">
        <ele>403.6</ele>
        <time>2019-05-01T09:16:48Z</time>
      </trkpt>
      <trkpt lat="45.79089" lon="5.48598">
        <ele>403.6</ele>
        <time>2019-05-01T09:16:49Z</time>
      </trkpt>
      <trkpt lat="45.79085" lon="5.48593">
        <ele>403.7</ele>
        <time>2019-05-01T09:18:40Z</time>
      </trkpt>
      <trkpt lat="45.79083" lon="5.48593">
        <ele>403.7</ele>
        <time>2019-05-01T09:18:41Z</time>
      </trkpt>
      <trkpt lat="45.79077" lon="5.48593">
        <ele>403.8</ele>
        <time>2019-05-01T09:18:43Z</time>
      </trkpt>
      <trkpt lat="45.79073" lon="5.48594">
        <ele>403.9</ele>
        <time>2019-05-01T09:18:44Z</time>
      </trkpt>
      <trkpt lat="45.79068" lon="5.48594">
        <ele>404</ele>
        <time>2019-05-01T09:18:45Z</time>
      </trkpt>
      <trkpt lat="45.7905" lon="5.48592">
        <ele>404.4</ele>
        <time>2019-05-01T09:18:48Z</time>
      </trkpt>
      <trkpt lat="45.79043" lon="5.48589">
        <ele>404.5</ele>
        <time>2019-05-01T09:18:49Z</time>
      </trkpt>
      <trkpt lat="45.79035" lon="5.48587">
        <ele>404.2</ele>
        <time>2019-05-01T09:18:50Z</time>
      </trkpt>
      <trkpt lat="45.79017" lon="5.48585">
        <ele>402.9</ele>
        <time>2019-05-01T09:18:52Z</time>
      </trkpt>
      <trkpt lat="45.79007" lon="5.48587">
        <ele>401.6</ele>
        <time>2019-05-01T09:18:53Z</time>
      </trkpt>
      <trkpt lat="45.78998" lon="5.48591">
        <ele>400.4</ele>
        <time>2019-05-01T09:18:54Z</time>
      </trkpt>
      <trkpt lat="45.78979" lon="5.48595">
        <ele>398.3</ele>
        <time>2019-05-01T09:18:56Z</time>
      </trkpt>
      <trkpt lat="45.78968" lon="5.48594">
        <ele>397.2</ele>
        <time>2019-05-01T09:18:57Z</time>
      </trkpt>
      <trkpt lat="45.78958" lon="5.48593">
        <ele>395.8</ele>
        <time>2019-05-01T09:18:58Z</time>
      </trkpt>
      <trkpt lat="45.78938" lon="5.48596">
        <ele>392.8</ele>
        <time>2019-05-01T09:19:00Z</time>
      </trkpt>
      <trkpt lat="45.78921" lon="5.48601">
        <ele>391.5</ele>
        <time>2019-05-01T09:19:02Z</time>
      </trkpt>
      <trkpt lat="45.78906" lon="5.48603">
        <ele>390.4</ele>
        <time>2019-05-01T09:19:04Z</time>
      </trkpt>
      <trkpt lat="45.78899" lon="5.486">
        <ele>389.9</ele>
        <time>2019-05-01T09:19:05Z</time>
      </trkpt>
      <trkpt lat="45.78889" lon="5.48587">
        <ele>391.4</ele>
        <time>2019-05-01T09:19:07Z</time>
      </trkpt>
      <trkpt lat="45.78883" lon="5.48579">
        <ele>392.5</ele>
        <time>2019-05-01T09:19:08Z</time>
      </trkpt>
      <trkpt lat="45.78868" lon="5.48564">
        <ele>393.2</ele>
        <time>2019-05-01T09:19:10Z</time>
      </trkpt>
      <trkpt lat="45.78859" lon="5.4856">
        <ele>393</ele>
        <time>2019-05-01T09:19:11Z</time>
      </trkpt>
      <trkpt lat="45.78851" lon="5.48556">
        <ele>390.8</ele>
        <time>2019-05-01T09:19:12Z</time>
      </trkpt>
      <trkpt lat="45.78832" lon="5.48548">
        <ele>389.3</ele>
        <time>2019-05-01T09:19:14Z</time>
      </trkpt>
      <trkpt lat="45.78812" lon="5.48536">
        <ele>389</ele>
        <time>2019-05-01T09:19:16Z</time>
      </trkpt>
      <trkpt lat="45.78791" lon="5.48523">
        <ele>388.1</ele>
        <time>2019-05-01T09:19:18Z</time>
      </trkpt>
      <trkpt lat="45.7877" lon="5.48517">
        <ele>388.8</ele>
        <time>2019-05-01T09:19:20Z</time>
      </trkpt>
      <trkpt lat="45.7874" lon="5.48513">
        <ele>385.8</ele>
        <time>2019-05-01T09:19:23Z</time>
      </trkpt>
      <trkpt lat="45.7873" lon="5.4851">
        <ele>384.4</ele>
        <time>2019-05-01T09:19:24Z</time>
      </trkpt>
      <trkpt lat="45.7872" lon="5.48507">
        <ele>384.1</ele>
        <time>2019-05-01T09:19:25Z</time>
      </trkpt>
      <trkpt lat="45.787" lon="5.48499">
        <ele>383.1</ele>
        <time>2019-05-01T09:19:27Z</time>
      </trkpt>
      <trkpt lat="45.7868" lon="5.48492">
        <ele>382.3</ele>
        <time>2019-05-01T09:19:29Z</time>
      </trkpt>
      <trkpt lat="45.78661" lon="5.48483">
        <ele>381.3</ele>
        <time>2019-05-01T09:19:31Z</time>
      </trkpt>
      <trkpt lat="45.78651" lon="5.48479">
        <ele>381.1</ele>
        <time>2019-05-01T09:19:32Z</time>
      </trkpt>
      <trkpt lat="45.78642" lon="5.48475">
        <ele>380.3</ele>
        <time>2019-05-01T09:19:33Z</time>
      </trkpt>
      <trkpt lat="45.78626" lon="5.48469">
        <ele>377</ele>
        <time>2019-05-01T09:19:35Z</time>
      </trkpt>
      <trkpt lat="45.78618" lon="5.48464">
        <ele>377</ele>
        <time>2019-05-01T09:19:36Z</time>
      </trkpt>
      <trkpt lat="45.78611" lon="5.48459">
        <ele>376.4</ele>
        <time>2019-05-01T09:19:37Z</time>
      </trkpt>
      <trkpt lat="45.78597" lon="5.48449">
        <ele>377.2</ele>
        <time>2019-05-01T09:19:39Z</time>
      </trkpt>
      <trkpt lat="45.78591" lon="5.48444">
        <ele>377.1</ele>
        <time>2019-05-01T09:19:40Z</time>
      </trkpt>
      <trkpt lat="45.78585" lon="5.48441">
        <ele>375.6</ele>
        <time>2019-05-01T09:19:41Z</time>
      </trkpt>
      <trkpt lat="45.78572" lon="5.48434">
        <ele>373.6</ele>
        <time>2019-05-01T09:19:43Z</time>
      </trkpt>
      <trkpt lat="45.7856" lon="5.48424">
        <ele>372.4</ele>
        <time>2019-05-01T09:19:45Z</time>
      </trkpt>
      <trkpt lat="45.78548" lon="5.48413">
        <ele>372.7</ele>
        <time>2019-05-01T09:19:47Z</time>
      </trkpt>
      <trkpt lat="45.78537" lon="5.48402">
        <ele>371.9</ele>
        <time>2019-05-01T09:19:49Z</time>
      </trkpt>
      <trkpt lat="45.78522" lon="5.48387">
        <ele>369.5</ele>
        <time>2019-05-01T09:19:52Z</time>
      </trkpt>
      <trkpt lat="45.78506" lon="5.48366">
        <ele>366.8</ele>
        <time>2019-05-01T09:19:56Z</time>
      </trkpt>
      <trkpt lat="45.78503" lon="5.4836">
        <ele>366.1</ele>
        <time>2019-05-01T09:19:57Z</time>
      </trkpt>
      <trkpt lat="45.785" lon="5.48354">
        <ele>365.9</ele>
        <time>2019-05-01T09:19:58Z</time>
      </trkpt>
      <trkpt lat="45.78496" lon="5.48344">
        <ele>365.6</ele>
        <time>2019-05-01T09:20:00Z</time>
      </trkpt>
      <trkpt lat="45.78494" lon="5.48331">
        <ele>365.6</ele>
        <time>2019-05-01T09:20:02Z</time>
      </trkpt>
      <trkpt lat="45.78494" lon="5.48324">
        <ele>366.4</ele>
        <time>2019-05-01T09:20:03Z</time>
      </trkpt>
      <trkpt lat="45.78498" lon="5.48304">
        <ele>369.9</ele>
        <time>2019-05-01T09:20:06Z</time>
      </trkpt>
      <trkpt lat="45.785" lon="5.48296">
        <ele>369.9</ele>
        <time>2019-05-01T09:20:07Z</time>
      </trkpt>
      <trkpt lat="45.78503" lon="5.48279">
        <ele>371</ele>
        <time>2019-05-01T09:20:09Z</time>
      </trkpt>
      <trkpt lat="45.78505" lon="5.48265">
        <ele>371.7</ele>
        <time>2019-05-01T09:20:11Z</time>
      </trkpt>
      <trkpt lat="45.78507" lon="5.48258">
        <ele>372.8</ele>
        <time>2019-05-01T09:20:12Z</time>
      </trkpt>
      <trkpt lat="45.78511" lon="5.48239">
        <ele>373.5</ele>
        <time>2019-05-01T09:20:15Z</time>
      </trkpt>
      <trkpt lat="45.78514" lon="5.48226">
        <ele>374.7</ele>
        <time>2019-05-01T09:20:17Z</time>
      </trkpt>
      <trkpt lat="45.78516" lon="5.48199">
        <ele>375.7</ele>
        <time>2019-05-01T09:20:21Z</time>
      </trkpt>
      <trkpt lat="45.78517" lon="5.48186">
        <ele>375.2</ele>
        <time>2019-05-01T09:20:23Z</time>
      </trkpt>
      <trkpt lat="45.78516" lon="5.4818">
        <ele>374.9</ele>
        <time>2019-05-01T09:20:24Z</time>
      </trkpt>
      <trkpt lat="45.78517" lon="5.48163">
        <ele>372.9</ele>
        <time>2019-05-01T09:20:27Z</time>
      </trkpt>
      <trkpt lat="45.78517" lon="5.48157">
        <ele>371.8</ele>
        <time>2019-05-01T09:20:28Z</time>
      </trkpt>
      <trkpt lat="45.78521" lon="5.48136">
        <ele>369.6</ele>
        <time>2019-05-01T09:20:33Z</time>
      </trkpt>
      <trkpt lat="45.78522" lon="5.48133">
        <ele>370.8</ele>
        <time>2019-05-01T09:20:34Z</time>
      </trkpt>
      <trkpt lat="45.78529" lon="5.48116">
        <ele>369.3</ele>
        <time>2019-05-01T09:20:37Z</time>
      </trkpt>
      <trkpt lat="45.78537" lon="5.48095">
        <ele>366.5</ele>
        <time>2019-05-01T09:20:40Z</time>
      </trkpt>
      <trkpt lat="45.78544" lon="5.48085">
        <ele>365.6</ele>
        <time>2019-05-01T09:20:42Z</time>
      </trkpt>
      <trkpt lat="45.7855" lon="5.48076">
        <ele>363.7</ele>
        <time>2019-05-01T09:20:44Z</time>
      </trkpt>
      <trkpt lat="45.78554" lon="5.48074">
        <ele>364.4</ele>
        <time>2019-05-01T09:20:45Z</time>
      </trkpt>
      <trkpt lat="45.78558" lon="5.48071">
        <ele>364.8</ele>
        <time>2019-05-01T09:20:46Z</time>
      </trkpt>
      <trkpt lat="45.78567" lon="5.48061">
        <ele>364.9</ele>
        <time>2019-05-01T09:20:48Z</time>
      </trkpt>
      <trkpt lat="45.78577" lon="5.48051">
        <ele>364.8</ele>
        <time>2019-05-01T09:20:50Z</time>
      </trkpt>
      <trkpt lat="45.7858" lon="5.48045">
        <ele>363.7</ele>
        <time>2019-05-01T09:20:51Z</time>
      </trkpt>
      <trkpt lat="45.78581" lon="5.48039">
        <ele>362.8</ele>
        <time>2019-05-01T09:20:52Z</time>
      </trkpt>
      <trkpt lat="45.78581" lon="5.48031">
        <ele>360.7</ele>
        <time>2019-05-01T09:20:53Z</time>
      </trkpt>
      <trkpt lat="45.78581" lon="5.48023">
        <ele>359.1</ele>
        <time>2019-05-01T09:20:54Z</time>
      </trkpt>
      <trkpt lat="45.78581" lon="5.48015">
        <ele>356.2</ele>
        <time>2019-05-01T09:20:55Z</time>
      </trkpt>
      <trkpt lat="45.7858" lon="5.48006">
        <ele>354</ele>
        <time>2019-05-01T09:20:56Z</time>
      </trkpt>
      <trkpt lat="45.78578" lon="5.47996">
        <ele>351</ele>
        <time>2019-05-01T09:20:57Z</time>
      </trkpt>
      <trkpt lat="45.78577" lon="5.47986">
        <ele>347.4</ele>
        <time>2019-05-01T09:20:58Z</time>
      </trkpt>
      <trkpt lat="45.78575" lon="5.47966">
        <ele>342.9</ele>
        <time>2019-05-01T09:21:00Z</time>
      </trkpt>
      <trkpt lat="45.78575" lon="5.47957">
        <ele>340</ele>
        <time>2019-05-01T09:21:01Z</time>
      </trkpt>
      <trkpt lat="45.78575" lon="5.47947">
        <ele>337.7</ele>
        <time>2019-05-01T09:21:02Z</time>
      </trkpt>
      <trkpt lat="45.78576" lon="5.47937">
        <ele>335.3</ele>
        <time>2019-05-01T09:21:03Z</time>
      </trkpt>
      <trkpt lat="45.78578" lon="5.47929">
        <ele>333.1</ele>
        <time>2019-05-01T09:21:04Z</time>
      </trkpt>
      <trkpt lat="45.7858" lon="5.4792">
        <ele>331.9</ele>
        <time>2019-05-01T09:21:05Z</time>
      </trkpt>
      <trkpt lat="45.78583" lon="5.47912">
        <ele>330.7</ele>
        <time>2019-05-01T09:21:06Z</time>
      </trkpt>
      <trkpt lat="45.78586" lon="5.47904">
        <ele>329.4</ele>
        <time>2019-05-01T09:21:07Z</time>
      </trkpt>
      <trkpt lat="45.78589" lon="5.47896">
        <ele>329.2</ele>
        <time>2019-05-01T09:21:08Z</time>
      </trkpt>
      <trkpt lat="45.78591" lon="5.47889">
        <ele>327.6</ele>
        <time>2019-05-01T09:21:09Z</time>
      </trkpt>
      <trkpt lat="45.78593" lon="5.47884">
        <ele>327.3</ele>
        <time>2019-05-01T09:21:10Z</time>
      </trkpt>
      <trkpt lat="45.78596" lon="5.47879">
        <ele>326.2</ele>
        <time>2019-05-01T09:21:11Z</time>
      </trkpt>
      <trkpt lat="45.78603" lon="5.47869">
        <ele>325.7</ele>
        <time>2019-05-01T09:21:15Z</time>
      </trkpt>
      <trkpt lat="45.78605" lon="5.47865">
        <ele>324.6</ele>
        <time>2019-05-01T09:21:17Z</time>
      </trkpt>
      <trkpt lat="45.78607" lon="5.47858">
        <ele>324.6</ele>
        <time>2019-05-01T09:21:19Z</time>
      </trkpt>
      <trkpt lat="45.78609" lon="5.47854">
        <ele>324.7</ele>
        <time>2019-05-01T09:21:20Z</time>
      </trkpt>
      <trkpt lat="45.7861" lon="5.47851">
        <ele>323.6</ele>
        <time>2019-05-01T09:21:21Z</time>
      </trkpt>
      <trkpt lat="45.78612" lon="5.47848">
        <ele>323.9</ele>
        <time>2019-05-01T09:21:22Z</time>
      </trkpt>
      <trkpt lat="45.78612" lon="5.47844">
        <ele>322.9</ele>
        <time>2019-05-01T09:21:23Z</time>
      </trkpt>
      <trkpt lat="45.7861" lon="5.47843">
        <ele>321.7</ele>
        <time>2019-05-01T09:21:31Z</time>
      </trkpt>
      <trkpt lat="45.78604" lon="5.47847">
        <ele>320.4</ele>
        <time>2019-05-01T09:21:34Z</time>
      </trkpt>
      <trkpt lat="45.78594" lon="5.47854">
        <ele>319.8</ele>
        <time>2019-05-01T09:21:37Z</time>
      </trkpt>
      <trkpt lat="45.78586" lon="5.47856">
        <ele>316.8</ele>
        <time>2019-05-01T09:21:39Z</time>
      </trkpt>
      <trkpt lat="45.78582" lon="5.47855">
        <ele>315.8</ele>
        <time>2019-05-01T09:21:40Z</time>
      </trkpt>
      <trkpt lat="45.78574" lon="5.47857">
        <ele>312.9</ele>
        <time>2019-05-01T09:21:42Z</time>
      </trkpt>
      <trkpt lat="45.7857" lon="5.47859">
        <ele>313.4</ele>
        <time>2019-05-01T09:21:43Z</time>
      </trkpt>
      <trkpt lat="45.78566" lon="5.4786">
        <ele>311.8</ele>
        <time>2019-05-01T09:21:44Z</time>
      </trkpt>
      <trkpt lat="45.78561" lon="5.47859">
        <ele>311</ele>
        <time>2019-05-01T09:21:46Z</time>
      </trkpt>
      <trkpt lat="45.7856" lon="5.47858">
        <ele>311.1</ele>
        <time>2019-05-01T09:21:47Z</time>
      </trkpt>
      <trkpt lat="45.78561" lon="5.47857">
        <ele>311.2</ele>
        <time>2019-05-01T09:21:48Z</time>
      </trkpt>
      <trkpt lat="45.78563" lon="5.47854">
        <ele>311.3</ele>
        <time>2019-05-01T09:21:50Z</time>
      </trkpt>
      <trkpt lat="45.78568" lon="5.4785">
        <ele>311.5</ele>
        <time>2019-05-01T09:21:52Z</time>
      </trkpt>
      <trkpt lat="45.78573" lon="5.47843">
        <ele>311.7</ele>
        <time>2019-05-01T09:21:54Z</time>
      </trkpt>
      <trkpt lat="45.78581" lon="5.47834">
        <ele>312</ele>
        <time>2019-05-01T09:21:57Z</time>
      </trkpt>
      <trkpt lat="45.78597" lon="5.47814">
        <ele>312.3</ele>
        <time>2019-05-01T09:22:03Z</time>
      </trkpt>
      <trkpt lat="45.78615" lon="5.47787">
        <ele>312.4</ele>
        <time>2019-05-01T09:22:09Z</time>
      </trkpt>
      <trkpt lat="45.78621" lon="5.47774">
        <ele>312.4</ele>
        <time>2019-05-01T09:22:11Z</time>
      </trkpt>
      <trkpt lat="45.78625" lon="5.47768">
        <ele>312.4</ele>
        <time>2019-05-01T09:22:12Z</time>
      </trkpt>
      <trkpt lat="45.78635" lon="5.47756">
        <ele>312.3</ele>
        <time>2019-05-01T09:22:14Z</time>
      </trkpt>
      <trkpt lat="45.78645" lon="5.47744">
        <ele>312.4</ele>
        <time>2019-05-01T09:22:16Z</time>
      </trkpt>
      <trkpt lat="45.78663" lon="5.47722">
        <ele>313.9</ele>
        <time>2019-05-01T09:22:20Z</time>
      </trkpt>
      <trkpt lat="45.78685" lon="5.4769">
        <ele>314</ele>
        <time>2019-05-01T09:22:26Z</time>
      </trkpt>
      <trkpt lat="45.78719" lon="5.47641">
        <ele>311.5</ele>
        <time>2019-05-01T09:22:34Z</time>
      </trkpt>
      <trkpt lat="45.78724" lon="5.47635">
        <ele>311.2</ele>
        <time>2019-05-01T09:22:35Z</time>
      </trkpt>
      <trkpt lat="45.78729" lon="5.4763">
        <ele>311</ele>
        <time>2019-05-01T09:22:36Z</time>
      </trkpt>
      <trkpt lat="45.78733" lon="5.47625">
        <ele>310.8</ele>
        <time>2019-05-01T09:22:37Z</time>
      </trkpt>
      <trkpt lat="45.78736" lon="5.47621">
        <ele>310.7</ele>
        <time>2019-05-01T09:22:38Z</time>
      </trkpt>
      <trkpt lat="45.78733" lon="5.47612">
        <ele>310.6</ele>
        <time>2019-05-01T09:22:40Z</time>
      </trkpt>
      <trkpt lat="45.78724" lon="5.47613">
        <ele>309.5</ele>
        <time>2019-05-01T09:22:42Z</time>
      </trkpt>
      <trkpt lat="45.78717" lon="5.47617">
        <ele>308.7</ele>
        <time>2019-05-01T09:22:43Z</time>
      </trkpt>
      <trkpt lat="45.7871" lon="5.4762">
        <ele>307.5</ele>
        <time>2019-05-01T09:22:44Z</time>
      </trkpt>
      <trkpt lat="45.78702" lon="5.47625">
        <ele>306.6</ele>
        <time>2019-05-01T09:22:45Z</time>
      </trkpt>
      <trkpt lat="45.78686" lon="5.47633">
        <ele>304.9</ele>
        <time>2019-05-01T09:22:47Z</time>
      </trkpt>
      <trkpt lat="45.78669" lon="5.47641">
        <ele>302.9</ele>
        <time>2019-05-01T09:22:49Z</time>
      </trkpt>
      <trkpt lat="45.78653" lon="5.47649">
        <ele>300.8</ele>
        <time>2019-05-01T09:22:51Z</time>
      </trkpt>
      <trkpt lat="45.78646" lon="5.47653">
        <ele>299.9</ele>
        <time>2019-05-01T09:22:52Z</time>
      </trkpt>
      <trkpt lat="45.78641" lon="5.47659">
        <ele>299.3</ele>
        <time>2019-05-01T09:22:53Z</time>
      </trkpt>
      <trkpt lat="45.7863" lon="5.47674">
        <ele>298</ele>
        <time>2019-05-01T09:22:55Z</time>
      </trkpt>
      <trkpt lat="45.7862" lon="5.47687">
        <ele>295.2</ele>
        <time>2019-05-01T09:22:57Z</time>
      </trkpt>
      <trkpt lat="45.78616" lon="5.47691">
        <ele>294</ele>
        <time>2019-05-01T09:22:58Z</time>
      </trkpt>
      <trkpt lat="45.78611" lon="5.47694">
        <ele>292.8</ele>
        <time>2019-05-01T09:22:59Z</time>
      </trkpt>
      <trkpt lat="45.78606" lon="5.47697">
        <ele>291.3</ele>
        <time>2019-05-01T09:23:00Z</time>
      </trkpt>
      <trkpt lat="45.78602" lon="5.477">
        <ele>289.8</ele>
        <time>2019-05-01T09:23:01Z</time>
      </trkpt>
      <trkpt lat="45.78596" lon="5.47704">
        <ele>288</ele>
        <time>2019-05-01T09:23:02Z</time>
      </trkpt>
      <trkpt lat="45.78589" lon="5.47707">
        <ele>286.8</ele>
        <time>2019-05-01T09:23:03Z</time>
      </trkpt>
      <trkpt lat="45.78583" lon="5.4771">
        <ele>285.7</ele>
        <time>2019-05-01T09:23:04Z</time>
      </trkpt>
      <trkpt lat="45.78569" lon="5.47714">
        <ele>282.6</ele>
        <time>2019-05-01T09:23:06Z</time>
      </trkpt>
      <trkpt lat="45.78556" lon="5.47717">
        <ele>281</ele>
        <time>2019-05-01T09:23:08Z</time>
      </trkpt>
      <trkpt lat="45.78551" lon="5.47716">
        <ele>279.7</ele>
        <time>2019-05-01T09:23:09Z</time>
      </trkpt>
      <trkpt lat="45.78541" lon="5.47706">
        <ele>276.5</ele>
        <time>2019-05-01T09:23:11Z</time>
      </trkpt>
      <trkpt lat="45.78536" lon="5.477">
        <ele>274.7</ele>
        <time>2019-05-01T09:23:12Z</time>
      </trkpt>
      <trkpt lat="45.78531" lon="5.47691">
        <ele>273.2</ele>
        <time>2019-05-01T09:23:13Z</time>
      </trkpt>
      <trkpt lat="45.78526" lon="5.47682">
        <ele>271.7</ele>
        <time>2019-05-01T09:23:14Z</time>
      </trkpt>
      <trkpt lat="45.78521" lon="5.47674">
        <ele>270.3</ele>
        <time>2019-05-01T09:23:15Z</time>
      </trkpt>
      <trkpt lat="45.78515" lon="5.47665">
        <ele>268.9</ele>
        <time>2019-05-01T09:23:16Z</time>
      </trkpt>
      <trkpt lat="45.78511" lon="5.47655">
        <ele>267.6</ele>
        <time>2019-05-01T09:23:17Z</time>
      </trkpt>
      <trkpt lat="45.78507" lon="5.47646">
        <ele>266.3</ele>
        <time>2019-05-01T09:23:18Z</time>
      </trkpt>
      <trkpt lat="45.78504" lon="5.47638">
        <ele>264.8</ele>
        <time>2019-05-01T09:23:19Z</time>
      </trkpt>
      <trkpt lat="45.78502" lon="5.47631">
        <ele>264.1</ele>
        <time>2019-05-01T09:23:20Z</time>
      </trkpt>
      <trkpt lat="45.78501" lon="5.47625">
        <ele>263.1</ele>
        <time>2019-05-01T09:23:21Z</time>
      </trkpt>
      <trkpt lat="45.78503" lon="5.47621">
        <ele>262.7</ele>
        <time>2019-05-01T09:23:22Z</time>
      </trkpt>
      <trkpt lat="45.78507" lon="5.47617">
        <ele>262.7</ele>
        <time>2019-05-01T09:23:23Z</time>
      </trkpt>
      <trkpt lat="45.78516" lon="5.47608">
        <ele>262.4</ele>
        <time>2019-05-01T09:23:25Z</time>
      </trkpt>
      <trkpt lat="45.78521" lon="5.47604">
        <ele>262.3</ele>
        <time>2019-05-01T09:23:26Z</time>
      </trkpt>
      <trkpt lat="45.78526" lon="5.47598">
        <ele>262.3</ele>
        <time>2019-05-01T09:23:27Z</time>
      </trkpt>
      <trkpt lat="45.78531" lon="5.47593">
        <ele>262.4</ele>
        <time>2019-05-01T09:23:28Z</time>
      </trkpt>
      <trkpt lat="45.78536" lon="5.47588">
        <ele>262.3</ele>
        <time>2019-05-01T09:23:29Z</time>
      </trkpt>
      <trkpt lat="45.78549" lon="5.47572">
        <ele>261.7</ele>
        <time>2019-05-01T09:23:32Z</time>
      </trkpt>
      <trkpt lat="45.78562" lon="5.47556">
        <ele>261.3</ele>
        <time>2019-05-01T09:23:35Z</time>
      </trkpt>
      <trkpt lat="45.78584" lon="5.4753">
        <ele>259.9</ele>
        <time>2019-05-01T09:23:40Z</time>
      </trkpt>
      <trkpt lat="45.78594" lon="5.4752">
        <ele>259.9</ele>
        <time>2019-05-01T09:23:42Z</time>
      </trkpt>
      <trkpt lat="45.78603" lon="5.47512">
        <ele>259.9</ele>
        <time>2019-05-01T09:23:44Z</time>
      </trkpt>
      <trkpt lat="45.7861" lon="5.47502">
        <ele>259.7</ele>
        <time>2019-05-01T09:23:46Z</time>
      </trkpt>
      <trkpt lat="45.7863" lon="5.47471">
        <ele>257.9</ele>
        <time>2019-05-01T09:23:52Z</time>
      </trkpt>
      <trkpt lat="45.78634" lon="5.47466">
        <ele>257.9</ele>
        <time>2019-05-01T09:23:53Z</time>
      </trkpt>
      <trkpt lat="45.78647" lon="5.47449">
        <ele>258.8</ele>
        <time>2019-05-01T09:23:57Z</time>
      </trkpt>
      <trkpt lat="45.78651" lon="5.47444">
        <ele>258.9</ele>
        <time>2019-05-01T09:23:58Z</time>
      </trkpt>
      <trkpt lat="45.78669" lon="5.47422">
        <ele>259.8</ele>
        <time>2019-05-01T09:24:03Z</time>
      </trkpt>
      <trkpt lat="45.78683" lon="5.47404">
        <ele>260.2</ele>
        <time>2019-05-01T09:24:08Z</time>
      </trkpt>
      <trkpt lat="45.78686" lon="5.47406">
        <ele>260.6</ele>
        <time>2019-05-01T09:24:10Z</time>
      </trkpt>
      <trkpt lat="45.78688" lon="5.4741">
        <ele>261</ele>
        <time>2019-05-01T09:24:11Z</time>
      </trkpt>
      <trkpt lat="45.78694" lon="5.4742">
        <ele>262.2</ele>
        <time>2019-05-01T09:24:16Z</time>
      </trkpt>
      <trkpt lat="45.78703" lon="5.47423">
        <ele>263.4</ele>
        <time>2019-05-01T09:24:21Z</time>
      </trkpt>
      <trkpt lat="45.78707" lon="5.47423">
        <ele>263.9</ele>
        <time>2019-05-01T09:24:23Z</time>
      </trkpt>
      <trkpt lat="45.7871" lon="5.47422">
        <ele>264.5</ele>
        <time>2019-05-01T09:24:25Z</time>
      </trkpt>
      <trkpt lat="45.78717" lon="5.47415">
        <ele>265.8</ele>
        <time>2019-05-01T09:24:29Z</time>
      </trkpt>
      <trkpt lat="45.78723" lon="5.4741">
        <ele>266.7</ele>
        <time>2019-05-01T09:24:32Z</time>
      </trkpt>
      <trkpt lat="45.78728" lon="5.47405">
        <ele>267.5</ele>
        <time>2019-05-01T09:24:35Z</time>
      </trkpt>
      <trkpt lat="45.7873" lon="5.47403">
        <ele>267.7</ele>
        <time>2019-05-01T09:24:36Z</time>
      </trkpt>
      <trkpt lat="45.78737" lon="5.47395">
        <ele>268.7</ele>
        <time>2019-05-01T09:24:40Z</time>
      </trkpt>
      <trkpt lat="45.78743" lon="5.4739">
        <ele>269.4</ele>
        <time>2019-05-01T09:24:43Z</time>
      </trkpt>
      <trkpt lat="45.78745" lon="5.47388">
        <ele>269.6</ele>
        <time>2019-05-01T09:24:44Z</time>
      </trkpt>
      <trkpt lat="45.78752" lon="5.47381">
        <ele>270.4</ele>
        <time>2019-05-01T09:24:48Z</time>
      </trkpt>
      <trkpt lat="45.78756" lon="5.47377">
        <ele>270.7</ele>
        <time>2019-05-01T09:24:50Z</time>
      </trkpt>
      <trkpt lat="45.78759" lon="5.47374">
        <ele>271</ele>
        <time>2019-05-01T09:24:52Z</time>
      </trkpt>
      <trkpt lat="45.78767" lon="5.47368">
        <ele>271.7</ele>
        <time>2019-05-01T09:24:56Z</time>
      </trkpt>
      <trkpt lat="45.78771" lon="5.47366">
        <ele>272</ele>
        <time>2019-05-01T09:24:58Z</time>
      </trkpt>
      <trkpt lat="45.78774" lon="5.47364">
        <ele>272.2</ele>
        <time>2019-05-01T09:25:00Z</time>
      </trkpt>
      <trkpt lat="45.7878" lon="5.47359">
        <ele>272.6</ele>
        <time>2019-05-01T09:25:03Z</time>
      </trkpt>
      <trkpt lat="45.78783" lon="5.47357">
        <ele>272.9</ele>
        <time>2019-05-01T09:25:05Z</time>
      </trkpt>
      <trkpt lat="45.78786" lon="5.47354">
        <ele>273.1</ele>
        <time>2019-05-01T09:25:07Z</time>
      </trkpt>
      <trkpt lat="45.78791" lon="5.47351">
        <ele>273.4</ele>
        <time>2019-05-01T09:25:09Z</time>
      </trkpt>
      <trkpt lat="45.78794" lon="5.47348">
        <ele>273.7</ele>
        <time>2019-05-01T09:25:11Z</time>
      </trkpt>
      <trkpt lat="45.788" lon="5.47343">
        <ele>274</ele>
        <time>2019-05-01T09:25:14Z</time>
      </trkpt>
      <trkpt lat="45.78806" lon="5.47339">
        <ele>274.4</ele>
        <time>2019-05-01T09:25:17Z</time>
      </trkpt>
      <trkpt lat="45.7881" lon="5.47336">
        <ele>274.6</ele>
        <time>2019-05-01T09:25:19Z</time>
      </trkpt>
      <trkpt lat="45.78814" lon="5.47333">
        <ele>274.9</ele>
        <time>2019-05-01T09:25:21Z</time>
      </trkpt>
      <trkpt lat="45.78817" lon="5.4733">
        <ele>275.1</ele>
        <time>2019-05-01T09:25:23Z</time>
      </trkpt>
      <trkpt lat="45.78819" lon="5.47329">
        <ele>275.2</ele>
        <time>2019-05-01T09:25:24Z</time>
      </trkpt>
      <trkpt lat="45.78824" lon="5.47326">
        <ele>275.4</ele>
        <time>2019-05-01T09:25:27Z</time>
      </trkpt>
      <trkpt lat="45.78827" lon="5.47323">
        <ele>275.6</ele>
        <time>2019-05-01T09:25:29Z</time>
      </trkpt>
      <trkpt lat="45.78829" lon="5.47321">
        <ele>275.6</ele>
        <time>2019-05-01T09:25:30Z</time>
      </trkpt>
      <trkpt lat="45.78835" lon="5.47317">
        <ele>275.9</ele>
        <time>2019-05-01T09:25:33Z</time>
      </trkpt>
      <trkpt lat="45.78841" lon="5.47312">
        <ele>276.2</ele>
        <time>2019-05-01T09:25:36Z</time>
      </trkpt>
      <trkpt lat="45.78848" lon="5.47303">
        <ele>277</ele>
        <time>2019-05-01T09:25:42Z</time>
      </trkpt>
      <trkpt lat="45.78857" lon="5.47283">
        <ele>275.3</ele>
        <time>2019-05-01T09:25:47Z</time>
      </trkpt>
      <trkpt lat="45.78859" lon="5.47277">
        <ele>273.8</ele>
        <time>2019-05-01T09:25:48Z</time>
      </trkpt>
      <trkpt lat="45.78866" lon="5.47265">
        <ele>272.9</ele>
        <time>2019-05-01T09:25:49Z</time>
      </trkpt>
      <trkpt lat="45.78871" lon="5.47253">
        <ele>271.1</ele>
        <time>2019-05-01T09:25:50Z</time>
      </trkpt>
      <trkpt lat="45.78888" lon="5.47196">
        <ele>267.2</ele>
        <time>2019-05-01T09:25:54Z</time>
      </trkpt>
      <trkpt lat="45.78908" lon="5.47123">
        <ele>260.5</ele>
        <time>2019-05-01T09:25:59Z</time>
      </trkpt>
      <trkpt lat="45.78927" lon="5.47077">
        <ele>257.9</ele>
        <time>2019-05-01T09:26:02Z</time>
      </trkpt>
      <trkpt lat="45.78934" lon="5.47061">
        <ele>256.6</ele>
        <time>2019-05-01T09:26:03Z</time>
      </trkpt>
      <trkpt lat="45.78941" lon="5.47048">
        <ele>256</ele>
        <time>2019-05-01T09:26:04Z</time>
      </trkpt>
      <trkpt lat="45.78953" lon="5.4702">
        <ele>252.6</ele>
        <time>2019-05-01T09:26:06Z</time>
      </trkpt>
      <trkpt lat="45.78958" lon="5.47006">
        <ele>250.7</ele>
        <time>2019-05-01T09:26:07Z</time>
      </trkpt>
      <trkpt lat="45.7896" lon="5.46993">
        <ele>248.6</ele>
        <time>2019-05-01T09:26:08Z</time>
      </trkpt>
      <trkpt lat="45.78964" lon="5.46965">
        <ele>244.6</ele>
        <time>2019-05-01T09:26:10Z</time>
      </trkpt>
      <trkpt lat="45.78967" lon="5.46952">
        <ele>243.1</ele>
        <time>2019-05-01T09:26:11Z</time>
      </trkpt>
      <trkpt lat="45.78972" lon="5.4694">
        <ele>241.4</ele>
        <time>2019-05-01T09:26:12Z</time>
      </trkpt>
      <trkpt lat="45.78977" lon="5.46928">
        <ele>240.7</ele>
        <time>2019-05-01T09:26:13Z</time>
      </trkpt>
      <trkpt lat="45.78983" lon="5.46917">
        <ele>240.3</ele>
        <time>2019-05-01T09:26:14Z</time>
      </trkpt>
      <trkpt lat="45.7899" lon="5.46905">
        <ele>240.3</ele>
        <time>2019-05-01T09:26:15Z</time>
      </trkpt>
      <trkpt lat="45.78997" lon="5.46894">
        <ele>239.8</ele>
        <time>2019-05-01T09:26:16Z</time>
      </trkpt>
      <trkpt lat="45.79004" lon="5.46882">
        <ele>239.8</ele>
        <time>2019-05-01T09:26:17Z</time>
      </trkpt>
      <trkpt lat="45.79011" lon="5.4687">
        <ele>239.3</ele>
        <time>2019-05-01T09:26:18Z</time>
      </trkpt>
      <trkpt lat="45.79024" lon="5.46847">
        <ele>238.9</ele>
        <time>2019-05-01T09:26:20Z</time>
      </trkpt>
      <trkpt lat="45.79037" lon="5.46823">
        <ele>238.2</ele>
        <time>2019-05-01T09:26:22Z</time>
      </trkpt>
      <trkpt lat="45.79048" lon="5.468">
        <ele>236.5</ele>
        <time>2019-05-01T09:26:24Z</time>
      </trkpt>
      <trkpt lat="45.79053" lon="5.4679">
        <ele>236.3</ele>
        <time>2019-05-01T09:26:25Z</time>
      </trkpt>
      <trkpt lat="45.79057" lon="5.46782">
        <ele>236.2</ele>
        <time>2019-05-01T09:26:26Z</time>
      </trkpt>
      <trkpt lat="45.79065" lon="5.46766">
        <ele>236.1</ele>
        <time>2019-05-01T09:26:28Z</time>
      </trkpt>
      <trkpt lat="45.79069" lon="5.46759">
        <ele>236.1</ele>
        <time>2019-05-01T09:26:29Z</time>
      </trkpt>
      <trkpt lat="45.79073" lon="5.46752">
        <ele>236.1</ele>
        <time>2019-05-01T09:26:30Z</time>
      </trkpt>
      <trkpt lat="45.7908" lon="5.46736">
        <ele>236.1</ele>
        <time>2019-05-01T09:26:32Z</time>
      </trkpt>
      <trkpt lat="45.79089" lon="5.46712">
        <ele>236.2</ele>
        <time>2019-05-01T09:26:35Z</time>
      </trkpt>
      <trkpt lat="45.79096" lon="5.46698">
        <ele>236.2</ele>
        <time>2019-05-01T09:26:37Z</time>
      </trkpt>
      <trkpt lat="45.79103" lon="5.46686">
        <ele>236.1</ele>
        <time>2019-05-01T09:26:39Z</time>
      </trkpt>
      <trkpt lat="45.79108" lon="5.46681">
        <ele>236.1</ele>
        <time>2019-05-01T09:26:40Z</time>
      </trkpt>
      <trkpt lat="45.79112" lon="5.46675">
        <ele>235.9</ele>
        <time>2019-05-01T09:26:41Z</time>
      </trkpt>
      <trkpt lat="45.79117" lon="5.46668">
        <ele>235.7</ele>
        <time>2019-05-01T09:26:42Z</time>
      </trkpt>
      <trkpt lat="45.79122" lon="5.46662">
        <ele>235.4</ele>
        <time>2019-05-01T09:26:43Z</time>
      </trkpt>
      <trkpt lat="45.7913" lon="5.4665">
        <ele>234.4</ele>
        <time>2019-05-01T09:26:45Z</time>
      </trkpt>
      <trkpt lat="45.79138" lon="5.46639">
        <ele>233.3</ele>
        <time>2019-05-01T09:26:47Z</time>
      </trkpt>
      <trkpt lat="45.79143" lon="5.46634">
        <ele>232.8</ele>
        <time>2019-05-01T09:26:48Z</time>
      </trkpt>
      <trkpt lat="45.79147" lon="5.46628">
        <ele>232.4</ele>
        <time>2019-05-01T09:26:49Z</time>
      </trkpt>
      <trkpt lat="45.79158" lon="5.46616">
        <ele>231.9</ele>
        <time>2019-05-01T09:26:51Z</time>
      </trkpt>
      <trkpt lat="45.79163" lon="5.46609">
        <ele>231.7</ele>
        <time>2019-05-01T09:26:52Z</time>
      </trkpt>
      <trkpt lat="45.79173" lon="5.46596">
        <ele>231.3</ele>
        <time>2019-05-01T09:26:54Z</time>
      </trkpt>
      <trkpt lat="45.79185" lon="5.46583">
        <ele>230.8</ele>
        <time>2019-05-01T09:26:56Z</time>
      </trkpt>
      <trkpt lat="45.79196" lon="5.46571">
        <ele>230.2</ele>
        <time>2019-05-01T09:26:58Z</time>
      </trkpt>
      <trkpt lat="45.79207" lon="5.46559">
        <ele>229.6</ele>
        <time>2019-05-01T09:27:00Z</time>
      </trkpt>
      <trkpt lat="45.79217" lon="5.46546">
        <ele>229</ele>
        <time>2019-05-01T09:27:02Z</time>
      </trkpt>
      <trkpt lat="45.79228" lon="5.46533">
        <ele>228.4</ele>
        <time>2019-05-01T09:27:04Z</time>
      </trkpt>
      <trkpt lat="45.79239" lon="5.46521">
        <ele>227.9</ele>
        <time>2019-05-01T09:27:06Z</time>
      </trkpt>
      <trkpt lat="45.79254" lon="5.46504">
        <ele>227.5</ele>
        <time>2019-05-01T09:27:09Z</time>
      </trkpt>
      <trkpt lat="45.79259" lon="5.46498">
        <ele>227.5</ele>
        <time>2019-05-01T09:27:10Z</time>
      </trkpt>
      <trkpt lat="45.79274" lon="5.46483">
        <ele>227.5</ele>
        <time>2019-05-01T09:27:13Z</time>
      </trkpt>
      <trkpt lat="45.79292" lon="5.46464">
        <ele>227.5</ele>
        <time>2019-05-01T09:27:17Z</time>
      </trkpt>
      <trkpt lat="45.79297" lon="5.46459">
        <ele>227.5</ele>
        <time>2019-05-01T09:27:18Z</time>
      </trkpt>
      <trkpt lat="45.79326" lon="5.4643">
        <ele>226.9</ele>
        <time>2019-05-01T09:27:25Z</time>
      </trkpt>
      <trkpt lat="45.7933" lon="5.46426">
        <ele>226.8</ele>
        <time>2019-05-01T09:27:26Z</time>
      </trkpt>
      <trkpt lat="45.79364" lon="5.4639">
        <ele>225.7</ele>
        <time>2019-05-01T09:27:34Z</time>
      </trkpt>
      <trkpt lat="45.79368" lon="5.46385">
        <ele>225.6</ele>
        <time>2019-05-01T09:27:35Z</time>
      </trkpt>
      <trkpt lat="45.79391" lon="5.46349">
        <ele>224.7</ele>
        <time>2019-05-01T09:27:41Z</time>
      </trkpt>
      <trkpt lat="45.79416" lon="5.46311">
        <ele>224.7</ele>
        <time>2019-05-01T09:27:47Z</time>
      </trkpt>
      <trkpt lat="45.79429" lon="5.46293">
        <ele>224.7</ele>
        <time>2019-05-01T09:27:50Z</time>
      </trkpt>
      <trkpt lat="45.79436" lon="5.46282">
        <ele>224.7</ele>
        <time>2019-05-01T09:27:52Z</time>
      </trkpt>
      <trkpt lat="45.79448" lon="5.46266">
        <ele>224.8</ele>
        <time>2019-05-01T09:27:55Z</time>
      </trkpt>
      <trkpt lat="45.79473" lon="5.46231">
        <ele>225.6</ele>
        <time>2019-05-01T09:28:02Z</time>
      </trkpt>
      <trkpt lat="45.7948" lon="5.46221">
        <ele>225.7</ele>
        <time>2019-05-01T09:28:04Z</time>
      </trkpt>
      <trkpt lat="45.79488" lon="5.46211">
        <ele>225.8</ele>
        <time>2019-05-01T09:28:07Z</time>
      </trkpt>
      <trkpt lat="45.79493" lon="5.46192">
        <ele>225.9</ele>
        <time>2019-05-01T09:28:12Z</time>
      </trkpt>
      <trkpt lat="45.7949" lon="5.4618">
        <ele>225.3</ele>
        <time>2019-05-01T09:28:15Z</time>
      </trkpt>
      <trkpt lat="45.79487" lon="5.46178">
        <ele>225.3</ele>
        <time>2019-05-01T09:28:16Z</time>
      </trkpt>
      <trkpt lat="45.79478" lon="5.46181">
        <ele>225.4</ele>
        <time>2019-05-01T09:28:19Z</time>
      </trkpt>
      <trkpt lat="45.7946" lon="5.46182">
        <ele>226.1</ele>
        <time>2019-05-01T09:28:25Z</time>
      </trkpt>
      <trkpt lat="45.79446" lon="5.46169">
        <ele>226.5</ele>
        <time>2019-05-01T09:28:30Z</time>
      </trkpt>
      <trkpt lat="45.79442" lon="5.46158">
        <ele>226.5</ele>
        <time>2019-05-01T09:28:32Z</time>
      </trkpt>
      <trkpt lat="45.79436" lon="5.46139">
        <ele>226.5</ele>
        <time>2019-05-01T09:28:35Z</time>
      </trkpt>
      <trkpt lat="45.79416" lon="5.46095">
        <ele>226.4</ele>
        <time>2019-05-01T09:28:42Z</time>
      </trkpt>
      <trkpt lat="45.79398" lon="5.46055">
        <ele>226.3</ele>
        <time>2019-05-01T09:28:48Z</time>
      </trkpt>
      <trkpt lat="45.7937" lon="5.46007">
        <ele>225.3</ele>
        <time>2019-05-01T09:28:55Z</time>
      </trkpt>
      <trkpt lat="45.79355" lon="5.45986">
        <ele>224.7</ele>
        <time>2019-05-01T09:28:58Z</time>
      </trkpt>
      <trkpt lat="45.79346" lon="5.45972">
        <ele>224.1</ele>
        <time>2019-05-01T09:29:00Z</time>
      </trkpt>
      <trkpt lat="45.79341" lon="5.45965">
        <ele>223.8</ele>
        <time>2019-05-01T09:29:01Z</time>
      </trkpt>
      <trkpt lat="45.79313" lon="5.45922">
        <ele>222.6</ele>
        <time>2019-05-01T09:29:07Z</time>
      </trkpt>
      <trkpt lat="45.79304" lon="5.45909">
        <ele>222.5</ele>
        <time>2019-05-01T09:29:09Z</time>
      </trkpt>
      <trkpt lat="45.79272" lon="5.45862">
        <ele>221.7</ele>
        <time>2019-05-01T09:29:16Z</time>
      </trkpt>
      <trkpt lat="45.7926" lon="5.45834">
        <ele>221</ele>
        <time>2019-05-01T09:29:19Z</time>
      </trkpt>
      <trkpt lat="45.79254" lon="5.45813">
        <ele>220.6</ele>
        <time>2019-05-01T09:29:21Z</time>
      </trkpt>
      <trkpt lat="45.7925" lon="5.45792">
        <ele>220.6</ele>
        <time>2019-05-01T09:29:23Z</time>
      </trkpt>
      <trkpt lat="45.7924" lon="5.45763">
        <ele>220.1</ele>
        <time>2019-05-01T09:29:26Z</time>
      </trkpt>
      <trkpt lat="45.79232" lon="5.45744">
        <ele>219.8</ele>
        <time>2019-05-01T09:29:28Z</time>
      </trkpt>
      <trkpt lat="45.79217" lon="5.45707">
        <ele>218.8</ele>
        <time>2019-05-01T09:29:32Z</time>
      </trkpt>
      <trkpt lat="45.79213" lon="5.45698">
        <ele>218.6</ele>
        <time>2019-05-01T09:29:33Z</time>
      </trkpt>
      <trkpt lat="45.79195" lon="5.45647">
        <ele>217.6</ele>
        <time>2019-05-01T09:29:39Z</time>
      </trkpt>
      <trkpt lat="45.7917" lon="5.45595">
        <ele>216.4</ele>
        <time>2019-05-01T09:29:46Z</time>
      </trkpt>
      <trkpt lat="45.79146" lon="5.45559">
        <ele>215.6</ele>
        <time>2019-05-01T09:29:51Z</time>
      </trkpt>
      <trkpt lat="45.79142" lon="5.4555">
        <ele>215.4</ele>
        <time>2019-05-01T09:29:52Z</time>
      </trkpt>
      <trkpt lat="45.79139" lon="5.45541">
        <ele>215.2</ele>
        <time>2019-05-01T09:29:53Z</time>
      </trkpt>
      <trkpt lat="45.79125" lon="5.45503">
        <ele>214.3</ele>
        <time>2019-05-01T09:29:57Z</time>
      </trkpt>
      <trkpt lat="45.79107" lon="5.45448">
        <ele>213.4</ele>
        <time>2019-05-01T09:30:03Z</time>
      </trkpt>
      <trkpt lat="45.79103" lon="5.4544">
        <ele>213.3</ele>
        <time>2019-05-01T09:30:04Z</time>
      </trkpt>
      <trkpt lat="45.79086" lon="5.45394">
        <ele>212.7</ele>
        <time>2019-05-01T09:30:09Z</time>
      </trkpt>
      <trkpt lat="45.7907" lon="5.45361">
        <ele>212.4</ele>
        <time>2019-05-01T09:30:13Z</time>
      </trkpt>
      <trkpt lat="45.79041" lon="5.45298">
        <ele>211.5</ele>
        <time>2019-05-01T09:30:20Z</time>
      </trkpt>
      <trkpt lat="45.79037" lon="5.4529">
        <ele>211.3</ele>
        <time>2019-05-01T09:30:21Z</time>
      </trkpt>
      <trkpt lat="45.79011" lon="5.45232">
        <ele>210.7</ele>
        <time>2019-05-01T09:30:28Z</time>
      </trkpt>
      <trkpt lat="45.79008" lon="5.45225">
        <ele>210.6</ele>
        <time>2019-05-01T09:30:29Z</time>
      </trkpt>
      <trkpt lat="45.79002" lon="5.45208">
        <ele>210.5</ele>
        <time>2019-05-01T09:30:32Z</time>
      </trkpt>
      <trkpt lat="45.79003" lon="5.45203">
        <ele>210.5</ele>
        <time>2019-05-01T09:30:33Z</time>
      </trkpt>
      <trkpt lat="45.7901" lon="5.45198">
        <ele>210.6</ele>
        <time>2019-05-01T09:30:35Z</time>
      </trkpt>
      <trkpt lat="45.79024" lon="5.4519">
        <ele>210.7</ele>
        <time>2019-05-01T09:30:38Z</time>
      </trkpt>
      <trkpt lat="45.79029" lon="5.45186">
        <ele>210.7</ele>
        <time>2019-05-01T09:30:39Z</time>
      </trkpt>
      <trkpt lat="45.79059" lon="5.45169">
        <ele>211</ele>
        <time>2019-05-01T09:30:45Z</time>
      </trkpt>
      <trkpt lat="45.79104" lon="5.45143">
        <ele>211.4</ele>
        <time>2019-05-01T09:30:53Z</time>
      </trkpt>
      <trkpt lat="45.79146" lon="5.45122">
        <ele>211.9</ele>
        <time>2019-05-01T09:31:01Z</time>
      </trkpt>
      <trkpt lat="45.79151" lon="5.45121">
        <ele>212</ele>
        <time>2019-05-01T09:31:02Z</time>
      </trkpt>
      <trkpt lat="45.79183" lon="5.4511">
        <ele>212.1</ele>
        <time>2019-05-01T09:31:08Z</time>
      </trkpt>
      <trkpt lat="45.79207" lon="5.45094">
        <ele>212</ele>
        <time>2019-05-01T09:31:12Z</time>
      </trkpt>
      <trkpt lat="45.79211" lon="5.45088">
        <ele>212</ele>
        <time>2019-05-01T09:31:13Z</time>
      </trkpt>
      <trkpt lat="45.79215" lon="5.45071">
        <ele>211.6</ele>
        <time>2019-05-01T09:31:16Z</time>
      </trkpt>
      <trkpt lat="45.79208" lon="5.45064">
        <ele>210.9</ele>
        <time>2019-05-01T09:31:19Z</time>
      </trkpt>
      <trkpt lat="45.792" lon="5.45058">
        <ele>210.3</ele>
        <time>2019-05-01T09:31:24Z</time>
      </trkpt>
      <trkpt lat="45.79198" lon="5.45056">
        <ele>210.2</ele>
        <time>2019-05-01T09:31:25Z</time>
      </trkpt>
      <trkpt lat="45.79186" lon="5.45042">
        <ele>209.9</ele>
        <time>2019-05-01T09:31:30Z</time>
      </trkpt>
      <trkpt lat="45.79185" lon="5.45034">
        <ele>209.8</ele>
        <time>2019-05-01T09:31:32Z</time>
      </trkpt>
      <trkpt lat="45.79185" lon="5.4503">
        <ele>209.8</ele>
        <time>2019-05-01T09:31:33Z</time>
      </trkpt>
      <trkpt lat="45.79182" lon="5.45016">
        <ele>209.7</ele>
        <time>2019-05-01T09:31:36Z</time>
      </trkpt>
      <trkpt lat="45.79181" lon="5.45009">
        <ele>209.7</ele>
        <time>2019-05-01T09:31:37Z</time>
      </trkpt>
      <trkpt lat="45.79174" lon="5.44991">
        <ele>209.6</ele>
        <time>2019-05-01T09:31:41Z</time>
      </trkpt>
      <trkpt lat="45.79173" lon="5.44983">
        <ele>209.6</ele>
        <time>2019-05-01T09:31:43Z</time>
      </trkpt>
      <trkpt lat="45.79171" lon="5.44978">
        <ele>209.5</ele>
        <time>2019-05-01T09:31:45Z</time>
      </trkpt>
      <trkpt lat="45.79169" lon="5.44975">
        <ele>209.5</ele>
        <time>2019-05-01T09:31:46Z</time>
      </trkpt>
      <trkpt lat="45.79167" lon="5.4496">
        <ele>209.5</ele>
        <time>2019-05-01T09:31:50Z</time>
      </trkpt>
      <trkpt lat="45.7917" lon="5.44938">
        <ele>209.4</ele>
        <time>2019-05-01T09:31:55Z</time>
      </trkpt>
      <trkpt lat="45.79168" lon="5.44919">
        <ele>209.3</ele>
        <time>2019-05-01T09:31:59Z</time>
      </trkpt>
      <trkpt lat="45.79164" lon="5.4491">
        <ele>209.2</ele>
        <time>2019-05-01T09:32:01Z</time>
      </trkpt>
      <trkpt lat="45.79165" lon="5.44904">
        <ele>209.2</ele>
        <time>2019-05-01T09:32:02Z</time>
      </trkpt>
      <trkpt lat="45.79164" lon="5.44899">
        <ele>209.1</ele>
        <time>2019-05-01T09:32:03Z</time>
      </trkpt>
      <trkpt lat="45.79164" lon="5.44895">
        <ele>209</ele>
        <time>2019-05-01T09:32:04Z</time>
      </trkpt>
      <trkpt lat="45.79164" lon="5.44885">
        <ele>208.7</ele>
        <time>2019-05-01T09:32:07Z</time>
      </trkpt>
      <trkpt lat="45.79163" lon="5.44882">
        <ele>208.6</ele>
        <time>2019-05-01T09:32:08Z</time>
      </trkpt>
      <trkpt lat="45.79163" lon="5.44878">
        <ele>208.4</ele>
        <time>2019-05-01T09:32:09Z</time>
      </trkpt>
      <trkpt lat="45.79161" lon="5.4487">
        <ele>208</ele>
        <time>2019-05-01T09:32:11Z</time>
      </trkpt>
      <trkpt lat="45.7916" lon="5.44859">
        <ele>207.5</ele>
        <time>2019-05-01T09:32:13Z</time>
      </trkpt>
      <trkpt lat="45.79148" lon="5.44829">
        <ele>206.8</ele>
        <time>2019-05-01T09:32:18Z</time>
      </trkpt>
      <trkpt lat="45.79143" lon="5.44811">
        <ele>206.7</ele>
        <time>2019-05-01T09:32:22Z</time>
      </trkpt>
      <trkpt lat="45.79135" lon="5.44804">
        <ele>206.7</ele>
        <time>2019-05-01T09:32:24Z</time>
      </trkpt>
      <trkpt lat="45.79131" lon="5.44804">
        <ele>206.6</ele>
        <time>2019-05-01T09:32:25Z</time>
      </trkpt>
      <trkpt lat="45.7912" lon="5.44792">
        <ele>206.6</ele>
        <time>2019-05-01T09:32:29Z</time>
      </trkpt>
      <trkpt lat="45.79113" lon="5.44779">
        <ele>206.5</ele>
        <time>2019-05-01T09:32:31Z</time>
      </trkpt>
      <trkpt lat="45.79108" lon="5.44765">
        <ele>206.5</ele>
        <time>2019-05-01T09:32:33Z</time>
      </trkpt>
      <trkpt lat="45.79106" lon="5.44758">
        <ele>206.4</ele>
        <time>2019-05-01T09:32:34Z</time>
      </trkpt>
      <trkpt lat="45.79102" lon="5.44744">
        <ele>206.4</ele>
        <time>2019-05-01T09:32:36Z</time>
      </trkpt>
      <trkpt lat="45.791" lon="5.4472">
        <ele>206.1</ele>
        <time>2019-05-01T09:32:39Z</time>
      </trkpt>
      <trkpt lat="45.79098" lon="5.44712">
        <ele>205.9</ele>
        <time>2019-05-01T09:32:40Z</time>
      </trkpt>
      <trkpt lat="45.79092" lon="5.44669">
        <ele>204.9</ele>
        <time>2019-05-01T09:32:45Z</time>
      </trkpt>
      <trkpt lat="45.79088" lon="5.44643">
        <ele>204.3</ele>
        <time>2019-05-01T09:32:48Z</time>
      </trkpt>
      <trkpt lat="45.79085" lon="5.44608">
        <ele>203.5</ele>
        <time>2019-05-01T09:32:52Z</time>
      </trkpt>
      <trkpt lat="45.79082" lon="5.44564">
        <ele>203</ele>
        <time>2019-05-01T09:32:57Z</time>
      </trkpt>
      <trkpt lat="45.7908" lon="5.44547">
        <ele>202.8</ele>
        <time>2019-05-01T09:32:59Z</time>
      </trkpt>
      <trkpt lat="45.7908" lon="5.44531">
        <ele>202.6</ele>
        <time>2019-05-01T09:33:01Z</time>
      </trkpt>
      <trkpt lat="45.79082" lon="5.44514">
        <ele>202.5</ele>
        <time>2019-05-01T09:33:03Z</time>
      </trkpt>
      <trkpt lat="45.79086" lon="5.44498">
        <ele>202.3</ele>
        <time>2019-05-01T09:33:05Z</time>
      </trkpt>
      <trkpt lat="45.79088" lon="5.4448">
        <ele>202.1</ele>
        <time>2019-05-01T09:33:07Z</time>
      </trkpt>
      <trkpt lat="45.79087" lon="5.44473">
        <ele>202.1</ele>
        <time>2019-05-01T09:33:08Z</time>
      </trkpt>
      <trkpt lat="45.79079" lon="5.44465">
        <ele>202.9</ele>
        <time>2019-05-01T09:33:10Z</time>
      </trkpt>
      <trkpt lat="45.79073" lon="5.44468">
        <ele>203</ele>
        <time>2019-05-01T09:33:11Z</time>
      </trkpt>
      <trkpt lat="45.79068" lon="5.44471">
        <ele>202.9</ele>
        <time>2019-05-01T09:33:12Z</time>
      </trkpt>
      <trkpt lat="45.79063" lon="5.44475">
        <ele>202.9</ele>
        <time>2019-05-01T09:33:13Z</time>
      </trkpt>
      <trkpt lat="45.79031" lon="5.44501">
        <ele>203.5</ele>
        <time>2019-05-01T09:33:19Z</time>
      </trkpt>
      <trkpt lat="45.79025" lon="5.44504">
        <ele>203.5</ele>
        <time>2019-05-01T09:33:20Z</time>
      </trkpt>
      <trkpt lat="45.78984" lon="5.44532">
        <ele>202.6</ele>
        <time>2019-05-01T09:33:27Z</time>
      </trkpt>
      <trkpt lat="45.78979" lon="5.44535">
        <ele>203.6</ele>
        <time>2019-05-01T09:33:28Z</time>
      </trkpt>
      <trkpt lat="45.78922" lon="5.44565">
        <ele>203.4</ele>
        <time>2019-05-01T09:33:37Z</time>
      </trkpt>
      <trkpt lat="45.78867" lon="5.44594">
        <ele>203.2</ele>
        <time>2019-05-01T09:33:46Z</time>
      </trkpt>
      <trkpt lat="45.78822" lon="5.44621">
        <ele>203.2</ele>
        <time>2019-05-01T09:33:54Z</time>
      </trkpt>
      <trkpt lat="45.78778" lon="5.44655">
        <ele>203.2</ele>
        <time>2019-05-01T09:34:02Z</time>
      </trkpt>
      <trkpt lat="45.78732" lon="5.44701">
        <ele>203.2</ele>
        <time>2019-05-01T09:34:11Z</time>
      </trkpt>
      <trkpt lat="45.78702" lon="5.44735">
        <ele>203</ele>
        <time>2019-05-01T09:34:17Z</time>
      </trkpt>
      <trkpt lat="45.78693" lon="5.44747">
        <ele>203</ele>
        <time>2019-05-01T09:34:19Z</time>
      </trkpt>
      <trkpt lat="45.78663" lon="5.44792">
        <ele>203.9</ele>
        <time>2019-05-01T09:34:26Z</time>
      </trkpt>
      <trkpt lat="45.78654" lon="5.44805">
        <ele>204</ele>
        <time>2019-05-01T09:34:28Z</time>
      </trkpt>
      <trkpt lat="45.78628" lon="5.44844">
        <ele>203.4</ele>
        <time>2019-05-01T09:34:34Z</time>
      </trkpt>
      <trkpt lat="45.78597" lon="5.44889">
        <ele>202</ele>
        <time>2019-05-01T09:34:41Z</time>
      </trkpt>
      <trkpt lat="45.78588" lon="5.44901">
        <ele>202</ele>
        <time>2019-05-01T09:34:43Z</time>
      </trkpt>
      <trkpt lat="45.78559" lon="5.44944">
        <ele>202</ele>
        <time>2019-05-01T09:34:50Z</time>
      </trkpt>
      <trkpt lat="45.78537" lon="5.44979">
        <ele>202</ele>
        <time>2019-05-01T09:34:56Z</time>
      </trkpt>
      <trkpt lat="45.78519" lon="5.45006">
        <ele>202</ele>
        <time>2019-05-01T09:35:01Z</time>
      </trkpt>
      <trkpt lat="45.78513" lon="5.45018">
        <ele>201.9</ele>
        <time>2019-05-01T09:35:03Z</time>
      </trkpt>
      <trkpt lat="45.78497" lon="5.4505">
        <ele>201.4</ele>
        <time>2019-05-01T09:35:09Z</time>
      </trkpt>
      <trkpt lat="45.78484" lon="5.45083">
        <ele>201.2</ele>
        <time>2019-05-01T09:35:15Z</time>
      </trkpt>
      <trkpt lat="45.78475" lon="5.45111">
        <ele>201</ele>
        <time>2019-05-01T09:35:20Z</time>
      </trkpt>
      <trkpt lat="45.78475" lon="5.45118">
        <ele>201</ele>
        <time>2019-05-01T09:35:21Z</time>
      </trkpt>
      <trkpt lat="45.78481" lon="5.4514">
        <ele>203.9</ele>
        <time>2019-05-01T09:35:25Z</time>
      </trkpt>
      <trkpt lat="45.78487" lon="5.45149">
        <ele>204.4</ele>
        <time>2019-05-01T09:35:27Z</time>
      </trkpt>
      <trkpt lat="45.7849" lon="5.45153">
        <ele>204.6</ele>
        <time>2019-05-01T09:35:28Z</time>
      </trkpt>
      <trkpt lat="45.78497" lon="5.4516">
        <ele>204.9</ele>
        <time>2019-05-01T09:35:30Z</time>
      </trkpt>
      <trkpt lat="45.78524" lon="5.45191">
        <ele>205.7</ele>
        <time>2019-05-01T09:35:38Z</time>
      </trkpt>
      <trkpt lat="45.78526" lon="5.45196">
        <ele>205.7</ele>
        <time>2019-05-01T09:35:39Z</time>
      </trkpt>
      <trkpt lat="45.78533" lon="5.45214">
        <ele>205.8</ele>
        <time>2019-05-01T09:35:43Z</time>
      </trkpt>
      <trkpt lat="45.78533" lon="5.45219">
        <ele>205.9</ele>
        <time>2019-05-01T09:35:44Z</time>
      </trkpt>
      <trkpt lat="45.78526" lon="5.4524">
        <ele>206</ele>
        <time>2019-05-01T09:35:48Z</time>
      </trkpt>
      <trkpt lat="45.78524" lon="5.45245">
        <ele>206.1</ele>
        <time>2019-05-01T09:35:49Z</time>
      </trkpt>
      <trkpt lat="45.78514" lon="5.45259">
        <ele>206.1</ele>
        <time>2019-05-01T09:35:53Z</time>
      </trkpt>
      <trkpt lat="45.78501" lon="5.45251">
        <ele>205.8</ele>
        <time>2019-05-01T09:35:57Z</time>
      </trkpt>
      <trkpt lat="45.78498" lon="5.45249">
        <ele>205.8</ele>
        <time>2019-05-01T09:35:58Z</time>
      </trkpt>
      <trkpt lat="45.78485" lon="5.4524">
        <ele>205.4</ele>
        <time>2019-05-01T09:36:02Z</time>
      </trkpt>
      <trkpt lat="45.78479" lon="5.45237">
        <ele>205.3</ele>
        <time>2019-05-01T09:36:04Z</time>
      </trkpt>
      <trkpt lat="45.78471" lon="5.45231">
        <ele>205.1</ele>
        <time>2019-05-01T09:36:07Z</time>
      </trkpt>
      <trkpt lat="45.78462" lon="5.45225">
        <ele>204.8</ele>
        <time>2019-05-01T09:36:10Z</time>
      </trkpt>
      <trkpt lat="45.78457" lon="5.45221">
        <ele>204.7</ele>
        <time>2019-05-01T09:36:12Z</time>
      </trkpt>
      <trkpt lat="45.78439" lon="5.45209">
        <ele>204.3</ele>
        <time>2019-05-01T09:36:18Z</time>
      </trkpt>
      <trkpt lat="45.78436" lon="5.45207">
        <ele>204.2</ele>
        <time>2019-05-01T09:36:19Z</time>
      </trkpt>
      <trkpt lat="45.78411" lon="5.45191">
        <ele>202.9</ele>
        <time>2019-05-01T09:36:26Z</time>
      </trkpt>
      <trkpt lat="45.78401" lon="5.45183">
        <ele>202.1</ele>
        <time>2019-05-01T09:36:29Z</time>
      </trkpt>
      <trkpt lat="45.78397" lon="5.4518">
        <ele>201.8</ele>
        <time>2019-05-01T09:36:30Z</time>
      </trkpt>
      <trkpt lat="45.78385" lon="5.45172">
        <ele>200.8</ele>
        <time>2019-05-01T09:36:33Z</time>
      </trkpt>
      <trkpt lat="45.78378" lon="5.45167">
        <ele>200.1</ele>
        <time>2019-05-01T09:36:35Z</time>
      </trkpt>
      <trkpt lat="45.7835" lon="5.45148">
        <ele>200.9</ele>
        <time>2019-05-01T09:36:42Z</time>
      </trkpt>
      <trkpt lat="45.78322" lon="5.45128">
        <ele>203.3</ele>
        <time>2019-05-01T09:36:48Z</time>
      </trkpt>
      <trkpt lat="45.78289" lon="5.45105">
        <ele>205.4</ele>
        <time>2019-05-01T09:36:54Z</time>
      </trkpt>
      <trkpt lat="45.78283" lon="5.45101">
        <ele>205.7</ele>
        <time>2019-05-01T09:36:55Z</time>
      </trkpt>
      <trkpt lat="45.78254" lon="5.4508">
        <ele>207.4</ele>
        <time>2019-05-01T09:37:00Z</time>
      </trkpt>
      <trkpt lat="45.7823" lon="5.45063">
        <ele>209.3</ele>
        <time>2019-05-01T09:37:04Z</time>
      </trkpt>
      <trkpt lat="45.78192" lon="5.45037">
        <ele>211.6</ele>
        <time>2019-05-01T09:37:11Z</time>
      </trkpt>
      <trkpt lat="45.78186" lon="5.45035">
        <ele>211.9</ele>
        <time>2019-05-01T09:37:12Z</time>
      </trkpt>
      <trkpt lat="45.78177" lon="5.45036">
        <ele>212.2</ele>
        <time>2019-05-01T09:37:14Z</time>
      </trkpt>
      <trkpt lat="45.78167" lon="5.45046">
        <ele>212.1</ele>
        <time>2019-05-01T09:37:18Z</time>
      </trkpt>
      <trkpt lat="45.78158" lon="5.45069">
        <ele>211.6</ele>
        <time>2019-05-01T09:37:22Z</time>
      </trkpt>
      <trkpt lat="45.78153" lon="5.45075">
        <ele>211.2</ele>
        <time>2019-05-01T09:37:23Z</time>
      </trkpt>
      <trkpt lat="45.78142" lon="5.45084">
        <ele>210.4</ele>
        <time>2019-05-01T09:37:25Z</time>
      </trkpt>
      <trkpt lat="45.7813" lon="5.45089">
        <ele>209.9</ele>
        <time>2019-05-01T09:37:27Z</time>
      </trkpt>
      <trkpt lat="45.78112" lon="5.45095">
        <ele>209.7</ele>
        <time>2019-05-01T09:37:30Z</time>
      </trkpt>
      <trkpt lat="45.78087" lon="5.45105">
        <ele>209.8</ele>
        <time>2019-05-01T09:37:34Z</time>
      </trkpt>
      <trkpt lat="45.78068" lon="5.45108">
        <ele>209.9</ele>
        <time>2019-05-01T09:37:37Z</time>
      </trkpt>
      <trkpt lat="45.78022" lon="5.45108">
        <ele>210.1</ele>
        <time>2019-05-01T09:37:44Z</time>
      </trkpt>
      <trkpt lat="45.78004" lon="5.4511">
        <ele>210.2</ele>
        <time>2019-05-01T09:37:47Z</time>
      </trkpt>
      <trkpt lat="45.77999" lon="5.45114">
        <ele>210.2</ele>
        <time>2019-05-01T09:37:48Z</time>
      </trkpt>
      <trkpt lat="45.77992" lon="5.45137">
        <ele>210.3</ele>
        <time>2019-05-01T09:37:51Z</time>
      </trkpt>
      <trkpt lat="45.77995" lon="5.45164">
        <ele>210.3</ele>
        <time>2019-05-01T09:37:54Z</time>
      </trkpt>
      <trkpt lat="45.77996" lon="5.45173">
        <ele>210.4</ele>
        <time>2019-05-01T09:37:55Z</time>
      </trkpt>
      <trkpt lat="45.77998" lon="5.45189">
        <ele>210.4</ele>
        <time>2019-05-01T09:37:57Z</time>
      </trkpt>
      <trkpt lat="45.77994" lon="5.45205">
        <ele>210.5</ele>
        <time>2019-05-01T09:37:59Z</time>
      </trkpt>
      <trkpt lat="45.77983" lon="5.4522">
        <ele>210.5</ele>
        <time>2019-05-01T09:38:02Z</time>
      </trkpt>
      <trkpt lat="45.77978" lon="5.45225">
        <ele>210.6</ele>
        <time>2019-05-01T09:38:03Z</time>
      </trkpt>
      <trkpt lat="45.77974" lon="5.45228">
        <ele>210.6</ele>
        <time>2019-05-01T09:38:04Z</time>
      </trkpt>
      <trkpt lat="45.77953" lon="5.45244">
        <ele>210.7</ele>
        <time>2019-05-01T09:38:09Z</time>
      </trkpt>
      <trkpt lat="45.77914" lon="5.45268">
        <ele>210.9</ele>
        <time>2019-05-01T09:38:17Z</time>
      </trkpt>
      <trkpt lat="45.77871" lon="5.45289">
        <ele>211.1</ele>
        <time>2019-05-01T09:38:25Z</time>
      </trkpt>
      <trkpt lat="45.77845" lon="5.45304">
        <ele>211.2</ele>
        <time>2019-05-01T09:38:30Z</time>
      </trkpt>
      <trkpt lat="45.77819" lon="5.45317">
        <ele>211.3</ele>
        <time>2019-05-01T09:38:35Z</time>
      </trkpt>
      <trkpt lat="45.77782" lon="5.45333">
        <ele>211.5</ele>
        <time>2019-05-01T09:38:43Z</time>
      </trkpt>
      <trkpt lat="45.77762" lon="5.45337">
        <ele>211.6</ele>
        <time>2019-05-01T09:38:47Z</time>
      </trkpt>
      <trkpt lat="45.77743" lon="5.45339">
        <ele>211.7</ele>
        <time>2019-05-01T09:38:51Z</time>
      </trkpt>
      <trkpt lat="45.77714" lon="5.45341">
        <ele>212.1</ele>
        <time>2019-05-01T09:38:57Z</time>
      </trkpt>
      <trkpt lat="45.77705" lon="5.45341">
        <ele>212.5</ele>
        <time>2019-05-01T09:38:59Z</time>
      </trkpt>
      <trkpt lat="45.77691" lon="5.45338">
        <ele>213.3</ele>
        <time>2019-05-01T09:39:02Z</time>
      </trkpt>
      <trkpt lat="45.77687" lon="5.45335">
        <ele>213.5</ele>
        <time>2019-05-01T09:39:03Z</time>
      </trkpt>
      <trkpt lat="45.77679" lon="5.45329">
        <ele>213.7</ele>
        <time>2019-05-01T09:39:05Z</time>
      </trkpt>
      <trkpt lat="45.77667" lon="5.45308">
        <ele>214</ele>
        <time>2019-05-01T09:39:09Z</time>
      </trkpt>
      <trkpt lat="45.77666" lon="5.45302">
        <ele>214.1</ele>
        <time>2019-05-01T09:39:10Z</time>
      </trkpt>
      <trkpt lat="45.77665" lon="5.45295">
        <ele>214.1</ele>
        <time>2019-05-01T09:39:11Z</time>
      </trkpt>
      <trkpt lat="45.77662" lon="5.45282">
        <ele>214.1</ele>
        <time>2019-05-01T09:39:13Z</time>
      </trkpt>
      <trkpt lat="45.77658" lon="5.45269">
        <ele>214.2</ele>
        <time>2019-05-01T09:39:15Z</time>
      </trkpt>
      <trkpt lat="45.77658" lon="5.45263">
        <ele>214.2</ele>
        <time>2019-05-01T09:39:16Z</time>
      </trkpt>
      <trkpt lat="45.77659" lon="5.45245">
        <ele>214.2</ele>
        <time>2019-05-01T09:39:19Z</time>
      </trkpt>
      <trkpt lat="45.77661" lon="5.4524">
        <ele>214.2</ele>
        <time>2019-05-01T09:39:20Z</time>
      </trkpt>
      <trkpt lat="45.77666" lon="5.4523">
        <ele>214.2</ele>
        <time>2019-05-01T09:39:22Z</time>
      </trkpt>
      <trkpt lat="45.77675" lon="5.45218">
        <ele>214.5</ele>
        <time>2019-05-01T09:39:25Z</time>
      </trkpt>
      <trkpt lat="45.77677" lon="5.45214">
        <ele>214.7</ele>
        <time>2019-05-01T09:39:26Z</time>
      </trkpt>
      <trkpt lat="45.77692" lon="5.45193">
        <ele>215.5</ele>
        <time>2019-05-01T09:39:31Z</time>
      </trkpt>
      <trkpt lat="45.77695" lon="5.45188">
        <ele>215.6</ele>
        <time>2019-05-01T09:39:32Z</time>
      </trkpt>
      <trkpt lat="45.77697" lon="5.45184">
        <ele>215.7</ele>
        <time>2019-05-01T09:39:33Z</time>
      </trkpt>
      <trkpt lat="45.77703" lon="5.45175">
        <ele>215.8</ele>
        <time>2019-05-01T09:39:35Z</time>
      </trkpt>
      <trkpt lat="45.77718" lon="5.45151">
        <ele>215.7</ele>
        <time>2019-05-01T09:39:40Z</time>
      </trkpt>
      <trkpt lat="45.77725" lon="5.45141">
        <ele>215.7</ele>
        <time>2019-05-01T09:39:42Z</time>
      </trkpt>
      <trkpt lat="45.77736" lon="5.45122">
        <ele>215.8</ele>
        <time>2019-05-01T09:39:46Z</time>
      </trkpt>
      <trkpt lat="45.77738" lon="5.45117">
        <ele>215.7</ele>
        <time>2019-05-01T09:39:47Z</time>
      </trkpt>
      <trkpt lat="45.77738" lon="5.45101">
        <ele>214.8</ele>
        <time>2019-05-01T09:39:50Z</time>
      </trkpt>
      <trkpt lat="45.7773" lon="5.45093">
        <ele>214.9</ele>
        <time>2019-05-01T09:39:53Z</time>
      </trkpt>
      <trkpt lat="45.77726" lon="5.45093">
        <ele>215</ele>
        <time>2019-05-01T09:39:54Z</time>
      </trkpt>
      <trkpt lat="45.77711" lon="5.45098">
        <ele>215.2</ele>
        <time>2019-05-01T09:39:57Z</time>
      </trkpt>
      <trkpt lat="45.77706" lon="5.451">
        <ele>215.3</ele>
        <time>2019-05-01T09:39:58Z</time>
      </trkpt>
      <trkpt lat="45.77669" lon="5.45109">
        <ele>215.8</ele>
        <time>2019-05-01T09:40:05Z</time>
      </trkpt>
      <trkpt lat="45.77658" lon="5.45111">
        <ele>215.8</ele>
        <time>2019-05-01T09:40:07Z</time>
      </trkpt>
      <trkpt lat="45.77621" lon="5.45113">
        <ele>215.4</ele>
        <time>2019-05-01T09:40:14Z</time>
      </trkpt>
      <trkpt lat="45.77616" lon="5.4511">
        <ele>215.4</ele>
        <time>2019-05-01T09:40:15Z</time>
      </trkpt>
      <trkpt lat="45.77605" lon="5.45099">
        <ele>215.2</ele>
        <time>2019-05-01T09:40:18Z</time>
      </trkpt>
      <trkpt lat="45.77602" lon="5.45096">
        <ele>215.1</ele>
        <time>2019-05-01T09:40:19Z</time>
      </trkpt>
      <trkpt lat="45.77595" lon="5.45097">
        <ele>214.9</ele>
        <time>2019-05-01T09:40:21Z</time>
      </trkpt>
      <trkpt lat="45.77586" lon="5.45099">
        <ele>214.5</ele>
        <time>2019-05-01T09:40:23Z</time>
      </trkpt>
      <trkpt lat="45.77572" lon="5.45101">
        <ele>214.2</ele>
        <time>2019-05-01T09:40:26Z</time>
      </trkpt>
      <trkpt lat="45.77538" lon="5.45106">
        <ele>214.7</ele>
        <time>2019-05-01T09:40:33Z</time>
      </trkpt>
      <trkpt lat="45.77533" lon="5.45106">
        <ele>214.9</ele>
        <time>2019-05-01T09:40:34Z</time>
      </trkpt>
      <trkpt lat="45.77522" lon="5.45108">
        <ele>215.3</ele>
        <time>2019-05-01T09:40:36Z</time>
      </trkpt>
      <trkpt lat="45.77516" lon="5.4511">
        <ele>215.4</ele>
        <time>2019-05-01T09:40:37Z</time>
      </trkpt>
      <trkpt lat="45.77511" lon="5.45112">
        <ele>215.5</ele>
        <time>2019-05-01T09:40:38Z</time>
      </trkpt>
      <trkpt lat="45.77506" lon="5.45114">
        <ele>215.8</ele>
        <time>2019-05-01T09:40:39Z</time>
      </trkpt>
      <trkpt lat="45.77502" lon="5.45113">
        <ele>215.9</ele>
        <time>2019-05-01T09:40:40Z</time>
      </trkpt>
      <trkpt lat="45.77499" lon="5.45109">
        <ele>216</ele>
        <time>2019-05-01T09:40:41Z</time>
      </trkpt>
      <trkpt lat="45.77498" lon="5.45104">
        <ele>216.1</ele>
        <time>2019-05-01T09:40:42Z</time>
      </trkpt>
      <trkpt lat="45.77501" lon="5.45092">
        <ele>215.9</ele>
        <time>2019-05-01T09:40:44Z</time>
      </trkpt>
      <trkpt lat="45.77504" lon="5.45086">
        <ele>215.7</ele>
        <time>2019-05-01T09:40:45Z</time>
      </trkpt>
      <trkpt lat="45.77511" lon="5.45064">
        <ele>215.3</ele>
        <time>2019-05-01T09:40:48Z</time>
      </trkpt>
      <trkpt lat="45.77512" lon="5.45057">
        <ele>215.2</ele>
        <time>2019-05-01T09:40:49Z</time>
      </trkpt>
      <trkpt lat="45.77519" lon="5.45026">
        <ele>214.8</ele>
        <time>2019-05-01T09:40:53Z</time>
      </trkpt>
      <trkpt lat="45.77522" lon="5.45011">
        <ele>214.6</ele>
        <time>2019-05-01T09:40:55Z</time>
      </trkpt>
      <trkpt lat="45.7753" lon="5.44968">
        <ele>213.9</ele>
        <time>2019-05-01T09:41:01Z</time>
      </trkpt>
      <trkpt lat="45.7753" lon="5.44961">
        <ele>213.8</ele>
        <time>2019-05-01T09:41:02Z</time>
      </trkpt>
      <trkpt lat="45.77534" lon="5.44926">
        <ele>213.8</ele>
        <time>2019-05-01T09:41:07Z</time>
      </trkpt>
      <trkpt lat="45.77534" lon="5.44912">
        <ele>214</ele>
        <time>2019-05-01T09:41:09Z</time>
      </trkpt>
      <trkpt lat="45.77534" lon="5.44897">
        <ele>214.3</ele>
        <time>2019-05-01T09:41:11Z</time>
      </trkpt>
      <trkpt lat="45.77535" lon="5.44869">
        <ele>215.2</ele>
        <time>2019-05-01T09:41:15Z</time>
      </trkpt>
      <trkpt lat="45.77535" lon="5.44824">
        <ele>216</ele>
        <time>2019-05-01T09:41:21Z</time>
      </trkpt>
      <trkpt lat="45.77534" lon="5.44801">
        <ele>216.4</ele>
        <time>2019-05-01T09:41:24Z</time>
      </trkpt>
      <trkpt lat="45.77531" lon="5.44779">
        <ele>216.7</ele>
        <time>2019-05-01T09:41:27Z</time>
      </trkpt>
      <trkpt lat="45.77521" lon="5.44728">
        <ele>217</ele>
        <time>2019-05-01T09:41:34Z</time>
      </trkpt>
      <trkpt lat="45.77519" lon="5.44721">
        <ele>217</ele>
        <time>2019-05-01T09:41:35Z</time>
      </trkpt>
      <trkpt lat="45.77509" lon="5.44677">
        <ele>217.1</ele>
        <time>2019-05-01T09:41:41Z</time>
      </trkpt>
      <trkpt lat="45.775" lon="5.44641">
        <ele>216.9</ele>
        <time>2019-05-01T09:41:46Z</time>
      </trkpt>
      <trkpt lat="45.77499" lon="5.44634">
        <ele>216.8</ele>
        <time>2019-05-01T09:41:47Z</time>
      </trkpt>
      <trkpt lat="45.77497" lon="5.44599">
        <ele>216.7</ele>
        <time>2019-05-01T09:41:52Z</time>
      </trkpt>
      <trkpt lat="45.77487" lon="5.44537">
        <ele>217.5</ele>
        <time>2019-05-01T09:42:00Z</time>
      </trkpt>
      <trkpt lat="45.77481" lon="5.44501">
        <ele>218.2</ele>
        <time>2019-05-01T09:42:05Z</time>
      </trkpt>
      <trkpt lat="45.7748" lon="5.44478">
        <ele>218.8</ele>
        <time>2019-05-01T09:42:08Z</time>
      </trkpt>
      <trkpt lat="45.77478" lon="5.44447">
        <ele>219.9</ele>
        <time>2019-05-01T09:42:12Z</time>
      </trkpt>
      <trkpt lat="45.77479" lon="5.44433">
        <ele>220.2</ele>
        <time>2019-05-01T09:42:14Z</time>
      </trkpt>
      <trkpt lat="45.7748" lon="5.44394">
        <ele>220.3</ele>
        <time>2019-05-01T09:42:19Z</time>
      </trkpt>
      <trkpt lat="45.77478" lon="5.44386">
        <ele>220.3</ele>
        <time>2019-05-01T09:42:20Z</time>
      </trkpt>
      <trkpt lat="45.77464" lon="5.44362">
        <ele>220.2</ele>
        <time>2019-05-01T09:42:24Z</time>
      </trkpt>
      <trkpt lat="45.7746" lon="5.44357">
        <ele>220.1</ele>
        <time>2019-05-01T09:42:25Z</time>
      </trkpt>
      <trkpt lat="45.77451" lon="5.44347">
        <ele>219.9</ele>
        <time>2019-05-01T09:42:27Z</time>
      </trkpt>
      <trkpt lat="45.77444" lon="5.44334">
        <ele>219.8</ele>
        <time>2019-05-01T09:42:29Z</time>
      </trkpt>
      <trkpt lat="45.77426" lon="5.44291">
        <ele>219.8</ele>
        <time>2019-05-01T09:42:35Z</time>
      </trkpt>
      <trkpt lat="45.77411" lon="5.44245">
        <ele>220.3</ele>
        <time>2019-05-01T09:42:41Z</time>
      </trkpt>
      <trkpt lat="45.77404" lon="5.44206">
        <ele>220</ele>
        <time>2019-05-01T09:42:46Z</time>
      </trkpt>
      <trkpt lat="45.77402" lon="5.442">
        <ele>219.8</ele>
        <time>2019-05-01T09:42:47Z</time>
      </trkpt>
      <trkpt lat="45.77396" lon="5.44183">
        <ele>219.4</ele>
        <time>2019-05-01T09:42:50Z</time>
      </trkpt>
      <trkpt lat="45.77395" lon="5.44176">
        <ele>219.4</ele>
        <time>2019-05-01T09:42:51Z</time>
      </trkpt>
      <trkpt lat="45.77394" lon="5.44168">
        <ele>219.4</ele>
        <time>2019-05-01T09:42:52Z</time>
      </trkpt>
      <trkpt lat="45.77389" lon="5.44131">
        <ele>220</ele>
        <time>2019-05-01T09:42:57Z</time>
      </trkpt>
      <trkpt lat="45.77387" lon="5.44115">
        <ele>220.2</ele>
        <time>2019-05-01T09:42:59Z</time>
      </trkpt>
      <trkpt lat="45.77379" lon="5.44103">
        <ele>220.2</ele>
        <time>2019-05-01T09:43:01Z</time>
      </trkpt>
      <trkpt lat="45.77365" lon="5.44094">
        <ele>220.3</ele>
        <time>2019-05-01T09:43:04Z</time>
      </trkpt>
      <trkpt lat="45.77356" lon="5.4409">
        <ele>220.4</ele>
        <time>2019-05-01T09:43:06Z</time>
      </trkpt>
      <trkpt lat="45.77352" lon="5.44088">
        <ele>220.4</ele>
        <time>2019-05-01T09:43:07Z</time>
      </trkpt>
      <trkpt lat="45.77349" lon="5.44084">
        <ele>220.4</ele>
        <time>2019-05-01T09:43:08Z</time>
      </trkpt>
      <trkpt lat="45.77339" lon="5.44068">
        <ele>220.6</ele>
        <time>2019-05-01T09:43:11Z</time>
      </trkpt>
      <trkpt lat="45.77331" lon="5.44053">
        <ele>220.8</ele>
        <time>2019-05-01T09:43:14Z</time>
      </trkpt>
      <trkpt lat="45.77304" lon="5.44012">
        <ele>221.9</ele>
        <time>2019-05-01T09:43:23Z</time>
      </trkpt>
      <trkpt lat="45.77301" lon="5.44008">
        <ele>222.1</ele>
        <time>2019-05-01T09:43:24Z</time>
      </trkpt>
      <trkpt lat="45.77283" lon="5.4398">
        <ele>223.9</ele>
        <time>2019-05-01T09:43:30Z</time>
      </trkpt>
      <trkpt lat="45.7728" lon="5.43975">
        <ele>224.1</ele>
        <time>2019-05-01T09:43:31Z</time>
      </trkpt>
      <trkpt lat="45.77275" lon="5.43964">
        <ele>224.5</ele>
        <time>2019-05-01T09:43:33Z</time>
      </trkpt>
      <trkpt lat="45.77268" lon="5.43953">
        <ele>224.9</ele>
        <time>2019-05-01T09:43:35Z</time>
      </trkpt>
      <trkpt lat="45.77241" lon="5.43899">
        <ele>226.2</ele>
        <time>2019-05-01T09:43:44Z</time>
      </trkpt>
      <trkpt lat="45.77222" lon="5.43857">
        <ele>226.8</ele>
        <time>2019-05-01T09:43:50Z</time>
      </trkpt>
      <trkpt lat="45.77196" lon="5.43802">
        <ele>227.5</ele>
        <time>2019-05-01T09:43:58Z</time>
      </trkpt>
      <trkpt lat="45.77187" lon="5.43771">
        <ele>227.8</ele>
        <time>2019-05-01T09:44:02Z</time>
      </trkpt>
      <trkpt lat="45.77183" lon="5.43755">
        <ele>228</ele>
        <time>2019-05-01T09:44:04Z</time>
      </trkpt>
      <trkpt lat="45.77168" lon="5.43708">
        <ele>228.6</ele>
        <time>2019-05-01T09:44:10Z</time>
      </trkpt>
      <trkpt lat="45.77151" lon="5.43672">
        <ele>228.9</ele>
        <time>2019-05-01T09:44:15Z</time>
      </trkpt>
      <trkpt lat="45.7714" lon="5.43663">
        <ele>228.5</ele>
        <time>2019-05-01T09:44:17Z</time>
      </trkpt>
      <trkpt lat="45.7711" lon="5.43641">
        <ele>227.2</ele>
        <time>2019-05-01T09:44:22Z</time>
      </trkpt>
      <trkpt lat="45.77072" lon="5.43614">
        <ele>226.5</ele>
        <time>2019-05-01T09:44:28Z</time>
      </trkpt>
      <trkpt lat="45.7706" lon="5.43605">
        <ele>226.5</ele>
        <time>2019-05-01T09:44:30Z</time>
      </trkpt>
      <trkpt lat="45.77044" lon="5.43589">
        <ele>226.9</ele>
        <time>2019-05-01T09:44:33Z</time>
      </trkpt>
      <trkpt lat="45.7701" lon="5.43559">
        <ele>227.7</ele>
        <time>2019-05-01T09:44:39Z</time>
      </trkpt>
      <trkpt lat="45.76992" lon="5.43544">
        <ele>227.8</ele>
        <time>2019-05-01T09:44:42Z</time>
      </trkpt>
      <trkpt lat="45.76983" lon="5.43531">
        <ele>227.8</ele>
        <time>2019-05-01T09:44:44Z</time>
      </trkpt>
      <trkpt lat="45.76956" lon="5.43496">
        <ele>228</ele>
        <time>2019-05-01T09:44:50Z</time>
      </trkpt>
      <trkpt lat="45.76951" lon="5.4349">
        <ele>228</ele>
        <time>2019-05-01T09:44:51Z</time>
      </trkpt>
      <trkpt lat="45.76918" lon="5.4346">
        <ele>228.3</ele>
        <time>2019-05-01T09:44:57Z</time>
      </trkpt>
      <trkpt lat="45.76886" lon="5.43433">
        <ele>229.3</ele>
        <time>2019-05-01T09:45:02Z</time>
      </trkpt>
      <trkpt lat="45.76867" lon="5.43415">
        <ele>230.2</ele>
        <time>2019-05-01T09:45:05Z</time>
      </trkpt>
      <trkpt lat="45.76851" lon="5.43396">
        <ele>230.9</ele>
        <time>2019-05-01T09:45:08Z</time>
      </trkpt>
      <trkpt lat="45.76845" lon="5.43391">
        <ele>231</ele>
        <time>2019-05-01T09:45:09Z</time>
      </trkpt>
      <trkpt lat="45.76823" lon="5.43371">
        <ele>231.8</ele>
        <time>2019-05-01T09:45:13Z</time>
      </trkpt>
      <trkpt lat="45.7679" lon="5.43344">
        <ele>233.3</ele>
        <time>2019-05-01T09:45:19Z</time>
      </trkpt>
      <trkpt lat="45.76781" lon="5.43334">
        <ele>234.2</ele>
        <time>2019-05-01T09:45:21Z</time>
      </trkpt>
      <trkpt lat="45.7677" lon="5.43319">
        <ele>235.7</ele>
        <time>2019-05-01T09:45:24Z</time>
      </trkpt>
      <trkpt lat="45.76762" lon="5.4331">
        <ele>236.4</ele>
        <time>2019-05-01T09:45:26Z</time>
      </trkpt>
      <trkpt lat="45.76755" lon="5.43296">
        <ele>237.6</ele>
        <time>2019-05-01T09:45:29Z</time>
      </trkpt>
      <trkpt lat="45.76752" lon="5.43292">
        <ele>238.2</ele>
        <time>2019-05-01T09:45:30Z</time>
      </trkpt>
      <trkpt lat="45.76744" lon="5.43279">
        <ele>238.8</ele>
        <time>2019-05-01T09:45:33Z</time>
      </trkpt>
      <trkpt lat="45.76739" lon="5.43271">
        <ele>239.4</ele>
        <time>2019-05-01T09:45:35Z</time>
      </trkpt>
      <trkpt lat="45.76737" lon="5.43267">
        <ele>239.7</ele>
        <time>2019-05-01T09:45:36Z</time>
      </trkpt>
      <trkpt lat="45.76734" lon="5.43258">
        <ele>240</ele>
        <time>2019-05-01T09:45:38Z</time>
      </trkpt>
      <trkpt lat="45.7673" lon="5.43249">
        <ele>240.3</ele>
        <time>2019-05-01T09:45:40Z</time>
      </trkpt>
      <trkpt lat="45.76728" lon="5.43245">
        <ele>240.3</ele>
        <time>2019-05-01T09:45:41Z</time>
      </trkpt>
      <trkpt lat="45.76727" lon="5.43241">
        <ele>240.6</ele>
        <time>2019-05-01T09:45:42Z</time>
      </trkpt>
      <trkpt lat="45.76724" lon="5.43234">
        <ele>241.1</ele>
        <time>2019-05-01T09:45:44Z</time>
      </trkpt>
      <trkpt lat="45.7672" lon="5.43227">
        <ele>241.6</ele>
        <time>2019-05-01T09:45:46Z</time>
      </trkpt>
      <trkpt lat="45.76717" lon="5.43219">
        <ele>242.3</ele>
        <time>2019-05-01T09:45:48Z</time>
      </trkpt>
      <trkpt lat="45.76713" lon="5.43212">
        <ele>243.6</ele>
        <time>2019-05-01T09:45:50Z</time>
      </trkpt>
      <trkpt lat="45.76711" lon="5.43208">
        <ele>243.6</ele>
        <time>2019-05-01T09:45:51Z</time>
      </trkpt>
      <trkpt lat="45.76707" lon="5.432">
        <ele>244.7</ele>
        <time>2019-05-01T09:45:53Z</time>
      </trkpt>
      <trkpt lat="45.76703" lon="5.43193">
        <ele>245.2</ele>
        <time>2019-05-01T09:45:55Z</time>
      </trkpt>
      <trkpt lat="45.76696" lon="5.43184">
        <ele>246</ele>
        <time>2019-05-01T09:45:58Z</time>
      </trkpt>
      <trkpt lat="45.76691" lon="5.43179">
        <ele>246.6</ele>
        <time>2019-05-01T09:46:00Z</time>
      </trkpt>
      <trkpt lat="45.76686" lon="5.43175">
        <ele>247</ele>
        <time>2019-05-01T09:46:03Z</time>
      </trkpt>
      <trkpt lat="45.76683" lon="5.43175">
        <ele>247.3</ele>
        <time>2019-05-01T09:46:04Z</time>
      </trkpt>
      <trkpt lat="45.76677" lon="5.43177">
        <ele>247.7</ele>
        <time>2019-05-01T09:46:06Z</time>
      </trkpt>
      <trkpt lat="45.76667" lon="5.4318">
        <ele>248.1</ele>
        <time>2019-05-01T09:46:10Z</time>
      </trkpt>
      <trkpt lat="45.76659" lon="5.43182">
        <ele>248.6</ele>
        <time>2019-05-01T09:46:13Z</time>
      </trkpt>
      <trkpt lat="45.76651" lon="5.43185">
        <ele>248.9</ele>
        <time>2019-05-01T09:46:16Z</time>
      </trkpt>
      <trkpt lat="45.76648" lon="5.43186">
        <ele>249</ele>
        <time>2019-05-01T09:46:17Z</time>
      </trkpt>
      <trkpt lat="45.76628" lon="5.43193">
        <ele>250.2</ele>
        <time>2019-05-01T09:46:23Z</time>
      </trkpt>
      <trkpt lat="45.76624" lon="5.43194">
        <ele>250.2</ele>
        <time>2019-05-01T09:46:24Z</time>
      </trkpt>
      <trkpt lat="45.76607" lon="5.43201">
        <ele>251.3</ele>
        <time>2019-05-01T09:46:29Z</time>
      </trkpt>
      <trkpt lat="45.76585" lon="5.4321">
        <ele>252.4</ele>
        <time>2019-05-01T09:46:36Z</time>
      </trkpt>
      <trkpt lat="45.76563" lon="5.43219">
        <ele>253.3</ele>
        <time>2019-05-01T09:46:44Z</time>
      </trkpt>
      <trkpt lat="45.76561" lon="5.43219">
        <ele>253.3</ele>
        <time>2019-05-01T09:46:45Z</time>
      </trkpt>
      <trkpt lat="45.76552" lon="5.43213">
        <ele>253.3</ele>
        <time>2019-05-01T09:46:48Z</time>
      </trkpt>
      <trkpt lat="45.76534" lon="5.43193">
        <ele>253.4</ele>
        <time>2019-05-01T09:46:54Z</time>
      </trkpt>
      <trkpt lat="45.76515" lon="5.43171">
        <ele>253.3</ele>
        <time>2019-05-01T09:47:01Z</time>
      </trkpt>
      <trkpt lat="45.76504" lon="5.43145">
        <ele>252.1</ele>
        <time>2019-05-01T09:47:06Z</time>
      </trkpt>
      <trkpt lat="45.76486" lon="5.43117">
        <ele>251</ele>
        <time>2019-05-01T09:47:12Z</time>
      </trkpt>
      <trkpt lat="45.76479" lon="5.43106">
        <ele>250.4</ele>
        <time>2019-05-01T09:47:14Z</time>
      </trkpt>
      <trkpt lat="45.76467" lon="5.43095">
        <ele>250.3</ele>
        <time>2019-05-01T09:47:17Z</time>
      </trkpt>
      <trkpt lat="45.76458" lon="5.4309">
        <ele>250.3</ele>
        <time>2019-05-01T09:47:19Z</time>
      </trkpt>
      <trkpt lat="45.76442" lon="5.43078">
        <ele>249.9</ele>
        <time>2019-05-01T09:47:24Z</time>
      </trkpt>
      <trkpt lat="45.76427" lon="5.43066">
        <ele>249.6</ele>
        <time>2019-05-01T09:47:28Z</time>
      </trkpt>
      <trkpt lat="45.76422" lon="5.43062">
        <ele>249.4</ele>
        <time>2019-05-01T09:47:29Z</time>
      </trkpt>
      <trkpt lat="45.76413" lon="5.43054">
        <ele>249.2</ele>
        <time>2019-05-01T09:47:31Z</time>
      </trkpt>
      <trkpt lat="45.76398" lon="5.43042">
        <ele>248.8</ele>
        <time>2019-05-01T09:47:34Z</time>
      </trkpt>
      <trkpt lat="45.76395" lon="5.43037">
        <ele>248.5</ele>
        <time>2019-05-01T09:47:35Z</time>
      </trkpt>
      <trkpt lat="45.76381" lon="5.43024">
        <ele>247.7</ele>
        <time>2019-05-01T09:47:39Z</time>
      </trkpt>
      <trkpt lat="45.76363" lon="5.4302">
        <ele>246.6</ele>
        <time>2019-05-01T09:47:43Z</time>
      </trkpt>
      <trkpt lat="45.76359" lon="5.43019">
        <ele>246.3</ele>
        <time>2019-05-01T09:47:44Z</time>
      </trkpt>
      <trkpt lat="45.76353" lon="5.43017">
        <ele>245.9</ele>
        <time>2019-05-01T09:47:45Z</time>
      </trkpt>
      <trkpt lat="45.76348" lon="5.43015">
        <ele>245.2</ele>
        <time>2019-05-01T09:47:46Z</time>
      </trkpt>
      <trkpt lat="45.7634" lon="5.43012">
        <ele>244.2</ele>
        <time>2019-05-01T09:47:48Z</time>
      </trkpt>
      <trkpt lat="45.76338" lon="5.43011">
        <ele>243.9</ele>
        <time>2019-05-01T09:47:49Z</time>
      </trkpt>
      <trkpt lat="45.76334" lon="5.43008">
        <ele>243.1</ele>
        <time>2019-05-01T09:48:24Z</time>
      </trkpt>
      <trkpt lat="45.76326" lon="5.43003">
        <ele>241.6</ele>
        <time>2019-05-01T09:48:26Z</time>
      </trkpt>
      <trkpt lat="45.76314" lon="5.42995">
        <ele>239.4</ele>
        <time>2019-05-01T09:48:28Z</time>
      </trkpt>
      <trkpt lat="45.76308" lon="5.42991">
        <ele>238.5</ele>
        <time>2019-05-01T09:48:29Z</time>
      </trkpt>
      <trkpt lat="45.76301" lon="5.42988">
        <ele>237.5</ele>
        <time>2019-05-01T09:48:30Z</time>
      </trkpt>
      <trkpt lat="45.76294" lon="5.42984">
        <ele>236.7</ele>
        <time>2019-05-01T09:48:31Z</time>
      </trkpt>
      <trkpt lat="45.76288" lon="5.4298">
        <ele>236.4</ele>
        <time>2019-05-01T09:48:32Z</time>
      </trkpt>
      <trkpt lat="45.76282" lon="5.42973">
        <ele>235.8</ele>
        <time>2019-05-01T09:48:33Z</time>
      </trkpt>
      <trkpt lat="45.76276" lon="5.42966">
        <ele>234.8</ele>
        <time>2019-05-01T09:48:34Z</time>
      </trkpt>
      <trkpt lat="45.7627" lon="5.42958">
        <ele>234.1</ele>
        <time>2019-05-01T09:48:35Z</time>
      </trkpt>
      <trkpt lat="45.76264" lon="5.4295">
        <ele>233.4</ele>
        <time>2019-05-01T09:48:36Z</time>
      </trkpt>
      <trkpt lat="45.76258" lon="5.42942">
        <ele>232.5</ele>
        <time>2019-05-01T09:48:37Z</time>
      </trkpt>
      <trkpt lat="45.76251" lon="5.42934">
        <ele>231.8</ele>
        <time>2019-05-01T09:48:38Z</time>
      </trkpt>
      <trkpt lat="45.76244" lon="5.42926">
        <ele>231.2</ele>
        <time>2019-05-01T09:48:39Z</time>
      </trkpt>
      <trkpt lat="45.76238" lon="5.42918">
        <ele>230.7</ele>
        <time>2019-05-01T09:48:40Z</time>
      </trkpt>
      <trkpt lat="45.76232" lon="5.4291">
        <ele>230.2</ele>
        <time>2019-05-01T09:48:41Z</time>
      </trkpt>
      <trkpt lat="45.76213" lon="5.42889">
        <ele>229.1</ele>
        <time>2019-05-01T09:48:44Z</time>
      </trkpt>
      <trkpt lat="45.76188" lon="5.42863">
        <ele>228.5</ele>
        <time>2019-05-01T09:48:48Z</time>
      </trkpt>
      <trkpt lat="45.76144" lon="5.42818">
        <ele>229.5</ele>
        <time>2019-05-01T09:48:55Z</time>
      </trkpt>
      <trkpt lat="45.76096" lon="5.42769">
        <ele>231.9</ele>
        <time>2019-05-01T09:49:03Z</time>
      </trkpt>
      <trkpt lat="45.76071" lon="5.42732">
        <ele>232.6</ele>
        <time>2019-05-01T09:49:08Z</time>
      </trkpt>
      <trkpt lat="45.76068" lon="5.42723">
        <ele>232.7</ele>
        <time>2019-05-01T09:49:09Z</time>
      </trkpt>
      <trkpt lat="45.76061" lon="5.42685">
        <ele>233.1</ele>
        <time>2019-05-01T09:49:13Z</time>
      </trkpt>
      <trkpt lat="45.76059" lon="5.42676">
        <ele>232.8</ele>
        <time>2019-05-01T09:49:14Z</time>
      </trkpt>
      <trkpt lat="45.76054" lon="5.4265">
        <ele>231.9</ele>
        <time>2019-05-01T09:49:17Z</time>
      </trkpt>
      <trkpt lat="45.76054" lon="5.42632">
        <ele>231.4</ele>
        <time>2019-05-01T09:49:19Z</time>
      </trkpt>
      <trkpt lat="45.76056" lon="5.42587">
        <ele>230.4</ele>
        <time>2019-05-01T09:49:25Z</time>
      </trkpt>
      <trkpt lat="45.76056" lon="5.42581">
        <ele>230.3</ele>
        <time>2019-05-01T09:49:26Z</time>
      </trkpt>
      <trkpt lat="45.76055" lon="5.42556">
        <ele>229.9</ele>
        <time>2019-05-01T09:49:30Z</time>
      </trkpt>
      <trkpt lat="45.76056" lon="5.4255">
        <ele>229.9</ele>
        <time>2019-05-01T09:49:31Z</time>
      </trkpt>
      <trkpt lat="45.76062" lon="5.42541">
        <ele>230.1</ele>
        <time>2019-05-01T09:49:33Z</time>
      </trkpt>
      <trkpt lat="45.76071" lon="5.42526">
        <ele>230.3</ele>
        <time>2019-05-01T09:49:36Z</time>
      </trkpt>
      <trkpt lat="45.76089" lon="5.42501">
        <ele>230.2</ele>
        <time>2019-05-01T09:49:41Z</time>
      </trkpt>
      <trkpt lat="45.76098" lon="5.42492">
        <ele>230.3</ele>
        <time>2019-05-01T09:49:43Z</time>
      </trkpt>
      <trkpt lat="45.76107" lon="5.42485">
        <ele>230.4</ele>
        <time>2019-05-01T09:49:45Z</time>
      </trkpt>
      <trkpt lat="45.76117" lon="5.42478">
        <ele>230.6</ele>
        <time>2019-05-01T09:49:47Z</time>
      </trkpt>
      <trkpt lat="45.76132" lon="5.42466">
        <ele>230.3</ele>
        <time>2019-05-01T09:49:50Z</time>
      </trkpt>
      <trkpt lat="45.76159" lon="5.42442">
        <ele>228.2</ele>
        <time>2019-05-01T09:49:55Z</time>
      </trkpt>
      <trkpt lat="45.76164" lon="5.42438">
        <ele>227.9</ele>
        <time>2019-05-01T09:49:56Z</time>
      </trkpt>
      <trkpt lat="45.76188" lon="5.42416">
        <ele>226.5</ele>
        <time>2019-05-01T09:50:01Z</time>
      </trkpt>
      <trkpt lat="45.76192" lon="5.42414">
        <ele>226.3</ele>
        <time>2019-05-01T09:50:02Z</time>
      </trkpt>
      <trkpt lat="45.76212" lon="5.42411">
        <ele>225.4</ele>
        <time>2019-05-01T09:50:07Z</time>
      </trkpt>
      <trkpt lat="45.76222" lon="5.42412">
        <ele>224.2</ele>
        <time>2019-05-01T09:55:46Z</time>
      </trkpt>
      <trkpt lat="45.76228" lon="5.42415">
        <ele>224.2</ele>
        <time>2019-05-01T09:55:49Z</time>
      </trkpt>
      <trkpt lat="45.7623" lon="5.42415">
        <ele>224.2</ele>
        <time>2019-05-01T09:55:50Z</time>
      </trkpt>
      <trkpt lat="45.76243" lon="5.42409">
        <ele>224.1</ele>
        <time>2019-05-01T09:55:54Z</time>
      </trkpt>
      <trkpt lat="45.76249" lon="5.42405">
        <ele>224.1</ele>
        <time>2019-05-01T09:55:56Z</time>
      </trkpt>
      <trkpt lat="45.76262" lon="5.42396">
        <ele>224.2</ele>
        <time>2019-05-01T09:56:00Z</time>
      </trkpt>
      <trkpt lat="45.76266" lon="5.42393">
        <ele>224.2</ele>
        <time>2019-05-01T09:56:01Z</time>
      </trkpt>
      <trkpt lat="45.76285" lon="5.42377">
        <ele>224.4</ele>
        <time>2019-05-01T09:56:06Z</time>
      </trkpt>
      <trkpt lat="45.7629" lon="5.42375">
        <ele>224.5</ele>
        <time>2019-05-01T09:56:07Z</time>
      </trkpt>
      <trkpt lat="45.76303" lon="5.42371">
        <ele>224.6</ele>
        <time>2019-05-01T09:56:10Z</time>
      </trkpt>
      <trkpt lat="45.76316" lon="5.42369">
        <ele>224.7</ele>
        <time>2019-05-01T09:56:13Z</time>
      </trkpt>
      <trkpt lat="45.76348" lon="5.42362">
        <ele>225</ele>
        <time>2019-05-01T09:56:20Z</time>
      </trkpt>
      <trkpt lat="45.76383" lon="5.42356">
        <ele>225.5</ele>
        <time>2019-05-01T09:56:27Z</time>
      </trkpt>
      <trkpt lat="45.7641" lon="5.42352">
        <ele>225.9</ele>
        <time>2019-05-01T09:56:32Z</time>
      </trkpt>
      <trkpt lat="45.76424" lon="5.4235">
        <ele>226.1</ele>
        <time>2019-05-01T09:56:35Z</time>
      </trkpt>
      <trkpt lat="45.76434" lon="5.42348">
        <ele>226.2</ele>
        <time>2019-05-01T09:56:37Z</time>
      </trkpt>
      <trkpt lat="45.76456" lon="5.42344">
        <ele>226.5</ele>
        <time>2019-05-01T09:56:41Z</time>
      </trkpt>
      <trkpt lat="45.76488" lon="5.4234">
        <ele>226.5</ele>
        <time>2019-05-01T09:56:46Z</time>
      </trkpt>
      <trkpt lat="45.765" lon="5.4234">
        <ele>226.3</ele>
        <time>2019-05-01T09:56:48Z</time>
      </trkpt>
      <trkpt lat="45.76519" lon="5.4234">
        <ele>225.7</ele>
        <time>2019-05-01T09:56:51Z</time>
      </trkpt>
      <trkpt lat="45.76565" lon="5.42341">
        <ele>224.3</ele>
        <time>2019-05-01T09:56:59Z</time>
      </trkpt>
      <trkpt lat="45.76623" lon="5.42349">
        <ele>222.7</ele>
        <time>2019-05-01T09:57:08Z</time>
      </trkpt>
      <trkpt lat="45.76677" lon="5.42365">
        <ele>221.8</ele>
        <time>2019-05-01T09:57:17Z</time>
      </trkpt>
      <trkpt lat="45.76683" lon="5.42367">
        <ele>221.8</ele>
        <time>2019-05-01T09:57:18Z</time>
      </trkpt>
      <trkpt lat="45.76732" lon="5.42389">
        <ele>221.7</ele>
        <time>2019-05-01T09:57:27Z</time>
      </trkpt>
      <trkpt lat="45.76743" lon="5.42395">
        <ele>221.6</ele>
        <time>2019-05-01T09:57:29Z</time>
      </trkpt>
      <trkpt lat="45.76775" lon="5.42417">
        <ele>221.2</ele>
        <time>2019-05-01T09:57:36Z</time>
      </trkpt>
      <trkpt lat="45.76784" lon="5.42423">
        <ele>221.2</ele>
        <time>2019-05-01T09:57:38Z</time>
      </trkpt>
      <trkpt lat="45.76787" lon="5.42422">
        <ele>221.1</ele>
        <time>2019-05-01T09:57:39Z</time>
      </trkpt>
      <trkpt lat="45.76792" lon="5.4241">
        <ele>221.1</ele>
        <time>2019-05-01T09:57:42Z</time>
      </trkpt>
      <trkpt lat="45.76802" lon="5.42403">
        <ele>221</ele>
        <time>2019-05-01T09:57:45Z</time>
      </trkpt>
      <trkpt lat="45.76809" lon="5.42415">
        <ele>221</ele>
        <time>2019-05-01T09:57:48Z</time>
      </trkpt>
      <trkpt lat="45.76818" lon="5.42428">
        <ele>221.1</ele>
        <time>2019-05-01T09:57:51Z</time>
      </trkpt>
      <trkpt lat="45.76826" lon="5.42435">
        <ele>221.2</ele>
        <time>2019-05-01T09:57:53Z</time>
      </trkpt>
      <trkpt lat="45.76856" lon="5.42461">
        <ele>221.7</ele>
        <time>2019-05-01T09:58:00Z</time>
      </trkpt>
      <trkpt lat="45.76892" lon="5.42496">
        <ele>221.9</ele>
        <time>2019-05-01T09:58:08Z</time>
      </trkpt>
      <trkpt lat="45.76935" lon="5.42546">
        <ele>221.8</ele>
        <time>2019-05-01T09:58:18Z</time>
      </trkpt>
      <trkpt lat="45.76964" lon="5.42584">
        <ele>221.9</ele>
        <time>2019-05-01T09:58:25Z</time>
      </trkpt>
      <trkpt lat="45.76995" lon="5.42632">
        <ele>221.8</ele>
        <time>2019-05-01T09:58:33Z</time>
      </trkpt>
      <trkpt lat="45.77031" lon="5.42697">
        <ele>221.4</ele>
        <time>2019-05-01T09:58:43Z</time>
      </trkpt>
      <trkpt lat="45.77035" lon="5.42703">
        <ele>221.4</ele>
        <time>2019-05-01T09:58:44Z</time>
      </trkpt>
      <trkpt lat="45.77067" lon="5.42765">
        <ele>221</ele>
        <time>2019-05-01T09:58:53Z</time>
      </trkpt>
      <trkpt lat="45.77095" lon="5.42818">
        <ele>220.6</ele>
        <time>2019-05-01T09:59:01Z</time>
      </trkpt>
      <trkpt lat="45.77128" lon="5.42884">
        <ele>220.2</ele>
        <time>2019-05-01T09:59:10Z</time>
      </trkpt>
      <trkpt lat="45.77164" lon="5.42951">
        <ele>220.6</ele>
        <time>2019-05-01T09:59:19Z</time>
      </trkpt>
      <trkpt lat="45.77175" lon="5.42973">
        <ele>221.2</ele>
        <time>2019-05-01T09:59:22Z</time>
      </trkpt>
      <trkpt lat="45.77208" lon="5.43034">
        <ele>222.7</ele>
        <time>2019-05-01T09:59:30Z</time>
      </trkpt>
      <trkpt lat="45.77216" lon="5.43046">
        <ele>223.3</ele>
        <time>2019-05-01T09:59:32Z</time>
      </trkpt>
      <trkpt lat="45.77223" lon="5.43054">
        <ele>223.3</ele>
        <time>2019-05-01T09:59:34Z</time>
      </trkpt>
      <trkpt lat="45.77229" lon="5.43064">
        <ele>223.2</ele>
        <time>2019-05-01T09:59:36Z</time>
      </trkpt>
      <trkpt lat="45.77238" lon="5.43084">
        <ele>223</ele>
        <time>2019-05-01T09:59:39Z</time>
      </trkpt>
      <trkpt lat="45.77261" lon="5.43126">
        <ele>222.8</ele>
        <time>2019-05-01T09:59:45Z</time>
      </trkpt>
      <trkpt lat="45.77266" lon="5.43132">
        <ele>222.8</ele>
        <time>2019-05-01T09:59:46Z</time>
      </trkpt>
      <trkpt lat="45.77285" lon="5.43159">
        <ele>222.8</ele>
        <time>2019-05-01T09:59:50Z</time>
      </trkpt>
      <trkpt lat="45.7729" lon="5.43166">
        <ele>222.9</ele>
        <time>2019-05-01T09:59:51Z</time>
      </trkpt>
      <trkpt lat="45.77333" lon="5.43215">
        <ele>223.4</ele>
        <time>2019-05-01T09:59:59Z</time>
      </trkpt>
      <trkpt lat="45.77375" lon="5.43252">
        <ele>223.4</ele>
        <time>2019-05-01T10:00:06Z</time>
      </trkpt>
      <trkpt lat="45.77412" lon="5.43277">
        <ele>223.5</ele>
        <time>2019-05-01T10:00:13Z</time>
      </trkpt>
      <trkpt lat="45.7744" lon="5.43301">
        <ele>221.6</ele>
        <time>2019-05-01T10:00:18Z</time>
      </trkpt>
      <trkpt lat="45.77485" lon="5.4332">
        <ele>221.5</ele>
        <time>2019-05-01T10:00:25Z</time>
      </trkpt>
      <trkpt lat="45.77529" lon="5.43332">
        <ele>221.6</ele>
        <time>2019-05-01T10:00:32Z</time>
      </trkpt>
      <trkpt lat="45.77558" lon="5.43335">
        <ele>222.4</ele>
        <time>2019-05-01T10:00:37Z</time>
      </trkpt>
      <trkpt lat="45.77563" lon="5.43335">
        <ele>222.6</ele>
        <time>2019-05-01T10:00:38Z</time>
      </trkpt>
      <trkpt lat="45.7758" lon="5.43335">
        <ele>222.1</ele>
        <time>2019-05-01T10:00:41Z</time>
      </trkpt>
      <trkpt lat="45.77593" lon="5.43337">
        <ele>221.9</ele>
        <time>2019-05-01T10:00:43Z</time>
      </trkpt>
      <trkpt lat="45.77599" lon="5.43337">
        <ele>221.8</ele>
        <time>2019-05-01T10:00:44Z</time>
      </trkpt>
      <trkpt lat="45.77624" lon="5.43336">
        <ele>221.6</ele>
        <time>2019-05-01T10:00:48Z</time>
      </trkpt>
      <trkpt lat="45.77681" lon="5.43328">
        <ele>222</ele>
        <time>2019-05-01T10:00:57Z</time>
      </trkpt>
      <trkpt lat="45.77718" lon="5.43324">
        <ele>222.7</ele>
        <time>2019-05-01T10:01:03Z</time>
      </trkpt>
      <trkpt lat="45.7773" lon="5.43321">
        <ele>223</ele>
        <time>2019-05-01T10:01:05Z</time>
      </trkpt>
      <trkpt lat="45.77762" lon="5.43311">
        <ele>223.9</ele>
        <time>2019-05-01T10:01:11Z</time>
      </trkpt>
      <trkpt lat="45.77767" lon="5.43301">
        <ele>224.4</ele>
        <time>2019-05-01T10:01:13Z</time>
      </trkpt>
      <trkpt lat="45.77767" lon="5.43295">
        <ele>224.4</ele>
        <time>2019-05-01T10:01:14Z</time>
      </trkpt>
      <trkpt lat="45.77761" lon="5.43272">
        <ele>224.5</ele>
        <time>2019-05-01T10:01:17Z</time>
      </trkpt>
      <trkpt lat="45.77759" lon="5.43264">
        <ele>224.6</ele>
        <time>2019-05-01T10:01:18Z</time>
      </trkpt>
      <trkpt lat="45.77755" lon="5.43223">
        <ele>224.8</ele>
        <time>2019-05-01T10:01:23Z</time>
      </trkpt>
      <trkpt lat="45.77753" lon="5.43206">
        <ele>224.9</ele>
        <time>2019-05-01T10:01:25Z</time>
      </trkpt>
      <trkpt lat="45.77747" lon="5.43175">
        <ele>224.9</ele>
        <time>2019-05-01T10:01:29Z</time>
      </trkpt>
      <trkpt lat="45.77736" lon="5.43138">
        <ele>225.1</ele>
        <time>2019-05-01T10:01:34Z</time>
      </trkpt>
      <trkpt lat="45.77728" lon="5.43109">
        <ele>225.4</ele>
        <time>2019-05-01T10:01:38Z</time>
      </trkpt>
      <trkpt lat="45.77709" lon="5.43046">
        <ele>225.5</ele>
        <time>2019-05-01T10:01:46Z</time>
      </trkpt>
      <trkpt lat="45.77685" lon="5.42976">
        <ele>225.8</ele>
        <time>2019-05-01T10:01:55Z</time>
      </trkpt>
      <trkpt lat="45.77659" lon="5.42917">
        <ele>226.2</ele>
        <time>2019-05-01T10:02:03Z</time>
      </trkpt>
      <trkpt lat="45.77646" lon="5.42867">
        <ele>228.4</ele>
        <time>2019-05-01T10:02:09Z</time>
      </trkpt>
      <trkpt lat="45.77635" lon="5.428">
        <ele>230</ele>
        <time>2019-05-01T10:02:17Z</time>
      </trkpt>
      <trkpt lat="45.77631" lon="5.4277">
        <ele>230.5</ele>
        <time>2019-05-01T10:02:21Z</time>
      </trkpt>
      <trkpt lat="45.77627" lon="5.42756">
        <ele>230.8</ele>
        <time>2019-05-01T10:02:23Z</time>
      </trkpt>
      <trkpt lat="45.77625" lon="5.4275">
        <ele>230.9</ele>
        <time>2019-05-01T10:02:24Z</time>
      </trkpt>
      <trkpt lat="45.77622" lon="5.42744">
        <ele>230.9</ele>
        <time>2019-05-01T10:02:25Z</time>
      </trkpt>
      <trkpt lat="45.77613" lon="5.42729">
        <ele>231.4</ele>
        <time>2019-05-01T10:02:28Z</time>
      </trkpt>
      <trkpt lat="45.77605" lon="5.42721">
        <ele>231.5</ele>
        <time>2019-05-01T10:02:30Z</time>
      </trkpt>
      <trkpt lat="45.77601" lon="5.42716">
        <ele>231.5</ele>
        <time>2019-05-01T10:02:31Z</time>
      </trkpt>
      <trkpt lat="45.77591" lon="5.42706">
        <ele>231.4</ele>
        <time>2019-05-01T10:02:33Z</time>
      </trkpt>
      <trkpt lat="45.77559" lon="5.42675">
        <ele>229.7</ele>
        <time>2019-05-01T10:02:39Z</time>
      </trkpt>
      <trkpt lat="45.77555" lon="5.42668">
        <ele>229.5</ele>
        <time>2019-05-01T10:02:40Z</time>
      </trkpt>
      <trkpt lat="45.77553" lon="5.42644">
        <ele>229.6</ele>
        <time>2019-05-01T10:02:43Z</time>
      </trkpt>
      <trkpt lat="45.77558" lon="5.42627">
        <ele>229.6</ele>
        <time>2019-05-01T10:02:45Z</time>
      </trkpt>
      <trkpt lat="45.77564" lon="5.42609">
        <ele>229.6</ele>
        <time>2019-05-01T10:02:47Z</time>
      </trkpt>
      <trkpt lat="45.77573" lon="5.42583">
        <ele>229.6</ele>
        <time>2019-05-01T10:02:50Z</time>
      </trkpt>
      <trkpt lat="45.77586" lon="5.42551">
        <ele>230</ele>
        <time>2019-05-01T10:02:54Z</time>
      </trkpt>
      <trkpt lat="45.77608" lon="5.42508">
        <ele>231.8</ele>
        <time>2019-05-01T10:03:00Z</time>
      </trkpt>
      <trkpt lat="45.77611" lon="5.425">
        <ele>232.1</ele>
        <time>2019-05-01T10:03:01Z</time>
      </trkpt>
      <trkpt lat="45.77627" lon="5.42439">
        <ele>234.8</ele>
        <time>2019-05-01T10:03:08Z</time>
      </trkpt>
      <trkpt lat="45.77631" lon="5.42407">
        <ele>236.5</ele>
        <time>2019-05-01T10:03:12Z</time>
      </trkpt>
      <trkpt lat="45.77632" lon="5.42399">
        <ele>236.9</ele>
        <time>2019-05-01T10:03:13Z</time>
      </trkpt>
      <trkpt lat="45.77635" lon="5.42386">
        <ele>237.6</ele>
        <time>2019-05-01T10:03:15Z</time>
      </trkpt>
      <trkpt lat="45.77641" lon="5.42368">
        <ele>238.7</ele>
        <time>2019-05-01T10:03:18Z</time>
      </trkpt>
      <trkpt lat="45.77648" lon="5.42352">
        <ele>240</ele>
        <time>2019-05-01T10:03:21Z</time>
      </trkpt>
      <trkpt lat="45.77656" lon="5.42337">
        <ele>241.1</ele>
        <time>2019-05-01T10:03:24Z</time>
      </trkpt>
      <trkpt lat="45.77663" lon="5.42324">
        <ele>242.1</ele>
        <time>2019-05-01T10:03:27Z</time>
      </trkpt>
      <trkpt lat="45.77666" lon="5.4231">
        <ele>243</ele>
        <time>2019-05-01T10:03:30Z</time>
      </trkpt>
      <trkpt lat="45.77669" lon="5.42293">
        <ele>244</ele>
        <time>2019-05-01T10:03:34Z</time>
      </trkpt>
      <trkpt lat="45.77671" lon="5.42284">
        <ele>244.6</ele>
        <time>2019-05-01T10:03:36Z</time>
      </trkpt>
      <trkpt lat="45.77674" lon="5.42271">
        <ele>245.5</ele>
        <time>2019-05-01T10:03:39Z</time>
      </trkpt>
      <trkpt lat="45.77681" lon="5.42249">
        <ele>246.5</ele>
        <time>2019-05-01T10:03:44Z</time>
      </trkpt>
      <trkpt lat="45.77684" lon="5.42237">
        <ele>247.1</ele>
        <time>2019-05-01T10:03:47Z</time>
      </trkpt>
      <trkpt lat="45.77688" lon="5.42216">
        <ele>247.8</ele>
        <time>2019-05-01T10:03:52Z</time>
      </trkpt>
      <trkpt lat="45.77698" lon="5.42195">
        <ele>248.7</ele>
        <time>2019-05-01T10:03:58Z</time>
      </trkpt>
      <trkpt lat="45.77706" lon="5.42184">
        <ele>248.9</ele>
        <time>2019-05-01T10:04:02Z</time>
      </trkpt>
      <trkpt lat="45.77711" lon="5.42181">
        <ele>248.9</ele>
        <time>2019-05-01T10:04:04Z</time>
      </trkpt>
      <trkpt lat="45.77726" lon="5.42177">
        <ele>249.3</ele>
        <time>2019-05-01T10:04:09Z</time>
      </trkpt>
      <trkpt lat="45.77732" lon="5.42176">
        <ele>249.4</ele>
        <time>2019-05-01T10:04:11Z</time>
      </trkpt>
      <trkpt lat="45.77739" lon="5.42174">
        <ele>249.6</ele>
        <time>2019-05-01T10:04:13Z</time>
      </trkpt>
      <trkpt lat="45.77753" lon="5.42167">
        <ele>250</ele>
        <time>2019-05-01T10:04:18Z</time>
      </trkpt>
      <trkpt lat="45.77762" lon="5.42163">
        <ele>250.4</ele>
        <time>2019-05-01T10:04:22Z</time>
      </trkpt>
      <trkpt lat="45.7777" lon="5.42162">
        <ele>250.6</ele>
        <time>2019-05-01T10:04:25Z</time>
      </trkpt>
      <trkpt lat="45.77787" lon="5.42155">
        <ele>251.3</ele>
        <time>2019-05-01T10:04:31Z</time>
      </trkpt>
      <trkpt lat="45.77796" lon="5.42153">
        <ele>251.5</ele>
        <time>2019-05-01T10:04:33Z</time>
      </trkpt>
      <trkpt lat="45.77809" lon="5.42151">
        <ele>251.9</ele>
        <time>2019-05-01T10:04:36Z</time>
      </trkpt>
      <trkpt lat="45.77825" lon="5.42149">
        <ele>252.4</ele>
        <time>2019-05-01T10:04:39Z</time>
      </trkpt>
      <trkpt lat="45.77834" lon="5.42147">
        <ele>252.8</ele>
        <time>2019-05-01T10:04:41Z</time>
      </trkpt>
      <trkpt lat="45.77843" lon="5.42144">
        <ele>253.1</ele>
        <time>2019-05-01T10:04:43Z</time>
      </trkpt>
      <trkpt lat="45.77855" lon="5.42142">
        <ele>253.5</ele>
        <time>2019-05-01T10:04:46Z</time>
      </trkpt>
      <trkpt lat="45.77864" lon="5.42142">
        <ele>253.8</ele>
        <time>2019-05-01T10:04:48Z</time>
      </trkpt>
      <trkpt lat="45.77885" lon="5.42144">
        <ele>254.1</ele>
        <time>2019-05-01T10:04:53Z</time>
      </trkpt>
      <trkpt lat="45.77888" lon="5.42142">
        <ele>254.2</ele>
        <time>2019-05-01T10:04:54Z</time>
      </trkpt>
      <trkpt lat="45.7789" lon="5.42137">
        <ele>254.3</ele>
        <time>2019-05-01T10:04:56Z</time>
      </trkpt>
      <trkpt lat="45.77897" lon="5.42132">
        <ele>254.5</ele>
        <time>2019-05-01T10:05:01Z</time>
      </trkpt>
      <trkpt lat="45.77913" lon="5.42122">
        <ele>254.7</ele>
        <time>2019-05-01T10:05:08Z</time>
      </trkpt>
      <trkpt lat="45.77932" lon="5.42121">
        <ele>255.1</ele>
        <time>2019-05-01T10:05:13Z</time>
      </trkpt>
      <trkpt lat="45.77953" lon="5.42124">
        <ele>255.4</ele>
        <time>2019-05-01T10:05:18Z</time>
      </trkpt>
      <trkpt lat="45.77961" lon="5.42127">
        <ele>254.6</ele>
        <time>2019-05-01T10:05:20Z</time>
      </trkpt>
      <trkpt lat="45.77988" lon="5.42143">
        <ele>252.2</ele>
        <time>2019-05-01T10:05:27Z</time>
      </trkpt>
      <trkpt lat="45.78005" lon="5.42153">
        <ele>251.2</ele>
        <time>2019-05-01T10:05:31Z</time>
      </trkpt>
      <trkpt lat="45.78013" lon="5.42156">
        <ele>251.1</ele>
        <time>2019-05-01T10:05:33Z</time>
      </trkpt>
      <trkpt lat="45.78035" lon="5.42162">
        <ele>250.4</ele>
        <time>2019-05-01T10:05:39Z</time>
      </trkpt>
      <trkpt lat="45.78059" lon="5.42162">
        <ele>248.7</ele>
        <time>2019-05-01T10:05:46Z</time>
      </trkpt>
      <trkpt lat="45.78076" lon="5.42157">
        <ele>248.8</ele>
        <time>2019-05-01T10:05:51Z</time>
      </trkpt>
      <trkpt lat="45.7809" lon="5.42157">
        <ele>249.6</ele>
        <time>2019-05-01T10:05:54Z</time>
      </trkpt>
      <trkpt lat="45.78103" lon="5.42154">
        <ele>252.5</ele>
        <time>2019-05-01T10:05:57Z</time>
      </trkpt>
      <trkpt lat="45.78125" lon="5.42151">
        <ele>258.3</ele>
        <time>2019-05-01T10:06:02Z</time>
      </trkpt>
      <trkpt lat="45.78134" lon="5.4215">
        <ele>259.4</ele>
        <time>2019-05-01T10:06:04Z</time>
      </trkpt>
      <trkpt lat="45.78138" lon="5.42149">
        <ele>259.8</ele>
        <time>2019-05-01T10:06:05Z</time>
      </trkpt>
      <trkpt lat="45.78168" lon="5.42137">
        <ele>260.9</ele>
        <time>2019-05-01T10:06:12Z</time>
      </trkpt>
      <trkpt lat="45.78181" lon="5.42128">
        <ele>260.2</ele>
        <time>2019-05-01T10:06:15Z</time>
      </trkpt>
      <trkpt lat="45.78194" lon="5.42119">
        <ele>258</ele>
        <time>2019-05-01T10:06:18Z</time>
      </trkpt>
      <trkpt lat="45.78223" lon="5.42095">
        <ele>254.9</ele>
        <time>2019-05-01T10:06:24Z</time>
      </trkpt>
      <trkpt lat="45.78254" lon="5.42071">
        <ele>255.5</ele>
        <time>2019-05-01T10:06:30Z</time>
      </trkpt>
      <trkpt lat="45.78286" lon="5.42041">
        <ele>253.2</ele>
        <time>2019-05-01T10:06:35Z</time>
      </trkpt>
      <trkpt lat="45.78326" lon="5.42012">
        <ele>248.7</ele>
        <time>2019-05-01T10:06:40Z</time>
      </trkpt>
      <trkpt lat="45.78334" lon="5.42004">
        <ele>247.1</ele>
        <time>2019-05-01T10:06:41Z</time>
      </trkpt>
      <trkpt lat="45.78349" lon="5.41983">
        <ele>246.4</ele>
        <time>2019-05-01T10:06:43Z</time>
      </trkpt>
      <trkpt lat="45.78355" lon="5.41971">
        <ele>246.2</ele>
        <time>2019-05-01T10:06:44Z</time>
      </trkpt>
      <trkpt lat="45.78362" lon="5.41961">
        <ele>246</ele>
        <time>2019-05-01T10:06:45Z</time>
      </trkpt>
      <trkpt lat="45.78381" lon="5.41933">
        <ele>245.4</ele>
        <time>2019-05-01T10:06:48Z</time>
      </trkpt>
      <trkpt lat="45.78388" lon="5.41926">
        <ele>245.4</ele>
        <time>2019-05-01T10:06:49Z</time>
      </trkpt>
      <trkpt lat="45.78411" lon="5.4191">
        <ele>244.2</ele>
        <time>2019-05-01T10:06:52Z</time>
      </trkpt>
      <trkpt lat="45.78418" lon="5.41906">
        <ele>243</ele>
        <time>2019-05-01T10:06:53Z</time>
      </trkpt>
      <trkpt lat="45.7844" lon="5.41892">
        <ele>240.5</ele>
        <time>2019-05-01T10:06:56Z</time>
      </trkpt>
      <trkpt lat="45.78463" lon="5.41883">
        <ele>239.2</ele>
        <time>2019-05-01T10:06:59Z</time>
      </trkpt>
      <trkpt lat="45.78507" lon="5.41875">
        <ele>238.4</ele>
        <time>2019-05-01T10:07:05Z</time>
      </trkpt>
      <trkpt lat="45.7853" lon="5.4187">
        <ele>238.8</ele>
        <time>2019-05-01T10:07:08Z</time>
      </trkpt>
      <trkpt lat="45.78558" lon="5.41864">
        <ele>239.2</ele>
        <time>2019-05-01T10:07:12Z</time>
      </trkpt>
      <trkpt lat="45.78572" lon="5.41861">
        <ele>239.2</ele>
        <time>2019-05-01T10:07:14Z</time>
      </trkpt>
      <trkpt lat="45.78601" lon="5.41854">
        <ele>239.2</ele>
        <time>2019-05-01T10:07:18Z</time>
      </trkpt>
      <trkpt lat="45.78608" lon="5.41851">
        <ele>239.1</ele>
        <time>2019-05-01T10:07:19Z</time>
      </trkpt>
      <trkpt lat="45.78641" lon="5.41835">
        <ele>239.3</ele>
        <time>2019-05-01T10:07:24Z</time>
      </trkpt>
      <trkpt lat="45.78668" lon="5.41817">
        <ele>240.4</ele>
        <time>2019-05-01T10:07:29Z</time>
      </trkpt>
      <trkpt lat="45.78701" lon="5.41785">
        <ele>242.4</ele>
        <time>2019-05-01T10:07:36Z</time>
      </trkpt>
      <trkpt lat="45.78737" lon="5.41755">
        <ele>243.7</ele>
        <time>2019-05-01T10:07:44Z</time>
      </trkpt>
      <trkpt lat="45.78773" lon="5.4173">
        <ele>244.8</ele>
        <time>2019-05-01T10:07:51Z</time>
      </trkpt>
      <trkpt lat="45.78791" lon="5.41728">
        <ele>245.6</ele>
        <time>2019-05-01T10:07:54Z</time>
      </trkpt>
      <trkpt lat="45.78803" lon="5.41728">
        <ele>246.5</ele>
        <time>2019-05-01T10:07:56Z</time>
      </trkpt>
      <trkpt lat="45.78827" lon="5.41725">
        <ele>247.5</ele>
        <time>2019-05-01T10:08:00Z</time>
      </trkpt>
      <trkpt lat="45.7885" lon="5.41722">
        <ele>247.8</ele>
        <time>2019-05-01T10:08:04Z</time>
      </trkpt>
      <trkpt lat="45.78861" lon="5.41722">
        <ele>247.6</ele>
        <time>2019-05-01T10:08:06Z</time>
      </trkpt>
      <trkpt lat="45.78866" lon="5.41722">
        <ele>247.5</ele>
        <time>2019-05-01T10:08:07Z</time>
      </trkpt>
      <trkpt lat="45.78883" lon="5.41722">
        <ele>247.2</ele>
        <time>2019-05-01T10:08:10Z</time>
      </trkpt>
      <trkpt lat="45.78899" lon="5.41722">
        <ele>247.1</ele>
        <time>2019-05-01T10:08:13Z</time>
      </trkpt>
      <trkpt lat="45.7891" lon="5.41721">
        <ele>247.2</ele>
        <time>2019-05-01T10:08:15Z</time>
      </trkpt>
      <trkpt lat="45.78915" lon="5.4172">
        <ele>247.1</ele>
        <time>2019-05-01T10:08:16Z</time>
      </trkpt>
      <trkpt lat="45.78937" lon="5.41714">
        <ele>247.2</ele>
        <time>2019-05-01T10:08:20Z</time>
      </trkpt>
      <trkpt lat="45.78942" lon="5.41711">
        <ele>247.2</ele>
        <time>2019-05-01T10:08:21Z</time>
      </trkpt>
      <trkpt lat="45.7896" lon="5.41696">
        <ele>247.4</ele>
        <time>2019-05-01T10:08:25Z</time>
      </trkpt>
      <trkpt lat="45.78964" lon="5.41695">
        <ele>247.4</ele>
        <time>2019-05-01T10:08:26Z</time>
      </trkpt>
      <trkpt lat="45.78968" lon="5.41697">
        <ele>246.8</ele>
        <time>2019-05-01T10:08:27Z</time>
      </trkpt>
      <trkpt lat="45.78976" lon="5.41706">
        <ele>246.3</ele>
        <time>2019-05-01T10:08:29Z</time>
      </trkpt>
      <trkpt lat="45.78983" lon="5.41729">
        <ele>245.6</ele>
        <time>2019-05-01T10:08:32Z</time>
      </trkpt>
      <trkpt lat="45.78989" lon="5.4175">
        <ele>244.7</ele>
        <time>2019-05-01T10:08:35Z</time>
      </trkpt>
      <trkpt lat="45.78997" lon="5.41768">
        <ele>244</ele>
        <time>2019-05-01T10:08:38Z</time>
      </trkpt>
      <trkpt lat="45.79" lon="5.41774">
        <ele>243.7</ele>
        <time>2019-05-01T10:08:39Z</time>
      </trkpt>
      <trkpt lat="45.79004" lon="5.4178">
        <ele>243.5</ele>
        <time>2019-05-01T10:08:40Z</time>
      </trkpt>
      <trkpt lat="45.79014" lon="5.41786">
        <ele>243.5</ele>
        <time>2019-05-01T10:08:42Z</time>
      </trkpt>
      <trkpt lat="45.79025" lon="5.41788">
        <ele>243.6</ele>
        <time>2019-05-01T10:08:44Z</time>
      </trkpt>
      <trkpt lat="45.79036" lon="5.41787">
        <ele>243.7</ele>
        <time>2019-05-01T10:08:46Z</time>
      </trkpt>
      <trkpt lat="45.79042" lon="5.41785">
        <ele>243.7</ele>
        <time>2019-05-01T10:08:47Z</time>
      </trkpt>
      <trkpt lat="45.79058" lon="5.41776">
        <ele>243.7</ele>
        <time>2019-05-01T10:08:50Z</time>
      </trkpt>
      <trkpt lat="45.79063" lon="5.41774">
        <ele>243.7</ele>
        <time>2019-05-01T10:08:51Z</time>
      </trkpt>
      <trkpt lat="45.79082" lon="5.41763">
        <ele>243.6</ele>
        <time>2019-05-01T10:08:55Z</time>
      </trkpt>
      <trkpt lat="45.79091" lon="5.41755">
        <ele>243.6</ele>
        <time>2019-05-01T10:08:57Z</time>
      </trkpt>
      <trkpt lat="45.79105" lon="5.41739">
        <ele>243.8</ele>
        <time>2019-05-01T10:09:00Z</time>
      </trkpt>
      <trkpt lat="45.79119" lon="5.41722">
        <ele>244.2</ele>
        <time>2019-05-01T10:09:03Z</time>
      </trkpt>
      <trkpt lat="45.79124" lon="5.41718">
        <ele>244.5</ele>
        <time>2019-05-01T10:09:04Z</time>
      </trkpt>
      <trkpt lat="45.79141" lon="5.41703">
        <ele>245.2</ele>
        <time>2019-05-01T10:09:07Z</time>
      </trkpt>
      <trkpt lat="45.79148" lon="5.41699">
        <ele>245.5</ele>
        <time>2019-05-01T10:09:08Z</time>
      </trkpt>
      <trkpt lat="45.79183" lon="5.41685">
        <ele>246.8</ele>
        <time>2019-05-01T10:09:13Z</time>
      </trkpt>
      <trkpt lat="45.79196" lon="5.41676">
        <ele>247.5</ele>
        <time>2019-05-01T10:09:15Z</time>
      </trkpt>
      <trkpt lat="45.79217" lon="5.4166">
        <ele>248.2</ele>
        <time>2019-05-01T10:09:18Z</time>
      </trkpt>
      <trkpt lat="45.79257" lon="5.41633">
        <ele>248.6</ele>
        <time>2019-05-01T10:09:24Z</time>
      </trkpt>
      <trkpt lat="45.7927" lon="5.41624">
        <ele>248.4</ele>
        <time>2019-05-01T10:09:26Z</time>
      </trkpt>
      <trkpt lat="45.79309" lon="5.41604">
        <ele>246.6</ele>
        <time>2019-05-01T10:09:31Z</time>
      </trkpt>
      <trkpt lat="45.79336" lon="5.41592">
        <ele>244.7</ele>
        <time>2019-05-01T10:09:34Z</time>
      </trkpt>
      <trkpt lat="45.79355" lon="5.41583">
        <ele>243.3</ele>
        <time>2019-05-01T10:09:36Z</time>
      </trkpt>
      <trkpt lat="45.79364" lon="5.41578">
        <ele>242.6</ele>
        <time>2019-05-01T10:09:37Z</time>
      </trkpt>
      <trkpt lat="45.79374" lon="5.41573">
        <ele>242.1</ele>
        <time>2019-05-01T10:09:38Z</time>
      </trkpt>
      <trkpt lat="45.79395" lon="5.41563">
        <ele>241.4</ele>
        <time>2019-05-01T10:09:40Z</time>
      </trkpt>
      <trkpt lat="45.79426" lon="5.41554">
        <ele>240.7</ele>
        <time>2019-05-01T10:09:43Z</time>
      </trkpt>
      <trkpt lat="45.79453" lon="5.41552">
        <ele>240.3</ele>
        <time>2019-05-01T10:09:46Z</time>
      </trkpt>
      <trkpt lat="45.79471" lon="5.41551">
        <ele>240</ele>
        <time>2019-05-01T10:09:48Z</time>
      </trkpt>
      <trkpt lat="45.79486" lon="5.41551">
        <ele>239.8</ele>
        <time>2019-05-01T10:09:50Z</time>
      </trkpt>
      <trkpt lat="45.79492" lon="5.41548">
        <ele>239.7</ele>
        <time>2019-05-01T10:09:51Z</time>
      </trkpt>
      <trkpt lat="45.79499" lon="5.41544">
        <ele>239.6</ele>
        <time>2019-05-01T10:09:52Z</time>
      </trkpt>
      <trkpt lat="45.79512" lon="5.41533">
        <ele>239.4</ele>
        <time>2019-05-01T10:09:54Z</time>
      </trkpt>
      <trkpt lat="45.79532" lon="5.41514">
        <ele>239.7</ele>
        <time>2019-05-01T10:09:57Z</time>
      </trkpt>
      <trkpt lat="45.7954" lon="5.4151">
        <ele>239.9</ele>
        <time>2019-05-01T10:09:58Z</time>
      </trkpt>
      <trkpt lat="45.79561" lon="5.41497">
        <ele>240</ele>
        <time>2019-05-01T10:10:01Z</time>
      </trkpt>
      <trkpt lat="45.79567" lon="5.41491">
        <ele>240</ele>
        <time>2019-05-01T10:10:02Z</time>
      </trkpt>
      <trkpt lat="45.79591" lon="5.41472">
        <ele>239.8</ele>
        <time>2019-05-01T10:10:06Z</time>
      </trkpt>
      <trkpt lat="45.7961" lon="5.41475">
        <ele>239</ele>
        <time>2019-05-01T10:10:09Z</time>
      </trkpt>
      <trkpt lat="45.79641" lon="5.41486">
        <ele>237.9</ele>
        <time>2019-05-01T10:10:13Z</time>
      </trkpt>
      <trkpt lat="45.7966" lon="5.41483">
        <ele>237.3</ele>
        <time>2019-05-01T10:10:15Z</time>
      </trkpt>
      <trkpt lat="45.79671" lon="5.41482">
        <ele>236.7</ele>
        <time>2019-05-01T10:10:16Z</time>
      </trkpt>
      <trkpt lat="45.79683" lon="5.41483">
        <ele>236</ele>
        <time>2019-05-01T10:10:17Z</time>
      </trkpt>
      <trkpt lat="45.79694" lon="5.41487">
        <ele>235.1</ele>
        <time>2019-05-01T10:10:18Z</time>
      </trkpt>
      <trkpt lat="45.79704" lon="5.41487">
        <ele>234.3</ele>
        <time>2019-05-01T10:10:19Z</time>
      </trkpt>
      <trkpt lat="45.79715" lon="5.41483">
        <ele>233.2</ele>
        <time>2019-05-01T10:10:20Z</time>
      </trkpt>
      <trkpt lat="45.79725" lon="5.41475">
        <ele>232.1</ele>
        <time>2019-05-01T10:10:21Z</time>
      </trkpt>
      <trkpt lat="45.79735" lon="5.41466">
        <ele>231</ele>
        <time>2019-05-01T10:10:22Z</time>
      </trkpt>
      <trkpt lat="45.79755" lon="5.41447">
        <ele>229.2</ele>
        <time>2019-05-01T10:10:24Z</time>
      </trkpt>
      <trkpt lat="45.79764" lon="5.41438">
        <ele>228.3</ele>
        <time>2019-05-01T10:10:25Z</time>
      </trkpt>
      <trkpt lat="45.79775" lon="5.41431">
        <ele>227.4</ele>
        <time>2019-05-01T10:10:26Z</time>
      </trkpt>
      <trkpt lat="45.79794" lon="5.41414">
        <ele>225.7</ele>
        <time>2019-05-01T10:10:28Z</time>
      </trkpt>
      <trkpt lat="45.79803" lon="5.41406">
        <ele>225.1</ele>
        <time>2019-05-01T10:10:29Z</time>
      </trkpt>
      <trkpt lat="45.79811" lon="5.41397">
        <ele>224.7</ele>
        <time>2019-05-01T10:10:30Z</time>
      </trkpt>
      <trkpt lat="45.79827" lon="5.4138">
        <ele>223.5</ele>
        <time>2019-05-01T10:10:32Z</time>
      </trkpt>
      <trkpt lat="45.79836" lon="5.41374">
        <ele>223.1</ele>
        <time>2019-05-01T10:10:33Z</time>
      </trkpt>
      <trkpt lat="45.79846" lon="5.41371">
        <ele>222.8</ele>
        <time>2019-05-01T10:10:34Z</time>
      </trkpt>
      <trkpt lat="45.79856" lon="5.41372">
        <ele>222.7</ele>
        <time>2019-05-01T10:10:35Z</time>
      </trkpt>
      <trkpt lat="45.79873" lon="5.41382">
        <ele>222.7</ele>
        <time>2019-05-01T10:10:37Z</time>
      </trkpt>
      <trkpt lat="45.79881" lon="5.41387">
        <ele>222.8</ele>
        <time>2019-05-01T10:10:38Z</time>
      </trkpt>
      <trkpt lat="45.7991" lon="5.414">
        <ele>222.3</ele>
        <time>2019-05-01T10:10:42Z</time>
      </trkpt>
      <trkpt lat="45.79917" lon="5.414">
        <ele>222.3</ele>
        <time>2019-05-01T10:10:43Z</time>
      </trkpt>
      <trkpt lat="45.79924" lon="5.41393">
        <ele>222.1</ele>
        <time>2019-05-01T10:10:45Z</time>
      </trkpt>
      <trkpt lat="45.79929" lon="5.41368">
        <ele>221.7</ele>
        <time>2019-05-01T10:10:48Z</time>
      </trkpt>
      <trkpt lat="45.79929" lon="5.41357">
        <ele>221.6</ele>
        <time>2019-05-01T10:10:49Z</time>
      </trkpt>
      <trkpt lat="45.79935" lon="5.41325">
        <ele>221.7</ele>
        <time>2019-05-01T10:10:52Z</time>
      </trkpt>
      <trkpt lat="45.79947" lon="5.41301">
        <ele>221.7</ele>
        <time>2019-05-01T10:10:55Z</time>
      </trkpt>
      <trkpt lat="45.79965" lon="5.41271">
        <ele>221.5</ele>
        <time>2019-05-01T10:10:59Z</time>
      </trkpt>
      <trkpt lat="45.79978" lon="5.41249">
        <ele>221.3</ele>
        <time>2019-05-01T10:11:02Z</time>
      </trkpt>
      <trkpt lat="45.79992" lon="5.41229">
        <ele>221.1</ele>
        <time>2019-05-01T10:11:05Z</time>
      </trkpt>
      <trkpt lat="45.80003" lon="5.41219">
        <ele>221.2</ele>
        <time>2019-05-01T10:11:07Z</time>
      </trkpt>
      <trkpt lat="45.80022" lon="5.41209">
        <ele>221.7</ele>
        <time>2019-05-01T10:11:10Z</time>
      </trkpt>
      <trkpt lat="45.80034" lon="5.41203">
        <ele>222.1</ele>
        <time>2019-05-01T10:11:12Z</time>
      </trkpt>
      <trkpt lat="45.80081" lon="5.41182">
        <ele>223.2</ele>
        <time>2019-05-01T10:11:19Z</time>
      </trkpt>
      <trkpt lat="45.80113" lon="5.41165">
        <ele>222.8</ele>
        <time>2019-05-01T10:11:24Z</time>
      </trkpt>
      <trkpt lat="45.80131" lon="5.41155">
        <ele>222.6</ele>
        <time>2019-05-01T10:11:27Z</time>
      </trkpt>
      <trkpt lat="45.80152" lon="5.41136">
        <ele>222.5</ele>
        <time>2019-05-01T10:11:31Z</time>
      </trkpt>
      <trkpt lat="45.80157" lon="5.4113">
        <ele>222.5</ele>
        <time>2019-05-01T10:11:32Z</time>
      </trkpt>
      <trkpt lat="45.80185" lon="5.41096">
        <ele>222.7</ele>
        <time>2019-05-01T10:11:38Z</time>
      </trkpt>
      <trkpt lat="45.8021" lon="5.41067">
        <ele>223.4</ele>
        <time>2019-05-01T10:11:43Z</time>
      </trkpt>
      <trkpt lat="45.8022" lon="5.41059">
        <ele>223.5</ele>
        <time>2019-05-01T10:11:45Z</time>
      </trkpt>
      <trkpt lat="45.8023" lon="5.41052">
        <ele>223.7</ele>
        <time>2019-05-01T10:11:47Z</time>
      </trkpt>
      <trkpt lat="45.8025" lon="5.41038">
        <ele>223.6</ele>
        <time>2019-05-01T10:11:51Z</time>
      </trkpt>
      <trkpt lat="45.8027" lon="5.41025">
        <ele>223.5</ele>
        <time>2019-05-01T10:11:56Z</time>
      </trkpt>
      <trkpt lat="45.80296" lon="5.41004">
        <ele>223.3</ele>
        <time>2019-05-01T10:12:01Z</time>
      </trkpt>
      <trkpt lat="45.8033" lon="5.40981">
        <ele>223</ele>
        <time>2019-05-01T10:12:07Z</time>
      </trkpt>
      <trkpt lat="45.80335" lon="5.40977">
        <ele>222.9</ele>
        <time>2019-05-01T10:12:08Z</time>
      </trkpt>
      <trkpt lat="45.80357" lon="5.40959">
        <ele>222.8</ele>
        <time>2019-05-01T10:12:12Z</time>
      </trkpt>
      <trkpt lat="45.80366" lon="5.40944">
        <ele>222.8</ele>
        <time>2019-05-01T10:12:14Z</time>
      </trkpt>
      <trkpt lat="45.80374" lon="5.40928">
        <ele>222.8</ele>
        <time>2019-05-01T10:12:16Z</time>
      </trkpt>
      <trkpt lat="45.80382" lon="5.40912">
        <ele>222.9</ele>
        <time>2019-05-01T10:12:18Z</time>
      </trkpt>
      <trkpt lat="45.80389" lon="5.40901">
        <ele>223</ele>
        <time>2019-05-01T10:12:20Z</time>
      </trkpt>
      <trkpt lat="45.80393" lon="5.409">
        <ele>223</ele>
        <time>2019-05-01T10:12:22Z</time>
      </trkpt>
      <trkpt lat="45.80395" lon="5.40902">
        <ele>223</ele>
        <time>2019-05-01T10:12:23Z</time>
      </trkpt>
      <trkpt lat="45.804" lon="5.40909">
        <ele>223</ele>
        <time>2019-05-01T10:12:25Z</time>
      </trkpt>
      <trkpt lat="45.80406" lon="5.40917">
        <ele>223</ele>
        <time>2019-05-01T10:12:27Z</time>
      </trkpt>
      <trkpt lat="45.8041" lon="5.4092">
        <ele>223</ele>
        <time>2019-05-01T10:12:28Z</time>
      </trkpt>
      <trkpt lat="45.8042" lon="5.40931">
        <ele>222.9</ele>
        <time>2019-05-01T10:12:31Z</time>
      </trkpt>
      <trkpt lat="45.80437" lon="5.40943">
        <ele>222.8</ele>
        <time>2019-05-01T10:12:36Z</time>
      </trkpt>
      <trkpt lat="45.80441" lon="5.40945">
        <ele>222.7</ele>
        <time>2019-05-01T10:12:37Z</time>
      </trkpt>
      <trkpt lat="45.80445" lon="5.40949">
        <ele>222.6</ele>
        <time>2019-05-01T10:12:38Z</time>
      </trkpt>
      <trkpt lat="45.80458" lon="5.40957">
        <ele>222.1</ele>
        <time>2019-05-01T10:12:41Z</time>
      </trkpt>
      <trkpt lat="45.80462" lon="5.4096">
        <ele>221.9</ele>
        <time>2019-05-01T10:12:42Z</time>
      </trkpt>
      <trkpt lat="45.80475" lon="5.40969">
        <ele>221.3</ele>
        <time>2019-05-01T10:12:45Z</time>
      </trkpt>
      <trkpt lat="45.80494" lon="5.40982">
        <ele>221</ele>
        <time>2019-05-01T10:12:49Z</time>
      </trkpt>
      <trkpt lat="45.80505" lon="5.4099">
        <ele>221</ele>
        <time>2019-05-01T10:12:51Z</time>
      </trkpt>
      <trkpt lat="45.80523" lon="5.41008">
        <ele>220.9</ele>
        <time>2019-05-01T10:12:54Z</time>
      </trkpt>
      <trkpt lat="45.8054" lon="5.41042">
        <ele>220.4</ele>
        <time>2019-05-01T10:12:58Z</time>
      </trkpt>
      <trkpt lat="45.80546" lon="5.41063">
        <ele>219.7</ele>
        <time>2019-05-01T10:13:00Z</time>
      </trkpt>
      <trkpt lat="45.80551" lon="5.41084">
        <ele>219.3</ele>
        <time>2019-05-01T10:13:02Z</time>
      </trkpt>
      <trkpt lat="45.80554" lon="5.41094">
        <ele>219.1</ele>
        <time>2019-05-01T10:13:03Z</time>
      </trkpt>
      <trkpt lat="45.80558" lon="5.41105">
        <ele>219</ele>
        <time>2019-05-01T10:13:04Z</time>
      </trkpt>
      <trkpt lat="45.80561" lon="5.41115">
        <ele>219</ele>
        <time>2019-05-01T10:13:05Z</time>
      </trkpt>
      <trkpt lat="45.80567" lon="5.41134">
        <ele>218.9</ele>
        <time>2019-05-01T10:13:07Z</time>
      </trkpt>
      <trkpt lat="45.80569" lon="5.41141">
        <ele>218.9</ele>
        <time>2019-05-01T10:13:08Z</time>
      </trkpt>
      <trkpt lat="45.8057" lon="5.4115">
        <ele>219</ele>
        <time>2019-05-01T10:13:10Z</time>
      </trkpt>
      <trkpt lat="45.80571" lon="5.41152">
        <ele>219</ele>
        <time>2019-05-01T10:13:11Z</time>
      </trkpt>
      <trkpt lat="45.80571" lon="5.41155">
        <ele>219</ele>
        <time>2019-05-01T10:13:12Z</time>
      </trkpt>
      <trkpt lat="45.80577" lon="5.41168">
        <ele>217.6</ele>
        <time>2019-05-01T10:13:15Z</time>
      </trkpt>
      <trkpt lat="45.80577" lon="5.41183">
        <ele>214.9</ele>
        <time>2019-05-01T10:13:17Z</time>
      </trkpt>
      <trkpt lat="45.80577" lon="5.41192">
        <ele>213.6</ele>
        <time>2019-05-01T10:13:18Z</time>
      </trkpt>
      <trkpt lat="45.80578" lon="5.41241">
        <ele>211.8</ele>
        <time>2019-05-01T10:13:23Z</time>
      </trkpt>
      <trkpt lat="45.80576" lon="5.413">
        <ele>209.7</ele>
        <time>2019-05-01T10:13:28Z</time>
      </trkpt>
      <trkpt lat="45.80572" lon="5.41385">
        <ele>213.1</ele>
        <time>2019-05-01T10:13:36Z</time>
      </trkpt>
      <trkpt lat="45.80572" lon="5.41426">
        <ele>216.8</ele>
        <time>2019-05-01T10:13:41Z</time>
      </trkpt>
      <trkpt lat="45.80573" lon="5.4143">
        <ele>216.7</ele>
        <time>2019-05-01T10:13:42Z</time>
      </trkpt>
      <trkpt lat="45.80583" lon="5.41436">
        <ele>216.5</ele>
        <time>2019-05-01T10:13:45Z</time>
      </trkpt>
      <trkpt lat="45.80586" lon="5.41437">
        <ele>216.4</ele>
        <time>2019-05-01T10:13:46Z</time>
      </trkpt>
      <trkpt lat="45.80596" lon="5.41439">
        <ele>216.3</ele>
        <time>2019-05-01T10:13:48Z</time>
      </trkpt>
      <trkpt lat="45.80607" lon="5.41439">
        <ele>216.2</ele>
        <time>2019-05-01T10:13:50Z</time>
      </trkpt>
      <trkpt lat="45.80619" lon="5.41436">
        <ele>216.1</ele>
        <time>2019-05-01T10:13:52Z</time>
      </trkpt>
      <trkpt lat="45.8063" lon="5.41431">
        <ele>216</ele>
        <time>2019-05-01T10:13:54Z</time>
      </trkpt>
      <trkpt lat="45.80636" lon="5.41428">
        <ele>215.9</ele>
        <time>2019-05-01T10:13:55Z</time>
      </trkpt>
      <trkpt lat="45.80647" lon="5.4142">
        <ele>215.9</ele>
        <time>2019-05-01T10:13:57Z</time>
      </trkpt>
      <trkpt lat="45.80659" lon="5.41414">
        <ele>215.9</ele>
        <time>2019-05-01T10:13:59Z</time>
      </trkpt>
      <trkpt lat="45.80664" lon="5.41417">
        <ele>215.6</ele>
        <time>2019-05-01T10:14:00Z</time>
      </trkpt>
      <trkpt lat="45.80667" lon="5.41426">
        <ele>215.4</ele>
        <time>2019-05-01T10:14:01Z</time>
      </trkpt>
      <trkpt lat="45.80669" lon="5.41434">
        <ele>215.2</ele>
        <time>2019-05-01T10:14:02Z</time>
      </trkpt>
      <trkpt lat="45.80671" lon="5.41442">
        <ele>215.1</ele>
        <time>2019-05-01T10:14:03Z</time>
      </trkpt>
      <trkpt lat="45.80687" lon="5.41481">
        <ele>214.9</ele>
        <time>2019-05-01T10:14:07Z</time>
      </trkpt>
      <trkpt lat="45.80703" lon="5.41523">
        <ele>214.8</ele>
        <time>2019-05-01T10:14:11Z</time>
      </trkpt>
      <trkpt lat="45.80711" lon="5.41542">
        <ele>214.7</ele>
        <time>2019-05-01T10:14:13Z</time>
      </trkpt>
      <trkpt lat="45.80742" lon="5.41616">
        <ele>214.4</ele>
        <time>2019-05-01T10:14:21Z</time>
      </trkpt>
      <trkpt lat="45.80749" lon="5.41633">
        <ele>214.3</ele>
        <time>2019-05-01T10:14:23Z</time>
      </trkpt>
      <trkpt lat="45.80767" lon="5.41675">
        <ele>214.3</ele>
        <time>2019-05-01T10:14:28Z</time>
      </trkpt>
      <trkpt lat="45.80795" lon="5.41749">
        <ele>214.4</ele>
        <time>2019-05-01T10:14:36Z</time>
      </trkpt>
      <trkpt lat="45.80824" lon="5.4182">
        <ele>214.1</ele>
        <time>2019-05-01T10:14:44Z</time>
      </trkpt>
      <trkpt lat="45.80827" lon="5.41828">
        <ele>214.1</ele>
        <time>2019-05-01T10:14:45Z</time>
      </trkpt>
      <trkpt lat="45.80834" lon="5.41843">
        <ele>214.1</ele>
        <time>2019-05-01T10:14:47Z</time>
      </trkpt>
      <trkpt lat="45.80843" lon="5.4185">
        <ele>214.1</ele>
        <time>2019-05-01T10:14:49Z</time>
      </trkpt>
      <trkpt lat="45.80855" lon="5.41842">
        <ele>214.1</ele>
        <time>2019-05-01T10:14:51Z</time>
      </trkpt>
      <trkpt lat="45.80862" lon="5.41838">
        <ele>214.1</ele>
        <time>2019-05-01T10:14:52Z</time>
      </trkpt>
      <trkpt lat="45.80882" lon="5.4182">
        <ele>214.2</ele>
        <time>2019-05-01T10:14:55Z</time>
      </trkpt>
      <trkpt lat="45.80896" lon="5.4181">
        <ele>214.2</ele>
        <time>2019-05-01T10:14:57Z</time>
      </trkpt>
      <trkpt lat="45.80941" lon="5.41777">
        <ele>213.6</ele>
        <time>2019-05-01T10:15:04Z</time>
      </trkpt>
      <trkpt lat="45.80959" lon="5.41761">
        <ele>213.4</ele>
        <time>2019-05-01T10:15:07Z</time>
      </trkpt>
      <trkpt lat="45.80977" lon="5.41746">
        <ele>213.4</ele>
        <time>2019-05-01T10:15:10Z</time>
      </trkpt>
      <trkpt lat="45.81032" lon="5.41708">
        <ele>213.6</ele>
        <time>2019-05-01T10:15:18Z</time>
      </trkpt>
      <trkpt lat="45.81039" lon="5.41704">
        <ele>213.6</ele>
        <time>2019-05-01T10:15:19Z</time>
      </trkpt>
      <trkpt lat="45.81094" lon="5.41666">
        <ele>213.7</ele>
        <time>2019-05-01T10:15:27Z</time>
      </trkpt>
      <trkpt lat="45.81102" lon="5.41662">
        <ele>213.8</ele>
        <time>2019-05-01T10:15:28Z</time>
      </trkpt>
      <trkpt lat="45.81149" lon="5.41632">
        <ele>213.9</ele>
        <time>2019-05-01T10:15:34Z</time>
      </trkpt>
      <trkpt lat="45.81157" lon="5.41627">
        <ele>213.9</ele>
        <time>2019-05-01T10:15:35Z</time>
      </trkpt>
      <trkpt lat="45.81208" lon="5.41599">
        <ele>214</ele>
        <time>2019-05-01T10:15:41Z</time>
      </trkpt>
      <trkpt lat="45.81225" lon="5.4159">
        <ele>214.1</ele>
        <time>2019-05-01T10:15:43Z</time>
      </trkpt>
      <trkpt lat="45.81273" lon="5.41564">
        <ele>213.3</ele>
        <time>2019-05-01T10:15:49Z</time>
      </trkpt>
      <trkpt lat="45.81318" lon="5.4153">
        <ele>213.2</ele>
        <time>2019-05-01T10:15:55Z</time>
      </trkpt>
      <trkpt lat="45.81369" lon="5.41489">
        <ele>212.5</ele>
        <time>2019-05-01T10:16:02Z</time>
      </trkpt>
      <trkpt lat="45.81376" lon="5.41483">
        <ele>212.5</ele>
        <time>2019-05-01T10:16:03Z</time>
      </trkpt>
      <trkpt lat="45.81384" lon="5.41477">
        <ele>212.4</ele>
        <time>2019-05-01T10:16:04Z</time>
      </trkpt>
      <trkpt lat="45.81412" lon="5.41454">
        <ele>211.8</ele>
        <time>2019-05-01T10:16:08Z</time>
      </trkpt>
      <trkpt lat="45.81448" lon="5.41425">
        <ele>210.4</ele>
        <time>2019-05-01T10:16:13Z</time>
      </trkpt>
      <trkpt lat="45.81468" lon="5.41402">
        <ele>209.4</ele>
        <time>2019-05-01T10:16:16Z</time>
      </trkpt>
      <trkpt lat="45.81473" lon="5.41391">
        <ele>208.9</ele>
        <time>2019-05-01T10:16:17Z</time>
      </trkpt>
      <trkpt lat="45.81479" lon="5.4138">
        <ele>208.5</ele>
        <time>2019-05-01T10:16:18Z</time>
      </trkpt>
      <trkpt lat="45.81483" lon="5.41367">
        <ele>208.2</ele>
        <time>2019-05-01T10:16:19Z</time>
      </trkpt>
      <trkpt lat="45.81486" lon="5.41352">
        <ele>207.9</ele>
        <time>2019-05-01T10:16:20Z</time>
      </trkpt>
      <trkpt lat="45.81486" lon="5.41336">
        <ele>207.7</ele>
        <time>2019-05-01T10:16:21Z</time>
      </trkpt>
      <trkpt lat="45.81487" lon="5.41321">
        <ele>207.5</ele>
        <time>2019-05-01T10:16:22Z</time>
      </trkpt>
      <trkpt lat="45.81488" lon="5.41291">
        <ele>207</ele>
        <time>2019-05-01T10:16:24Z</time>
      </trkpt>
      <trkpt lat="45.81488" lon="5.4125">
        <ele>207</ele>
        <time>2019-05-01T10:16:27Z</time>
      </trkpt>
      <trkpt lat="45.81491" lon="5.41227">
        <ele>207.1</ele>
        <time>2019-05-01T10:16:29Z</time>
      </trkpt>
      <trkpt lat="45.8149" lon="5.41216">
        <ele>207.3</ele>
        <time>2019-05-01T10:16:30Z</time>
      </trkpt>
      <trkpt lat="45.81478" lon="5.4119">
        <ele>207.7</ele>
        <time>2019-05-01T10:16:33Z</time>
      </trkpt>
      <trkpt lat="45.81468" lon="5.41177">
        <ele>208</ele>
        <time>2019-05-01T10:16:35Z</time>
      </trkpt>
      <trkpt lat="45.81453" lon="5.41159">
        <ele>208.5</ele>
        <time>2019-05-01T10:16:38Z</time>
      </trkpt>
      <trkpt lat="45.8143" lon="5.41125">
        <ele>209</ele>
        <time>2019-05-01T10:16:44Z</time>
      </trkpt>
      <trkpt lat="45.81428" lon="5.41119">
        <ele>209.1</ele>
        <time>2019-05-01T10:16:45Z</time>
      </trkpt>
      <trkpt lat="45.81423" lon="5.41101">
        <ele>209.2</ele>
        <time>2019-05-01T10:16:48Z</time>
      </trkpt>
      <trkpt lat="45.81426" lon="5.41098">
        <ele>209.2</ele>
        <time>2019-05-01T10:16:49Z</time>
      </trkpt>
      <trkpt lat="45.8143" lon="5.41103">
        <ele>209.2</ele>
        <time>2019-05-01T10:16:51Z</time>
      </trkpt>
      <trkpt lat="45.81434" lon="5.41111">
        <ele>209.1</ele>
        <time>2019-05-01T10:16:53Z</time>
      </trkpt>
      <trkpt lat="45.8144" lon="5.41122">
        <ele>209</ele>
        <time>2019-05-01T10:16:55Z</time>
      </trkpt>
      <trkpt lat="45.81457" lon="5.4115">
        <ele>208.6</ele>
        <time>2019-05-01T10:16:59Z</time>
      </trkpt>
      <trkpt lat="45.81469" lon="5.41158">
        <ele>208.4</ele>
        <time>2019-05-01T10:17:01Z</time>
      </trkpt>
      <trkpt lat="45.81476" lon="5.41159">
        <ele>208.3</ele>
        <time>2019-05-01T10:17:02Z</time>
      </trkpt>
      <trkpt lat="45.81489" lon="5.41158">
        <ele>208</ele>
        <time>2019-05-01T10:17:04Z</time>
      </trkpt>
      <trkpt lat="45.81503" lon="5.41159">
        <ele>207.8</ele>
        <time>2019-05-01T10:17:06Z</time>
      </trkpt>
      <trkpt lat="45.81518" lon="5.41159">
        <ele>207.6</ele>
        <time>2019-05-01T10:17:08Z</time>
      </trkpt>
      <trkpt lat="45.81546" lon="5.41166">
        <ele>207.1</ele>
        <time>2019-05-01T10:17:12Z</time>
      </trkpt>
      <trkpt lat="45.81599" lon="5.41184">
        <ele>206.5</ele>
        <time>2019-05-01T10:17:19Z</time>
      </trkpt>
      <trkpt lat="45.81631" lon="5.41202">
        <ele>206.6</ele>
        <time>2019-05-01T10:17:24Z</time>
      </trkpt>
      <trkpt lat="45.81642" lon="5.41211">
        <ele>206.9</ele>
        <time>2019-05-01T10:17:26Z</time>
      </trkpt>
      <trkpt lat="45.81646" lon="5.41217">
        <ele>206.9</ele>
        <time>2019-05-01T10:17:27Z</time>
      </trkpt>
      <trkpt lat="45.8165" lon="5.41235">
        <ele>206.7</ele>
        <time>2019-05-01T10:17:29Z</time>
      </trkpt>
      <trkpt lat="45.81664" lon="5.41292">
        <ele>206.1</ele>
        <time>2019-05-01T10:17:35Z</time>
      </trkpt>
      <trkpt lat="45.81674" lon="5.41331">
        <ele>205.7</ele>
        <time>2019-05-01T10:17:39Z</time>
      </trkpt>
      <trkpt lat="45.8168" lon="5.4136">
        <ele>205.2</ele>
        <time>2019-05-01T10:17:42Z</time>
      </trkpt>
      <trkpt lat="45.81692" lon="5.41407">
        <ele>203.9</ele>
        <time>2019-05-01T10:17:47Z</time>
      </trkpt>
      <trkpt lat="45.81698" lon="5.41425">
        <ele>203.7</ele>
        <time>2019-05-01T10:17:49Z</time>
      </trkpt>
      <trkpt lat="45.81711" lon="5.4148">
        <ele>203.9</ele>
        <time>2019-05-01T10:17:54Z</time>
      </trkpt>
      <trkpt lat="45.81714" lon="5.41503">
        <ele>204.2</ele>
        <time>2019-05-01T10:17:56Z</time>
      </trkpt>
      <trkpt lat="45.81716" lon="5.41535">
        <ele>203.5</ele>
        <time>2019-05-01T10:17:59Z</time>
      </trkpt>
      <trkpt lat="45.81719" lon="5.4157">
        <ele>203</ele>
        <time>2019-05-01T10:18:02Z</time>
      </trkpt>
      <trkpt lat="45.81722" lon="5.41581">
        <ele>202.9</ele>
        <time>2019-05-01T10:18:03Z</time>
      </trkpt>
      <trkpt lat="45.81741" lon="5.41609">
        <ele>202.4</ele>
        <time>2019-05-01T10:18:06Z</time>
      </trkpt>
      <trkpt lat="45.81748" lon="5.41617">
        <ele>202.3</ele>
        <time>2019-05-01T10:18:07Z</time>
      </trkpt>
      <trkpt lat="45.81761" lon="5.41632">
        <ele>201.6</ele>
        <time>2019-05-01T10:18:09Z</time>
      </trkpt>
      <trkpt lat="45.81772" lon="5.4165">
        <ele>201</ele>
        <time>2019-05-01T10:18:11Z</time>
      </trkpt>
      <trkpt lat="45.81775" lon="5.41673">
        <ele>200.9</ele>
        <time>2019-05-01T10:18:13Z</time>
      </trkpt>
      <trkpt lat="45.81779" lon="5.41695">
        <ele>200.8</ele>
        <time>2019-05-01T10:18:15Z</time>
      </trkpt>
      <trkpt lat="45.81788" lon="5.4171">
        <ele>200.3</ele>
        <time>2019-05-01T10:18:17Z</time>
      </trkpt>
      <trkpt lat="45.81798" lon="5.41723">
        <ele>200.5</ele>
        <time>2019-05-01T10:18:19Z</time>
      </trkpt>
      <trkpt lat="45.81801" lon="5.41729">
        <ele>200.6</ele>
        <time>2019-05-01T10:18:20Z</time>
      </trkpt>
      <trkpt lat="45.81805" lon="5.41735">
        <ele>200.8</ele>
        <time>2019-05-01T10:18:21Z</time>
      </trkpt>
      <trkpt lat="45.81824" lon="5.41759">
        <ele>201.2</ele>
        <time>2019-05-01T10:18:25Z</time>
      </trkpt>
      <trkpt lat="45.8184" lon="5.41795">
        <ele>201.3</ele>
        <time>2019-05-01T10:18:30Z</time>
      </trkpt>
      <trkpt lat="45.81864" lon="5.41843">
        <ele>201.1</ele>
        <time>2019-05-01T10:18:37Z</time>
      </trkpt>
      <trkpt lat="45.81873" lon="5.41867">
        <ele>200.8</ele>
        <time>2019-05-01T10:18:40Z</time>
      </trkpt>
      <trkpt lat="45.81883" lon="5.41878">
        <ele>200.8</ele>
        <time>2019-05-01T10:18:42Z</time>
      </trkpt>
      <trkpt lat="45.81907" lon="5.4189">
        <ele>201.2</ele>
        <time>2019-05-01T10:18:46Z</time>
      </trkpt>
      <trkpt lat="45.81919" lon="5.41893">
        <ele>200.9</ele>
        <time>2019-05-01T10:18:48Z</time>
      </trkpt>
      <trkpt lat="45.81935" lon="5.41898">
        <ele>200.3</ele>
        <time>2019-05-01T10:18:51Z</time>
      </trkpt>
      <trkpt lat="45.81972" lon="5.41908">
        <ele>201.4</ele>
        <time>2019-05-01T10:18:58Z</time>
      </trkpt>
      <trkpt lat="45.8201" lon="5.4192">
        <ele>200.3</ele>
        <time>2019-05-01T10:19:05Z</time>
      </trkpt>
      <trkpt lat="45.82046" lon="5.41931">
        <ele>199.7</ele>
        <time>2019-05-01T10:19:12Z</time>
      </trkpt>
      <trkpt lat="45.82051" lon="5.41934">
        <ele>199.8</ele>
        <time>2019-05-01T10:19:13Z</time>
      </trkpt>
      <trkpt lat="45.82066" lon="5.41946">
        <ele>200</ele>
        <time>2019-05-01T10:19:16Z</time>
      </trkpt>
      <trkpt lat="45.82071" lon="5.4195">
        <ele>199.9</ele>
        <time>2019-05-01T10:19:17Z</time>
      </trkpt>
      <trkpt lat="45.82075" lon="5.41952">
        <ele>199.5</ele>
        <time>2019-05-01T10:19:18Z</time>
      </trkpt>
      <trkpt lat="45.82085" lon="5.41953">
        <ele>199</ele>
        <time>2019-05-01T10:19:20Z</time>
      </trkpt>
      <trkpt lat="45.82107" lon="5.41955">
        <ele>197.7</ele>
        <time>2019-05-01T10:19:24Z</time>
      </trkpt>
      <trkpt lat="45.82119" lon="5.41961">
        <ele>197.8</ele>
        <time>2019-05-01T10:19:26Z</time>
      </trkpt>
      <trkpt lat="45.82133" lon="5.41967">
        <ele>197.8</ele>
        <time>2019-05-01T10:19:28Z</time>
      </trkpt>
      <trkpt lat="45.82152" lon="5.41982">
        <ele>198.2</ele>
        <time>2019-05-01T10:19:31Z</time>
      </trkpt>
      <trkpt lat="45.82159" lon="5.41982">
        <ele>198.7</ele>
        <time>2019-05-01T10:19:32Z</time>
      </trkpt>
      <trkpt lat="45.82169" lon="5.41971">
        <ele>199.7</ele>
        <time>2019-05-01T10:19:34Z</time>
      </trkpt>
      <trkpt lat="45.82179" lon="5.41961">
        <ele>200.7</ele>
        <time>2019-05-01T10:19:36Z</time>
      </trkpt>
      <trkpt lat="45.82198" lon="5.41943">
        <ele>203.2</ele>
        <time>2019-05-01T10:19:40Z</time>
      </trkpt>
      <trkpt lat="45.82203" lon="5.41941">
        <ele>204</ele>
        <time>2019-05-01T10:19:41Z</time>
      </trkpt>
      <trkpt lat="45.82213" lon="5.41948">
        <ele>205.4</ele>
        <time>2019-05-01T10:19:43Z</time>
      </trkpt>
      <trkpt lat="45.82223" lon="5.41958">
        <ele>204.7</ele>
        <time>2019-05-01T10:19:45Z</time>
      </trkpt>
      <trkpt lat="45.82238" lon="5.41976">
        <ele>203.3</ele>
        <time>2019-05-01T10:19:48Z</time>
      </trkpt>
      <trkpt lat="45.82257" lon="5.42001">
        <ele>201</ele>
        <time>2019-05-01T10:19:52Z</time>
      </trkpt>
      <trkpt lat="45.82261" lon="5.42018">
        <ele>200</ele>
        <time>2019-05-01T10:19:54Z</time>
      </trkpt>
      <trkpt lat="45.82275" lon="5.42027">
        <ele>198.8</ele>
        <time>2019-05-01T10:19:57Z</time>
      </trkpt>
      <trkpt lat="45.82294" lon="5.42019">
        <ele>197.4</ele>
        <time>2019-05-01T10:20:01Z</time>
      </trkpt>
      <trkpt lat="45.82299" lon="5.42019">
        <ele>197.5</ele>
        <time>2019-05-01T10:20:02Z</time>
      </trkpt>
      <trkpt lat="45.82314" lon="5.42021">
        <ele>197.6</ele>
        <time>2019-05-01T10:20:05Z</time>
      </trkpt>
      <trkpt lat="45.82318" lon="5.42021">
        <ele>197.7</ele>
        <time>2019-05-01T10:20:06Z</time>
      </trkpt>
      <trkpt lat="45.82332" lon="5.42026">
        <ele>197.8</ele>
        <time>2019-05-01T10:20:09Z</time>
      </trkpt>
      <trkpt lat="45.82341" lon="5.42032">
        <ele>197.9</ele>
        <time>2019-05-01T10:20:11Z</time>
      </trkpt>
      <trkpt lat="45.82359" lon="5.42044">
        <ele>198.1</ele>
        <time>2019-05-01T10:20:15Z</time>
      </trkpt>
      <trkpt lat="45.82367" lon="5.42049">
        <ele>198.2</ele>
        <time>2019-05-01T10:20:17Z</time>
      </trkpt>
      <trkpt lat="45.8237" lon="5.42053">
        <ele>198.2</ele>
        <time>2019-05-01T10:20:18Z</time>
      </trkpt>
      <trkpt lat="45.82384" lon="5.42067">
        <ele>198.4</ele>
        <time>2019-05-01T10:20:22Z</time>
      </trkpt>
      <trkpt lat="45.82387" lon="5.4207">
        <ele>198.4</ele>
        <time>2019-05-01T10:20:23Z</time>
      </trkpt>
      <trkpt lat="45.82406" lon="5.42093">
        <ele>199</ele>
        <time>2019-05-01T10:20:30Z</time>
      </trkpt>
      <trkpt lat="45.8242" lon="5.42101">
        <ele>199.4</ele>
        <time>2019-05-01T10:20:36Z</time>
      </trkpt>
    </trkseg>
  </trk>
</gpx>